<?xml version='1.0' encoding='UTF-8'?><gpx version="1.1" creator="JPX - https://github.com/jenetics/jpx" xmlns="http://www.topografix.com/GPX/1/1"><trk><trkseg><trkpt lat="43.0113402" lon="11.6137951"><ele>515.0</ele><time>2026-05-02T13:26:57.526Z</time></trkpt><trkpt lat="43.0113022" lon="11.6136914"><ele>515.0</ele><time>2026-05-02T13:27:02.712Z</time></trkpt><trkpt lat="43.0112437" lon="11.6136088"><ele>515.0</ele><time>2026-05-02T13:27:05.556Z</time></trkpt><trkpt lat="43.0111873" lon="11.6135623"><ele>515.0</ele><time>2026-05-02T13:27:07.569Z</time></trkpt><trkpt lat="43.0111288" lon="11.6135166"><ele>515.0</ele><time>2026-05-02T13:27:09.591Z</time></trkpt><trkpt lat="43.0110843" lon="11.6134543"><ele>515.0</ele><time>2026-05-02T13:27:11.506Z</time></trkpt><trkpt lat="43.0110502" lon="11.613369"><ele>515.0</ele><time>2026-05-02T13:27:13.515Z</time></trkpt><trkpt lat="43.0109953" lon="11.6133125"><ele>514.0</ele><time>2026-05-02T13:27:15.524Z</time></trkpt><trkpt lat="43.0109377" lon="11.6132597"><ele>513.0</ele><time>2026-05-02T13:27:17.55Z</time></trkpt><trkpt lat="43.0108712" lon="11.6132136"><ele>512.0</ele><time>2026-05-02T13:27:19.613Z</time></trkpt><trkpt lat="43.0108122" lon="11.6131618"><ele>511.0</ele><time>2026-05-02T13:27:21.694Z</time></trkpt><trkpt lat="43.0107482" lon="11.6131296"><ele>509.99999999999994</ele><time>2026-05-02T13:27:23.814Z</time></trkpt><trkpt lat="43.0106543" lon="11.6130351"><ele>509.0</ele><time>2026-05-02T13:27:27.828Z</time></trkpt><trkpt lat="43.0106072" lon="11.6129358"><ele>508.99999999999994</ele><time>2026-05-02T13:27:31.323Z</time></trkpt><trkpt lat="43.0105547" lon="11.6128788"><ele>509.0</ele><time>2026-05-02T13:27:33.786Z</time></trkpt><trkpt lat="43.010506" lon="11.6128031"><ele>509.0</ele><time>2026-05-02T13:27:36.519Z</time></trkpt><trkpt lat="43.0104574" lon="11.6127188"><ele>509.0</ele><time>2026-05-02T13:27:38.598Z</time></trkpt><trkpt lat="43.0104008" lon="11.6126502"><ele>508.99999999999994</ele><time>2026-05-02T13:27:40.651Z</time></trkpt><trkpt lat="43.0103396" lon="11.6126242"><ele>509.0</ele><time>2026-05-02T13:27:43.236Z</time></trkpt><trkpt lat="43.0102105" lon="11.6126468"><ele>502.4</ele><time>2026-05-02T13:27:46.536Z</time></trkpt><trkpt lat="43.0101303" lon="11.6126754"><ele>495.79999999999995</ele><time>2026-05-02T13:27:48.524Z</time></trkpt><trkpt lat="43.0100551" lon="11.6126964"><ele>489.20000000000005</ele><time>2026-05-02T13:27:50.52Z</time></trkpt><trkpt lat="43.0099714" lon="11.6127009"><ele>482.6</ele><time>2026-05-02T13:27:52.551Z</time></trkpt><trkpt lat="43.0098995" lon="11.6127384"><ele>476.0</ele><time>2026-05-02T13:28:00.943Z</time></trkpt><trkpt lat="43.0097656" lon="11.6127487"><ele>475.5</ele><time>2026-05-02T13:28:04.476Z</time></trkpt><trkpt lat="43.0096755" lon="11.6127168"><ele>475.0</ele><time>2026-05-02T13:28:05.789Z</time></trkpt><trkpt lat="43.0095111" lon="11.6127107"><ele>474.5</ele><time>2026-05-02T13:28:09.117Z</time></trkpt><trkpt lat="43.0093951" lon="11.6126834"><ele>474.0</ele><time>2026-05-02T13:28:10.537Z</time></trkpt><trkpt lat="43.0092775" lon="11.6126232"><ele>474.0</ele><time>2026-05-02T13:28:12.526Z</time></trkpt><trkpt lat="43.009221" lon="11.6125845"><ele>474.0</ele><time>2026-05-02T13:28:13.52Z</time></trkpt><trkpt lat="43.0091094" lon="11.6125053"><ele>474.0</ele><time>2026-05-02T13:28:15.521Z</time></trkpt><trkpt lat="43.0090139" lon="11.6124459"><ele>474.0</ele><time>2026-05-02T13:28:17.563Z</time></trkpt><trkpt lat="43.0089446" lon="11.6123896"><ele>474.0</ele><time>2026-05-02T13:28:19.616Z</time></trkpt><trkpt lat="43.0088887" lon="11.6123163"><ele>474.6</ele><time>2026-05-02T13:28:21.673Z</time></trkpt><trkpt lat="43.0088257" lon="11.6122729"><ele>475.2</ele><time>2026-05-02T13:28:24.531Z</time></trkpt><trkpt lat="43.0087629" lon="11.6123022"><ele>475.80000000000007</ele><time>2026-05-02T13:29:18.48Z</time></trkpt><trkpt lat="43.0087069" lon="11.6123704"><ele>476.40000000000003</ele><time>2026-05-02T13:29:20.509Z</time></trkpt><trkpt lat="43.0086011" lon="11.612509"><ele>477.0</ele><time>2026-05-02T13:29:22.885Z</time></trkpt><trkpt lat="43.0084765" lon="11.6126267"><ele>477.0</ele><time>2026-05-02T13:29:25.525Z</time></trkpt><trkpt lat="43.0083931" lon="11.6127351"><ele>477.00000000000006</ele><time>2026-05-02T13:29:27.536Z</time></trkpt><trkpt lat="43.0083144" lon="11.612818"><ele>477.00000000000006</ele><time>2026-05-02T13:29:29.533Z</time></trkpt><trkpt lat="43.0082361" lon="11.612876"><ele>477.0</ele><time>2026-05-02T13:29:31.547Z</time></trkpt><trkpt lat="43.0081598" lon="11.6129576"><ele>477.0</ele><time>2026-05-02T13:29:33.531Z</time></trkpt><trkpt lat="43.0080732" lon="11.6130395"><ele>480.40000000000003</ele><time>2026-05-02T13:29:35.565Z</time></trkpt><trkpt lat="43.0079968" lon="11.6131429"><ele>483.80000000000007</ele><time>2026-05-02T13:29:37.647Z</time></trkpt><trkpt lat="43.0079637" lon="11.6132162"><ele>487.2</ele><time>2026-05-02T13:29:38.694Z</time></trkpt><trkpt lat="43.0079559" lon="11.6133051"><ele>490.6</ele><time>2026-05-02T13:29:39.755Z</time></trkpt><trkpt lat="43.0079336" lon="11.6134903"><ele>494.0</ele><time>2026-05-02T13:29:41.539Z</time></trkpt><trkpt lat="43.0079159" lon="11.6136595"><ele>498.25</ele><time>2026-05-02T13:29:43.562Z</time></trkpt><trkpt lat="43.0078745" lon="11.613803"><ele>502.5</ele><time>2026-05-02T13:29:45.615Z</time></trkpt><trkpt lat="43.0078491" lon="11.6139492"><ele>506.75</ele><time>2026-05-02T13:29:47.569Z</time></trkpt><trkpt lat="43.0078193" lon="11.6140881"><ele>511.0</ele><time>2026-05-02T13:29:49.92Z</time></trkpt><trkpt lat="43.0077152" lon="11.6142491"><ele>511.00000000000006</ele><time>2026-05-02T13:29:52.534Z</time></trkpt><trkpt lat="43.007626" lon="11.6142932"><ele>511.0</ele><time>2026-05-02T13:29:54.612Z</time></trkpt><trkpt lat="43.007564" lon="11.614269"><ele>511.0</ele><time>2026-05-02T13:29:56.855Z</time></trkpt><trkpt lat="43.0074977" lon="11.6142255"><ele>511.0</ele><time>2026-05-02T13:29:58.618Z</time></trkpt><trkpt lat="43.0073951" lon="11.6142042"><ele>511.00000000000006</ele><time>2026-05-02T13:30:00.526Z</time></trkpt><trkpt lat="43.0072873" lon="11.6142026"><ele>511.0</ele><time>2026-05-02T13:30:02.529Z</time></trkpt><trkpt lat="43.0072195" lon="11.6141959"><ele>511.50000000000006</ele><time>2026-05-02T13:30:03.537Z</time></trkpt><trkpt lat="43.0071412" lon="11.6141897"><ele>512.0</ele><time>2026-05-02T13:30:04.551Z</time></trkpt><trkpt lat="43.0070694" lon="11.6141703"><ele>512.5</ele><time>2026-05-02T13:30:05.585Z</time></trkpt><trkpt lat="43.0069959" lon="11.6141568"><ele>513.0</ele><time>2026-05-02T13:30:06.61Z</time></trkpt><trkpt lat="43.006924" lon="11.6141448"><ele>513.5</ele><time>2026-05-02T13:30:07.642Z</time></trkpt><trkpt lat="43.0068458" lon="11.6141172"><ele>514.0</ele><time>2026-05-02T13:30:08.655Z</time></trkpt><trkpt lat="43.0067334" lon="11.614021"><ele>514.0</ele><time>2026-05-02T13:30:10.554Z</time></trkpt><trkpt lat="43.0066683" lon="11.6139686"><ele>514.0</ele><time>2026-05-02T13:30:11.568Z</time></trkpt><trkpt lat="43.0065974" lon="11.6139268"><ele>514.0</ele><time>2026-05-02T13:30:12.563Z</time></trkpt><trkpt lat="43.0065266" lon="11.6138858"><ele>514.0</ele><time>2026-05-02T13:30:13.527Z</time></trkpt><trkpt lat="43.0064491" lon="11.613857"><ele>514.0</ele><time>2026-05-02T13:30:14.532Z</time></trkpt><trkpt lat="43.0063764" lon="11.6138377"><ele>514.0</ele><time>2026-05-02T13:30:15.529Z</time></trkpt><trkpt lat="43.0062679" lon="11.6137978"><ele>515.0</ele><time>2026-05-02T13:30:17.564Z</time></trkpt><trkpt lat="43.0061887" lon="11.6137519"><ele>516.0</ele><time>2026-05-02T13:30:19.569Z</time></trkpt><trkpt lat="43.0061244" lon="11.6137102"><ele>517.0</ele><time>2026-05-02T13:30:21.53Z</time></trkpt><trkpt lat="43.006131" lon="11.6138198"><ele>518.0</ele><time>2026-05-02T13:30:42.549Z</time></trkpt><trkpt lat="43.0061973" lon="11.6138949"><ele>519.0</ele><time>2026-05-02T13:30:44.637Z</time></trkpt><trkpt lat="43.0062615" lon="11.6139175"><ele>520.0</ele><time>2026-05-02T13:30:45.662Z</time></trkpt><trkpt lat="43.0063328" lon="11.613933"><ele>520.0</ele><time>2026-05-02T13:30:46.671Z</time></trkpt><trkpt lat="43.0064037" lon="11.6139564"><ele>520.0</ele><time>2026-05-02T13:30:47.682Z</time></trkpt><trkpt lat="43.0064818" lon="11.6139706"><ele>520.0</ele><time>2026-05-02T13:30:48.665Z</time></trkpt><trkpt lat="43.0065579" lon="11.6139883"><ele>520.0</ele><time>2026-05-02T13:30:49.625Z</time></trkpt><trkpt lat="43.0066372" lon="11.614006"><ele>520.0</ele><time>2026-05-02T13:30:50.654Z</time></trkpt><trkpt lat="43.0067871" lon="11.6140694"><ele>520.0</ele><time>2026-05-02T13:30:52.539Z</time></trkpt><trkpt lat="43.0068521" lon="11.6141103"><ele>520.0</ele><time>2026-05-02T13:30:53.549Z</time></trkpt><trkpt lat="43.0069016" lon="11.6141798"><ele>520.0</ele><time>2026-05-02T13:30:55.709Z</time></trkpt><trkpt lat="43.0068287" lon="11.6142191"><ele>520.0</ele><time>2026-05-02T13:30:59.534Z</time></trkpt><trkpt lat="43.006766" lon="11.6142479"><ele>520.0</ele><time>2026-05-02T13:31:00.545Z</time></trkpt><trkpt lat="43.0067032" lon="11.614282"><ele>520.0</ele><time>2026-05-02T13:31:01.559Z</time></trkpt><trkpt lat="43.0066143" lon="11.6143288"><ele>520.0</ele><time>2026-05-02T13:31:03.616Z</time></trkpt><trkpt lat="43.0065207" lon="11.6143674"><ele>520.0</ele><time>2026-05-02T13:31:05.682Z</time></trkpt><trkpt lat="43.0064468" lon="11.6144148"><ele>520.0</ele><time>2026-05-02T13:31:08.955Z</time></trkpt><trkpt lat="43.0064457" lon="11.6145025"><ele>520.0</ele><time>2026-05-02T13:31:20.684Z</time></trkpt><trkpt lat="43.0065497" lon="11.6144694"><ele>520.0</ele><time>2026-05-02T13:31:30.796Z</time></trkpt><trkpt lat="43.0066173" lon="11.6144281"><ele>520.0</ele><time>2026-05-02T13:31:31.739Z</time></trkpt><trkpt lat="43.0067443" lon="11.6143394"><ele>519.0</ele><time>2026-05-02T13:31:33.56Z</time></trkpt><trkpt lat="43.0068042" lon="11.6142971"><ele>518.0</ele><time>2026-05-02T13:31:34.603Z</time></trkpt><trkpt lat="43.0068644" lon="11.6142651"><ele>517.0</ele><time>2026-05-02T13:31:35.713Z</time></trkpt><trkpt lat="43.0069303" lon="11.6142529"><ele>516.0</ele><time>2026-05-02T13:31:36.8Z</time></trkpt><trkpt lat="43.0069987" lon="11.6142743"><ele>515.0</ele><time>2026-05-02T13:31:37.751Z</time></trkpt><trkpt lat="43.0071569" lon="11.6142957"><ele>514.0</ele><time>2026-05-02T13:31:39.541Z</time></trkpt><trkpt lat="43.0072371" lon="11.6142835"><ele>514.0</ele><time>2026-05-02T13:31:40.531Z</time></trkpt><trkpt lat="43.0073116" lon="11.6142793"><ele>514.0</ele><time>2026-05-02T13:31:41.566Z</time></trkpt><trkpt lat="43.0073907" lon="11.6142752"><ele>514.0</ele><time>2026-05-02T13:31:42.585Z</time></trkpt><trkpt lat="43.007462" lon="11.6142696"><ele>514.0</ele><time>2026-05-02T13:31:43.59Z</time></trkpt><trkpt lat="43.0075315" lon="11.6142793"><ele>514.0</ele><time>2026-05-02T13:31:44.718Z</time></trkpt><trkpt lat="43.0075962" lon="11.6143102"><ele>514.0</ele><time>2026-05-02T13:31:45.8Z</time></trkpt><trkpt lat="43.0076662" lon="11.6143766"><ele>514.0</ele><time>2026-05-02T13:31:46.854Z</time></trkpt><trkpt lat="43.007746" lon="11.6144472"><ele>515.1666666666667</ele><time>2026-05-02T13:31:47.953Z</time></trkpt><trkpt lat="43.0078279" lon="11.6145182"><ele>516.3333333333334</ele><time>2026-05-02T13:31:49.132Z</time></trkpt><trkpt lat="43.0078877" lon="11.6145691"><ele>517.5</ele><time>2026-05-02T13:31:50.042Z</time></trkpt><trkpt lat="43.0079765" lon="11.6146436"><ele>518.6666666666666</ele><time>2026-05-02T13:31:51.544Z</time></trkpt><trkpt lat="43.0080307" lon="11.6147286"><ele>519.8333333333333</ele><time>2026-05-02T13:31:53.651Z</time></trkpt><trkpt lat="43.0080358" lon="11.6148276"><ele>521.0</ele><time>2026-05-02T13:31:55.9Z</time></trkpt><trkpt lat="43.0079856" lon="11.6149265"><ele>521.0</ele><time>2026-05-02T13:31:59.064Z</time></trkpt><trkpt lat="43.0078842" lon="11.6150033"><ele>521.0</ele><time>2026-05-02T13:32:00.191Z</time></trkpt><trkpt lat="43.0077784" lon="11.6151205"><ele>521.0</ele><time>2026-05-02T13:32:01.562Z</time></trkpt><trkpt lat="43.0077175" lon="11.6152506"><ele>521.0</ele><time>2026-05-02T13:32:03.608Z</time></trkpt><trkpt lat="43.0076746" lon="11.6154201"><ele>522.5</ele><time>2026-05-02T13:32:05.689Z</time></trkpt><trkpt lat="43.0076613" lon="11.6155334"><ele>524.0</ele><time>2026-05-02T13:32:06.732Z</time></trkpt><trkpt lat="43.0076399" lon="11.6156642"><ele>525.5</ele><time>2026-05-02T13:32:07.702Z</time></trkpt><trkpt lat="43.0076365" lon="11.6159059"><ele>527.0</ele><time>2026-05-02T13:32:09.52Z</time></trkpt><trkpt lat="43.0076322" lon="11.6160379"><ele>527.2</ele><time>2026-05-02T13:32:10.525Z</time></trkpt><trkpt lat="43.007626" lon="11.6161632"><ele>527.4000000000001</ele><time>2026-05-02T13:32:11.54Z</time></trkpt><trkpt lat="43.0076205" lon="11.6162917"><ele>527.5999999999999</ele><time>2026-05-02T13:32:12.563Z</time></trkpt><trkpt lat="43.0076134" lon="11.6164103"><ele>527.8</ele><time>2026-05-02T13:32:13.579Z</time></trkpt><trkpt lat="43.0076038" lon="11.6165117"><ele>528.0</ele><time>2026-05-02T13:32:14.487Z</time></trkpt><trkpt lat="43.0075839" lon="11.6167096"><ele>528.0</ele><time>2026-05-02T13:32:16.212Z</time></trkpt><trkpt lat="43.0075711" lon="11.616804"><ele>528.0</ele><time>2026-05-02T13:32:17.145Z</time></trkpt><trkpt lat="43.0075459" lon="11.6169537"><ele>528.0</ele><time>2026-05-02T13:32:19.011Z</time></trkpt><trkpt lat="43.0075084" lon="11.6170275"><ele>528.0</ele><time>2026-05-02T13:32:20.963Z</time></trkpt><trkpt lat="43.00743" lon="11.6170238"><ele>528.0</ele><time>2026-05-02T13:32:24.347Z</time></trkpt><trkpt lat="43.0073615" lon="11.6169986"><ele>528.0</ele><time>2026-05-02T13:32:25.535Z</time></trkpt><trkpt lat="43.0072285" lon="11.6169333"><ele>528.6666666666666</ele><time>2026-05-02T13:32:27.577Z</time></trkpt><trkpt lat="43.0071467" lon="11.6169112"><ele>529.3333333333334</ele><time>2026-05-02T13:32:28.565Z</time></trkpt><trkpt lat="43.0070625" lon="11.6169067"><ele>530.0</ele><time>2026-05-02T13:32:29.551Z</time></trkpt><trkpt lat="43.0069804" lon="11.6169091"><ele>530.6666666666667</ele><time>2026-05-02T13:32:30.713Z</time></trkpt><trkpt lat="43.0069051" lon="11.6169031"><ele>531.3333333333334</ele><time>2026-05-02T13:32:31.804Z</time></trkpt><trkpt lat="43.0068334" lon="11.6168851"><ele>532.0</ele><time>2026-05-02T13:32:32.828Z</time></trkpt><trkpt lat="43.0067622" lon="11.6168567"><ele>532.0</ele><time>2026-05-02T13:32:33.988Z</time></trkpt><trkpt lat="43.0066995" lon="11.6168196"><ele>532.0</ele><time>2026-05-02T13:32:35.078Z</time></trkpt><trkpt lat="43.0065833" lon="11.6167565"><ele>532.0</ele><time>2026-05-02T13:32:36.871Z</time></trkpt><trkpt lat="43.0065123" lon="11.6167191"><ele>532.0</ele><time>2026-05-02T13:32:38.222Z</time></trkpt><trkpt lat="43.0063487" lon="11.6166463"><ele>532.0</ele><time>2026-05-02T13:32:40.134Z</time></trkpt><trkpt lat="43.0061814" lon="11.6166314"><ele>531.1666666666667</ele><time>2026-05-02T13:32:41.53Z</time></trkpt><trkpt lat="43.006095" lon="11.6166409"><ele>530.3333333333334</ele><time>2026-05-02T13:32:42.522Z</time></trkpt><trkpt lat="43.0060075" lon="11.6166475"><ele>529.5</ele><time>2026-05-02T13:32:43.568Z</time></trkpt><trkpt lat="43.0059205" lon="11.6166605"><ele>528.6666666666666</ele><time>2026-05-02T13:32:44.629Z</time></trkpt><trkpt lat="43.0058337" lon="11.6166636"><ele>527.8333333333333</ele><time>2026-05-02T13:32:45.692Z</time></trkpt><trkpt lat="43.0057387" lon="11.6167065"><ele>527.0</ele><time>2026-05-02T13:32:46.707Z</time></trkpt><trkpt lat="43.0056551" lon="11.6167854"><ele>527.0</ele><time>2026-05-02T13:32:47.772Z</time></trkpt><trkpt lat="43.005574" lon="11.6168707"><ele>527.0</ele><time>2026-05-02T13:32:48.912Z</time></trkpt><trkpt lat="43.0054942" lon="11.6169517"><ele>527.0</ele><time>2026-05-02T13:32:50.103Z</time></trkpt><trkpt lat="43.0054147" lon="11.6170375"><ele>527.0</ele><time>2026-05-02T13:32:51.045Z</time></trkpt><trkpt lat="43.0053389" lon="11.6171007"><ele>527.0</ele><time>2026-05-02T13:32:52.186Z</time></trkpt><trkpt lat="43.005168" lon="11.6171762"><ele>523.5</ele><time>2026-05-02T13:32:53.51Z</time></trkpt><trkpt lat="43.0050767" lon="11.6172006"><ele>520.0</ele><time>2026-05-02T13:32:54.535Z</time></trkpt><trkpt lat="43.004974" lon="11.6171886"><ele>516.5</ele><time>2026-05-02T13:32:55.548Z</time></trkpt><trkpt lat="43.0048851" lon="11.6171587"><ele>513.0</ele><time>2026-05-02T13:32:56.597Z</time></trkpt><trkpt lat="43.0048265" lon="11.6170882"><ele>509.49999999999994</ele><time>2026-05-02T13:32:57.521Z</time></trkpt><trkpt lat="43.0047679" lon="11.617046"><ele>506.0</ele><time>2026-05-02T13:32:58.556Z</time></trkpt><trkpt lat="43.0046848" lon="11.6170156"><ele>506.0</ele><time>2026-05-02T13:33:00.653Z</time></trkpt><trkpt lat="43.004609" lon="11.6170229"><ele>506.0</ele><time>2026-05-02T13:33:03.888Z</time></trkpt><trkpt lat="43.0045026" lon="11.6171335"><ele>506.0</ele><time>2026-05-02T13:33:07.69Z</time></trkpt><trkpt lat="43.0044315" lon="11.6172215"><ele>506.0</ele><time>2026-05-02T13:33:09.803Z</time></trkpt><trkpt lat="43.0042953" lon="11.6173389"><ele>506.0</ele><time>2026-05-02T13:33:12.636Z</time></trkpt><trkpt lat="43.004212" lon="11.6174295"><ele>506.0</ele><time>2026-05-02T13:33:14.649Z</time></trkpt><trkpt lat="43.0041436" lon="11.6175249"><ele>506.0</ele><time>2026-05-02T13:33:16.789Z</time></trkpt><trkpt lat="43.0040733" lon="11.6176057"><ele>506.0</ele><time>2026-05-02T13:33:18.762Z</time></trkpt><trkpt lat="43.0040003" lon="11.6177014"><ele>506.0</ele><time>2026-05-02T13:33:20.98Z</time></trkpt><trkpt lat="43.0039287" lon="11.6178112"><ele>503.16666666666663</ele><time>2026-05-02T13:33:22.579Z</time></trkpt><trkpt lat="43.0038813" lon="11.6178931"><ele>500.3333333333333</ele><time>2026-05-02T13:33:24.517Z</time></trkpt><trkpt lat="43.0038182" lon="11.6179234"><ele>497.5</ele><time>2026-05-02T13:33:27.514Z</time></trkpt><trkpt lat="43.0038398" lon="11.6180178"><ele>494.66666666666663</ele><time>2026-05-02T13:33:32.784Z</time></trkpt><trkpt lat="43.003862" lon="11.6181225"><ele>491.8333333333333</ele><time>2026-05-02T13:33:34.828Z</time></trkpt><trkpt lat="43.0038987" lon="11.618268"><ele>489.0</ele><time>2026-05-02T13:33:36.869Z</time></trkpt><trkpt lat="43.0039035" lon="11.6184386"><ele>489.0</ele><time>2026-05-02T13:33:38.529Z</time></trkpt><trkpt lat="43.0039145" lon="11.6185989"><ele>489.0</ele><time>2026-05-02T13:33:40.528Z</time></trkpt><trkpt lat="43.0039206" lon="11.6187746"><ele>489.0</ele><time>2026-05-02T13:33:42.521Z</time></trkpt><trkpt lat="43.0039248" lon="11.6188653"><ele>489.0</ele><time>2026-05-02T13:33:43.533Z</time></trkpt><trkpt lat="43.003924" lon="11.6189553"><ele>489.0</ele><time>2026-05-02T13:33:44.536Z</time></trkpt><trkpt lat="43.003922" lon="11.6190481"><ele>489.0</ele><time>2026-05-02T13:33:45.517Z</time></trkpt><trkpt lat="43.0039196" lon="11.6191407"><ele>487.28571428571433</ele><time>2026-05-02T13:33:46.513Z</time></trkpt><trkpt lat="43.0039199" lon="11.6192382"><ele>485.5714285714286</ele><time>2026-05-02T13:33:47.532Z</time></trkpt><trkpt lat="43.0039167" lon="11.6193311"><ele>483.8571428571429</ele><time>2026-05-02T13:33:48.525Z</time></trkpt><trkpt lat="43.0039249" lon="11.619425"><ele>482.1428571428571</ele><time>2026-05-02T13:33:49.541Z</time></trkpt><trkpt lat="43.0039446" lon="11.6195125"><ele>480.4285714285714</ele><time>2026-05-02T13:33:50.57Z</time></trkpt><trkpt lat="43.0039484" lon="11.6196093"><ele>478.71428571428567</ele><time>2026-05-02T13:33:51.535Z</time></trkpt><trkpt lat="43.0039397" lon="11.6196989"><ele>477.0</ele><time>2026-05-02T13:33:52.573Z</time></trkpt><trkpt lat="43.0039416" lon="11.6197865"><ele>474.8</ele><time>2026-05-02T13:33:53.551Z</time></trkpt><trkpt lat="43.0039606" lon="11.6199518"><ele>472.6</ele><time>2026-05-02T13:33:55.685Z</time></trkpt><trkpt lat="43.0039942" lon="11.6201105"><ele>470.40000000000003</ele><time>2026-05-02T13:33:57.831Z</time></trkpt><trkpt lat="43.0040198" lon="11.6201892"><ele>468.20000000000005</ele><time>2026-05-02T13:33:58.932Z</time></trkpt><trkpt lat="43.0040567" lon="11.620259"><ele>466.0</ele><time>2026-05-02T13:34:00.123Z</time></trkpt><trkpt lat="43.0041296" lon="11.6203835"><ele>465.20000000000005</ele><time>2026-05-02T13:34:01.985Z</time></trkpt><trkpt lat="43.0042114" lon="11.6205084"><ele>464.40000000000003</ele><time>2026-05-02T13:34:03.785Z</time></trkpt><trkpt lat="43.0042478" lon="11.6205808"><ele>463.6</ele><time>2026-05-02T13:34:04.697Z</time></trkpt><trkpt lat="43.0042854" lon="11.6206593"><ele>462.8</ele><time>2026-05-02T13:34:05.948Z</time></trkpt><trkpt lat="43.0043434" lon="11.620786"><ele>462.0</ele><time>2026-05-02T13:34:07.902Z</time></trkpt><trkpt lat="43.0043387" lon="11.6210451"><ele>460.0</ele><time>2026-05-02T13:34:10.825Z</time></trkpt><trkpt lat="43.0043226" lon="11.6211521"><ele>458.0</ele><time>2026-05-02T13:34:11.862Z</time></trkpt><trkpt lat="43.0042996" lon="11.6212351"><ele>456.0</ele><time>2026-05-02T13:34:12.935Z</time></trkpt><trkpt lat="43.0042489" lon="11.6213524"><ele>454.0</ele><time>2026-05-02T13:34:14.577Z</time></trkpt><trkpt lat="43.0042373" lon="11.6214596"><ele>452.0</ele><time>2026-05-02T13:34:17.028Z</time></trkpt><trkpt lat="43.0042263" lon="11.6215601"><ele>450.0</ele><time>2026-05-02T13:34:18.723Z</time></trkpt><trkpt lat="43.004222" lon="11.6216464"><ele>450.0</ele><time>2026-05-02T13:34:20.663Z</time></trkpt><trkpt lat="43.0042175" lon="11.6217663"><ele>450.0</ele><time>2026-05-02T13:34:23.716Z</time></trkpt><trkpt lat="43.004199" lon="11.6218921"><ele>450.0</ele><time>2026-05-02T13:34:26.517Z</time></trkpt><trkpt lat="43.0041879" lon="11.6219852"><ele>450.0</ele><time>2026-05-02T13:34:28.507Z</time></trkpt><trkpt lat="43.0041663" lon="11.6221074"><ele>450.0</ele><time>2026-05-02T13:34:31.529Z</time></trkpt><trkpt lat="43.0041604" lon="11.6222306"><ele>450.0</ele><time>2026-05-02T13:34:34.507Z</time></trkpt><trkpt lat="43.0041641" lon="11.6223251"><ele>447.6666666666667</ele><time>2026-05-02T13:34:36.588Z</time></trkpt><trkpt lat="43.0041827" lon="11.6224373"><ele>445.33333333333337</ele><time>2026-05-02T13:34:39.761Z</time></trkpt><trkpt lat="43.0042074" lon="11.6225186"><ele>443.0</ele><time>2026-05-02T13:34:41.812Z</time></trkpt><trkpt lat="43.0042456" lon="11.6225937"><ele>440.6666666666667</ele><time>2026-05-02T13:34:43.874Z</time></trkpt><trkpt lat="43.0042689" lon="11.6227168"><ele>438.33333333333337</ele><time>2026-05-02T13:34:46.511Z</time></trkpt><trkpt lat="43.0042163" lon="11.6228172"><ele>436.0</ele><time>2026-05-02T13:34:49.548Z</time></trkpt><trkpt lat="43.004163" lon="11.6228892"><ele>433.8571428571429</ele><time>2026-05-02T13:34:51.599Z</time></trkpt><trkpt lat="43.0041102" lon="11.6229521"><ele>431.7142857142857</ele><time>2026-05-02T13:34:53.631Z</time></trkpt><trkpt lat="43.0040616" lon="11.6230104"><ele>429.57142857142856</ele><time>2026-05-02T13:34:55.597Z</time></trkpt><trkpt lat="43.0040171" lon="11.6230867"><ele>427.42857142857144</ele><time>2026-05-02T13:34:57.512Z</time></trkpt><trkpt lat="43.0039391" lon="11.6231603"><ele>425.2857142857143</ele><time>2026-05-02T13:35:00.542Z</time></trkpt><trkpt lat="43.0038973" lon="11.6232265"><ele>423.14285714285717</ele><time>2026-05-02T13:35:02.534Z</time></trkpt><trkpt lat="43.0038672" lon="11.6233299"><ele>421.0</ele><time>2026-05-02T13:35:04.565Z</time></trkpt><trkpt lat="43.0038323" lon="11.623448"><ele>421.00000000000006</ele><time>2026-05-02T13:35:06.547Z</time></trkpt><trkpt lat="43.0037953" lon="11.6235526"><ele>421.0</ele><time>2026-05-02T13:35:08.525Z</time></trkpt><trkpt lat="43.003768" lon="11.6236715"><ele>421.0</ele><time>2026-05-02T13:35:10.536Z</time></trkpt><trkpt lat="43.0037514" lon="11.6237718"><ele>421.0</ele><time>2026-05-02T13:35:12.666Z</time></trkpt><trkpt lat="43.0037358" lon="11.6238562"><ele>421.00000000000006</ele><time>2026-05-02T13:35:14.553Z</time></trkpt><trkpt lat="43.0037122" lon="11.6239714"><ele>421.0</ele><time>2026-05-02T13:35:17.609Z</time></trkpt><trkpt lat="43.0037228" lon="11.6240737"><ele>419.50000000000006</ele><time>2026-05-02T13:35:19.728Z</time></trkpt><trkpt lat="43.0037488" lon="11.6241919"><ele>418.0</ele><time>2026-05-02T13:35:22.354Z</time></trkpt><trkpt lat="43.0037939" lon="11.6242717"><ele>416.5</ele><time>2026-05-02T13:35:23.513Z</time></trkpt><trkpt lat="43.0038445" lon="11.6243435"><ele>415.0</ele><time>2026-05-02T13:35:25.544Z</time></trkpt><trkpt lat="43.0038712" lon="11.624436"><ele>413.50000000000006</ele><time>2026-05-02T13:35:29.919Z</time></trkpt><trkpt lat="43.0038152" lon="11.6245086"><ele>412.0</ele><time>2026-05-02T13:35:32.099Z</time></trkpt><trkpt lat="43.0038309" lon="11.6246137"><ele>410.00000000000006</ele><time>2026-05-02T13:35:34.554Z</time></trkpt><trkpt lat="43.0038416" lon="11.6247424"><ele>408.0</ele><time>2026-05-02T13:35:37.696Z</time></trkpt><trkpt lat="43.0038787" lon="11.6248226"><ele>406.0</ele><time>2026-05-02T13:35:39.93Z</time></trkpt><trkpt lat="43.0039307" lon="11.6248931"><ele>404.0</ele><time>2026-05-02T13:35:42.051Z</time></trkpt><trkpt lat="43.0039803" lon="11.6249674"><ele>402.00000000000006</ele><time>2026-05-02T13:35:43.51Z</time></trkpt><trkpt lat="43.0040112" lon="11.6250633"><ele>400.0</ele><time>2026-05-02T13:35:45.525Z</time></trkpt><trkpt lat="43.0040116" lon="11.6251637"><ele>400.00000000000006</ele><time>2026-05-02T13:35:48.709Z</time></trkpt><trkpt lat="43.0039504" lon="11.6252358"><ele>400.0</ele><time>2026-05-02T13:35:51.532Z</time></trkpt><trkpt lat="43.003888" lon="11.6252989"><ele>400.0</ele><time>2026-05-02T13:35:54.52Z</time></trkpt><trkpt lat="43.0038208" lon="11.625338"><ele>400.0</ele><time>2026-05-02T13:35:57.516Z</time></trkpt><trkpt lat="43.0037309" lon="11.6253687"><ele>400.00000000000006</ele><time>2026-05-02T13:36:00.516Z</time></trkpt><trkpt lat="43.0036505" lon="11.6253744"><ele>400.0</ele><time>2026-05-02T13:36:03.573Z</time></trkpt><trkpt lat="43.0035855" lon="11.6253624"><ele>398.4</ele><time>2026-05-02T13:36:05.536Z</time></trkpt><trkpt lat="43.0035069" lon="11.625394"><ele>396.8</ele><time>2026-05-02T13:36:09.766Z</time></trkpt><trkpt lat="43.0035906" lon="11.6254109"><ele>395.20000000000005</ele><time>2026-05-02T13:36:38.157Z</time></trkpt><trkpt lat="43.0037265" lon="11.6253995"><ele>393.6</ele><time>2026-05-02T13:36:40.53Z</time></trkpt><trkpt lat="43.0038125" lon="11.6253636"><ele>392.0</ele><time>2026-05-02T13:36:41.565Z</time></trkpt><trkpt lat="43.003888" lon="11.6253245"><ele>391.99999999999994</ele><time>2026-05-02T13:36:42.658Z</time></trkpt><trkpt lat="43.0039476" lon="11.625264"><ele>392.0</ele><time>2026-05-02T13:36:43.812Z</time></trkpt><trkpt lat="43.0040358" lon="11.6251959"><ele>392.0</ele><time>2026-05-02T13:36:46.074Z</time></trkpt><trkpt lat="43.0041045" lon="11.625259"><ele>392.0</ele><time>2026-05-02T13:36:48.567Z</time></trkpt><trkpt lat="43.00413" lon="11.6253398"><ele>391.99999999999994</ele><time>2026-05-02T13:36:50.737Z</time></trkpt><trkpt lat="43.004106" lon="11.6254952"><ele>392.0</ele><time>2026-05-02T13:36:52.921Z</time></trkpt><trkpt lat="43.0040532" lon="11.6255904"><ele>392.0</ele><time>2026-05-02T13:36:53.951Z</time></trkpt><trkpt lat="43.0039935" lon="11.6256713"><ele>392.0</ele><time>2026-05-02T13:36:54.972Z</time></trkpt><trkpt lat="43.0038893" lon="11.6258578"><ele>392.0</ele><time>2026-05-02T13:36:56.548Z</time></trkpt><trkpt lat="43.0038513" lon="11.6259528"><ele>392.0</ele><time>2026-05-02T13:36:57.562Z</time></trkpt><trkpt lat="43.0038157" lon="11.6260501"><ele>392.0</ele><time>2026-05-02T13:36:58.592Z</time></trkpt><trkpt lat="43.0037944" lon="11.6261434"><ele>391.20000000000005</ele><time>2026-05-02T13:36:59.605Z</time></trkpt><trkpt lat="43.0037914" lon="11.6262546"><ele>390.4</ele><time>2026-05-02T13:37:00.651Z</time></trkpt><trkpt lat="43.0038065" lon="11.6264785"><ele>389.6</ele><time>2026-05-02T13:37:02.522Z</time></trkpt><trkpt lat="43.003817" lon="11.6265732"><ele>388.79999999999995</ele><time>2026-05-02T13:37:03.521Z</time></trkpt><trkpt lat="43.0038185" lon="11.6266741"><ele>388.0</ele><time>2026-05-02T13:37:04.529Z</time></trkpt><trkpt lat="43.0038278" lon="11.6267904"><ele>388.00000000000006</ele><time>2026-05-02T13:37:05.557Z</time></trkpt><trkpt lat="43.0038463" lon="11.6268904"><ele>388.0</ele><time>2026-05-02T13:37:06.559Z</time></trkpt><trkpt lat="43.0038685" lon="11.6269933"><ele>388.0</ele><time>2026-05-02T13:37:07.523Z</time></trkpt><trkpt lat="43.0038899" lon="11.6270936"><ele>388.0</ele><time>2026-05-02T13:37:08.542Z</time></trkpt><trkpt lat="43.0039211" lon="11.6271889"><ele>388.00000000000006</ele><time>2026-05-02T13:37:09.535Z</time></trkpt><trkpt lat="43.0039339" lon="11.6273024"><ele>388.0</ele><time>2026-05-02T13:37:10.564Z</time></trkpt><trkpt lat="43.0039506" lon="11.6274069"><ele>387.33333333333337</ele><time>2026-05-02T13:37:11.565Z</time></trkpt><trkpt lat="43.0039695" lon="11.6275209"><ele>386.6666666666667</ele><time>2026-05-02T13:37:12.58Z</time></trkpt><trkpt lat="43.0039828" lon="11.627632"><ele>386.0</ele><time>2026-05-02T13:37:13.518Z</time></trkpt><trkpt lat="43.0039996" lon="11.6277382"><ele>385.33333333333337</ele><time>2026-05-02T13:37:14.522Z</time></trkpt><trkpt lat="43.0040153" lon="11.6278477"><ele>384.6666666666667</ele><time>2026-05-02T13:37:15.519Z</time></trkpt><trkpt lat="43.0040286" lon="11.6279502"><ele>384.0</ele><time>2026-05-02T13:37:16.518Z</time></trkpt><trkpt lat="43.0040462" lon="11.6280542"><ele>383.57142857142856</ele><time>2026-05-02T13:37:17.52Z</time></trkpt><trkpt lat="43.0040591" lon="11.62816"><ele>383.1428571428571</ele><time>2026-05-02T13:37:18.517Z</time></trkpt><trkpt lat="43.0040725" lon="11.6282639"><ele>382.71428571428567</ele><time>2026-05-02T13:37:19.513Z</time></trkpt><trkpt lat="43.0040897" lon="11.6283581"><ele>382.2857142857143</ele><time>2026-05-02T13:37:20.528Z</time></trkpt><trkpt lat="43.0041155" lon="11.6284454"><ele>381.8571428571429</ele><time>2026-05-02T13:37:21.56Z</time></trkpt><trkpt lat="43.0041512" lon="11.6285232"><ele>381.4285714285714</ele><time>2026-05-02T13:37:22.601Z</time></trkpt><trkpt lat="43.0041885" lon="11.6286006"><ele>381.0</ele><time>2026-05-02T13:37:23.668Z</time></trkpt><trkpt lat="43.0042414" lon="11.6287341"><ele>379.8</ele><time>2026-05-02T13:37:26.014Z</time></trkpt><trkpt lat="43.0042441" lon="11.6288951"><ele>378.6</ele><time>2026-05-02T13:37:28.013Z</time></trkpt><trkpt lat="43.0042144" lon="11.6290209"><ele>377.4</ele><time>2026-05-02T13:37:29.525Z</time></trkpt><trkpt lat="43.0041993" lon="11.6291421"><ele>376.2</ele><time>2026-05-02T13:37:31.657Z</time></trkpt><trkpt lat="43.0042412" lon="11.6292451"><ele>375.0</ele><time>2026-05-02T13:37:33.942Z</time></trkpt><trkpt lat="43.0042956" lon="11.6293357"><ele>375.0</ele><time>2026-05-02T13:37:36.351Z</time></trkpt><trkpt lat="43.0043936" lon="11.6294047"><ele>375.0</ele><time>2026-05-02T13:37:37.522Z</time></trkpt><trkpt lat="43.0044578" lon="11.6294232"><ele>375.0</ele><time>2026-05-02T13:37:38.534Z</time></trkpt><trkpt lat="43.0045627" lon="11.62946"><ele>375.0</ele><time>2026-05-02T13:37:40.607Z</time></trkpt><trkpt lat="43.0046546" lon="11.6294765"><ele>375.0</ele><time>2026-05-02T13:37:42.518Z</time></trkpt><trkpt lat="43.0047634" lon="11.6294817"><ele>375.0</ele><time>2026-05-02T13:37:44.556Z</time></trkpt><trkpt lat="43.0048692" lon="11.6294624"><ele>375.0</ele><time>2026-05-02T13:37:46.592Z</time></trkpt><trkpt lat="43.0049706" lon="11.6294383"><ele>375.0</ele><time>2026-05-02T13:37:48.585Z</time></trkpt><trkpt lat="43.0050763" lon="11.6294328"><ele>375.0</ele><time>2026-05-02T13:37:50.597Z</time></trkpt><trkpt lat="43.00522" lon="11.6294518"><ele>373.4</ele><time>2026-05-02T13:37:53.519Z</time></trkpt><trkpt lat="43.0052992" lon="11.6294694"><ele>371.8</ele><time>2026-05-02T13:37:55.618Z</time></trkpt><trkpt lat="43.0053639" lon="11.6295078"><ele>370.20000000000005</ele><time>2026-05-02T13:37:57.672Z</time></trkpt><trkpt lat="43.0054536" lon="11.6296428"><ele>368.6</ele><time>2026-05-02T13:38:00.042Z</time></trkpt><trkpt lat="43.0055035" lon="11.6297642"><ele>367.0</ele><time>2026-05-02T13:38:01.843Z</time></trkpt><trkpt lat="43.0055848" lon="11.6299571"><ele>365.0</ele><time>2026-05-02T13:38:04.528Z</time></trkpt><trkpt lat="43.0056343" lon="11.6300703"><ele>363.0</ele><time>2026-05-02T13:38:06.571Z</time></trkpt><trkpt lat="43.0057134" lon="11.6301456"><ele>361.0</ele><time>2026-05-02T13:38:08.675Z</time></trkpt><trkpt lat="43.0058791" lon="11.6301791"><ele>359.0</ele><time>2026-05-02T13:38:11.54Z</time></trkpt><trkpt lat="43.0059737" lon="11.6302097"><ele>357.2</ele><time>2026-05-02T13:38:13.531Z</time></trkpt><trkpt lat="43.0060759" lon="11.6302571"><ele>355.4</ele><time>2026-05-02T13:38:15.545Z</time></trkpt><trkpt lat="43.0061512" lon="11.6303305"><ele>353.6</ele><time>2026-05-02T13:38:17.745Z</time></trkpt><trkpt lat="43.0062043" lon="11.6304346"><ele>351.8</ele><time>2026-05-02T13:38:20.007Z</time></trkpt><trkpt lat="43.0062391" lon="11.6306273"><ele>350.0</ele><time>2026-05-02T13:38:22.532Z</time></trkpt><trkpt lat="43.0062434" lon="11.6307723"><ele>348.6</ele><time>2026-05-02T13:38:24.525Z</time></trkpt><trkpt lat="43.0062391" lon="11.6309189"><ele>347.2</ele><time>2026-05-02T13:38:26.533Z</time></trkpt><trkpt lat="43.0062293" lon="11.6310551"><ele>345.79999999999995</ele><time>2026-05-02T13:38:28.542Z</time></trkpt><trkpt lat="43.0062362" lon="11.6311691"><ele>344.4</ele><time>2026-05-02T13:38:30.591Z</time></trkpt><trkpt lat="43.00624" lon="11.6312891"><ele>343.0</ele><time>2026-05-02T13:38:32.523Z</time></trkpt><trkpt lat="43.0062523" lon="11.6314068"><ele>341.5</ele><time>2026-05-02T13:38:34.559Z</time></trkpt><trkpt lat="43.0062967" lon="11.6315059"><ele>340.0</ele><time>2026-05-02T13:38:36.661Z</time></trkpt><trkpt lat="43.0063791" lon="11.6315776"><ele>338.5</ele><time>2026-05-02T13:38:38.763Z</time></trkpt><trkpt lat="43.0064708" lon="11.6316388"><ele>337.0</ele><time>2026-05-02T13:38:40.867Z</time></trkpt><trkpt lat="43.0065519" lon="11.6316943"><ele>335.5</ele><time>2026-05-02T13:38:42.525Z</time></trkpt><trkpt lat="43.0066127" lon="11.6317427"><ele>334.0</ele><time>2026-05-02T13:38:44.521Z</time></trkpt><trkpt lat="43.006668" lon="11.6317864"><ele>333.16666666666663</ele><time>2026-05-02T13:38:46.526Z</time></trkpt><trkpt lat="43.0067293" lon="11.631827"><ele>332.3333333333333</ele><time>2026-05-02T13:38:48.538Z</time></trkpt><trkpt lat="43.0067916" lon="11.6318752"><ele>331.5</ele><time>2026-05-02T13:38:50.581Z</time></trkpt><trkpt lat="43.0068435" lon="11.6319546"><ele>330.6666666666667</ele><time>2026-05-02T13:38:52.657Z</time></trkpt><trkpt lat="43.0068842" lon="11.6320534"><ele>329.83333333333337</ele><time>2026-05-02T13:38:54.839Z</time></trkpt><trkpt lat="43.006908" lon="11.6321746"><ele>329.0</ele><time>2026-05-02T13:38:57.061Z</time></trkpt><trkpt lat="43.0069084" lon="11.6323716"><ele>327.33333333333337</ele><time>2026-05-02T13:38:59.561Z</time></trkpt><trkpt lat="43.0069038" lon="11.6324686"><ele>325.6666666666667</ele><time>2026-05-02T13:39:01.543Z</time></trkpt><trkpt lat="43.0069061" lon="11.6325685"><ele>324.0</ele><time>2026-05-02T13:39:04.621Z</time></trkpt><trkpt lat="43.0069027" lon="11.6326877"><ele>322.3333333333333</ele><time>2026-05-02T13:39:07.542Z</time></trkpt><trkpt lat="43.0068908" lon="11.6327753"><ele>320.66666666666663</ele><time>2026-05-02T13:39:09.542Z</time></trkpt><trkpt lat="43.0068633" lon="11.6328617"><ele>319.0</ele><time>2026-05-02T13:39:11.545Z</time></trkpt><trkpt lat="43.0068352" lon="11.6329731"><ele>317.8333333333333</ele><time>2026-05-02T13:39:13.537Z</time></trkpt><trkpt lat="43.0068221" lon="11.6330651"><ele>316.66666666666663</ele><time>2026-05-02T13:39:15.544Z</time></trkpt><trkpt lat="43.0067855" lon="11.6331819"><ele>315.5</ele><time>2026-05-02T13:39:17.608Z</time></trkpt><trkpt lat="43.0067713" lon="11.6332983"><ele>314.3333333333333</ele><time>2026-05-02T13:39:19.552Z</time></trkpt><trkpt lat="43.0067659" lon="11.6334251"><ele>313.1666666666667</ele><time>2026-05-02T13:39:21.552Z</time></trkpt><trkpt lat="43.0067671" lon="11.6335511"><ele>312.0</ele><time>2026-05-02T13:39:23.514Z</time></trkpt><trkpt lat="43.0067668" lon="11.6337002"><ele>311.2</ele><time>2026-05-02T13:39:25.531Z</time></trkpt><trkpt lat="43.006755" lon="11.6338448"><ele>310.4</ele><time>2026-05-02T13:39:27.527Z</time></trkpt><trkpt lat="43.0067374" lon="11.6339988"><ele>309.6</ele><time>2026-05-02T13:39:29.525Z</time></trkpt><trkpt lat="43.006731" lon="11.6340862"><ele>308.8</ele><time>2026-05-02T13:39:30.53Z</time></trkpt><trkpt lat="43.0067183" lon="11.6342605"><ele>308.0</ele><time>2026-05-02T13:39:32.518Z</time></trkpt><trkpt lat="43.0067026" lon="11.6343617"><ele>308.0</ele><time>2026-05-02T13:39:33.533Z</time></trkpt><trkpt lat="43.0066908" lon="11.6344483"><ele>308.0</ele><time>2026-05-02T13:39:34.549Z</time></trkpt><trkpt lat="43.0066781" lon="11.6346122"><ele>308.0</ele><time>2026-05-02T13:39:36.58Z</time></trkpt><trkpt lat="43.0066728" lon="11.634767"><ele>308.0</ele><time>2026-05-02T13:39:38.674Z</time></trkpt><trkpt lat="43.0067074" lon="11.6349003"><ele>308.0</ele><time>2026-05-02T13:39:40.864Z</time></trkpt><trkpt lat="43.0068333" lon="11.6350179"><ele>307.83333333333337</ele><time>2026-05-02T13:39:43.522Z</time></trkpt><trkpt lat="43.0069096" lon="11.6350148"><ele>307.6666666666667</ele><time>2026-05-02T13:39:44.568Z</time></trkpt><trkpt lat="43.0069943" lon="11.6350108"><ele>307.5</ele><time>2026-05-02T13:39:45.576Z</time></trkpt><trkpt lat="43.007081" lon="11.6350057"><ele>307.3333333333333</ele><time>2026-05-02T13:39:46.581Z</time></trkpt><trkpt lat="43.007175" lon="11.6350058"><ele>307.16666666666663</ele><time>2026-05-02T13:39:47.525Z</time></trkpt><trkpt lat="43.0072638" lon="11.6350208"><ele>307.0</ele><time>2026-05-02T13:39:48.541Z</time></trkpt><trkpt lat="43.0073487" lon="11.6350406"><ele>307.0</ele><time>2026-05-02T13:39:49.561Z</time></trkpt><trkpt lat="43.007422" lon="11.6350326"><ele>307.0</ele><time>2026-05-02T13:39:50.541Z</time></trkpt><trkpt lat="43.0074904" lon="11.6350168"><ele>307.0</ele><time>2026-05-02T13:39:51.53Z</time></trkpt><trkpt lat="43.0075978" lon="11.6350049"><ele>307.0</ele><time>2026-05-02T13:39:53.606Z</time></trkpt><trkpt lat="43.0076636" lon="11.6349791"><ele>307.0</ele><time>2026-05-02T13:39:55.606Z</time></trkpt><trkpt lat="43.0077272" lon="11.6350238"><ele>307.0</ele><time>2026-05-02T13:39:59.003Z</time></trkpt><trkpt lat="43.0078214" lon="11.6350533"><ele>307.0</ele><time>2026-05-02T13:40:01.695Z</time></trkpt><trkpt lat="43.0079431" lon="11.6350707"><ele>307.0</ele><time>2026-05-02T13:40:04.715Z</time></trkpt><trkpt lat="43.0080445" lon="11.635128"><ele>307.0</ele><time>2026-05-02T13:40:06.565Z</time></trkpt><trkpt lat="43.0081007" lon="11.6352194"><ele>307.0</ele><time>2026-05-02T13:40:08.536Z</time></trkpt><trkpt lat="43.0081435" lon="11.6353742"><ele>307.0</ele><time>2026-05-02T13:40:10.57Z</time></trkpt><trkpt lat="43.0081702" lon="11.6354708"><ele>307.0</ele><time>2026-05-02T13:40:11.612Z</time></trkpt><trkpt lat="43.0081757" lon="11.6355646"><ele>307.0</ele><time>2026-05-02T13:40:12.646Z</time></trkpt><trkpt lat="43.0081764" lon="11.6356517"><ele>307.0</ele><time>2026-05-02T13:40:13.624Z</time></trkpt><trkpt lat="43.0081863" lon="11.6358028"><ele>307.0</ele><time>2026-05-02T13:40:15.689Z</time></trkpt><trkpt lat="43.0081889" lon="11.6358949"><ele>307.0</ele><time>2026-05-02T13:40:16.623Z</time></trkpt><trkpt lat="43.0082037" lon="11.6360733"><ele>307.0</ele><time>2026-05-02T13:40:18.543Z</time></trkpt><trkpt lat="43.0082102" lon="11.6361667"><ele>307.71428571428567</ele><time>2026-05-02T13:40:19.55Z</time></trkpt><trkpt lat="43.0082154" lon="11.6362672"><ele>308.42857142857144</ele><time>2026-05-02T13:40:20.558Z</time></trkpt><trkpt lat="43.008224" lon="11.6363682"><ele>309.1428571428571</ele><time>2026-05-02T13:40:21.55Z</time></trkpt><trkpt lat="43.0082316" lon="11.6364714"><ele>309.85714285714283</ele><time>2026-05-02T13:40:22.546Z</time></trkpt><trkpt lat="43.0082396" lon="11.6365676"><ele>310.57142857142856</ele><time>2026-05-02T13:40:23.524Z</time></trkpt><trkpt lat="43.0082411" lon="11.6366572"><ele>311.2857142857143</ele><time>2026-05-02T13:40:24.525Z</time></trkpt><trkpt lat="43.0082402" lon="11.636756"><ele>312.0</ele><time>2026-05-02T13:40:25.556Z</time></trkpt><trkpt lat="43.0082426" lon="11.6368478"><ele>314.25</ele><time>2026-05-02T13:40:26.525Z</time></trkpt><trkpt lat="43.0082659" lon="11.6369986"><ele>316.5</ele><time>2026-05-02T13:40:28.526Z</time></trkpt><trkpt lat="43.0082745" lon="11.6371608"><ele>318.75</ele><time>2026-05-02T13:40:30.527Z</time></trkpt><trkpt lat="43.0082791" lon="11.637319"><ele>321.0</ele><time>2026-05-02T13:40:32.613Z</time></trkpt><trkpt lat="43.0082923" lon="11.6374791"><ele>321.0</ele><time>2026-05-02T13:40:34.579Z</time></trkpt><trkpt lat="43.0083076" lon="11.6376427"><ele>321.0</ele><time>2026-05-02T13:40:36.58Z</time></trkpt><trkpt lat="43.0083464" lon="11.6378084"><ele>321.0</ele><time>2026-05-02T13:40:39.021Z</time></trkpt><trkpt lat="43.0083802" lon="11.6378824"><ele>321.0</ele><time>2026-05-02T13:40:40.144Z</time></trkpt><trkpt lat="43.0084189" lon="11.6379563"><ele>321.0</ele><time>2026-05-02T13:40:41.382Z</time></trkpt><trkpt lat="43.0084994" lon="11.638088"><ele>318.6</ele><time>2026-05-02T13:40:42.764Z</time></trkpt><trkpt lat="43.0085504" lon="11.6381632"><ele>316.20000000000005</ele><time>2026-05-02T13:40:44.056Z</time></trkpt><trkpt lat="43.0086633" lon="11.6383158"><ele>313.79999999999995</ele><time>2026-05-02T13:40:45.855Z</time></trkpt><trkpt lat="43.0087067" lon="11.6384015"><ele>311.4</ele><time>2026-05-02T13:40:46.96Z</time></trkpt><trkpt lat="43.0087399" lon="11.6384914"><ele>309.0</ele><time>2026-05-02T13:40:48.184Z</time></trkpt><trkpt lat="43.0087958" lon="11.6386874"><ele>308.6666666666667</ele><time>2026-05-02T13:40:49.94Z</time></trkpt><trkpt lat="43.008826" lon="11.6387887"><ele>308.3333333333333</ele><time>2026-05-02T13:40:50.995Z</time></trkpt><trkpt lat="43.0088575" lon="11.6388855"><ele>308.0</ele><time>2026-05-02T13:40:51.933Z</time></trkpt><trkpt lat="43.0088875" lon="11.6389857"><ele>307.66666666666663</ele><time>2026-05-02T13:40:53.074Z</time></trkpt><trkpt lat="43.0089192" lon="11.6390684"><ele>307.3333333333333</ele><time>2026-05-02T13:40:54.404Z</time></trkpt><trkpt lat="43.0089897" lon="11.6392286"><ele>307.0</ele><time>2026-05-02T13:40:55.938Z</time></trkpt><trkpt lat="43.0090461" lon="11.6392943"><ele>307.0</ele><time>2026-05-02T13:40:57.039Z</time></trkpt><trkpt lat="43.0091174" lon="11.6393687"><ele>307.0</ele><time>2026-05-02T13:40:58.302Z</time></trkpt><trkpt lat="43.0092422" lon="11.6395105"><ele>307.0</ele><time>2026-05-02T13:40:59.933Z</time></trkpt><trkpt lat="43.0093026" lon="11.6395974"><ele>307.0</ele><time>2026-05-02T13:41:00.915Z</time></trkpt><trkpt lat="43.009353" lon="11.639695"><ele>307.0</ele><time>2026-05-02T13:41:02.032Z</time></trkpt><trkpt lat="43.009398" lon="11.6398036"><ele>305.75</ele><time>2026-05-02T13:41:02.979Z</time></trkpt><trkpt lat="43.0094794" lon="11.6400328"><ele>304.5</ele><time>2026-05-02T13:41:04.835Z</time></trkpt><trkpt lat="43.0095088" lon="11.6401684"><ele>303.25</ele><time>2026-05-02T13:41:05.956Z</time></trkpt><trkpt lat="43.0095309" lon="11.6403113"><ele>302.0</ele><time>2026-05-02T13:41:06.957Z</time></trkpt><trkpt lat="43.00955" lon="11.6404549"><ele>300.75</ele><time>2026-05-02T13:41:07.88Z</time></trkpt><trkpt lat="43.0096089" lon="11.6407275"><ele>299.5</ele><time>2026-05-02T13:41:09.53Z</time></trkpt><trkpt lat="43.0096466" lon="11.6408514"><ele>298.25</ele><time>2026-05-02T13:41:10.531Z</time></trkpt><trkpt lat="43.0096975" lon="11.6409604"><ele>297.0</ele><time>2026-05-02T13:41:11.531Z</time></trkpt><trkpt lat="43.0097377" lon="11.6410677"><ele>296.5</ele><time>2026-05-02T13:41:12.539Z</time></trkpt><trkpt lat="43.0097764" lon="11.6411747"><ele>296.0</ele><time>2026-05-02T13:41:13.552Z</time></trkpt><trkpt lat="43.009818" lon="11.6412695"><ele>295.5</ele><time>2026-05-02T13:41:14.584Z</time></trkpt><trkpt lat="43.0098648" lon="11.6413602"><ele>295.0</ele><time>2026-05-02T13:41:15.602Z</time></trkpt><trkpt lat="43.0099195" lon="11.6414486"><ele>294.5</ele><time>2026-05-02T13:41:16.639Z</time></trkpt><trkpt lat="43.0099827" lon="11.6415306"><ele>294.0</ele><time>2026-05-02T13:41:17.676Z</time></trkpt><trkpt lat="43.0100451" lon="11.6416178"><ele>294.0</ele><time>2026-05-02T13:41:18.74Z</time></trkpt><trkpt lat="43.0101223" lon="11.641701"><ele>294.0</ele><time>2026-05-02T13:41:19.799Z</time></trkpt><trkpt lat="43.0102042" lon="11.641785"><ele>294.0</ele><time>2026-05-02T13:41:20.789Z</time></trkpt><trkpt lat="43.0102897" lon="11.6418726"><ele>294.0</ele><time>2026-05-02T13:41:21.873Z</time></trkpt><trkpt lat="43.0103795" lon="11.641981"><ele>294.0</ele><time>2026-05-02T13:41:22.935Z</time></trkpt><trkpt lat="43.0104771" lon="11.6420932"><ele>293.3333333333333</ele><time>2026-05-02T13:41:23.981Z</time></trkpt><trkpt lat="43.0105649" lon="11.6422012"><ele>292.66666666666663</ele><time>2026-05-02T13:41:24.988Z</time></trkpt><trkpt lat="43.0106467" lon="11.6423132"><ele>292.0</ele><time>2026-05-02T13:41:25.937Z</time></trkpt><trkpt lat="43.0108111" lon="11.6425064"><ele>291.6</ele><time>2026-05-02T13:41:27.607Z</time></trkpt><trkpt lat="43.0108893" lon="11.642598"><ele>291.2</ele><time>2026-05-02T13:41:28.604Z</time></trkpt><trkpt lat="43.0109785" lon="11.6426786"><ele>290.8</ele><time>2026-05-02T13:41:29.599Z</time></trkpt><trkpt lat="43.011072" lon="11.6427406"><ele>290.4</ele><time>2026-05-02T13:41:30.608Z</time></trkpt><trkpt lat="43.0111576" lon="11.6428198"><ele>290.0</ele><time>2026-05-02T13:41:31.553Z</time></trkpt><trkpt lat="43.011255" lon="11.6428978"><ele>289.8</ele><time>2026-05-02T13:41:32.528Z</time></trkpt><trkpt lat="43.0113488" lon="11.6429734"><ele>289.6</ele><time>2026-05-02T13:41:33.525Z</time></trkpt><trkpt lat="43.0114402" lon="11.6430416"><ele>289.4</ele><time>2026-05-02T13:41:34.537Z</time></trkpt><trkpt lat="43.0115292" lon="11.6431017"><ele>289.2</ele><time>2026-05-02T13:41:35.531Z</time></trkpt><trkpt lat="43.0116096" lon="11.6431538"><ele>289.0</ele><time>2026-05-02T13:41:36.534Z</time></trkpt><trkpt lat="43.011682" lon="11.6432016"><ele>288.8</ele><time>2026-05-02T13:41:37.555Z</time></trkpt><trkpt lat="43.0117608" lon="11.6432484"><ele>288.59999999999997</ele><time>2026-05-02T13:41:38.588Z</time></trkpt><trkpt lat="43.0118407" lon="11.6432718"><ele>288.4</ele><time>2026-05-02T13:41:39.6Z</time></trkpt><trkpt lat="43.0119298" lon="11.6432771"><ele>288.2</ele><time>2026-05-02T13:41:40.692Z</time></trkpt><trkpt lat="43.0120191" lon="11.643239"><ele>288.0</ele><time>2026-05-02T13:41:41.831Z</time></trkpt><trkpt lat="43.012116" lon="11.6431875"><ele>288.0</ele><time>2026-05-02T13:41:43.045Z</time></trkpt><trkpt lat="43.0122119" lon="11.6431145"><ele>288.0</ele><time>2026-05-02T13:41:44.005Z</time></trkpt><trkpt lat="43.0123962" lon="11.6429422"><ele>288.0</ele><time>2026-05-02T13:41:45.553Z</time></trkpt><trkpt lat="43.0124719" lon="11.6428856"><ele>288.0</ele><time>2026-05-02T13:41:46.604Z</time></trkpt><trkpt lat="43.0125565" lon="11.6428517"><ele>286.5</ele><time>2026-05-02T13:41:47.736Z</time></trkpt><trkpt lat="43.0126334" lon="11.6428743"><ele>285.0</ele><time>2026-05-02T13:41:48.959Z</time></trkpt><trkpt lat="43.0127045" lon="11.6429169"><ele>283.5</ele><time>2026-05-02T13:41:50.341Z</time></trkpt><trkpt lat="43.0128737" lon="11.643074"><ele>282.0</ele><time>2026-05-02T13:41:51.929Z</time></trkpt><trkpt lat="43.0130394" lon="11.6432246"><ele>282.0</ele><time>2026-05-02T13:41:53.522Z</time></trkpt><trkpt lat="43.0131087" lon="11.6432826"><ele>282.0</ele><time>2026-05-02T13:41:54.525Z</time></trkpt><trkpt lat="43.0131799" lon="11.6433015"><ele>282.0</ele><time>2026-05-02T13:41:55.565Z</time></trkpt><trkpt lat="43.0132569" lon="11.6433206"><ele>282.0</ele><time>2026-05-02T13:41:56.604Z</time></trkpt><trkpt lat="43.0133398" lon="11.6433156"><ele>282.0</ele><time>2026-05-02T13:41:57.58Z</time></trkpt><trkpt lat="43.0134425" lon="11.6433014"><ele>282.0</ele><time>2026-05-02T13:41:58.533Z</time></trkpt><trkpt lat="43.0135582" lon="11.643284"><ele>282.25</ele><time>2026-05-02T13:41:59.538Z</time></trkpt><trkpt lat="43.0136685" lon="11.6432658"><ele>282.5</ele><time>2026-05-02T13:42:00.536Z</time></trkpt><trkpt lat="43.01379" lon="11.6432415"><ele>282.75</ele><time>2026-05-02T13:42:01.528Z</time></trkpt><trkpt lat="43.0139139" lon="11.6432154"><ele>283.0</ele><time>2026-05-02T13:42:02.549Z</time></trkpt><trkpt lat="43.014038" lon="11.643198"><ele>282.25</ele><time>2026-05-02T13:42:03.564Z</time></trkpt><trkpt lat="43.0141625" lon="11.643181"><ele>281.5</ele><time>2026-05-02T13:42:04.593Z</time></trkpt><trkpt lat="43.0142835" lon="11.6431476"><ele>280.75</ele><time>2026-05-02T13:42:05.519Z</time></trkpt><trkpt lat="43.014403" lon="11.643127"><ele>280.0</ele><time>2026-05-02T13:42:06.523Z</time></trkpt><trkpt lat="43.0145226" lon="11.6431104"><ele>280.0</ele><time>2026-05-02T13:42:07.532Z</time></trkpt><trkpt lat="43.0146362" lon="11.6431006"><ele>280.0</ele><time>2026-05-02T13:42:08.522Z</time></trkpt><trkpt lat="43.0147357" lon="11.6431026"><ele>280.0</ele><time>2026-05-02T13:42:09.517Z</time></trkpt><trkpt lat="43.0148231" lon="11.6431034"><ele>280.0</ele><time>2026-05-02T13:42:10.526Z</time></trkpt><trkpt lat="43.0149315" lon="11.6430742"><ele>280.0</ele><time>2026-05-02T13:42:12.592Z</time></trkpt><trkpt lat="43.0150131" lon="11.6430466"><ele>279.6</ele><time>2026-05-02T13:42:14.611Z</time></trkpt><trkpt lat="43.0151425" lon="11.6430266"><ele>279.2</ele><time>2026-05-02T13:42:16.613Z</time></trkpt><trkpt lat="43.0152259" lon="11.6430074"><ele>278.8</ele><time>2026-05-02T13:42:17.532Z</time></trkpt><trkpt lat="43.0153197" lon="11.6429851"><ele>278.4</ele><time>2026-05-02T13:42:18.537Z</time></trkpt><trkpt lat="43.0154261" lon="11.6429715"><ele>278.0</ele><time>2026-05-02T13:42:19.52Z</time></trkpt><trkpt lat="43.0155285" lon="11.6429667"><ele>278.0</ele><time>2026-05-02T13:42:20.56Z</time></trkpt><trkpt lat="43.0156263" lon="11.6429855"><ele>278.0</ele><time>2026-05-02T13:42:21.588Z</time></trkpt><trkpt lat="43.0157185" lon="11.643037"><ele>278.0</ele><time>2026-05-02T13:42:22.664Z</time></trkpt><trkpt lat="43.0158012" lon="11.643114"><ele>278.0</ele><time>2026-05-02T13:42:23.733Z</time></trkpt><trkpt lat="43.0158827" lon="11.6432039"><ele>278.0</ele><time>2026-05-02T13:42:24.904Z</time></trkpt><trkpt lat="43.0159577" lon="11.643287"><ele>277.0</ele><time>2026-05-02T13:42:26.017Z</time></trkpt><trkpt lat="43.0160168" lon="11.6433792"><ele>276.0</ele><time>2026-05-02T13:42:27.148Z</time></trkpt><trkpt lat="43.0161752" lon="11.6434741"><ele>275.0</ele><time>2026-05-02T13:42:28.528Z</time></trkpt><trkpt lat="43.0162751" lon="11.6435001"><ele>274.0</ele><time>2026-05-02T13:42:29.536Z</time></trkpt><trkpt lat="43.0163779" lon="11.6435182"><ele>274.0</ele><time>2026-05-02T13:42:30.533Z</time></trkpt><trkpt lat="43.0164868" lon="11.6435371"><ele>274.0</ele><time>2026-05-02T13:42:31.531Z</time></trkpt><trkpt lat="43.0166044" lon="11.6435533"><ele>274.0</ele><time>2026-05-02T13:42:32.528Z</time></trkpt><trkpt lat="43.0167213" lon="11.6435583"><ele>274.0</ele><time>2026-05-02T13:42:33.524Z</time></trkpt><trkpt lat="43.0168468" lon="11.6435665"><ele>274.4</ele><time>2026-05-02T13:42:34.538Z</time></trkpt><trkpt lat="43.0169682" lon="11.6435829"><ele>274.79999999999995</ele><time>2026-05-02T13:42:35.52Z</time></trkpt><trkpt lat="43.0170781" lon="11.6435947"><ele>275.20000000000005</ele><time>2026-05-02T13:42:36.523Z</time></trkpt><trkpt lat="43.0171819" lon="11.6436086"><ele>275.6</ele><time>2026-05-02T13:42:37.528Z</time></trkpt><trkpt lat="43.0172904" lon="11.6436293"><ele>276.0</ele><time>2026-05-02T13:42:38.536Z</time></trkpt><trkpt lat="43.0173919" lon="11.6436462"><ele>274.6</ele><time>2026-05-02T13:42:39.527Z</time></trkpt><trkpt lat="43.0174947" lon="11.6436542"><ele>273.20000000000005</ele><time>2026-05-02T13:42:40.53Z</time></trkpt><trkpt lat="43.0175975" lon="11.6436548"><ele>271.79999999999995</ele><time>2026-05-02T13:42:41.525Z</time></trkpt><trkpt lat="43.0176907" lon="11.6436723"><ele>270.4</ele><time>2026-05-02T13:42:42.54Z</time></trkpt><trkpt lat="43.0177796" lon="11.6436837"><ele>269.0</ele><time>2026-05-02T13:42:43.533Z</time></trkpt><trkpt lat="43.0178669" lon="11.6436836"><ele>269.0</ele><time>2026-05-02T13:42:44.575Z</time></trkpt><trkpt lat="43.0179569" lon="11.6436808"><ele>269.0</ele><time>2026-05-02T13:42:45.523Z</time></trkpt><trkpt lat="43.0180501" lon="11.643684"><ele>269.0</ele><time>2026-05-02T13:42:46.531Z</time></trkpt><trkpt lat="43.0181447" lon="11.6436872"><ele>269.0</ele><time>2026-05-02T13:42:47.527Z</time></trkpt><trkpt lat="43.0182539" lon="11.6436835"><ele>269.0</ele><time>2026-05-02T13:42:48.525Z</time></trkpt><trkpt lat="43.0183772" lon="11.643688"><ele>268.75</ele><time>2026-05-02T13:42:49.537Z</time></trkpt><trkpt lat="43.018521" lon="11.6437083"><ele>268.5</ele><time>2026-05-02T13:42:50.548Z</time></trkpt><trkpt lat="43.0186618" lon="11.6437533"><ele>268.25</ele><time>2026-05-02T13:42:51.527Z</time></trkpt><trkpt lat="43.0188076" lon="11.6438113"><ele>268.0</ele><time>2026-05-02T13:42:52.536Z</time></trkpt><trkpt lat="43.0189404" lon="11.6438762"><ele>268.0</ele><time>2026-05-02T13:42:53.557Z</time></trkpt><trkpt lat="43.0190732" lon="11.6439213"><ele>268.0</ele><time>2026-05-02T13:42:54.568Z</time></trkpt><trkpt lat="43.0191842" lon="11.6439789"><ele>268.0</ele><time>2026-05-02T13:42:55.538Z</time></trkpt><trkpt lat="43.0192984" lon="11.6440263"><ele>268.0</ele><time>2026-05-02T13:42:56.529Z</time></trkpt><trkpt lat="43.0193966" lon="11.6440775"><ele>268.0</ele><time>2026-05-02T13:42:57.522Z</time></trkpt><trkpt lat="43.0194941" lon="11.6441216"><ele>268.0</ele><time>2026-05-02T13:42:58.535Z</time></trkpt><trkpt lat="43.0195843" lon="11.6441737"><ele>268.0</ele><time>2026-05-02T13:42:59.548Z</time></trkpt><trkpt lat="43.0196886" lon="11.6441972"><ele>268.0</ele><time>2026-05-02T13:43:00.567Z</time></trkpt><trkpt lat="43.0197737" lon="11.6442083"><ele>268.0</ele><time>2026-05-02T13:43:01.609Z</time></trkpt><trkpt lat="43.0198545" lon="11.6441982"><ele>268.0</ele><time>2026-05-02T13:43:02.619Z</time></trkpt><trkpt lat="43.0199357" lon="11.6441689"><ele>268.0</ele><time>2026-05-02T13:43:04.671Z</time></trkpt><trkpt lat="43.0199875" lon="11.6440408"><ele>268.0</ele><time>2026-05-02T13:43:08.117Z</time></trkpt><trkpt lat="43.0199523" lon="11.6437907"><ele>268.0</ele><time>2026-05-02T13:43:10.523Z</time></trkpt><trkpt lat="43.0199254" lon="11.643646"><ele>268.25</ele><time>2026-05-02T13:43:11.516Z</time></trkpt><trkpt lat="43.0199099" lon="11.6435027"><ele>268.5</ele><time>2026-05-02T13:43:12.522Z</time></trkpt><trkpt lat="43.0198877" lon="11.6433383"><ele>268.75</ele><time>2026-05-02T13:43:13.524Z</time></trkpt><trkpt lat="43.0198618" lon="11.643142"><ele>269.0</ele><time>2026-05-02T13:43:14.513Z</time></trkpt><trkpt lat="43.019838" lon="11.6429674"><ele>269.5</ele><time>2026-05-02T13:43:15.538Z</time></trkpt><trkpt lat="43.0198288" lon="11.6427813"><ele>270.0</ele><time>2026-05-02T13:43:16.593Z</time></trkpt><trkpt lat="43.0198265" lon="11.6425978"><ele>270.5</ele><time>2026-05-02T13:43:17.664Z</time></trkpt><trkpt lat="43.0198329" lon="11.6424196"><ele>271.0</ele><time>2026-05-02T13:43:18.688Z</time></trkpt><trkpt lat="43.0198366" lon="11.6422453"><ele>271.0</ele><time>2026-05-02T13:43:19.828Z</time></trkpt><trkpt lat="43.0198587" lon="11.6420715"><ele>271.0</ele><time>2026-05-02T13:43:21.34Z</time></trkpt><trkpt lat="43.0199723" lon="11.6417595"><ele>271.0</ele><time>2026-05-02T13:43:22.96Z</time></trkpt><trkpt lat="43.0202033" lon="11.6414344"><ele>271.66666666666663</ele><time>2026-05-02T13:43:24.534Z</time></trkpt><trkpt lat="43.0203254" lon="11.6412823"><ele>272.3333333333333</ele><time>2026-05-02T13:43:25.517Z</time></trkpt><trkpt lat="43.0204926" lon="11.641118"><ele>273.0</ele><time>2026-05-02T13:43:26.516Z</time></trkpt><trkpt lat="43.0206367" lon="11.6409245"><ele>273.6666666666667</ele><time>2026-05-02T13:43:27.532Z</time></trkpt><trkpt lat="43.020776" lon="11.6407689"><ele>274.33333333333337</ele><time>2026-05-02T13:43:28.514Z</time></trkpt><trkpt lat="43.0209144" lon="11.6406166"><ele>275.0</ele><time>2026-05-02T13:43:29.529Z</time></trkpt><trkpt lat="43.0210279" lon="11.6404865"><ele>276.5</ele><time>2026-05-02T13:43:30.563Z</time></trkpt><trkpt lat="43.0211415" lon="11.6403529"><ele>278.0</ele><time>2026-05-02T13:43:31.577Z</time></trkpt><trkpt lat="43.0212364" lon="11.6401794"><ele>279.5</ele><time>2026-05-02T13:43:32.589Z</time></trkpt><trkpt lat="43.0213019" lon="11.6400104"><ele>281.0</ele><time>2026-05-02T13:43:33.621Z</time></trkpt><trkpt lat="43.0213475" lon="11.6398424"><ele>282.33333333333337</ele><time>2026-05-02T13:43:34.724Z</time></trkpt><trkpt lat="43.0214236" lon="11.6394536"><ele>283.6666666666667</ele><time>2026-05-02T13:43:36.521Z</time></trkpt><trkpt lat="43.0214578" lon="11.6392783"><ele>285.0</ele><time>2026-05-02T13:43:37.515Z</time></trkpt><trkpt lat="43.0214915" lon="11.6391114"><ele>285.0</ele><time>2026-05-02T13:43:38.523Z</time></trkpt><trkpt lat="43.0215204" lon="11.6389362"><ele>285.0</ele><time>2026-05-02T13:43:39.556Z</time></trkpt><trkpt lat="43.0215332" lon="11.6387838"><ele>285.0</ele><time>2026-05-02T13:43:40.583Z</time></trkpt><trkpt lat="43.0215478" lon="11.6386521"><ele>285.0</ele><time>2026-05-02T13:43:41.518Z</time></trkpt><trkpt lat="43.0215786" lon="11.638519"><ele>285.0</ele><time>2026-05-02T13:43:42.531Z</time></trkpt><trkpt lat="43.0216063" lon="11.6383721"><ele>285.2</ele><time>2026-05-02T13:43:43.532Z</time></trkpt><trkpt lat="43.0216305" lon="11.6382234"><ele>285.4</ele><time>2026-05-02T13:43:44.551Z</time></trkpt><trkpt lat="43.0216557" lon="11.6380709"><ele>285.6</ele><time>2026-05-02T13:43:45.517Z</time></trkpt><trkpt lat="43.0216752" lon="11.6379231"><ele>285.8</ele><time>2026-05-02T13:43:46.527Z</time></trkpt><trkpt lat="43.0216962" lon="11.6377762"><ele>286.0</ele><time>2026-05-02T13:43:47.53Z</time></trkpt><trkpt lat="43.0217193" lon="11.637637"><ele>286.0</ele><time>2026-05-02T13:43:48.565Z</time></trkpt><trkpt lat="43.0217413" lon="11.6374981"><ele>286.0</ele><time>2026-05-02T13:43:49.556Z</time></trkpt><trkpt lat="43.0217632" lon="11.6373686"><ele>286.0</ele><time>2026-05-02T13:43:50.525Z</time></trkpt><trkpt lat="43.0217873" lon="11.6372369"><ele>286.0</ele><time>2026-05-02T13:43:51.521Z</time></trkpt><trkpt lat="43.0218084" lon="11.6371143"><ele>286.0</ele><time>2026-05-02T13:43:52.537Z</time></trkpt><trkpt lat="43.0218276" lon="11.6369985"><ele>286.16666666666663</ele><time>2026-05-02T13:43:53.532Z</time></trkpt><trkpt lat="43.0218431" lon="11.6369"><ele>286.3333333333333</ele><time>2026-05-02T13:43:54.531Z</time></trkpt><trkpt lat="43.0218604" lon="11.6368054"><ele>286.5</ele><time>2026-05-02T13:43:55.564Z</time></trkpt><trkpt lat="43.0218733" lon="11.6367073"><ele>286.6666666666667</ele><time>2026-05-02T13:43:56.533Z</time></trkpt><trkpt lat="43.0218969" lon="11.6365639"><ele>286.83333333333337</ele><time>2026-05-02T13:43:58.632Z</time></trkpt><trkpt lat="43.0219184" lon="11.636454"><ele>287.0</ele><time>2026-05-02T13:44:00.623Z</time></trkpt><trkpt lat="43.0219389" lon="11.6363654"><ele>287.0</ele><time>2026-05-02T13:44:02.567Z</time></trkpt><trkpt lat="43.0219419" lon="11.6362614"><ele>287.0</ele><time>2026-05-02T13:44:09.027Z</time></trkpt><trkpt lat="43.0219592" lon="11.6361329"><ele>287.0</ele><time>2026-05-02T13:44:10.959Z</time></trkpt><trkpt lat="43.0219821" lon="11.6359683"><ele>287.0</ele><time>2026-05-02T13:44:13.21Z</time></trkpt><trkpt lat="43.0220113" lon="11.6358159"><ele>287.0</ele><time>2026-05-02T13:44:14.521Z</time></trkpt><trkpt lat="43.0220407" lon="11.6356273"><ele>286.4</ele><time>2026-05-02T13:44:16.517Z</time></trkpt><trkpt lat="43.0220573" lon="11.6355157"><ele>285.79999999999995</ele><time>2026-05-02T13:44:17.538Z</time></trkpt><trkpt lat="43.0220778" lon="11.6353991"><ele>285.2</ele><time>2026-05-02T13:44:18.53Z</time></trkpt><trkpt lat="43.0220983" lon="11.6352732"><ele>284.59999999999997</ele><time>2026-05-02T13:44:19.543Z</time></trkpt><trkpt lat="43.0221118" lon="11.635135"><ele>284.0</ele><time>2026-05-02T13:44:20.543Z</time></trkpt><trkpt lat="43.0221294" lon="11.6349652"><ele>283.5</ele><time>2026-05-02T13:44:21.534Z</time></trkpt><trkpt lat="43.0221547" lon="11.6347764"><ele>283.0</ele><time>2026-05-02T13:44:22.527Z</time></trkpt><trkpt lat="43.0221837" lon="11.6345852"><ele>282.5</ele><time>2026-05-02T13:44:23.528Z</time></trkpt><trkpt lat="43.0222095" lon="11.6343894"><ele>282.0</ele><time>2026-05-02T13:44:24.53Z</time></trkpt><trkpt lat="43.0222433" lon="11.6342042"><ele>281.25</ele><time>2026-05-02T13:44:25.524Z</time></trkpt><trkpt lat="43.0222733" lon="11.6340278"><ele>280.5</ele><time>2026-05-02T13:44:26.524Z</time></trkpt><trkpt lat="43.0222997" lon="11.6338422"><ele>279.75</ele><time>2026-05-02T13:44:27.528Z</time></trkpt><trkpt lat="43.0223295" lon="11.6336721"><ele>279.0</ele><time>2026-05-02T13:44:28.525Z</time></trkpt><trkpt lat="43.0223422" lon="11.6335121"><ele>278.0</ele><time>2026-05-02T13:44:29.564Z</time></trkpt><trkpt lat="43.0223577" lon="11.6333495"><ele>277.0</ele><time>2026-05-02T13:44:30.626Z</time></trkpt><trkpt lat="43.0223862" lon="11.6331791"><ele>276.0</ele><time>2026-05-02T13:44:31.688Z</time></trkpt><trkpt lat="43.0224186" lon="11.6330347"><ele>275.0</ele><time>2026-05-02T13:44:32.749Z</time></trkpt><trkpt lat="43.022475" lon="11.6329023"><ele>273.5</ele><time>2026-05-02T13:44:33.8Z</time></trkpt><trkpt lat="43.0225521" lon="11.6327696"><ele>272.0</ele><time>2026-05-02T13:44:34.851Z</time></trkpt><trkpt lat="43.0226435" lon="11.6326565"><ele>270.5</ele><time>2026-05-02T13:44:35.992Z</time></trkpt><trkpt lat="43.0227365" lon="11.6325559"><ele>269.0</ele><time>2026-05-02T13:44:37.355Z</time></trkpt><trkpt lat="43.0229398" lon="11.6323957"><ele>269.0</ele><time>2026-05-02T13:44:39.187Z</time></trkpt><trkpt lat="43.0230539" lon="11.6323799"><ele>269.0</ele><time>2026-05-02T13:44:40.744Z</time></trkpt><trkpt lat="43.0234113" lon="11.6323567"><ele>268.75</ele><time>2026-05-02T13:44:42.576Z</time></trkpt><trkpt lat="43.0235086" lon="11.6323239"><ele>268.5</ele><time>2026-05-02T13:44:43.608Z</time></trkpt><trkpt lat="43.0236065" lon="11.6322597"><ele>268.25</ele><time>2026-05-02T13:44:44.629Z</time></trkpt><trkpt lat="43.0237053" lon="11.6321615"><ele>268.0</ele><time>2026-05-02T13:44:45.599Z</time></trkpt><trkpt lat="43.0238082" lon="11.632063"><ele>267.5</ele><time>2026-05-02T13:44:46.526Z</time></trkpt><trkpt lat="43.0239209" lon="11.6319551"><ele>267.0</ele><time>2026-05-02T13:44:47.523Z</time></trkpt><trkpt lat="43.0240264" lon="11.6318262"><ele>266.5</ele><time>2026-05-02T13:44:48.52Z</time></trkpt><trkpt lat="43.0241458" lon="11.6317021"><ele>266.0</ele><time>2026-05-02T13:44:49.531Z</time></trkpt><trkpt lat="43.0242647" lon="11.6315723"><ele>265.5</ele><time>2026-05-02T13:44:50.517Z</time></trkpt><trkpt lat="43.0243865" lon="11.6314644"><ele>265.0</ele><time>2026-05-02T13:44:51.525Z</time></trkpt><trkpt lat="43.0245025" lon="11.6313614"><ele>264.5</ele><time>2026-05-02T13:44:52.576Z</time></trkpt><trkpt lat="43.0246053" lon="11.6312542"><ele>264.0</ele><time>2026-05-02T13:44:53.626Z</time></trkpt><trkpt lat="43.0247051" lon="11.6311254"><ele>263.5</ele><time>2026-05-02T13:44:54.699Z</time></trkpt><trkpt lat="43.0247725" lon="11.6310111"><ele>263.0</ele><time>2026-05-02T13:44:55.921Z</time></trkpt><trkpt lat="43.0248008" lon="11.6308836"><ele>262.5</ele><time>2026-05-02T13:44:57.375Z</time></trkpt><trkpt lat="43.0248056" lon="11.6306452"><ele>262.0</ele><time>2026-05-02T13:44:58.632Z</time></trkpt><trkpt lat="43.024783" lon="11.6305285"><ele>263.5</ele><time>2026-05-02T13:45:00.216Z</time></trkpt><trkpt lat="43.0247722" lon="11.63017"><ele>265.0</ele><time>2026-05-02T13:45:03.109Z</time></trkpt><trkpt lat="43.02483" lon="11.6298731"><ele>265.0</ele><time>2026-05-02T13:45:05.071Z</time></trkpt><trkpt lat="43.0248838" lon="11.6297188"><ele>265.0</ele><time>2026-05-02T13:45:06.154Z</time></trkpt><trkpt lat="43.0250372" lon="11.6293889"><ele>265.0</ele><time>2026-05-02T13:45:07.842Z</time></trkpt><trkpt lat="43.0251309" lon="11.6292331"><ele>267.0</ele><time>2026-05-02T13:45:08.863Z</time></trkpt><trkpt lat="43.0253126" lon="11.6289274"><ele>269.0</ele><time>2026-05-02T13:45:10.535Z</time></trkpt><trkpt lat="43.0253883" lon="11.6287723"><ele>271.0</ele><time>2026-05-02T13:45:11.514Z</time></trkpt><trkpt lat="43.0254638" lon="11.6286184"><ele>273.0</ele><time>2026-05-02T13:45:12.514Z</time></trkpt><trkpt lat="43.0255405" lon="11.6284793"><ele>275.0</ele><time>2026-05-02T13:45:13.52Z</time></trkpt><trkpt lat="43.0256119" lon="11.6283497"><ele>277.0</ele><time>2026-05-02T13:45:14.546Z</time></trkpt><trkpt lat="43.0256755" lon="11.6282288"><ele>279.0</ele><time>2026-05-02T13:45:15.576Z</time></trkpt><trkpt lat="43.0257474" lon="11.6281063"><ele>279.59999999999997</ele><time>2026-05-02T13:45:16.642Z</time></trkpt><trkpt lat="43.0258182" lon="11.6280109"><ele>280.2</ele><time>2026-05-02T13:45:17.711Z</time></trkpt><trkpt lat="43.0258932" lon="11.6279067"><ele>280.79999999999995</ele><time>2026-05-02T13:45:18.937Z</time></trkpt><trkpt lat="43.0259813" lon="11.627829"><ele>281.4</ele><time>2026-05-02T13:45:20.156Z</time></trkpt><trkpt lat="43.0261058" lon="11.6277795"><ele>282.0</ele><time>2026-05-02T13:45:21.196Z</time></trkpt><trkpt lat="43.0262276" lon="11.6277477"><ele>282.0</ele><time>2026-05-02T13:45:22.158Z</time></trkpt><trkpt lat="43.0264907" lon="11.6277295"><ele>282.0</ele><time>2026-05-02T13:45:23.525Z</time></trkpt><trkpt lat="43.0266312" lon="11.6277316"><ele>282.0</ele><time>2026-05-02T13:45:24.521Z</time></trkpt><trkpt lat="43.0267809" lon="11.627739"><ele>281.25</ele><time>2026-05-02T13:45:25.516Z</time></trkpt><trkpt lat="43.026926" lon="11.6277426"><ele>280.5</ele><time>2026-05-02T13:45:26.519Z</time></trkpt><trkpt lat="43.0270738" lon="11.6277383"><ele>279.75</ele><time>2026-05-02T13:45:27.54Z</time></trkpt><trkpt lat="43.0272065" lon="11.6277086"><ele>279.0</ele><time>2026-05-02T13:45:28.578Z</time></trkpt><trkpt lat="43.0273293" lon="11.6276486"><ele>279.0</ele><time>2026-05-02T13:45:29.615Z</time></trkpt><trkpt lat="43.0274208" lon="11.6275507"><ele>279.0</ele><time>2026-05-02T13:45:30.765Z</time></trkpt><trkpt lat="43.0274813" lon="11.6274232"><ele>279.0</ele><time>2026-05-02T13:45:32.077Z</time></trkpt><trkpt lat="43.027538" lon="11.6272533"><ele>279.0</ele><time>2026-05-02T13:45:33.586Z</time></trkpt><trkpt lat="43.0276719" lon="11.6269512"><ele>276.6666666666667</ele><time>2026-05-02T13:45:35Z</time></trkpt><trkpt lat="43.0277566" lon="11.6266037"><ele>274.33333333333337</ele><time>2026-05-02T13:45:37.152Z</time></trkpt><trkpt lat="43.0277734" lon="11.6264222"><ele>272.0</ele><time>2026-05-02T13:45:38.184Z</time></trkpt><trkpt lat="43.0277593" lon="11.6262543"><ele>270.2</ele><time>2026-05-02T13:45:38.989Z</time></trkpt><trkpt lat="43.0277292" lon="11.6261104"><ele>268.4</ele><time>2026-05-02T13:45:39.511Z</time></trkpt><trkpt lat="43.027716" lon="11.6259966"><ele>266.6</ele><time>2026-05-02T13:45:40.56Z</time></trkpt><trkpt lat="43.0277259" lon="11.625891"><ele>264.8</ele><time>2026-05-02T13:45:41.649Z</time></trkpt><trkpt lat="43.0278015" lon="11.6257534"><ele>263.0</ele><time>2026-05-02T13:45:43.989Z</time></trkpt><trkpt lat="43.0278609" lon="11.6257068"><ele>263.0</ele><time>2026-05-02T13:45:45.153Z</time></trkpt><trkpt lat="43.0279729" lon="11.6256139"><ele>263.0</ele><time>2026-05-02T13:45:46.641Z</time></trkpt><trkpt lat="43.0280378" lon="11.6255592"><ele>263.0</ele><time>2026-05-02T13:45:47.671Z</time></trkpt><trkpt lat="43.0281031" lon="11.6255043"><ele>263.0</ele><time>2026-05-02T13:45:48.663Z</time></trkpt><trkpt lat="43.0281684" lon="11.6254483"><ele>263.0</ele><time>2026-05-02T13:45:49.676Z</time></trkpt><trkpt lat="43.028233" lon="11.6253862"><ele>263.0</ele><time>2026-05-02T13:45:50.957Z</time></trkpt><trkpt lat="43.028343" lon="11.6252983"><ele>262.4</ele><time>2026-05-02T13:45:53.018Z</time></trkpt><trkpt lat="43.0284734" lon="11.6252817"><ele>261.8</ele><time>2026-05-02T13:45:55.189Z</time></trkpt><trkpt lat="43.0285434" lon="11.6253191"><ele>261.2</ele><time>2026-05-02T13:45:56.181Z</time></trkpt><trkpt lat="43.0286021" lon="11.6253788"><ele>260.6</ele><time>2026-05-02T13:45:57.485Z</time></trkpt><trkpt lat="43.0286992" lon="11.6255642"><ele>260.0</ele><time>2026-05-02T13:45:58.52Z</time></trkpt><trkpt lat="43.0287593" lon="11.6256867"><ele>260.0</ele><time>2026-05-02T13:45:59.549Z</time></trkpt><trkpt lat="43.0288358" lon="11.6257814"><ele>260.0</ele><time>2026-05-02T13:46:00.513Z</time></trkpt><trkpt lat="43.0289202" lon="11.6258805"><ele>260.0</ele><time>2026-05-02T13:46:01.535Z</time></trkpt><trkpt lat="43.0290119" lon="11.6259696"><ele>260.0</ele><time>2026-05-02T13:46:02.565Z</time></trkpt><trkpt lat="43.0291133" lon="11.6260331"><ele>260.0</ele><time>2026-05-02T13:46:03.604Z</time></trkpt><trkpt lat="43.0292154" lon="11.6260934"><ele>259.0</ele><time>2026-05-02T13:46:04.66Z</time></trkpt><trkpt lat="43.029322" lon="11.6261376"><ele>258.0</ele><time>2026-05-02T13:46:05.679Z</time></trkpt><trkpt lat="43.0294277" lon="11.6261754"><ele>257.0</ele><time>2026-05-02T13:46:06.731Z</time></trkpt><trkpt lat="43.0295341" lon="11.6262095"><ele>256.0</ele><time>2026-05-02T13:46:07.753Z</time></trkpt><trkpt lat="43.0297394" lon="11.6263167"><ele>256.0</ele><time>2026-05-02T13:46:09.536Z</time></trkpt><trkpt lat="43.0298446" lon="11.6263959"><ele>256.0</ele><time>2026-05-02T13:46:10.521Z</time></trkpt><trkpt lat="43.0299596" lon="11.6264567"><ele>256.0</ele><time>2026-05-02T13:46:11.543Z</time></trkpt><trkpt lat="43.0300808" lon="11.6265096"><ele>256.0</ele><time>2026-05-02T13:46:12.545Z</time></trkpt><trkpt lat="43.0302132" lon="11.6265639"><ele>257.0</ele><time>2026-05-02T13:46:13.573Z</time></trkpt><trkpt lat="43.0303593" lon="11.6266093"><ele>258.0</ele><time>2026-05-02T13:46:14.598Z</time></trkpt><trkpt lat="43.0305218" lon="11.626644"><ele>259.0</ele><time>2026-05-02T13:46:15.596Z</time></trkpt><trkpt lat="43.0306965" lon="11.6266611"><ele>261.5</ele><time>2026-05-02T13:46:16.648Z</time></trkpt><trkpt lat="43.0310223" lon="11.6267117"><ele>264.0</ele><time>2026-05-02T13:46:18.536Z</time></trkpt><trkpt lat="43.0311878" lon="11.6267436"><ele>264.0</ele><time>2026-05-02T13:46:19.508Z</time></trkpt><trkpt lat="43.0313516" lon="11.6267843"><ele>264.0</ele><time>2026-05-02T13:46:20.522Z</time></trkpt><trkpt lat="43.0314981" lon="11.62684"><ele>264.0</ele><time>2026-05-02T13:46:21.538Z</time></trkpt><trkpt lat="43.0316497" lon="11.6268842"><ele>263.3333333333333</ele><time>2026-05-02T13:46:22.512Z</time></trkpt><trkpt lat="43.0318014" lon="11.626951"><ele>262.66666666666663</ele><time>2026-05-02T13:46:23.521Z</time></trkpt><trkpt lat="43.0319474" lon="11.6270026"><ele>262.0</ele><time>2026-05-02T13:46:24.516Z</time></trkpt><trkpt lat="43.0321017" lon="11.6270452"><ele>260.75</ele><time>2026-05-02T13:46:25.527Z</time></trkpt><trkpt lat="43.0322516" lon="11.6271011"><ele>259.5</ele><time>2026-05-02T13:46:26.538Z</time></trkpt><trkpt lat="43.0323876" lon="11.6271429"><ele>258.25</ele><time>2026-05-02T13:46:27.522Z</time></trkpt><trkpt lat="43.0325204" lon="11.6271692"><ele>257.0</ele><time>2026-05-02T13:46:28.513Z</time></trkpt><trkpt lat="43.0326589" lon="11.6272267"><ele>257.0</ele><time>2026-05-02T13:46:29.533Z</time></trkpt><trkpt lat="43.0327798" lon="11.6272535"><ele>257.0</ele><time>2026-05-02T13:46:30.524Z</time></trkpt><trkpt lat="43.0328987" lon="11.6272753"><ele>257.0</ele><time>2026-05-02T13:46:31.514Z</time></trkpt><trkpt lat="43.0330074" lon="11.6273138"><ele>257.0</ele><time>2026-05-02T13:46:32.515Z</time></trkpt><trkpt lat="43.0331093" lon="11.6273454"><ele>257.0</ele><time>2026-05-02T13:46:33.525Z</time></trkpt><trkpt lat="43.033206" lon="11.6273794"><ele>257.0</ele><time>2026-05-02T13:46:34.514Z</time></trkpt><trkpt lat="43.0332948" lon="11.6274156"><ele>257.0</ele><time>2026-05-02T13:46:35.533Z</time></trkpt><trkpt lat="43.0333745" lon="11.62746"><ele>257.0</ele><time>2026-05-02T13:46:36.577Z</time></trkpt><trkpt lat="43.0334449" lon="11.6275234"><ele>257.0</ele><time>2026-05-02T13:46:37.623Z</time></trkpt><trkpt lat="43.0335077" lon="11.6276068"><ele>257.25</ele><time>2026-05-02T13:46:38.75Z</time></trkpt><trkpt lat="43.033542" lon="11.6277119"><ele>257.5</ele><time>2026-05-02T13:46:39.933Z</time></trkpt><trkpt lat="43.033551" lon="11.6278421"><ele>257.75</ele><time>2026-05-02T13:46:41.319Z</time></trkpt><trkpt lat="43.0335378" lon="11.6281354"><ele>258.0</ele><time>2026-05-02T13:46:42.502Z</time></trkpt><trkpt lat="43.0334997" lon="11.62831"><ele>258.0</ele><time>2026-05-02T13:46:43.517Z</time></trkpt><trkpt lat="43.0334827" lon="11.628483"><ele>258.0</ele><time>2026-05-02T13:46:44.515Z</time></trkpt><trkpt lat="43.0334787" lon="11.6286586"><ele>258.0</ele><time>2026-05-02T13:46:45.618Z</time></trkpt><trkpt lat="43.0334486" lon="11.6291137"><ele>258.0</ele><time>2026-05-02T13:46:47.515Z</time></trkpt><trkpt lat="43.0333932" lon="11.6293997"><ele>258.0</ele><time>2026-05-02T13:46:48.533Z</time></trkpt><trkpt lat="43.0333482" lon="11.6296885"><ele>258.0</ele><time>2026-05-02T13:46:49.522Z</time></trkpt><trkpt lat="43.0333201" lon="11.6299452"><ele>258.0</ele><time>2026-05-02T13:46:50.531Z</time></trkpt><trkpt lat="43.0333186" lon="11.63019"><ele>258.0</ele><time>2026-05-02T13:46:51.531Z</time></trkpt><trkpt lat="43.0333238" lon="11.6304477"><ele>258.0</ele><time>2026-05-02T13:46:52.535Z</time></trkpt><trkpt lat="43.033336" lon="11.6307259"><ele>258.3333333333333</ele><time>2026-05-02T13:46:53.513Z</time></trkpt><trkpt lat="43.0333604" lon="11.6309873"><ele>258.66666666666663</ele><time>2026-05-02T13:46:54.522Z</time></trkpt><trkpt lat="43.033396" lon="11.6312433"><ele>259.0</ele><time>2026-05-02T13:46:55.517Z</time></trkpt><trkpt lat="43.0334269" lon="11.6314862"><ele>259.3333333333333</ele><time>2026-05-02T13:46:56.516Z</time></trkpt><trkpt lat="43.0334706" lon="11.6317292"><ele>259.6666666666667</ele><time>2026-05-02T13:46:57.511Z</time></trkpt><trkpt lat="43.0334908" lon="11.6319568"><ele>260.0</ele><time>2026-05-02T13:46:58.52Z</time></trkpt><trkpt lat="43.0335116" lon="11.6321958"><ele>259.0</ele><time>2026-05-02T13:46:59.507Z</time></trkpt><trkpt lat="43.0335334" lon="11.6324035"><ele>258.0</ele><time>2026-05-02T13:47:00.519Z</time></trkpt><trkpt lat="43.0335577" lon="11.6326188"><ele>257.0</ele><time>2026-05-02T13:47:01.525Z</time></trkpt><trkpt lat="43.0335649" lon="11.6328299"><ele>256.75</ele><time>2026-05-02T13:47:02.513Z</time></trkpt><trkpt lat="43.0335841" lon="11.6330174"><ele>256.5</ele><time>2026-05-02T13:47:03.527Z</time></trkpt><trkpt lat="43.0335971" lon="11.633178"><ele>256.25</ele><time>2026-05-02T13:47:04.517Z</time></trkpt><trkpt lat="43.0336063" lon="11.6333035"><ele>256.0</ele><time>2026-05-02T13:47:05.513Z</time></trkpt><trkpt lat="43.0336052" lon="11.6334586"><ele>256.0</ele><time>2026-05-02T13:47:07.527Z</time></trkpt><trkpt lat="43.0335739" lon="11.6335505"><ele>256.0</ele><time>2026-05-02T13:47:09.519Z</time></trkpt><trkpt lat="43.0335933" lon="11.6336851"><ele>256.0</ele><time>2026-05-02T13:47:14.633Z</time></trkpt><trkpt lat="43.0335985" lon="11.6338571"><ele>256.0</ele><time>2026-05-02T13:47:16.798Z</time></trkpt><trkpt lat="43.0335979" lon="11.6339849"><ele>256.0</ele><time>2026-05-02T13:47:17.902Z</time></trkpt><trkpt lat="43.0335891" lon="11.6341421"><ele>256.66666666666663</ele><time>2026-05-02T13:47:18.858Z</time></trkpt><trkpt lat="43.033562" lon="11.6344992"><ele>257.3333333333333</ele><time>2026-05-02T13:47:20.521Z</time></trkpt><trkpt lat="43.033546" lon="11.6347069"><ele>258.0</ele><time>2026-05-02T13:47:21.533Z</time></trkpt><trkpt lat="43.0335185" lon="11.6349257"><ele>258.0</ele><time>2026-05-02T13:47:22.553Z</time></trkpt><trkpt lat="43.0334957" lon="11.6351561"><ele>258.0</ele><time>2026-05-02T13:47:23.525Z</time></trkpt><trkpt lat="43.0334735" lon="11.6353812"><ele>258.0</ele><time>2026-05-02T13:47:24.588Z</time></trkpt><trkpt lat="43.0334502" lon="11.6356068"><ele>258.6666666666667</ele><time>2026-05-02T13:47:25.577Z</time></trkpt><trkpt lat="43.0334373" lon="11.6358415"><ele>259.33333333333337</ele><time>2026-05-02T13:47:26.605Z</time></trkpt><trkpt lat="43.033437" lon="11.6360805"><ele>260.0</ele><time>2026-05-02T13:47:27.608Z</time></trkpt><trkpt lat="43.033447" lon="11.6363253"><ele>260.0</ele><time>2026-05-02T13:47:28.629Z</time></trkpt><trkpt lat="43.0334611" lon="11.6365689"><ele>260.0</ele><time>2026-05-02T13:47:29.628Z</time></trkpt><trkpt lat="43.0334983" lon="11.6370225"><ele>260.6666666666667</ele><time>2026-05-02T13:47:31.53Z</time></trkpt><trkpt lat="43.0335056" lon="11.6372607"><ele>261.3333333333333</ele><time>2026-05-02T13:47:32.513Z</time></trkpt><trkpt lat="43.0335179" lon="11.6374949"><ele>262.0</ele><time>2026-05-02T13:47:33.522Z</time></trkpt><trkpt lat="43.0335309" lon="11.6377267"><ele>261.66666666666663</ele><time>2026-05-02T13:47:34.547Z</time></trkpt><trkpt lat="43.0335554" lon="11.6379599"><ele>261.3333333333333</ele><time>2026-05-02T13:47:35.525Z</time></trkpt><trkpt lat="43.0335809" lon="11.6381991"><ele>261.0</ele><time>2026-05-02T13:47:36.53Z</time></trkpt><trkpt lat="43.0336119" lon="11.6384444"><ele>260.6666666666667</ele><time>2026-05-02T13:47:37.527Z</time></trkpt><trkpt lat="43.0336471" lon="11.6387025"><ele>260.33333333333337</ele><time>2026-05-02T13:47:38.537Z</time></trkpt><trkpt lat="43.0336855" lon="11.6389537"><ele>260.0</ele><time>2026-05-02T13:47:39.53Z</time></trkpt><trkpt lat="43.0337373" lon="11.6392077"><ele>260.0</ele><time>2026-05-02T13:47:40.529Z</time></trkpt><trkpt lat="43.0337859" lon="11.6394867"><ele>260.0</ele><time>2026-05-02T13:47:41.538Z</time></trkpt><trkpt lat="43.0338229" lon="11.6397606"><ele>260.0</ele><time>2026-05-02T13:47:42.515Z</time></trkpt><trkpt lat="43.0338707" lon="11.6400075"><ele>260.0</ele><time>2026-05-02T13:47:43.526Z</time></trkpt><trkpt lat="43.0339213" lon="11.6402439"><ele>260.0</ele><time>2026-05-02T13:47:44.521Z</time></trkpt><trkpt lat="43.0339737" lon="11.6404948"><ele>260.0</ele><time>2026-05-02T13:47:45.515Z</time></trkpt><trkpt lat="43.0340222" lon="11.6407681"><ele>260.0</ele><time>2026-05-02T13:47:46.529Z</time></trkpt><trkpt lat="43.0340824" lon="11.641038"><ele>260.0</ele><time>2026-05-02T13:47:47.519Z</time></trkpt><trkpt lat="43.0341431" lon="11.641306"><ele>260.0</ele><time>2026-05-02T13:47:48.519Z</time></trkpt><trkpt lat="43.0341873" lon="11.6415983"><ele>260.6666666666667</ele><time>2026-05-02T13:47:49.511Z</time></trkpt><trkpt lat="43.0342277" lon="11.6418926"><ele>261.3333333333333</ele><time>2026-05-02T13:47:50.509Z</time></trkpt><trkpt lat="43.0342857" lon="11.6421622"><ele>262.0</ele><time>2026-05-02T13:47:51.508Z</time></trkpt><trkpt lat="43.0343348" lon="11.6424464"><ele>262.0</ele><time>2026-05-02T13:47:52.512Z</time></trkpt><trkpt lat="43.0343824" lon="11.6427046"><ele>262.0</ele><time>2026-05-02T13:47:53.524Z</time></trkpt><trkpt lat="43.0344245" lon="11.6429579"><ele>262.0</ele><time>2026-05-02T13:47:54.513Z</time></trkpt><trkpt lat="43.0344756" lon="11.6431862"><ele>262.0</ele><time>2026-05-02T13:47:55.51Z</time></trkpt><trkpt lat="43.0345211" lon="11.6434104"><ele>262.0</ele><time>2026-05-02T13:47:56.512Z</time></trkpt><trkpt lat="43.034568" lon="11.6436169"><ele>262.0</ele><time>2026-05-02T13:47:57.504Z</time></trkpt><trkpt lat="43.0346028" lon="11.6438358"><ele>262.0</ele><time>2026-05-02T13:47:58.511Z</time></trkpt><trkpt lat="43.0346442" lon="11.6440589"><ele>262.0</ele><time>2026-05-02T13:47:59.51Z</time></trkpt><trkpt lat="43.0346822" lon="11.6442692"><ele>262.0</ele><time>2026-05-02T13:48:00.515Z</time></trkpt><trkpt lat="43.0347215" lon="11.6444409"><ele>262.0</ele><time>2026-05-02T13:48:01.508Z</time></trkpt><trkpt lat="43.0347615" lon="11.6446068"><ele>262.0</ele><time>2026-05-02T13:48:02.514Z</time></trkpt><trkpt lat="43.0347895" lon="11.6447493"><ele>262.0</ele><time>2026-05-02T13:48:03.514Z</time></trkpt><trkpt lat="43.0348067" lon="11.6448972"><ele>262.0</ele><time>2026-05-02T13:48:04.518Z</time></trkpt><trkpt lat="43.0348178" lon="11.6449966"><ele>262.0</ele><time>2026-05-02T13:48:05.535Z</time></trkpt><trkpt lat="43.0348821" lon="11.6451364"><ele>262.0</ele><time>2026-05-02T13:48:07.608Z</time></trkpt><trkpt lat="43.034958" lon="11.6452616"><ele>262.0</ele><time>2026-05-02T13:48:09.67Z</time></trkpt><trkpt lat="43.0350723" lon="11.6453865"><ele>262.0</ele><time>2026-05-02T13:48:11.774Z</time></trkpt><trkpt lat="43.0352295" lon="11.645565"><ele>262.6</ele><time>2026-05-02T13:48:13.524Z</time></trkpt><trkpt lat="43.0353081" lon="11.6456478"><ele>263.2</ele><time>2026-05-02T13:48:14.518Z</time></trkpt><trkpt lat="43.0353775" lon="11.6457318"><ele>263.8</ele><time>2026-05-02T13:48:15.513Z</time></trkpt><trkpt lat="43.0354444" lon="11.645817"><ele>264.4</ele><time>2026-05-02T13:48:16.523Z</time></trkpt><trkpt lat="43.0355079" lon="11.6458884"><ele>265.0</ele><time>2026-05-02T13:48:17.517Z</time></trkpt><trkpt lat="43.0355687" lon="11.6459689"><ele>265.0</ele><time>2026-05-02T13:48:18.515Z</time></trkpt><trkpt lat="43.0356347" lon="11.6460426"><ele>265.0</ele><time>2026-05-02T13:48:19.515Z</time></trkpt><trkpt lat="43.0356995" lon="11.6461202"><ele>265.0</ele><time>2026-05-02T13:48:20.512Z</time></trkpt><trkpt lat="43.0357675" lon="11.646191"><ele>265.0</ele><time>2026-05-02T13:48:21.509Z</time></trkpt><trkpt lat="43.0358372" lon="11.6462621"><ele>265.0</ele><time>2026-05-02T13:48:22.516Z</time></trkpt><trkpt lat="43.0359092" lon="11.646336"><ele>265.0</ele><time>2026-05-02T13:48:23.521Z</time></trkpt><trkpt lat="43.0359817" lon="11.6464038"><ele>265.0</ele><time>2026-05-02T13:48:24.542Z</time></trkpt><trkpt lat="43.0360605" lon="11.6464815"><ele>265.0</ele><time>2026-05-02T13:48:25.554Z</time></trkpt><trkpt lat="43.0361554" lon="11.6465495"><ele>265.0</ele><time>2026-05-02T13:48:26.521Z</time></trkpt><trkpt lat="43.0362629" lon="11.6466182"><ele>265.0</ele><time>2026-05-02T13:48:27.52Z</time></trkpt><trkpt lat="43.0363734" lon="11.6466876"><ele>265.0</ele><time>2026-05-02T13:48:28.527Z</time></trkpt><trkpt lat="43.0364957" lon="11.6467316"><ele>265.0</ele><time>2026-05-02T13:48:29.522Z</time></trkpt><trkpt lat="43.0366322" lon="11.6467822"><ele>265.0</ele><time>2026-05-02T13:48:30.529Z</time></trkpt><trkpt lat="43.0367752" lon="11.646832"><ele>265.0</ele><time>2026-05-02T13:48:31.531Z</time></trkpt><trkpt lat="43.0369215" lon="11.6468893"><ele>265.0</ele><time>2026-05-02T13:48:32.529Z</time></trkpt><trkpt lat="43.0370711" lon="11.6469451"><ele>265.3333333333333</ele><time>2026-05-02T13:48:33.541Z</time></trkpt><trkpt lat="43.0372088" lon="11.6470104"><ele>265.6666666666667</ele><time>2026-05-02T13:48:34.554Z</time></trkpt><trkpt lat="43.0373435" lon="11.6470913"><ele>266.0</ele><time>2026-05-02T13:48:35.596Z</time></trkpt><trkpt lat="43.0374818" lon="11.6472072"><ele>266.0</ele><time>2026-05-02T13:48:36.607Z</time></trkpt><trkpt lat="43.0376153" lon="11.6473209"><ele>266.0</ele><time>2026-05-02T13:48:37.628Z</time></trkpt><trkpt lat="43.0378882" lon="11.6475555"><ele>266.0</ele><time>2026-05-02T13:48:39.527Z</time></trkpt><trkpt lat="43.0380189" lon="11.6476629"><ele>266.0</ele><time>2026-05-02T13:48:40.521Z</time></trkpt><trkpt lat="43.0381529" lon="11.6477627"><ele>266.0</ele><time>2026-05-02T13:48:41.511Z</time></trkpt><trkpt lat="43.0382836" lon="11.6478559"><ele>266.75</ele><time>2026-05-02T13:48:42.514Z</time></trkpt><trkpt lat="43.0384028" lon="11.6479517"><ele>267.5</ele><time>2026-05-02T13:48:43.513Z</time></trkpt><trkpt lat="43.0385083" lon="11.6480455"><ele>268.25</ele><time>2026-05-02T13:48:44.533Z</time></trkpt><trkpt lat="43.0386103" lon="11.6481392"><ele>269.0</ele><time>2026-05-02T13:48:45.54Z</time></trkpt><trkpt lat="43.0387196" lon="11.6482256"><ele>269.0</ele><time>2026-05-02T13:48:46.557Z</time></trkpt><trkpt lat="43.0388463" lon="11.6482963"><ele>269.0</ele><time>2026-05-02T13:48:47.594Z</time></trkpt><trkpt lat="43.0389769" lon="11.6483595"><ele>269.0</ele><time>2026-05-02T13:48:48.624Z</time></trkpt><trkpt lat="43.0391174" lon="11.6484197"><ele>269.0</ele><time>2026-05-02T13:48:49.638Z</time></trkpt><trkpt lat="43.0392592" lon="11.6484632"><ele>269.0</ele><time>2026-05-02T13:48:50.619Z</time></trkpt><trkpt lat="43.0395346" lon="11.6484593"><ele>269.0</ele><time>2026-05-02T13:48:52.522Z</time></trkpt><trkpt lat="43.0396511" lon="11.6484389"><ele>269.0</ele><time>2026-05-02T13:48:53.544Z</time></trkpt><trkpt lat="43.0397596" lon="11.6484388"><ele>269.0</ele><time>2026-05-02T13:48:54.573Z</time></trkpt><trkpt lat="43.0398657" lon="11.6484139"><ele>269.0</ele><time>2026-05-02T13:48:55.596Z</time></trkpt><trkpt lat="43.0399933" lon="11.6483628"><ele>269.0</ele><time>2026-05-02T13:48:56.596Z</time></trkpt><trkpt lat="43.0401235" lon="11.6483059"><ele>269.0</ele><time>2026-05-02T13:48:57.574Z</time></trkpt><trkpt lat="43.0402377" lon="11.648282"><ele>269.59999999999997</ele><time>2026-05-02T13:48:58.519Z</time></trkpt><trkpt lat="43.0403476" lon="11.6482474"><ele>270.2</ele><time>2026-05-02T13:48:59.534Z</time></trkpt><trkpt lat="43.0404462" lon="11.6481998"><ele>270.79999999999995</ele><time>2026-05-02T13:49:00.508Z</time></trkpt><trkpt lat="43.0405423" lon="11.6481522"><ele>271.4</ele><time>2026-05-02T13:49:01.516Z</time></trkpt><trkpt lat="43.0406325" lon="11.6481272"><ele>272.0</ele><time>2026-05-02T13:49:02.512Z</time></trkpt><trkpt lat="43.0407148" lon="11.6480976"><ele>272.0</ele><time>2026-05-02T13:49:03.52Z</time></trkpt><trkpt lat="43.040786" lon="11.6480705"><ele>272.0</ele><time>2026-05-02T13:49:04.518Z</time></trkpt><trkpt lat="43.0408626" lon="11.6480531"><ele>272.0</ele><time>2026-05-02T13:49:05.514Z</time></trkpt><trkpt lat="43.0409552" lon="11.6480336"><ele>272.0</ele><time>2026-05-02T13:49:06.514Z</time></trkpt><trkpt lat="43.0410565" lon="11.6480064"><ele>272.0</ele><time>2026-05-02T13:49:07.516Z</time></trkpt><trkpt lat="43.0411543" lon="11.6479846"><ele>272.0</ele><time>2026-05-02T13:49:08.527Z</time></trkpt><trkpt lat="43.04126" lon="11.64797"><ele>272.8</ele><time>2026-05-02T13:49:09.557Z</time></trkpt><trkpt lat="43.0413689" lon="11.6479474"><ele>273.6</ele><time>2026-05-02T13:49:10.557Z</time></trkpt><trkpt lat="43.0414816" lon="11.6479397"><ele>274.40000000000003</ele><time>2026-05-02T13:49:11.523Z</time></trkpt><trkpt lat="43.0415919" lon="11.6479525"><ele>275.2</ele><time>2026-05-02T13:49:12.563Z</time></trkpt><trkpt lat="43.0417016" lon="11.647999"><ele>276.0</ele><time>2026-05-02T13:49:13.622Z</time></trkpt><trkpt lat="43.0418108" lon="11.6480681"><ele>277.3333333333333</ele><time>2026-05-02T13:49:14.653Z</time></trkpt><trkpt lat="43.0419194" lon="11.6481338"><ele>278.66666666666663</ele><time>2026-05-02T13:49:15.655Z</time></trkpt><trkpt lat="43.0421231" lon="11.6482722"><ele>280.0</ele><time>2026-05-02T13:49:17.537Z</time></trkpt><trkpt lat="43.0422245" lon="11.6483382"><ele>280.0</ele><time>2026-05-02T13:49:18.533Z</time></trkpt><trkpt lat="43.0423119" lon="11.6483921"><ele>280.0</ele><time>2026-05-02T13:49:19.528Z</time></trkpt><trkpt lat="43.0423912" lon="11.6484447"><ele>280.0</ele><time>2026-05-02T13:49:20.509Z</time></trkpt><trkpt lat="43.0424647" lon="11.6484917"><ele>280.0</ele><time>2026-05-02T13:49:21.518Z</time></trkpt><trkpt lat="43.0425409" lon="11.6485358"><ele>280.0</ele><time>2026-05-02T13:49:22.529Z</time></trkpt><trkpt lat="43.0426116" lon="11.6485695"><ele>280.0</ele><time>2026-05-02T13:49:23.521Z</time></trkpt><trkpt lat="43.0426862" lon="11.6486076"><ele>281.3333333333333</ele><time>2026-05-02T13:49:24.522Z</time></trkpt><trkpt lat="43.0427567" lon="11.6486484"><ele>282.66666666666663</ele><time>2026-05-02T13:49:25.521Z</time></trkpt><trkpt lat="43.0428322" lon="11.648685"><ele>284.0</ele><time>2026-05-02T13:49:26.525Z</time></trkpt><trkpt lat="43.0429077" lon="11.6487305"><ele>285.3333333333333</ele><time>2026-05-02T13:49:27.518Z</time></trkpt><trkpt lat="43.0429813" lon="11.6487924"><ele>286.6666666666667</ele><time>2026-05-02T13:49:28.534Z</time></trkpt><trkpt lat="43.0430485" lon="11.6488652"><ele>288.0</ele><time>2026-05-02T13:49:29.565Z</time></trkpt><trkpt lat="43.0431181" lon="11.6489521"><ele>288.0</ele><time>2026-05-02T13:49:30.58Z</time></trkpt><trkpt lat="43.0431862" lon="11.6490579"><ele>288.0</ele><time>2026-05-02T13:49:31.601Z</time></trkpt><trkpt lat="43.0432497" lon="11.6491773"><ele>288.0</ele><time>2026-05-02T13:49:32.642Z</time></trkpt><trkpt lat="43.0433085" lon="11.6493136"><ele>288.0</ele><time>2026-05-02T13:49:33.692Z</time></trkpt><trkpt lat="43.0433706" lon="11.6494628"><ele>288.0</ele><time>2026-05-02T13:49:34.733Z</time></trkpt><trkpt lat="43.0435015" lon="11.6497768"><ele>288.0</ele><time>2026-05-02T13:49:36.521Z</time></trkpt><trkpt lat="43.0435695" lon="11.6499179"><ele>288.0</ele><time>2026-05-02T13:49:37.534Z</time></trkpt><trkpt lat="43.0436356" lon="11.650053"><ele>288.0</ele><time>2026-05-02T13:49:38.537Z</time></trkpt><trkpt lat="43.0437016" lon="11.650186"><ele>288.0</ele><time>2026-05-02T13:49:39.536Z</time></trkpt><trkpt lat="43.0437655" lon="11.6503138"><ele>288.0</ele><time>2026-05-02T13:49:40.527Z</time></trkpt><trkpt lat="43.0438251" lon="11.6504375"><ele>288.0</ele><time>2026-05-02T13:49:41.517Z</time></trkpt><trkpt lat="43.0438795" lon="11.6505564"><ele>288.0</ele><time>2026-05-02T13:49:42.522Z</time></trkpt><trkpt lat="43.0439251" lon="11.650675"><ele>288.8</ele><time>2026-05-02T13:49:43.538Z</time></trkpt><trkpt lat="43.0439696" lon="11.6507979"><ele>289.6</ele><time>2026-05-02T13:49:44.541Z</time></trkpt><trkpt lat="43.0440197" lon="11.650921"><ele>290.4</ele><time>2026-05-02T13:49:45.53Z</time></trkpt><trkpt lat="43.0440737" lon="11.6510461"><ele>291.2</ele><time>2026-05-02T13:49:46.522Z</time></trkpt><trkpt lat="43.0441271" lon="11.6511718"><ele>292.0</ele><time>2026-05-02T13:49:47.517Z</time></trkpt><trkpt lat="43.0441834" lon="11.6512933"><ele>292.16666666666663</ele><time>2026-05-02T13:49:48.519Z</time></trkpt><trkpt lat="43.0442326" lon="11.6514086"><ele>292.3333333333333</ele><time>2026-05-02T13:49:49.536Z</time></trkpt><trkpt lat="43.0442774" lon="11.6515156"><ele>292.5</ele><time>2026-05-02T13:49:50.554Z</time></trkpt><trkpt lat="43.0443241" lon="11.6516048"><ele>292.6666666666667</ele><time>2026-05-02T13:49:51.588Z</time></trkpt><trkpt lat="43.0443769" lon="11.6516807"><ele>292.83333333333337</ele><time>2026-05-02T13:49:52.628Z</time></trkpt><trkpt lat="43.0444376" lon="11.6517389"><ele>293.0</ele><time>2026-05-02T13:49:53.744Z</time></trkpt><trkpt lat="43.0444956" lon="11.6517733"><ele>293.0</ele><time>2026-05-02T13:49:54.725Z</time></trkpt><trkpt lat="43.0445545" lon="11.6518124"><ele>293.0</ele><time>2026-05-02T13:49:55.865Z</time></trkpt><trkpt lat="43.0446169" lon="11.651846"><ele>293.0</ele><time>2026-05-02T13:49:56.907Z</time></trkpt><trkpt lat="43.0447427" lon="11.6519234"><ele>293.0</ele><time>2026-05-02T13:49:58.515Z</time></trkpt><trkpt lat="43.0447994" lon="11.6519612"><ele>293.0</ele><time>2026-05-02T13:49:59.515Z</time></trkpt><trkpt lat="43.0449046" lon="11.6520601"><ele>293.33333333333337</ele><time>2026-05-02T13:50:01.529Z</time></trkpt><trkpt lat="43.0449585" lon="11.6521152"><ele>293.6666666666667</ele><time>2026-05-02T13:50:02.523Z</time></trkpt><trkpt lat="43.0450162" lon="11.6521904"><ele>294.0</ele><time>2026-05-02T13:50:03.536Z</time></trkpt><trkpt lat="43.0450707" lon="11.6522838"><ele>294.3333333333333</ele><time>2026-05-02T13:50:04.571Z</time></trkpt><trkpt lat="43.0451247" lon="11.652391"><ele>294.66666666666663</ele><time>2026-05-02T13:50:05.573Z</time></trkpt><trkpt lat="43.0451834" lon="11.6525063"><ele>295.0</ele><time>2026-05-02T13:50:06.579Z</time></trkpt><trkpt lat="43.0452473" lon="11.6526333"><ele>294.0</ele><time>2026-05-02T13:50:07.522Z</time></trkpt><trkpt lat="43.0453128" lon="11.6527644"><ele>293.0</ele><time>2026-05-02T13:50:08.526Z</time></trkpt><trkpt lat="43.0453815" lon="11.6529006"><ele>292.0</ele><time>2026-05-02T13:50:09.523Z</time></trkpt><trkpt lat="43.0454478" lon="11.6530414"><ele>291.0</ele><time>2026-05-02T13:50:10.525Z</time></trkpt><trkpt lat="43.0455135" lon="11.6531739"><ele>290.75</ele><time>2026-05-02T13:50:11.533Z</time></trkpt><trkpt lat="43.0455777" lon="11.6533125"><ele>290.5</ele><time>2026-05-02T13:50:12.522Z</time></trkpt><trkpt lat="43.045643" lon="11.6534466"><ele>290.25</ele><time>2026-05-02T13:50:13.535Z</time></trkpt><trkpt lat="43.0457103" lon="11.6535759"><ele>290.0</ele><time>2026-05-02T13:50:14.537Z</time></trkpt><trkpt lat="43.0457774" lon="11.6537028"><ele>288.0</ele><time>2026-05-02T13:50:15.54Z</time></trkpt><trkpt lat="43.0458465" lon="11.6538337"><ele>286.0</ele><time>2026-05-02T13:50:16.556Z</time></trkpt><trkpt lat="43.0459101" lon="11.65396"><ele>284.0</ele><time>2026-05-02T13:50:17.522Z</time></trkpt><trkpt lat="43.0459732" lon="11.6540851"><ele>282.0</ele><time>2026-05-02T13:50:18.522Z</time></trkpt><trkpt lat="43.0460356" lon="11.6542133"><ele>282.0</ele><time>2026-05-02T13:50:19.515Z</time></trkpt><trkpt lat="43.0460936" lon="11.6543327"><ele>282.0</ele><time>2026-05-02T13:50:20.512Z</time></trkpt><trkpt lat="43.0461565" lon="11.6544383"><ele>282.0</ele><time>2026-05-02T13:50:21.524Z</time></trkpt><trkpt lat="43.0462152" lon="11.6545353"><ele>282.0</ele><time>2026-05-02T13:50:22.546Z</time></trkpt><trkpt lat="43.0462706" lon="11.6546221"><ele>282.0</ele><time>2026-05-02T13:50:23.565Z</time></trkpt><trkpt lat="43.0463265" lon="11.6546819"><ele>281.8333333333333</ele><time>2026-05-02T13:50:24.591Z</time></trkpt><trkpt lat="43.0463952" lon="11.654726"><ele>281.6666666666667</ele><time>2026-05-02T13:50:25.625Z</time></trkpt><trkpt lat="43.0464629" lon="11.6547705"><ele>281.5</ele><time>2026-05-02T13:50:26.712Z</time></trkpt><trkpt lat="43.0465469" lon="11.6547958"><ele>281.33333333333337</ele><time>2026-05-02T13:50:27.815Z</time></trkpt><trkpt lat="43.0466393" lon="11.6547974"><ele>281.1666666666667</ele><time>2026-05-02T13:50:29.086Z</time></trkpt><trkpt lat="43.0467462" lon="11.6547999"><ele>281.0</ele><time>2026-05-02T13:50:30.23Z</time></trkpt><trkpt lat="43.0468598" lon="11.6548089"><ele>281.0</ele><time>2026-05-02T13:50:31.195Z</time></trkpt><trkpt lat="43.0470854" lon="11.6547774"><ele>281.0</ele><time>2026-05-02T13:50:32.521Z</time></trkpt><trkpt lat="43.047192" lon="11.6547749"><ele>281.0</ele><time>2026-05-02T13:50:33.508Z</time></trkpt><trkpt lat="43.0473151" lon="11.6547469"><ele>281.0</ele><time>2026-05-02T13:50:34.508Z</time></trkpt><trkpt lat="43.0474386" lon="11.6547093"><ele>281.0</ele><time>2026-05-02T13:50:35.507Z</time></trkpt><trkpt lat="43.0475547" lon="11.6547071"><ele>281.0</ele><time>2026-05-02T13:50:36.514Z</time></trkpt><trkpt lat="43.0476573" lon="11.6546918"><ele>281.0</ele><time>2026-05-02T13:50:37.542Z</time></trkpt><trkpt lat="43.0477405" lon="11.6546843"><ele>281.0</ele><time>2026-05-02T13:50:38.565Z</time></trkpt><trkpt lat="43.047849" lon="11.6546577"><ele>281.0</ele><time>2026-05-02T13:50:40.586Z</time></trkpt><trkpt lat="43.0479287" lon="11.6547258"><ele>281.0</ele><time>2026-05-02T13:50:47.523Z</time></trkpt><trkpt lat="43.0479858" lon="11.6547861"><ele>281.0</ele><time>2026-05-02T13:50:48.522Z</time></trkpt><trkpt lat="43.0480538" lon="11.6548508"><ele>281.0</ele><time>2026-05-02T13:50:49.533Z</time></trkpt><trkpt lat="43.0481298" lon="11.6549171"><ele>281.0</ele><time>2026-05-02T13:50:50.513Z</time></trkpt><trkpt lat="43.0482089" lon="11.6549978"><ele>281.0</ele><time>2026-05-02T13:50:51.52Z</time></trkpt><trkpt lat="43.048287" lon="11.6550896"><ele>281.5</ele><time>2026-05-02T13:50:52.526Z</time></trkpt><trkpt lat="43.0483753" lon="11.6551782"><ele>282.0</ele><time>2026-05-02T13:50:53.525Z</time></trkpt><trkpt lat="43.0484676" lon="11.6552704"><ele>282.5</ele><time>2026-05-02T13:50:54.515Z</time></trkpt><trkpt lat="43.048569" lon="11.655374"><ele>283.0</ele><time>2026-05-02T13:50:55.519Z</time></trkpt><trkpt lat="43.0486714" lon="11.6554875"><ele>282.0</ele><time>2026-05-02T13:50:56.531Z</time></trkpt><trkpt lat="43.048774" lon="11.6555921"><ele>281.0</ele><time>2026-05-02T13:50:57.513Z</time></trkpt><trkpt lat="43.0488748" lon="11.6557008"><ele>280.0</ele><time>2026-05-02T13:50:58.509Z</time></trkpt><trkpt lat="43.0489739" lon="11.655811"><ele>279.0</ele><time>2026-05-02T13:50:59.554Z</time></trkpt><trkpt lat="43.0490729" lon="11.6559071"><ele>279.25</ele><time>2026-05-02T13:51:00.547Z</time></trkpt><trkpt lat="43.0491718" lon="11.6560076"><ele>279.5</ele><time>2026-05-02T13:51:01.529Z</time></trkpt><trkpt lat="43.0492776" lon="11.6561147"><ele>279.75</ele><time>2026-05-02T13:51:02.514Z</time></trkpt><trkpt lat="43.049386" lon="11.6562291"><ele>280.0</ele><time>2026-05-02T13:51:03.514Z</time></trkpt><trkpt lat="43.049499" lon="11.6563529"><ele>280.25</ele><time>2026-05-02T13:51:04.508Z</time></trkpt><trkpt lat="43.0496128" lon="11.6564651"><ele>280.5</ele><time>2026-05-02T13:51:05.506Z</time></trkpt><trkpt lat="43.0497256" lon="11.6565751"><ele>280.75</ele><time>2026-05-02T13:51:06.513Z</time></trkpt><trkpt lat="43.0498282" lon="11.6566832"><ele>281.0</ele><time>2026-05-02T13:51:07.528Z</time></trkpt><trkpt lat="43.0499179" lon="11.6567827"><ele>281.40000000000003</ele><time>2026-05-02T13:51:08.526Z</time></trkpt><trkpt lat="43.0500072" lon="11.656877"><ele>281.8</ele><time>2026-05-02T13:51:09.517Z</time></trkpt><trkpt lat="43.0500942" lon="11.6569624"><ele>282.20000000000005</ele><time>2026-05-02T13:51:10.528Z</time></trkpt><trkpt lat="43.0501627" lon="11.6570381"><ele>282.6</ele><time>2026-05-02T13:51:11.538Z</time></trkpt><trkpt lat="43.0502397" lon="11.6570899"><ele>283.0</ele><time>2026-05-02T13:51:12.565Z</time></trkpt><trkpt lat="43.0503338" lon="11.6571154"><ele>283.25</ele><time>2026-05-02T13:51:13.65Z</time></trkpt><trkpt lat="43.0504399" lon="11.6570902"><ele>283.5</ele><time>2026-05-02T13:51:14.682Z</time></trkpt><trkpt lat="43.0505601" lon="11.6570492"><ele>283.75</ele><time>2026-05-02T13:51:15.802Z</time></trkpt><trkpt lat="43.0506924" lon="11.6570028"><ele>284.0</ele><time>2026-05-02T13:51:16.883Z</time></trkpt><trkpt lat="43.0508314" lon="11.6569547"><ele>283.6666666666667</ele><time>2026-05-02T13:51:17.924Z</time></trkpt><trkpt lat="43.0510891" lon="11.6568844"><ele>283.3333333333333</ele><time>2026-05-02T13:51:19.52Z</time></trkpt><trkpt lat="43.051205" lon="11.6568658"><ele>283.0</ele><time>2026-05-02T13:51:20.515Z</time></trkpt><trkpt lat="43.0513183" lon="11.6568774"><ele>283.0</ele><time>2026-05-02T13:51:21.535Z</time></trkpt><trkpt lat="43.0514368" lon="11.6568871"><ele>283.0</ele><time>2026-05-02T13:51:22.565Z</time></trkpt><trkpt lat="43.0515605" lon="11.6569063"><ele>283.0</ele><time>2026-05-02T13:51:23.568Z</time></trkpt><trkpt lat="43.0516919" lon="11.65695"><ele>283.0</ele><time>2026-05-02T13:51:24.573Z</time></trkpt><trkpt lat="43.0518224" lon="11.6569941"><ele>285.0</ele><time>2026-05-02T13:51:25.519Z</time></trkpt><trkpt lat="43.0519343" lon="11.6570621"><ele>287.0</ele><time>2026-05-02T13:51:26.52Z</time></trkpt><trkpt lat="43.0520463" lon="11.6571285"><ele>289.0</ele><time>2026-05-02T13:51:27.529Z</time></trkpt><trkpt lat="43.0521718" lon="11.6572031"><ele>291.0</ele><time>2026-05-02T13:51:28.564Z</time></trkpt><trkpt lat="43.0522981" lon="11.6572883"><ele>291.0</ele><time>2026-05-02T13:51:29.602Z</time></trkpt><trkpt lat="43.0524164" lon="11.6573799"><ele>291.0</ele><time>2026-05-02T13:51:30.644Z</time></trkpt><trkpt lat="43.0526284" lon="11.6575493"><ele>291.0</ele><time>2026-05-02T13:51:32.518Z</time></trkpt><trkpt lat="43.0527238" lon="11.6576142"><ele>290.5</ele><time>2026-05-02T13:51:33.508Z</time></trkpt><trkpt lat="43.0528144" lon="11.6576862"><ele>290.0</ele><time>2026-05-02T13:51:34.506Z</time></trkpt><trkpt lat="43.0528981" lon="11.6577534"><ele>289.5</ele><time>2026-05-02T13:51:35.526Z</time></trkpt><trkpt lat="43.0529618" lon="11.6578022"><ele>289.0</ele><time>2026-05-02T13:51:36.526Z</time></trkpt><trkpt lat="43.0530288" lon="11.657856"><ele>288.5</ele><time>2026-05-02T13:51:37.561Z</time></trkpt><trkpt lat="43.0530834" lon="11.657931"><ele>288.0</ele><time>2026-05-02T13:51:38.576Z</time></trkpt><trkpt lat="43.0531347" lon="11.6580012"><ele>288.3333333333333</ele><time>2026-05-02T13:51:39.595Z</time></trkpt><trkpt lat="43.0531811" lon="11.6580882"><ele>288.6666666666667</ele><time>2026-05-02T13:51:40.513Z</time></trkpt><trkpt lat="43.0532334" lon="11.6581801"><ele>289.0</ele><time>2026-05-02T13:51:41.527Z</time></trkpt><trkpt lat="43.0532851" lon="11.6582779"><ele>289.33333333333337</ele><time>2026-05-02T13:51:42.548Z</time></trkpt><trkpt lat="43.053325" lon="11.6583882"><ele>289.6666666666667</ele><time>2026-05-02T13:51:43.558Z</time></trkpt><trkpt lat="43.0533641" lon="11.6584925"><ele>290.0</ele><time>2026-05-02T13:51:44.571Z</time></trkpt><trkpt lat="43.0534075" lon="11.658609"><ele>292.0</ele><time>2026-05-02T13:51:45.55Z</time></trkpt><trkpt lat="43.0534551" lon="11.6587301"><ele>294.0</ele><time>2026-05-02T13:51:46.515Z</time></trkpt><trkpt lat="43.0535168" lon="11.6588724"><ele>296.0</ele><time>2026-05-02T13:51:47.53Z</time></trkpt><trkpt lat="43.0535862" lon="11.6590236"><ele>298.0</ele><time>2026-05-02T13:51:48.52Z</time></trkpt><trkpt lat="43.0536573" lon="11.6591749"><ele>298.0</ele><time>2026-05-02T13:51:49.501Z</time></trkpt><trkpt lat="43.0537285" lon="11.6593203"><ele>298.0</ele><time>2026-05-02T13:51:50.507Z</time></trkpt><trkpt lat="43.0537963" lon="11.6594655"><ele>298.0</ele><time>2026-05-02T13:51:51.503Z</time></trkpt><trkpt lat="43.0538691" lon="11.6596155"><ele>298.0</ele><time>2026-05-02T13:51:52.507Z</time></trkpt><trkpt lat="43.0539414" lon="11.6597608"><ele>297.5</ele><time>2026-05-02T13:51:53.5Z</time></trkpt><trkpt lat="43.0540146" lon="11.6599032"><ele>297.0</ele><time>2026-05-02T13:51:54.507Z</time></trkpt><trkpt lat="43.0540854" lon="11.6600407"><ele>296.5</ele><time>2026-05-02T13:51:55.5Z</time></trkpt><trkpt lat="43.0541598" lon="11.6601761"><ele>296.0</ele><time>2026-05-02T13:51:56.516Z</time></trkpt><trkpt lat="43.0542325" lon="11.6603123"><ele>296.0</ele><time>2026-05-02T13:51:57.512Z</time></trkpt><trkpt lat="43.0543038" lon="11.6604444"><ele>296.0</ele><time>2026-05-02T13:51:58.54Z</time></trkpt><trkpt lat="43.0543647" lon="11.6605756"><ele>296.0</ele><time>2026-05-02T13:51:59.556Z</time></trkpt><trkpt lat="43.0544229" lon="11.6606959"><ele>296.0</ele><time>2026-05-02T13:52:00.612Z</time></trkpt><trkpt lat="43.0544832" lon="11.6607998"><ele>296.0</ele><time>2026-05-02T13:52:01.626Z</time></trkpt><trkpt lat="43.0545522" lon="11.6608942"><ele>296.0</ele><time>2026-05-02T13:52:02.69Z</time></trkpt><trkpt lat="43.0546354" lon="11.6609832"><ele>296.0</ele><time>2026-05-02T13:52:03.721Z</time></trkpt><trkpt lat="43.0547387" lon="11.6610639"><ele>296.0</ele><time>2026-05-02T13:52:04.737Z</time></trkpt><trkpt lat="43.0548558" lon="11.6611427"><ele>296.0</ele><time>2026-05-02T13:52:05.789Z</time></trkpt><trkpt lat="43.0549851" lon="11.6612197"><ele>294.6666666666667</ele><time>2026-05-02T13:52:06.782Z</time></trkpt><trkpt lat="43.0552323" lon="11.6613573"><ele>293.3333333333333</ele><time>2026-05-02T13:52:08.545Z</time></trkpt><trkpt lat="43.0553648" lon="11.6614084"><ele>292.0</ele><time>2026-05-02T13:52:09.563Z</time></trkpt><trkpt lat="43.0554963" lon="11.6614597"><ele>292.0</ele><time>2026-05-02T13:52:10.593Z</time></trkpt><trkpt lat="43.0556409" lon="11.6615045"><ele>292.0</ele><time>2026-05-02T13:52:11.614Z</time></trkpt><trkpt lat="43.055807" lon="11.6615337"><ele>292.0</ele><time>2026-05-02T13:52:12.522Z</time></trkpt><trkpt lat="43.055961" lon="11.6615528"><ele>291.25</ele><time>2026-05-02T13:52:13.525Z</time></trkpt><trkpt lat="43.0560953" lon="11.6615791"><ele>290.5</ele><time>2026-05-02T13:52:14.525Z</time></trkpt><trkpt lat="43.0562213" lon="11.6615838"><ele>289.75</ele><time>2026-05-02T13:52:15.59Z</time></trkpt><trkpt lat="43.0563463" lon="11.6616106"><ele>289.0</ele><time>2026-05-02T13:52:16.625Z</time></trkpt><trkpt lat="43.0564616" lon="11.661643"><ele>289.0</ele><time>2026-05-02T13:52:17.581Z</time></trkpt><trkpt lat="43.0565713" lon="11.661671"><ele>289.0</ele><time>2026-05-02T13:52:18.628Z</time></trkpt><trkpt lat="43.0566778" lon="11.6616949"><ele>289.0</ele><time>2026-05-02T13:52:19.534Z</time></trkpt><trkpt lat="43.0567845" lon="11.6617209"><ele>289.0</ele><time>2026-05-02T13:52:20.556Z</time></trkpt><trkpt lat="43.0568845" lon="11.661767"><ele>289.0</ele><time>2026-05-02T13:52:21.614Z</time></trkpt><trkpt lat="43.0569779" lon="11.6618364"><ele>288.75</ele><time>2026-05-02T13:52:22.698Z</time></trkpt><trkpt lat="43.0570713" lon="11.6619373"><ele>288.5</ele><time>2026-05-02T13:52:23.749Z</time></trkpt><trkpt lat="43.0571699" lon="11.6620739"><ele>288.25</ele><time>2026-05-02T13:52:24.68Z</time></trkpt><trkpt lat="43.0572758" lon="11.6622261"><ele>288.0</ele><time>2026-05-02T13:52:25.525Z</time></trkpt><trkpt lat="43.0573742" lon="11.6623785"><ele>288.0</ele><time>2026-05-02T13:52:26.522Z</time></trkpt><trkpt lat="43.0574697" lon="11.6625228"><ele>288.0</ele><time>2026-05-02T13:52:27.521Z</time></trkpt><trkpt lat="43.0575738" lon="11.6626633"><ele>288.0</ele><time>2026-05-02T13:52:28.523Z</time></trkpt><trkpt lat="43.0576778" lon="11.6627999"><ele>288.0</ele><time>2026-05-02T13:52:29.521Z</time></trkpt><trkpt lat="43.0577866" lon="11.6629424"><ele>288.0</ele><time>2026-05-02T13:52:30.525Z</time></trkpt><trkpt lat="43.0578943" lon="11.6630818"><ele>288.0</ele><time>2026-05-02T13:52:31.543Z</time></trkpt><trkpt lat="43.0579981" lon="11.6632258"><ele>288.0</ele><time>2026-05-02T13:52:32.53Z</time></trkpt><trkpt lat="43.0581024" lon="11.6633675"><ele>288.0</ele><time>2026-05-02T13:52:33.535Z</time></trkpt><trkpt lat="43.0582078" lon="11.6635006"><ele>288.25</ele><time>2026-05-02T13:52:34.529Z</time></trkpt><trkpt lat="43.0583106" lon="11.6636362"><ele>288.5</ele><time>2026-05-02T13:52:35.52Z</time></trkpt><trkpt lat="43.0584117" lon="11.6637693"><ele>288.75</ele><time>2026-05-02T13:52:36.521Z</time></trkpt><trkpt lat="43.0585168" lon="11.6638992"><ele>289.0</ele><time>2026-05-02T13:52:37.523Z</time></trkpt><trkpt lat="43.0586095" lon="11.6640275"><ele>289.0</ele><time>2026-05-02T13:52:38.537Z</time></trkpt><trkpt lat="43.0587062" lon="11.664145"><ele>289.0</ele><time>2026-05-02T13:52:39.544Z</time></trkpt><trkpt lat="43.0587945" lon="11.6642609"><ele>289.0</ele><time>2026-05-02T13:52:40.54Z</time></trkpt><trkpt lat="43.0588843" lon="11.6643651"><ele>289.0</ele><time>2026-05-02T13:52:41.544Z</time></trkpt><trkpt lat="43.0589628" lon="11.6644676"><ele>289.0</ele><time>2026-05-02T13:52:42.562Z</time></trkpt><trkpt lat="43.0590395" lon="11.6645603"><ele>289.0</ele><time>2026-05-02T13:52:43.545Z</time></trkpt><trkpt lat="43.0591131" lon="11.6646527"><ele>289.0</ele><time>2026-05-02T13:52:44.534Z</time></trkpt><trkpt lat="43.0591882" lon="11.6647546"><ele>289.0</ele><time>2026-05-02T13:52:45.544Z</time></trkpt><trkpt lat="43.0592617" lon="11.6648572"><ele>289.0</ele><time>2026-05-02T13:52:46.558Z</time></trkpt><trkpt lat="43.0593348" lon="11.6649628"><ele>289.75</ele><time>2026-05-02T13:52:47.545Z</time></trkpt><trkpt lat="43.0594085" lon="11.6650683"><ele>290.5</ele><time>2026-05-02T13:52:48.549Z</time></trkpt><trkpt lat="43.0594853" lon="11.6651759"><ele>291.25</ele><time>2026-05-02T13:52:49.545Z</time></trkpt><trkpt lat="43.0595666" lon="11.665289"><ele>292.0</ele><time>2026-05-02T13:52:50.539Z</time></trkpt><trkpt lat="43.0596486" lon="11.6654077"><ele>292.0</ele><time>2026-05-02T13:52:51.531Z</time></trkpt><trkpt lat="43.0597351" lon="11.6655266"><ele>292.0</ele><time>2026-05-02T13:52:52.537Z</time></trkpt><trkpt lat="43.0598217" lon="11.6656521"><ele>292.0</ele><time>2026-05-02T13:52:53.527Z</time></trkpt><trkpt lat="43.059907" lon="11.6657793"><ele>292.0</ele><time>2026-05-02T13:52:54.532Z</time></trkpt><trkpt lat="43.0599881" lon="11.6659039"><ele>292.4</ele><time>2026-05-02T13:52:55.529Z</time></trkpt><trkpt lat="43.0600653" lon="11.6660156"><ele>292.79999999999995</ele><time>2026-05-02T13:52:56.531Z</time></trkpt><trkpt lat="43.0601376" lon="11.6661164"><ele>293.2</ele><time>2026-05-02T13:52:57.528Z</time></trkpt><trkpt lat="43.0602034" lon="11.6662116"><ele>293.59999999999997</ele><time>2026-05-02T13:52:58.537Z</time></trkpt><trkpt lat="43.060264" lon="11.6662935"><ele>294.0</ele><time>2026-05-02T13:52:59.532Z</time></trkpt><trkpt lat="43.0603185" lon="11.6663728"><ele>294.0</ele><time>2026-05-02T13:53:00.532Z</time></trkpt><trkpt lat="43.060361" lon="11.6664405"><ele>294.0</ele><time>2026-05-02T13:53:01.532Z</time></trkpt><trkpt lat="43.060407" lon="11.6665592"><ele>294.0</ele><time>2026-05-02T13:53:03.598Z</time></trkpt><trkpt lat="43.0604484" lon="11.6667314"><ele>294.0</ele><time>2026-05-02T13:53:05.617Z</time></trkpt><trkpt lat="43.0604701" lon="11.6668526"><ele>294.0</ele><time>2026-05-02T13:53:06.537Z</time></trkpt><trkpt lat="43.0604977" lon="11.6669974"><ele>294.0</ele><time>2026-05-02T13:53:07.556Z</time></trkpt><trkpt lat="43.0605309" lon="11.667142"><ele>294.0</ele><time>2026-05-02T13:53:08.546Z</time></trkpt><trkpt lat="43.0605664" lon="11.6672784"><ele>294.0</ele><time>2026-05-02T13:53:09.54Z</time></trkpt><trkpt lat="43.0605965" lon="11.6674119"><ele>294.0</ele><time>2026-05-02T13:53:10.542Z</time></trkpt><trkpt lat="43.0606249" lon="11.6675372"><ele>294.0</ele><time>2026-05-02T13:53:11.551Z</time></trkpt><trkpt lat="43.0606496" lon="11.6676529"><ele>294.0</ele><time>2026-05-02T13:53:12.554Z</time></trkpt><trkpt lat="43.0606753" lon="11.667765"><ele>294.0</ele><time>2026-05-02T13:53:13.541Z</time></trkpt><trkpt lat="43.0607035" lon="11.6678735"><ele>294.0</ele><time>2026-05-02T13:53:14.555Z</time></trkpt><trkpt lat="43.0607341" lon="11.6679882"><ele>294.0</ele><time>2026-05-02T13:53:15.547Z</time></trkpt><trkpt lat="43.0607645" lon="11.6681114"><ele>294.0</ele><time>2026-05-02T13:53:16.548Z</time></trkpt><trkpt lat="43.0607965" lon="11.6682392"><ele>293.8</ele><time>2026-05-02T13:53:17.541Z</time></trkpt><trkpt lat="43.0608292" lon="11.6683784"><ele>293.59999999999997</ele><time>2026-05-02T13:53:18.544Z</time></trkpt><trkpt lat="43.0608615" lon="11.6685218"><ele>293.4</ele><time>2026-05-02T13:53:19.561Z</time></trkpt><trkpt lat="43.0608954" lon="11.6686656"><ele>293.2</ele><time>2026-05-02T13:53:20.545Z</time></trkpt><trkpt lat="43.0609278" lon="11.6688098"><ele>293.0</ele><time>2026-05-02T13:53:21.562Z</time></trkpt><trkpt lat="43.060958" lon="11.6689449"><ele>292.99999999999994</ele><time>2026-05-02T13:53:22.576Z</time></trkpt><trkpt lat="43.0609908" lon="11.6690635"><ele>293.0</ele><time>2026-05-02T13:53:23.59Z</time></trkpt><trkpt lat="43.0610213" lon="11.6691681"><ele>293.0</ele><time>2026-05-02T13:53:24.607Z</time></trkpt><trkpt lat="43.0610543" lon="11.6692469"><ele>293.0</ele><time>2026-05-02T13:53:25.656Z</time></trkpt><trkpt lat="43.0610951" lon="11.6693135"><ele>293.0</ele><time>2026-05-02T13:53:26.717Z</time></trkpt><trkpt lat="43.0611427" lon="11.6693789"><ele>292.99999999999994</ele><time>2026-05-02T13:53:27.8Z</time></trkpt><trkpt lat="43.0611993" lon="11.6694334"><ele>293.0</ele><time>2026-05-02T13:53:28.914Z</time></trkpt><trkpt lat="43.061256" lon="11.6694771"><ele>293.0</ele><time>2026-05-02T13:53:29.939Z</time></trkpt><trkpt lat="43.0613817" lon="11.6695729"><ele>293.0</ele><time>2026-05-02T13:53:31.551Z</time></trkpt><trkpt lat="43.0614472" lon="11.6696312"><ele>293.0</ele><time>2026-05-02T13:53:32.55Z</time></trkpt><trkpt lat="43.0615192" lon="11.6696985"><ele>293.0</ele><time>2026-05-02T13:53:33.565Z</time></trkpt><trkpt lat="43.0615995" lon="11.6697713"><ele>293.0</ele><time>2026-05-02T13:53:34.546Z</time></trkpt><trkpt lat="43.0616885" lon="11.6698494"><ele>293.25</ele><time>2026-05-02T13:53:35.556Z</time></trkpt><trkpt lat="43.0617847" lon="11.669929"><ele>293.5</ele><time>2026-05-02T13:53:36.57Z</time></trkpt><trkpt lat="43.0618867" lon="11.6699965"><ele>293.75</ele><time>2026-05-02T13:53:37.58Z</time></trkpt><trkpt lat="43.0619948" lon="11.6700737"><ele>294.0</ele><time>2026-05-02T13:53:38.576Z</time></trkpt><trkpt lat="43.0621093" lon="11.6701504"><ele>294.0</ele><time>2026-05-02T13:53:39.541Z</time></trkpt><trkpt lat="43.0622235" lon="11.6702297"><ele>294.0</ele><time>2026-05-02T13:53:40.542Z</time></trkpt><trkpt lat="43.062339" lon="11.6703086"><ele>294.0</ele><time>2026-05-02T13:53:41.546Z</time></trkpt><trkpt lat="43.0624601" lon="11.6703859"><ele>294.0</ele><time>2026-05-02T13:53:42.559Z</time></trkpt><trkpt lat="43.0625843" lon="11.6704684"><ele>294.5</ele><time>2026-05-02T13:53:43.573Z</time></trkpt><trkpt lat="43.062713" lon="11.670554"><ele>295.0</ele><time>2026-05-02T13:53:44.555Z</time></trkpt><trkpt lat="43.0628412" lon="11.6706488"><ele>295.5</ele><time>2026-05-02T13:53:45.554Z</time></trkpt><trkpt lat="43.0629664" lon="11.6707453"><ele>296.0</ele><time>2026-05-02T13:53:46.543Z</time></trkpt><trkpt lat="43.0630946" lon="11.6708344"><ele>296.0</ele><time>2026-05-02T13:53:47.542Z</time></trkpt><trkpt lat="43.0632239" lon="11.6709253"><ele>296.0</ele><time>2026-05-02T13:53:48.553Z</time></trkpt><trkpt lat="43.0633482" lon="11.6710105"><ele>296.0</ele><time>2026-05-02T13:53:49.546Z</time></trkpt><trkpt lat="43.0634656" lon="11.6710963"><ele>296.0</ele><time>2026-05-02T13:53:50.542Z</time></trkpt><trkpt lat="43.0635757" lon="11.6711703"><ele>297.0</ele><time>2026-05-02T13:53:51.541Z</time></trkpt><trkpt lat="43.0636892" lon="11.6712498"><ele>298.0</ele><time>2026-05-02T13:53:52.556Z</time></trkpt><trkpt lat="43.0638027" lon="11.6713256"><ele>299.0</ele><time>2026-05-02T13:53:53.543Z</time></trkpt><trkpt lat="43.0639133" lon="11.6714015"><ele>300.0</ele><time>2026-05-02T13:53:54.555Z</time></trkpt><trkpt lat="43.0640197" lon="11.6714692"><ele>300.6</ele><time>2026-05-02T13:53:55.536Z</time></trkpt><trkpt lat="43.064123" lon="11.6715435"><ele>301.2</ele><time>2026-05-02T13:53:56.549Z</time></trkpt><trkpt lat="43.0642245" lon="11.671613"><ele>301.8</ele><time>2026-05-02T13:53:57.54Z</time></trkpt><trkpt lat="43.0643221" lon="11.6716763"><ele>302.4</ele><time>2026-05-02T13:53:58.542Z</time></trkpt><trkpt lat="43.0644154" lon="11.671737"><ele>303.0</ele><time>2026-05-02T13:53:59.553Z</time></trkpt><trkpt lat="43.0645027" lon="11.6717907"><ele>303.0</ele><time>2026-05-02T13:54:00.547Z</time></trkpt><trkpt lat="43.0645892" lon="11.6718445"><ele>303.0</ele><time>2026-05-02T13:54:01.555Z</time></trkpt><trkpt lat="43.0646765" lon="11.671896"><ele>303.0</ele><time>2026-05-02T13:54:02.567Z</time></trkpt><trkpt lat="43.0647619" lon="11.671948"><ele>303.0</ele><time>2026-05-02T13:54:03.553Z</time></trkpt><trkpt lat="43.0648468" lon="11.6720054"><ele>303.0</ele><time>2026-05-02T13:54:04.605Z</time></trkpt><trkpt lat="43.0649245" lon="11.6720702"><ele>304.0</ele><time>2026-05-02T13:54:05.576Z</time></trkpt><trkpt lat="43.0650043" lon="11.6721345"><ele>305.0</ele><time>2026-05-02T13:54:06.579Z</time></trkpt><trkpt lat="43.0650817" lon="11.6721956"><ele>306.0</ele><time>2026-05-02T13:54:07.633Z</time></trkpt><trkpt lat="43.0651649" lon="11.6722337"><ele>307.0</ele><time>2026-05-02T13:54:08.541Z</time></trkpt><trkpt lat="43.065251" lon="11.6722483"><ele>308.0</ele><time>2026-05-02T13:54:09.572Z</time></trkpt><trkpt lat="43.0653396" lon="11.6722385"><ele>309.0</ele><time>2026-05-02T13:54:10.584Z</time></trkpt><trkpt lat="43.0654255" lon="11.6722114"><ele>309.0</ele><time>2026-05-02T13:54:11.653Z</time></trkpt><trkpt lat="43.0655091" lon="11.6721429"><ele>309.0</ele><time>2026-05-02T13:54:12.745Z</time></trkpt><trkpt lat="43.0655837" lon="11.6720519"><ele>309.0</ele><time>2026-05-02T13:54:13.987Z</time></trkpt><trkpt lat="43.0656528" lon="11.671958"><ele>309.0</ele><time>2026-05-02T13:54:15.349Z</time></trkpt><trkpt lat="43.0657943" lon="11.6718441"><ele>309.4</ele><time>2026-05-02T13:54:16.575Z</time></trkpt><trkpt lat="43.0658688" lon="11.6718542"><ele>309.79999999999995</ele><time>2026-05-02T13:54:17.61Z</time></trkpt><trkpt lat="43.0659512" lon="11.6719043"><ele>310.20000000000005</ele><time>2026-05-02T13:54:18.651Z</time></trkpt><trkpt lat="43.0660369" lon="11.6719629"><ele>310.6</ele><time>2026-05-02T13:54:19.619Z</time></trkpt><trkpt lat="43.0661237" lon="11.6720238"><ele>311.0</ele><time>2026-05-02T13:54:20.684Z</time></trkpt><trkpt lat="43.0662043" lon="11.6720949"><ele>312.5</ele><time>2026-05-02T13:54:21.764Z</time></trkpt><trkpt lat="43.0662739" lon="11.6721796"><ele>314.0</ele><time>2026-05-02T13:54:23.994Z</time></trkpt><trkpt lat="43.0663985" lon="11.6725101"><ele>315.5</ele><time>2026-05-02T13:54:25.583Z</time></trkpt><trkpt lat="43.0664541" lon="11.6725864"><ele>317.0</ele><time>2026-05-02T13:54:26.63Z</time></trkpt><trkpt lat="43.066518" lon="11.6726489"><ele>317.0</ele><time>2026-05-02T13:54:27.721Z</time></trkpt><trkpt lat="43.0665897" lon="11.6726974"><ele>317.0</ele><time>2026-05-02T13:54:28.75Z</time></trkpt><trkpt lat="43.0666574" lon="11.6727466"><ele>317.0</ele><time>2026-05-02T13:54:29.85Z</time></trkpt><trkpt lat="43.0667071" lon="11.6728062"><ele>317.0</ele><time>2026-05-02T13:54:31.012Z</time></trkpt><trkpt lat="43.0667445" lon="11.6728818"><ele>317.0</ele><time>2026-05-02T13:54:32.607Z</time></trkpt><trkpt lat="43.0667552" lon="11.6730411"><ele>317.0</ele><time>2026-05-02T13:54:33.555Z</time></trkpt><trkpt lat="43.0667074" lon="11.6731264"><ele>317.8</ele><time>2026-05-02T13:54:34.618Z</time></trkpt><trkpt lat="43.0666426" lon="11.6732087"><ele>318.6</ele><time>2026-05-02T13:54:35.664Z</time></trkpt><trkpt lat="43.0665169" lon="11.6733826"><ele>319.40000000000003</ele><time>2026-05-02T13:54:37.587Z</time></trkpt><trkpt lat="43.0664793" lon="11.6734725"><ele>320.2</ele><time>2026-05-02T13:54:38.65Z</time></trkpt><trkpt lat="43.0664561" lon="11.673561"><ele>321.0</ele><time>2026-05-02T13:54:39.724Z</time></trkpt><trkpt lat="43.0664533" lon="11.6736553"><ele>321.0</ele><time>2026-05-02T13:54:40.851Z</time></trkpt><trkpt lat="43.0664827" lon="11.6737527"><ele>321.0</ele><time>2026-05-02T13:54:42.054Z</time></trkpt><trkpt lat="43.0665965" lon="11.6739685"><ele>321.0</ele><time>2026-05-02T13:54:44.478Z</time></trkpt><trkpt lat="43.0666827" lon="11.6741846"><ele>322.8333333333333</ele><time>2026-05-02T13:54:45.544Z</time></trkpt><trkpt lat="43.0667323" lon="11.674304"><ele>324.6666666666667</ele><time>2026-05-02T13:54:46.542Z</time></trkpt><trkpt lat="43.0667687" lon="11.6744184"><ele>326.5</ele><time>2026-05-02T13:54:47.557Z</time></trkpt><trkpt lat="43.066793" lon="11.6745218"><ele>328.33333333333337</ele><time>2026-05-02T13:54:48.588Z</time></trkpt><trkpt lat="43.0668231" lon="11.6746122"><ele>330.1666666666667</ele><time>2026-05-02T13:54:49.627Z</time></trkpt><trkpt lat="43.0668479" lon="11.6747092"><ele>332.0</ele><time>2026-05-02T13:54:50.691Z</time></trkpt><trkpt lat="43.0668856" lon="11.6748042"><ele>332.0</ele><time>2026-05-02T13:54:51.823Z</time></trkpt><trkpt lat="43.0669439" lon="11.6748862"><ele>332.0</ele><time>2026-05-02T13:54:52.922Z</time></trkpt><trkpt lat="43.0670238" lon="11.6749567"><ele>332.0</ele><time>2026-05-02T13:54:53.986Z</time></trkpt><trkpt lat="43.0672287" lon="11.6750753"><ele>332.0</ele><time>2026-05-02T13:54:55.558Z</time></trkpt><trkpt lat="43.0673451" lon="11.6751367"><ele>333.25</ele><time>2026-05-02T13:54:56.552Z</time></trkpt><trkpt lat="43.0674682" lon="11.6751874"><ele>334.5</ele><time>2026-05-02T13:54:57.57Z</time></trkpt><trkpt lat="43.0675869" lon="11.6752367"><ele>335.75</ele><time>2026-05-02T13:54:58.598Z</time></trkpt><trkpt lat="43.0677131" lon="11.6752757"><ele>337.0</ele><time>2026-05-02T13:54:59.643Z</time></trkpt><trkpt lat="43.067834" lon="11.6753211"><ele>337.0</ele><time>2026-05-02T13:55:00.671Z</time></trkpt><trkpt lat="43.0679472" lon="11.6753724"><ele>337.0</ele><time>2026-05-02T13:55:01.789Z</time></trkpt><trkpt lat="43.0680397" lon="11.6754647"><ele>337.0</ele><time>2026-05-02T13:55:02.805Z</time></trkpt><trkpt lat="43.0681319" lon="11.6755566"><ele>337.0</ele><time>2026-05-02T13:55:03.894Z</time></trkpt><trkpt lat="43.0683069" lon="11.6757881"><ele>338.5</ele><time>2026-05-02T13:55:05.546Z</time></trkpt><trkpt lat="43.0683944" lon="11.6759121"><ele>340.0</ele><time>2026-05-02T13:55:06.569Z</time></trkpt><trkpt lat="43.0684758" lon="11.676032"><ele>341.5</ele><time>2026-05-02T13:55:07.539Z</time></trkpt><trkpt lat="43.0685567" lon="11.67614"><ele>343.0</ele><time>2026-05-02T13:55:08.539Z</time></trkpt><trkpt lat="43.068624" lon="11.6762519"><ele>343.0</ele><time>2026-05-02T13:55:09.547Z</time></trkpt><trkpt lat="43.0686838" lon="11.6763454"><ele>343.0</ele><time>2026-05-02T13:55:10.541Z</time></trkpt><trkpt lat="43.0687401" lon="11.6764212"><ele>343.0</ele><time>2026-05-02T13:55:11.548Z</time></trkpt><trkpt lat="43.0687854" lon="11.6764908"><ele>343.0</ele><time>2026-05-02T13:55:12.542Z</time></trkpt><trkpt lat="43.0688332" lon="11.6765714"><ele>343.0</ele><time>2026-05-02T13:55:13.552Z</time></trkpt><trkpt lat="43.0688784" lon="11.6766418"><ele>343.0</ele><time>2026-05-02T13:55:14.569Z</time></trkpt><trkpt lat="43.0689293" lon="11.6767138"><ele>343.0</ele><time>2026-05-02T13:55:15.553Z</time></trkpt><trkpt lat="43.0689821" lon="11.6767829"><ele>343.0</ele><time>2026-05-02T13:55:16.566Z</time></trkpt><trkpt lat="43.0690302" lon="11.6768684"><ele>343.0</ele><time>2026-05-02T13:55:17.584Z</time></trkpt><trkpt lat="43.0690967" lon="11.6770031"><ele>343.0</ele><time>2026-05-02T13:55:19.691Z</time></trkpt><trkpt lat="43.069116" lon="11.6771192"><ele>343.0</ele><time>2026-05-02T13:55:21.571Z</time></trkpt><trkpt lat="43.0691042" lon="11.6772332"><ele>343.0</ele><time>2026-05-02T13:55:23.645Z</time></trkpt><trkpt lat="43.0690175" lon="11.6773833"><ele>343.5</ele><time>2026-05-02T13:55:25.678Z</time></trkpt><trkpt lat="43.0689597" lon="11.6774735"><ele>344.0</ele><time>2026-05-02T13:55:26.738Z</time></trkpt><trkpt lat="43.0689049" lon="11.6775687"><ele>344.5</ele><time>2026-05-02T13:55:27.708Z</time></trkpt><trkpt lat="43.0688576" lon="11.6776592"><ele>345.0</ele><time>2026-05-02T13:55:28.707Z</time></trkpt><trkpt lat="43.0688106" lon="11.6777429"><ele>345.5</ele><time>2026-05-02T13:55:29.637Z</time></trkpt><trkpt lat="43.0687733" lon="11.6778289"><ele>346.0</ele><time>2026-05-02T13:55:30.541Z</time></trkpt><trkpt lat="43.0687333" lon="11.6779173"><ele>347.6</ele><time>2026-05-02T13:55:31.556Z</time></trkpt><trkpt lat="43.0686933" lon="11.6780015"><ele>349.20000000000005</ele><time>2026-05-02T13:55:32.552Z</time></trkpt><trkpt lat="43.0686179" lon="11.6781359"><ele>350.79999999999995</ele><time>2026-05-02T13:55:34.609Z</time></trkpt><trkpt lat="43.0685557" lon="11.678231"><ele>352.4</ele><time>2026-05-02T13:55:36.718Z</time></trkpt><trkpt lat="43.0685351" lon="11.6783486"><ele>354.0</ele><time>2026-05-02T13:55:38.721Z</time></trkpt><trkpt lat="43.0685175" lon="11.6785301"><ele>355.75</ele><time>2026-05-02T13:55:40.81Z</time></trkpt><trkpt lat="43.068492" lon="11.6787746"><ele>357.5</ele><time>2026-05-02T13:55:42.591Z</time></trkpt><trkpt lat="43.0684764" lon="11.6789304"><ele>359.25</ele><time>2026-05-02T13:55:43.565Z</time></trkpt><trkpt lat="43.0684636" lon="11.6790806"><ele>361.0</ele><time>2026-05-02T13:55:44.551Z</time></trkpt><trkpt lat="43.0684462" lon="11.6792291"><ele>361.0</ele><time>2026-05-02T13:55:45.601Z</time></trkpt><trkpt lat="43.0684353" lon="11.6793802"><ele>361.0</ele><time>2026-05-02T13:55:46.612Z</time></trkpt><trkpt lat="43.0684196" lon="11.6795215"><ele>361.0</ele><time>2026-05-02T13:55:47.694Z</time></trkpt><trkpt lat="43.0684213" lon="11.6796573"><ele>361.0</ele><time>2026-05-02T13:55:48.769Z</time></trkpt><trkpt lat="43.0684273" lon="11.6797873"><ele>361.0</ele><time>2026-05-02T13:55:49.941Z</time></trkpt><trkpt lat="43.0684413" lon="11.6799122"><ele>361.20000000000005</ele><time>2026-05-02T13:55:51.234Z</time></trkpt><trkpt lat="43.0684762" lon="11.6801251"><ele>361.40000000000003</ele><time>2026-05-02T13:55:52.548Z</time></trkpt><trkpt lat="43.0685262" lon="11.6802244"><ele>361.6</ele><time>2026-05-02T13:55:53.589Z</time></trkpt><trkpt lat="43.0685826" lon="11.6802748"><ele>361.8</ele><time>2026-05-02T13:55:54.643Z</time></trkpt><trkpt lat="43.0686658" lon="11.6802353"><ele>362.0</ele><time>2026-05-02T13:55:55.754Z</time></trkpt><trkpt lat="43.0687755" lon="11.6801186"><ele>362.0</ele><time>2026-05-02T13:55:56.915Z</time></trkpt><trkpt lat="43.0688965" lon="11.6799612"><ele>362.0</ele><time>2026-05-02T13:55:58.176Z</time></trkpt><trkpt lat="43.0690445" lon="11.6795368"><ele>361.6666666666667</ele><time>2026-05-02T13:55:59.586Z</time></trkpt><trkpt lat="43.0690982" lon="11.6793302"><ele>361.3333333333333</ele><time>2026-05-02T13:56:00.638Z</time></trkpt><trkpt lat="43.0691722" lon="11.6791484"><ele>361.0</ele><time>2026-05-02T13:56:01.76Z</time></trkpt><trkpt lat="43.0692736" lon="11.678989"><ele>364.3333333333333</ele><time>2026-05-02T13:56:02.972Z</time></trkpt><trkpt lat="43.0693972" lon="11.6788832"><ele>367.6666666666667</ele><time>2026-05-02T13:56:04.475Z</time></trkpt><trkpt lat="43.0696823" lon="11.6787622"><ele>371.0</ele><time>2026-05-02T13:56:06.155Z</time></trkpt><trkpt lat="43.0700962" lon="11.678709"><ele>374.0</ele><time>2026-05-02T13:56:07.53Z</time></trkpt><trkpt lat="43.0702896" lon="11.6786893"><ele>377.0</ele><time>2026-05-02T13:56:08.577Z</time></trkpt><trkpt lat="43.0704847" lon="11.6786827"><ele>380.0</ele><time>2026-05-02T13:56:09.57Z</time></trkpt><trkpt lat="43.0706684" lon="11.6786953"><ele>382.33333333333337</ele><time>2026-05-02T13:56:10.582Z</time></trkpt><trkpt lat="43.070854" lon="11.6786956"><ele>384.6666666666667</ele><time>2026-05-02T13:56:11.546Z</time></trkpt><trkpt lat="43.0710276" lon="11.6786852"><ele>387.0</ele><time>2026-05-02T13:56:12.537Z</time></trkpt><trkpt lat="43.0711963" lon="11.6786723"><ele>387.0</ele><time>2026-05-02T13:56:13.545Z</time></trkpt><trkpt lat="43.0713482" lon="11.6786543"><ele>387.0</ele><time>2026-05-02T13:56:14.571Z</time></trkpt><trkpt lat="43.0714969" lon="11.6786363"><ele>387.0</ele><time>2026-05-02T13:56:15.551Z</time></trkpt><trkpt lat="43.0716351" lon="11.6786314"><ele>387.0</ele><time>2026-05-02T13:56:16.569Z</time></trkpt><trkpt lat="43.0717609" lon="11.678617"><ele>386.6</ele><time>2026-05-02T13:56:17.603Z</time></trkpt><trkpt lat="43.0718798" lon="11.6786042"><ele>386.20000000000005</ele><time>2026-05-02T13:56:18.538Z</time></trkpt><trkpt lat="43.0719777" lon="11.6785922"><ele>385.8</ele><time>2026-05-02T13:56:19.558Z</time></trkpt><trkpt lat="43.0720879" lon="11.678595"><ele>385.4</ele><time>2026-05-02T13:56:20.578Z</time></trkpt><trkpt lat="43.0721638" lon="11.6786316"><ele>385.0</ele><time>2026-05-02T13:56:21.652Z</time></trkpt><trkpt lat="43.0722208" lon="11.6787043"><ele>388.33333333333337</ele><time>2026-05-02T13:56:22.82Z</time></trkpt><trkpt lat="43.0722502" lon="11.6788132"><ele>391.66666666666663</ele><time>2026-05-02T13:56:24.076Z</time></trkpt><trkpt lat="43.0722598" lon="11.6789469"><ele>395.0</ele><time>2026-05-02T13:56:25.757Z</time></trkpt><trkpt lat="43.0721477" lon="11.679432"><ele>396.0</ele><time>2026-05-02T13:56:27.561Z</time></trkpt><trkpt lat="43.0720733" lon="11.6796355"><ele>397.0</ele><time>2026-05-02T13:56:28.564Z</time></trkpt><trkpt lat="43.0720029" lon="11.679815"><ele>398.0</ele><time>2026-05-02T13:56:29.619Z</time></trkpt><trkpt lat="43.0719604" lon="11.6799641"><ele>399.0</ele><time>2026-05-02T13:56:30.68Z</time></trkpt><trkpt lat="43.0719636" lon="11.6800935"><ele>399.0</ele><time>2026-05-02T13:56:31.811Z</time></trkpt><trkpt lat="43.0720056" lon="11.6802067"><ele>399.0</ele><time>2026-05-02T13:56:32.953Z</time></trkpt><trkpt lat="43.0720716" lon="11.6802805"><ele>399.0</ele><time>2026-05-02T13:56:34.364Z</time></trkpt><trkpt lat="43.0722454" lon="11.6802996"><ele>399.0</ele><time>2026-05-02T13:56:35.577Z</time></trkpt><trkpt lat="43.0723311" lon="11.6802946"><ele>399.0</ele><time>2026-05-02T13:56:36.644Z</time></trkpt><trkpt lat="43.0724061" lon="11.680325"><ele>401.0</ele><time>2026-05-02T13:56:37.777Z</time></trkpt><trkpt lat="43.0724764" lon="11.6803626"><ele>403.0</ele><time>2026-05-02T13:56:38.898Z</time></trkpt><trkpt lat="43.0725442" lon="11.6804178"><ele>405.0</ele><time>2026-05-02T13:56:39.822Z</time></trkpt><trkpt lat="43.0726856" lon="11.6805469"><ele>407.0</ele><time>2026-05-02T13:56:41.573Z</time></trkpt><trkpt lat="43.0727666" lon="11.6806411"><ele>409.0</ele><time>2026-05-02T13:56:42.551Z</time></trkpt><trkpt lat="43.0728473" lon="11.6807439"><ele>409.0</ele><time>2026-05-02T13:56:43.561Z</time></trkpt><trkpt lat="43.0729254" lon="11.6808566"><ele>409.0</ele><time>2026-05-02T13:56:44.593Z</time></trkpt><trkpt lat="43.0729911" lon="11.6809709"><ele>409.0</ele><time>2026-05-02T13:56:45.675Z</time></trkpt><trkpt lat="43.0730462" lon="11.6810937"><ele>409.0</ele><time>2026-05-02T13:56:46.676Z</time></trkpt><trkpt lat="43.0731488" lon="11.681303"><ele>408.7142857142857</ele><time>2026-05-02T13:56:48.553Z</time></trkpt><trkpt lat="43.0731964" lon="11.6813974"><ele>408.42857142857144</ele><time>2026-05-02T13:56:49.557Z</time></trkpt><trkpt lat="43.0732399" lon="11.6814815"><ele>408.14285714285717</ele><time>2026-05-02T13:56:50.58Z</time></trkpt><trkpt lat="43.0732816" lon="11.6815524"><ele>407.8571428571429</ele><time>2026-05-02T13:56:51.608Z</time></trkpt><trkpt lat="43.0733282" lon="11.6816137"><ele>407.57142857142856</ele><time>2026-05-02T13:56:52.653Z</time></trkpt><trkpt lat="43.0733794" lon="11.6816655"><ele>407.28571428571433</ele><time>2026-05-02T13:56:53.649Z</time></trkpt><trkpt lat="43.0734341" lon="11.6817156"><ele>407.0</ele><time>2026-05-02T13:56:54.741Z</time></trkpt><trkpt lat="43.0735023" lon="11.6817478"><ele>410.3333333333333</ele><time>2026-05-02T13:56:55.815Z</time></trkpt><trkpt lat="43.0735902" lon="11.681763"><ele>413.66666666666663</ele><time>2026-05-02T13:56:56.884Z</time></trkpt><trkpt lat="43.0736857" lon="11.6817705"><ele>417.0</ele><time>2026-05-02T13:56:57.956Z</time></trkpt><trkpt lat="43.0737802" lon="11.6817901"><ele>420.33333333333337</ele><time>2026-05-02T13:56:58.958Z</time></trkpt><trkpt lat="43.0738675" lon="11.6818108"><ele>423.6666666666667</ele><time>2026-05-02T13:57:00.008Z</time></trkpt><trkpt lat="43.0739375" lon="11.6818221"><ele>427.0</ele><time>2026-05-02T13:57:00.969Z</time></trkpt><trkpt lat="43.074004" lon="11.681825"><ele>427.0</ele><time>2026-05-02T13:57:02.161Z</time></trkpt><trkpt lat="43.0740809" lon="11.6817812"><ele>427.00000000000006</ele><time>2026-05-02T13:57:03.564Z</time></trkpt><trkpt lat="43.0741418" lon="11.6816512"><ele>427.00000000000006</ele><time>2026-05-02T13:57:05.64Z</time></trkpt><trkpt lat="43.0742026" lon="11.6815076"><ele>427.0</ele><time>2026-05-02T13:57:07.743Z</time></trkpt><trkpt lat="43.0742351" lon="11.6814173"><ele>427.0</ele><time>2026-05-02T13:57:08.706Z</time></trkpt><trkpt lat="43.0742659" lon="11.6813324"><ele>430.40000000000003</ele><time>2026-05-02T13:57:09.636Z</time></trkpt><trkpt lat="43.0743" lon="11.6812557"><ele>433.80000000000007</ele><time>2026-05-02T13:57:10.549Z</time></trkpt><trkpt lat="43.0743752" lon="11.6811236"><ele>437.2</ele><time>2026-05-02T13:57:12.622Z</time></trkpt><trkpt lat="43.0744559" lon="11.6810338"><ele>440.6</ele><time>2026-05-02T13:57:14.773Z</time></trkpt><trkpt lat="43.0745491" lon="11.6809469"><ele>444.0</ele><time>2026-05-02T13:57:16.752Z</time></trkpt><trkpt lat="43.074659" lon="11.6808621"><ele>445.2</ele><time>2026-05-02T13:57:18.56Z</time></trkpt><trkpt lat="43.0747488" lon="11.6807683"><ele>446.4</ele><time>2026-05-02T13:57:20.597Z</time></trkpt><trkpt lat="43.0748169" lon="11.6806552"><ele>447.6</ele><time>2026-05-02T13:57:22.657Z</time></trkpt><trkpt lat="43.0748791" lon="11.6805381"><ele>448.8</ele><time>2026-05-02T13:57:24.741Z</time></trkpt><trkpt lat="43.074933" lon="11.6804261"><ele>450.0</ele><time>2026-05-02T13:57:27.086Z</time></trkpt><trkpt lat="43.0750726" lon="11.6804121"><ele>452.2</ele><time>2026-05-02T13:57:30.58Z</time></trkpt><trkpt lat="43.0751339" lon="11.6804414"><ele>454.4</ele><time>2026-05-02T13:57:31.599Z</time></trkpt><trkpt lat="43.0752515" lon="11.6804728"><ele>456.6</ele><time>2026-05-02T13:57:33.64Z</time></trkpt><trkpt lat="43.0753631" lon="11.6804604"><ele>458.8</ele><time>2026-05-02T13:57:35.806Z</time></trkpt><trkpt lat="43.0754623" lon="11.6803848"><ele>461.0</ele><time>2026-05-02T13:57:38.254Z</time></trkpt><trkpt lat="43.0755475" lon="11.6802958"><ele>461.0</ele><time>2026-05-02T13:57:39.579Z</time></trkpt><trkpt lat="43.0756366" lon="11.6802588"><ele>461.0</ele><time>2026-05-02T13:57:41.599Z</time></trkpt><trkpt lat="43.0757202" lon="11.6802698"><ele>461.0</ele><time>2026-05-02T13:57:43.626Z</time></trkpt><trkpt lat="43.0758084" lon="11.6802495"><ele>461.0</ele><time>2026-05-02T13:57:45.885Z</time></trkpt><trkpt lat="43.0758738" lon="11.6801169"><ele>461.0</ele><time>2026-05-02T13:57:48.533Z</time></trkpt><trkpt lat="43.0758891" lon="11.6799749"><ele>464.4</ele><time>2026-05-02T13:57:50.557Z</time></trkpt><trkpt lat="43.0759035" lon="11.67982"><ele>467.8</ele><time>2026-05-02T13:57:52.553Z</time></trkpt><trkpt lat="43.0759289" lon="11.6796677"><ele>471.19999999999993</ele><time>2026-05-02T13:57:54.521Z</time></trkpt><trkpt lat="43.0759439" lon="11.6795345"><ele>474.59999999999997</ele><time>2026-05-02T13:57:56.542Z</time></trkpt><trkpt lat="43.075954" lon="11.6794281"><ele>478.0</ele><time>2026-05-02T13:57:58.537Z</time></trkpt><trkpt lat="43.0759778" lon="11.6793211"><ele>478.0</ele><time>2026-05-02T13:58:01.892Z</time></trkpt><trkpt lat="43.0760397" lon="11.6793542"><ele>477.99999999999994</ele><time>2026-05-02T13:58:06.57Z</time></trkpt><trkpt lat="43.0760331" lon="11.6795107"><ele>477.99999999999994</ele><time>2026-05-02T13:58:08.601Z</time></trkpt><trkpt lat="43.0760254" lon="11.6796071"><ele>478.0</ele><time>2026-05-02T13:58:09.572Z</time></trkpt><trkpt lat="43.0760253" lon="11.6797822"><ele>478.0</ele><time>2026-05-02T13:58:11.698Z</time></trkpt><trkpt lat="43.0760158" lon="11.6798843"><ele>478.00000000000006</ele><time>2026-05-02T13:58:12.624Z</time></trkpt><trkpt lat="43.0760018" lon="11.6800117"><ele>478.0</ele><time>2026-05-02T13:58:13.527Z</time></trkpt><trkpt lat="43.0759838" lon="11.6801311"><ele>478.0</ele><time>2026-05-02T13:58:14.524Z</time></trkpt><trkpt lat="43.0759722" lon="11.6802471"><ele>478.0</ele><time>2026-05-02T13:58:15.56Z</time></trkpt><trkpt lat="43.0759664" lon="11.6803498"><ele>478.00000000000006</ele><time>2026-05-02T13:58:16.529Z</time></trkpt><trkpt lat="43.0759554" lon="11.6804555"><ele>478.0</ele><time>2026-05-02T13:58:17.543Z</time></trkpt><trkpt lat="43.0759413" lon="11.6805561"><ele>478.00000000000006</ele><time>2026-05-02T13:58:18.522Z</time></trkpt><trkpt lat="43.0759336" lon="11.680649"><ele>478.0</ele><time>2026-05-02T13:58:19.564Z</time></trkpt><trkpt lat="43.075941" lon="11.6807513"><ele>478.0</ele><time>2026-05-02T13:58:20.566Z</time></trkpt><trkpt lat="43.0759632" lon="11.6808427"><ele>478.0</ele><time>2026-05-02T13:58:21.597Z</time></trkpt><trkpt lat="43.0759829" lon="11.6809527"><ele>478.00000000000006</ele><time>2026-05-02T13:58:22.614Z</time></trkpt><trkpt lat="43.0760119" lon="11.681079"><ele>478.0</ele><time>2026-05-02T13:58:23.656Z</time></trkpt><trkpt lat="43.0760391" lon="11.6812024"><ele>477.0</ele><time>2026-05-02T13:58:24.738Z</time></trkpt><trkpt lat="43.0760786" lon="11.6814203"><ele>475.99999999999994</ele><time>2026-05-02T13:58:26.568Z</time></trkpt><trkpt lat="43.0760942" lon="11.6815278"><ele>474.99999999999994</ele><time>2026-05-02T13:58:27.607Z</time></trkpt><trkpt lat="43.0761165" lon="11.6816153"><ele>474.0</ele><time>2026-05-02T13:58:28.641Z</time></trkpt><trkpt lat="43.0761439" lon="11.6817025"><ele>473.0</ele><time>2026-05-02T13:58:29.786Z</time></trkpt><trkpt lat="43.0761744" lon="11.6817905"><ele>473.0</ele><time>2026-05-02T13:58:30.937Z</time></trkpt><trkpt lat="43.0762284" lon="11.681873"><ele>473.0</ele><time>2026-05-02T13:58:32.049Z</time></trkpt><trkpt lat="43.0762974" lon="11.681932"><ele>473.0</ele><time>2026-05-02T13:58:33.37Z</time></trkpt><trkpt lat="43.0764541" lon="11.6820582"><ele>473.0</ele><time>2026-05-02T13:58:35.144Z</time></trkpt><trkpt lat="43.0766554" lon="11.6820244"><ele>472.0</ele><time>2026-05-02T13:58:36.571Z</time></trkpt><trkpt lat="43.0767494" lon="11.6820105"><ele>470.99999999999994</ele><time>2026-05-02T13:58:37.624Z</time></trkpt><trkpt lat="43.076838" lon="11.6819895"><ele>469.99999999999994</ele><time>2026-05-02T13:58:38.665Z</time></trkpt><trkpt lat="43.0769169" lon="11.6819664"><ele>469.0</ele><time>2026-05-02T13:58:39.845Z</time></trkpt><trkpt lat="43.0769834" lon="11.6819129"><ele>468.0</ele><time>2026-05-02T13:58:41.397Z</time></trkpt><trkpt lat="43.0770812" lon="11.6817307"><ele>473.0</ele><time>2026-05-02T13:58:43.459Z</time></trkpt><trkpt lat="43.0771312" lon="11.6813952"><ele>478.0</ele><time>2026-05-02T13:58:44.546Z</time></trkpt><trkpt lat="43.0771264" lon="11.6811793"><ele>483.0</ele><time>2026-05-02T13:58:45.577Z</time></trkpt><trkpt lat="43.0771372" lon="11.6810341"><ele>484.6666666666667</ele><time>2026-05-02T13:58:46.543Z</time></trkpt><trkpt lat="43.0771584" lon="11.6809207"><ele>486.33333333333337</ele><time>2026-05-02T13:58:47.55Z</time></trkpt><trkpt lat="43.0771738" lon="11.680832"><ele>488.0</ele><time>2026-05-02T13:58:48.554Z</time></trkpt><trkpt lat="43.0771916" lon="11.6807325"><ele>489.6666666666667</ele><time>2026-05-02T13:58:49.582Z</time></trkpt><trkpt lat="43.0772116" lon="11.6806455"><ele>491.33333333333337</ele><time>2026-05-02T13:58:50.614Z</time></trkpt><trkpt lat="43.077246" lon="11.6804977"><ele>493.0</ele><time>2026-05-02T13:58:52.689Z</time></trkpt><trkpt lat="43.0772674" lon="11.680407"><ele>493.00000000000006</ele><time>2026-05-02T13:58:54.7Z</time></trkpt><trkpt lat="43.0772862" lon="11.6803171"><ele>493.0</ele><time>2026-05-02T13:58:57.662Z</time></trkpt><trkpt lat="43.0773076" lon="11.6802242"><ele>493.0</ele><time>2026-05-02T13:58:59.544Z</time></trkpt><trkpt lat="43.0773315" lon="11.6801258"><ele>493.0</ele><time>2026-05-02T13:59:01.562Z</time></trkpt><trkpt lat="43.0773673" lon="11.6799998"><ele>493.00000000000006</ele><time>2026-05-02T13:59:03.6Z</time></trkpt><trkpt lat="43.0773985" lon="11.6798635"><ele>493.0</ele><time>2026-05-02T13:59:05.55Z</time></trkpt><trkpt lat="43.0774319" lon="11.6797376"><ele>492.59999999999997</ele><time>2026-05-02T13:59:07.581Z</time></trkpt><trkpt lat="43.0774633" lon="11.6796054"><ele>492.19999999999993</ele><time>2026-05-02T13:59:09.59Z</time></trkpt><trkpt lat="43.0774938" lon="11.6794618"><ele>491.8</ele><time>2026-05-02T13:59:11.669Z</time></trkpt><trkpt lat="43.0775182" lon="11.6792872"><ele>491.4</ele><time>2026-05-02T13:59:13.717Z</time></trkpt><trkpt lat="43.0775314" lon="11.6791911"><ele>491.0</ele><time>2026-05-02T13:59:14.868Z</time></trkpt><trkpt lat="43.0775406" lon="11.6791009"><ele>491.0</ele><time>2026-05-02T13:59:15.789Z</time></trkpt><trkpt lat="43.0775575" lon="11.678881"><ele>491.0</ele><time>2026-05-02T13:59:19.126Z</time></trkpt><trkpt lat="43.0776021" lon="11.6787523"><ele>491.0</ele><time>2026-05-02T13:59:22.533Z</time></trkpt><trkpt lat="43.0776735" lon="11.6787471"><ele>491.0</ele><time>2026-05-02T13:59:23.576Z</time></trkpt><trkpt lat="43.0777651" lon="11.6787803"><ele>491.0</ele><time>2026-05-02T13:59:25.639Z</time></trkpt><trkpt lat="43.0778456" lon="11.6787579"><ele>491.0</ele><time>2026-05-02T13:59:27.574Z</time></trkpt><trkpt lat="43.0779007" lon="11.6786427"><ele>491.0</ele><time>2026-05-02T13:59:29.604Z</time></trkpt><trkpt lat="43.0779442" lon="11.6785006"><ele>491.0</ele><time>2026-05-02T13:59:31.693Z</time></trkpt><trkpt lat="43.077989" lon="11.6783618"><ele>491.0</ele><time>2026-05-02T13:59:33.796Z</time></trkpt><trkpt lat="43.0780387" lon="11.6781923"><ele>491.0</ele><time>2026-05-02T13:59:36.92Z</time></trkpt><trkpt lat="43.0780697" lon="11.6781004"><ele>491.0</ele><time>2026-05-02T13:59:39.043Z</time></trkpt><trkpt lat="43.078106" lon="11.6780283"><ele>491.0</ele><time>2026-05-02T13:59:40.761Z</time></trkpt><trkpt lat="43.078146" lon="11.6779524"><ele>491.0</ele><time>2026-05-02T13:59:42.818Z</time></trkpt><trkpt lat="43.0781435" lon="11.6778544"><ele>491.0</ele><time>2026-05-02T13:59:51.717Z</time></trkpt><trkpt lat="43.0779683" lon="11.6777066"><ele>490.8333333333333</ele><time>2026-05-02T13:59:53.542Z</time></trkpt><trkpt lat="43.0778713" lon="11.6776395"><ele>490.66666666666663</ele><time>2026-05-02T13:59:55.535Z</time></trkpt><trkpt lat="43.0778121" lon="11.6775781"><ele>490.5</ele><time>2026-05-02T13:59:57.526Z</time></trkpt><trkpt lat="43.0777382" lon="11.677509"><ele>490.33333333333337</ele><time>2026-05-02T14:00:00.513Z</time></trkpt><trkpt lat="43.0776663" lon="11.677424"><ele>490.1666666666667</ele><time>2026-05-02T14:00:03.544Z</time></trkpt><trkpt lat="43.0776365" lon="11.6773449"><ele>490.0</ele><time>2026-05-02T14:00:05.706Z</time></trkpt><trkpt lat="43.0776511" lon="11.6772308"><ele>490.0</ele><time>2026-05-02T14:00:07.971Z</time></trkpt><trkpt lat="43.0776843" lon="11.6770181"><ele>490.0</ele><time>2026-05-02T14:00:10.976Z</time></trkpt><trkpt lat="43.0777152" lon="11.6768917"><ele>490.0</ele><time>2026-05-02T14:00:12.997Z</time></trkpt><trkpt lat="43.0777904" lon="11.6767273"><ele>490.0</ele><time>2026-05-02T14:00:15.521Z</time></trkpt><trkpt lat="43.0778621" lon="11.6766199"><ele>489.8</ele><time>2026-05-02T14:00:17.569Z</time></trkpt><trkpt lat="43.0779436" lon="11.676482"><ele>489.6</ele><time>2026-05-02T14:00:19.599Z</time></trkpt><trkpt lat="43.0780257" lon="11.6763461"><ele>489.4</ele><time>2026-05-02T14:00:21.625Z</time></trkpt><trkpt lat="43.0780659" lon="11.6762791"><ele>489.2</ele><time>2026-05-02T14:00:22.541Z</time></trkpt><trkpt lat="43.0781347" lon="11.676165"><ele>489.0</ele><time>2026-05-02T14:00:24.569Z</time></trkpt><trkpt lat="43.0781982" lon="11.6760807"><ele>489.0</ele><time>2026-05-02T14:00:26.629Z</time></trkpt><trkpt lat="43.0782636" lon="11.6759916"><ele>489.0</ele><time>2026-05-02T14:00:28.543Z</time></trkpt><trkpt lat="43.0783216" lon="11.6759055"><ele>489.0</ele><time>2026-05-02T14:00:30.557Z</time></trkpt><trkpt lat="43.0783728" lon="11.6758239"><ele>489.0</ele><time>2026-05-02T14:00:32.539Z</time></trkpt><trkpt lat="43.0784299" lon="11.6757408"><ele>489.0</ele><time>2026-05-02T14:00:35.556Z</time></trkpt><trkpt lat="43.0784546" lon="11.6756493"><ele>489.0</ele><time>2026-05-02T14:00:46.701Z</time></trkpt><trkpt lat="43.0785213" lon="11.6755452"><ele>489.0</ele><time>2026-05-02T14:00:48.94Z</time></trkpt><trkpt lat="43.0785738" lon="11.6754642"><ele>489.0</ele><time>2026-05-02T14:00:49.983Z</time></trkpt><trkpt lat="43.0786294" lon="11.6753751"><ele>489.0</ele><time>2026-05-02T14:00:50.924Z</time></trkpt><trkpt lat="43.0787612" lon="11.6751987"><ele>489.0</ele><time>2026-05-02T14:00:52.541Z</time></trkpt><trkpt lat="43.0788242" lon="11.6751044"><ele>489.0</ele><time>2026-05-02T14:00:53.573Z</time></trkpt><trkpt lat="43.0788865" lon="11.6750116"><ele>488.8333333333333</ele><time>2026-05-02T14:00:54.533Z</time></trkpt><trkpt lat="43.0789412" lon="11.6749188"><ele>488.66666666666663</ele><time>2026-05-02T14:00:55.503Z</time></trkpt><trkpt lat="43.0789878" lon="11.6748597"><ele>488.5</ele><time>2026-05-02T14:00:56.547Z</time></trkpt><trkpt lat="43.0790708" lon="11.674755"><ele>488.3333333333333</ele><time>2026-05-02T14:00:58.583Z</time></trkpt><trkpt lat="43.0791267" lon="11.6746845"><ele>488.16666666666663</ele><time>2026-05-02T14:01:02.723Z</time></trkpt><trkpt lat="43.0791655" lon="11.6746001"><ele>488.0</ele><time>2026-05-02T14:01:05.038Z</time></trkpt><trkpt lat="43.0792591" lon="11.6744257"><ele>487.59999999999997</ele><time>2026-05-02T14:01:06.801Z</time></trkpt><trkpt lat="43.0793128" lon="11.6743333"><ele>487.19999999999993</ele><time>2026-05-02T14:01:07.899Z</time></trkpt><trkpt lat="43.0793626" lon="11.674246"><ele>486.8</ele><time>2026-05-02T14:01:08.818Z</time></trkpt><trkpt lat="43.0794064" lon="11.6741581"><ele>486.4</ele><time>2026-05-02T14:01:09.853Z</time></trkpt><trkpt lat="43.0794962" lon="11.673929"><ele>486.0</ele><time>2026-05-02T14:01:11.56Z</time></trkpt><trkpt lat="43.0795546" lon="11.6737687"><ele>486.0</ele><time>2026-05-02T14:01:12.585Z</time></trkpt><trkpt lat="43.0796275" lon="11.6736041"><ele>486.0</ele><time>2026-05-02T14:01:13.636Z</time></trkpt><trkpt lat="43.0797118" lon="11.673449"><ele>486.0</ele><time>2026-05-02T14:01:14.698Z</time></trkpt><trkpt lat="43.0797872" lon="11.6733209"><ele>486.0</ele><time>2026-05-02T14:01:15.715Z</time></trkpt><trkpt lat="43.0798589" lon="11.6732124"><ele>486.0</ele><time>2026-05-02T14:01:16.969Z</time></trkpt><trkpt lat="43.0799299" lon="11.6731316"><ele>486.0</ele><time>2026-05-02T14:01:17.978Z</time></trkpt><trkpt lat="43.0800831" lon="11.6729427"><ele>486.0</ele><time>2026-05-02T14:01:19.79Z</time></trkpt><trkpt lat="43.080169" lon="11.6728348"><ele>486.0</ele><time>2026-05-02T14:01:20.719Z</time></trkpt><trkpt lat="43.0803193" lon="11.6726406"><ele>485.4</ele><time>2026-05-02T14:01:22.581Z</time></trkpt><trkpt lat="43.0803847" lon="11.67255"><ele>484.8</ele><time>2026-05-02T14:01:23.549Z</time></trkpt><trkpt lat="43.0804509" lon="11.6724597"><ele>484.19999999999993</ele><time>2026-05-02T14:01:24.604Z</time></trkpt><trkpt lat="43.0805247" lon="11.6723625"><ele>483.59999999999997</ele><time>2026-05-02T14:01:25.594Z</time></trkpt><trkpt lat="43.0805972" lon="11.6722646"><ele>483.0</ele><time>2026-05-02T14:01:26.574Z</time></trkpt><trkpt lat="43.080666" lon="11.6721743"><ele>483.0</ele><time>2026-05-02T14:01:27.578Z</time></trkpt><trkpt lat="43.0807286" lon="11.6720874"><ele>483.0</ele><time>2026-05-02T14:01:28.609Z</time></trkpt><trkpt lat="43.0807869" lon="11.6720098"><ele>483.0</ele><time>2026-05-02T14:01:29.619Z</time></trkpt><trkpt lat="43.0808407" lon="11.6719372"><ele>483.0</ele><time>2026-05-02T14:01:30.639Z</time></trkpt><trkpt lat="43.0808988" lon="11.6718739"><ele>483.0</ele><time>2026-05-02T14:01:31.643Z</time></trkpt><trkpt lat="43.080959" lon="11.671813"><ele>483.0</ele><time>2026-05-02T14:01:32.634Z</time></trkpt><trkpt lat="43.0810217" lon="11.6717509"><ele>482.59999999999997</ele><time>2026-05-02T14:01:33.634Z</time></trkpt><trkpt lat="43.0810959" lon="11.6716912"><ele>482.19999999999993</ele><time>2026-05-02T14:01:34.542Z</time></trkpt><trkpt lat="43.0811717" lon="11.6716325"><ele>481.8</ele><time>2026-05-02T14:01:35.565Z</time></trkpt><trkpt lat="43.0812541" lon="11.6715808"><ele>481.4</ele><time>2026-05-02T14:01:36.617Z</time></trkpt><trkpt lat="43.0813416" lon="11.6715402"><ele>481.0</ele><time>2026-05-02T14:01:37.563Z</time></trkpt><trkpt lat="43.0814352" lon="11.6715066"><ele>481.00000000000006</ele><time>2026-05-02T14:01:38.592Z</time></trkpt><trkpt lat="43.0815259" lon="11.671484"><ele>481.0</ele><time>2026-05-02T14:01:39.599Z</time></trkpt><trkpt lat="43.0816173" lon="11.6714656"><ele>481.0</ele><time>2026-05-02T14:01:40.601Z</time></trkpt><trkpt lat="43.0817024" lon="11.6714522"><ele>481.0</ele><time>2026-05-02T14:01:41.603Z</time></trkpt><trkpt lat="43.081787" lon="11.6714436"><ele>481.00000000000006</ele><time>2026-05-02T14:01:42.565Z</time></trkpt><trkpt lat="43.0818695" lon="11.671435"><ele>481.0</ele><time>2026-05-02T14:01:43.601Z</time></trkpt><trkpt lat="43.0819518" lon="11.6714241"><ele>480.33333333333337</ele><time>2026-05-02T14:01:44.58Z</time></trkpt><trkpt lat="43.0820359" lon="11.6714035"><ele>479.6666666666667</ele><time>2026-05-02T14:01:45.566Z</time></trkpt><trkpt lat="43.0821148" lon="11.6713831"><ele>479.0</ele><time>2026-05-02T14:01:46.586Z</time></trkpt><trkpt lat="43.0821935" lon="11.6713639"><ele>478.33333333333337</ele><time>2026-05-02T14:01:47.569Z</time></trkpt><trkpt lat="43.0822663" lon="11.6713505"><ele>477.6666666666667</ele><time>2026-05-02T14:01:48.57Z</time></trkpt><trkpt lat="43.0823393" lon="11.6713491"><ele>477.0</ele><time>2026-05-02T14:01:49.601Z</time></trkpt><trkpt lat="43.0824084" lon="11.671355"><ele>476.75</ele><time>2026-05-02T14:01:50.593Z</time></trkpt><trkpt lat="43.0825219" lon="11.6713411"><ele>476.5</ele><time>2026-05-02T14:01:52.623Z</time></trkpt><trkpt lat="43.0825945" lon="11.6712139"><ele>476.25</ele><time>2026-05-02T14:01:54.898Z</time></trkpt><trkpt lat="43.0825921" lon="11.6710994"><ele>476.0</ele><time>2026-05-02T14:01:56.689Z</time></trkpt><trkpt lat="43.0826066" lon="11.6707512"><ele>476.0</ele><time>2026-05-02T14:01:58.555Z</time></trkpt><trkpt lat="43.0826419" lon="11.6706192"><ele>476.0</ele><time>2026-05-02T14:01:59.638Z</time></trkpt><trkpt lat="43.0827061" lon="11.6704917"><ele>476.0</ele><time>2026-05-02T14:02:00.659Z</time></trkpt><trkpt lat="43.0827857" lon="11.6703492"><ele>476.0</ele><time>2026-05-02T14:02:01.644Z</time></trkpt><trkpt lat="43.0828668" lon="11.6701932"><ele>475.66666666666663</ele><time>2026-05-02T14:02:02.715Z</time></trkpt><trkpt lat="43.0829453" lon="11.6700227"><ele>475.33333333333337</ele><time>2026-05-02T14:02:03.755Z</time></trkpt><trkpt lat="43.0830185" lon="11.6698434"><ele>475.0</ele><time>2026-05-02T14:02:04.876Z</time></trkpt><trkpt lat="43.0831018" lon="11.6696582"><ele>475.0</ele><time>2026-05-02T14:02:05.856Z</time></trkpt><trkpt lat="43.0831807" lon="11.6694769"><ele>475.0</ele><time>2026-05-02T14:02:06.774Z</time></trkpt><trkpt lat="43.0832672" lon="11.6693009"><ele>475.0</ele><time>2026-05-02T14:02:07.691Z</time></trkpt><trkpt lat="43.083404" lon="11.6689117"><ele>473.5</ele><time>2026-05-02T14:02:09.503Z</time></trkpt><trkpt lat="43.0834552" lon="11.6687361"><ele>472.0</ele><time>2026-05-02T14:02:10.518Z</time></trkpt><trkpt lat="43.0835069" lon="11.668548"><ele>470.5</ele><time>2026-05-02T14:02:11.546Z</time></trkpt><trkpt lat="43.0835667" lon="11.6683778"><ele>469.0</ele><time>2026-05-02T14:02:12.555Z</time></trkpt><trkpt lat="43.0836312" lon="11.6682153"><ele>468.75</ele><time>2026-05-02T14:02:13.549Z</time></trkpt><trkpt lat="43.0836846" lon="11.6680325"><ele>468.5</ele><time>2026-05-02T14:02:14.557Z</time></trkpt><trkpt lat="43.0837337" lon="11.6678533"><ele>468.25</ele><time>2026-05-02T14:02:15.541Z</time></trkpt><trkpt lat="43.0837852" lon="11.6676677"><ele>468.0</ele><time>2026-05-02T14:02:16.575Z</time></trkpt><trkpt lat="43.0838391" lon="11.6674867"><ele>468.0</ele><time>2026-05-02T14:02:17.533Z</time></trkpt><trkpt lat="43.0838884" lon="11.6672993"><ele>468.0</ele><time>2026-05-02T14:02:18.539Z</time></trkpt><trkpt lat="43.0839391" lon="11.6671208"><ele>468.0</ele><time>2026-05-02T14:02:19.536Z</time></trkpt><trkpt lat="43.0839931" lon="11.6669353"><ele>468.0</ele><time>2026-05-02T14:02:20.559Z</time></trkpt><trkpt lat="43.0840509" lon="11.6667404"><ele>466.33333333333337</ele><time>2026-05-02T14:02:21.548Z</time></trkpt><trkpt lat="43.084125" lon="11.6665455"><ele>464.6666666666667</ele><time>2026-05-02T14:02:22.571Z</time></trkpt><trkpt lat="43.0842157" lon="11.6663528"><ele>463.0</ele><time>2026-05-02T14:02:23.605Z</time></trkpt><trkpt lat="43.0843187" lon="11.6661641"><ele>462.6666666666667</ele><time>2026-05-02T14:02:24.59Z</time></trkpt><trkpt lat="43.0844267" lon="11.6659836"><ele>462.33333333333337</ele><time>2026-05-02T14:02:25.512Z</time></trkpt><trkpt lat="43.0845241" lon="11.6657989"><ele>462.0</ele><time>2026-05-02T14:02:26.506Z</time></trkpt><trkpt lat="43.0846087" lon="11.6656138"><ele>462.0</ele><time>2026-05-02T14:02:27.506Z</time></trkpt><trkpt lat="43.0846965" lon="11.6654382"><ele>462.0</ele><time>2026-05-02T14:02:28.512Z</time></trkpt><trkpt lat="43.0847795" lon="11.665277"><ele>462.0</ele><time>2026-05-02T14:02:29.505Z</time></trkpt><trkpt lat="43.0848579" lon="11.6651263"><ele>462.0</ele><time>2026-05-02T14:02:30.511Z</time></trkpt><trkpt lat="43.0849362" lon="11.6649762"><ele>461.0</ele><time>2026-05-02T14:02:31.511Z</time></trkpt><trkpt lat="43.085012" lon="11.6648328"><ele>460.0</ele><time>2026-05-02T14:02:32.519Z</time></trkpt><trkpt lat="43.0850782" lon="11.6646885"><ele>459.0</ele><time>2026-05-02T14:02:33.573Z</time></trkpt><trkpt lat="43.0851486" lon="11.6645272"><ele>458.0</ele><time>2026-05-02T14:02:34.59Z</time></trkpt><trkpt lat="43.0852219" lon="11.6643613"><ele>458.0</ele><time>2026-05-02T14:02:35.594Z</time></trkpt><trkpt lat="43.0852828" lon="11.6641449"><ele>458.0</ele><time>2026-05-02T14:02:36.654Z</time></trkpt><trkpt lat="43.0853138" lon="11.6638921"><ele>458.0</ele><time>2026-05-02T14:02:37.706Z</time></trkpt><trkpt lat="43.0853549" lon="11.6636302"><ele>457.0</ele><time>2026-05-02T14:02:38.689Z</time></trkpt><trkpt lat="43.0854505" lon="11.6631732"><ele>456.0</ele><time>2026-05-02T14:02:40.515Z</time></trkpt><trkpt lat="43.0855102" lon="11.6629736"><ele>454.66666666666663</ele><time>2026-05-02T14:02:41.5Z</time></trkpt><trkpt lat="43.0855569" lon="11.662769"><ele>453.3333333333333</ele><time>2026-05-02T14:02:42.51Z</time></trkpt><trkpt lat="43.085615" lon="11.6625755"><ele>452.0</ele><time>2026-05-02T14:02:43.557Z</time></trkpt><trkpt lat="43.0856795" lon="11.6623857"><ele>452.0</ele><time>2026-05-02T14:02:44.552Z</time></trkpt><trkpt lat="43.0857475" lon="11.662186"><ele>452.0</ele><time>2026-05-02T14:02:45.578Z</time></trkpt><trkpt lat="43.0858305" lon="11.6619644"><ele>452.0</ele><time>2026-05-02T14:02:46.511Z</time></trkpt><trkpt lat="43.0859071" lon="11.6617374"><ele>450.66666666666663</ele><time>2026-05-02T14:02:47.534Z</time></trkpt><trkpt lat="43.0859866" lon="11.6615352"><ele>449.33333333333337</ele><time>2026-05-02T14:02:48.553Z</time></trkpt><trkpt lat="43.0860606" lon="11.661339"><ele>448.0</ele><time>2026-05-02T14:02:49.543Z</time></trkpt><trkpt lat="43.0861397" lon="11.6611379"><ele>446.0</ele><time>2026-05-02T14:02:50.511Z</time></trkpt><trkpt lat="43.0862296" lon="11.6609294"><ele>444.0</ele><time>2026-05-02T14:02:51.508Z</time></trkpt><trkpt lat="43.0863111" lon="11.6607331"><ele>442.0</ele><time>2026-05-02T14:02:52.507Z</time></trkpt><trkpt lat="43.086382" lon="11.660548"><ele>442.0</ele><time>2026-05-02T14:02:53.51Z</time></trkpt><trkpt lat="43.0864525" lon="11.6603617"><ele>442.0</ele><time>2026-05-02T14:02:54.509Z</time></trkpt><trkpt lat="43.086527" lon="11.6602036"><ele>442.0</ele><time>2026-05-02T14:02:55.557Z</time></trkpt><trkpt lat="43.0866058" lon="11.6600649"><ele>442.0</ele><time>2026-05-02T14:02:56.615Z</time></trkpt><trkpt lat="43.0866798" lon="11.6599591"><ele>441.25</ele><time>2026-05-02T14:02:57.668Z</time></trkpt><trkpt lat="43.0867579" lon="11.6598674"><ele>440.5</ele><time>2026-05-02T14:02:58.769Z</time></trkpt><trkpt lat="43.0868737" lon="11.6598414"><ele>439.75</ele><time>2026-05-02T14:02:59.949Z</time></trkpt><trkpt lat="43.0869975" lon="11.6598351"><ele>439.0</ele><time>2026-05-02T14:03:01.109Z</time></trkpt><trkpt lat="43.0871233" lon="11.6598442"><ele>438.0</ele><time>2026-05-02T14:03:02.204Z</time></trkpt><trkpt lat="43.0874377" lon="11.6599086"><ele>437.0</ele><time>2026-05-02T14:03:04.022Z</time></trkpt><trkpt lat="43.087733" lon="11.6599557"><ele>437.0</ele><time>2026-05-02T14:03:05.498Z</time></trkpt><trkpt lat="43.0878594" lon="11.6599797"><ele>437.0</ele><time>2026-05-02T14:03:06.501Z</time></trkpt><trkpt lat="43.0879718" lon="11.6600043"><ele>437.0</ele><time>2026-05-02T14:03:07.496Z</time></trkpt><trkpt lat="43.0880732" lon="11.6600364"><ele>437.0</ele><time>2026-05-02T14:03:08.538Z</time></trkpt><trkpt lat="43.0881912" lon="11.6600566"><ele>436.20000000000005</ele><time>2026-05-02T14:03:09.547Z</time></trkpt><trkpt lat="43.0882896" lon="11.6600534"><ele>435.40000000000003</ele><time>2026-05-02T14:03:10.554Z</time></trkpt><trkpt lat="43.0883784" lon="11.6600217"><ele>434.59999999999997</ele><time>2026-05-02T14:03:11.61Z</time></trkpt><trkpt lat="43.0884683" lon="11.6599579"><ele>433.79999999999995</ele><time>2026-05-02T14:03:12.699Z</time></trkpt><trkpt lat="43.0885481" lon="11.659869"><ele>433.0</ele><time>2026-05-02T14:03:13.912Z</time></trkpt><trkpt lat="43.0886123" lon="11.6597477"><ele>433.0</ele><time>2026-05-02T14:03:15.365Z</time></trkpt><trkpt lat="43.0886853" lon="11.6594613"><ele>433.0</ele><time>2026-05-02T14:03:16.517Z</time></trkpt><trkpt lat="43.0886889" lon="11.6592999"><ele>433.0</ele><time>2026-05-02T14:03:17.594Z</time></trkpt><trkpt lat="43.0886604" lon="11.6591482"><ele>431.33333333333337</ele><time>2026-05-02T14:03:18.747Z</time></trkpt><trkpt lat="43.088583" lon="11.6590088"><ele>429.66666666666663</ele><time>2026-05-02T14:03:20.371Z</time></trkpt><trkpt lat="43.0885015" lon="11.658745"><ele>428.0</ele><time>2026-05-02T14:03:21.524Z</time></trkpt><trkpt lat="43.0884782" lon="11.6585895"><ele>427.2</ele><time>2026-05-02T14:03:22.551Z</time></trkpt><trkpt lat="43.088489" lon="11.6584501"><ele>426.4</ele><time>2026-05-02T14:03:23.595Z</time></trkpt><trkpt lat="43.0885483" lon="11.6583357"><ele>425.59999999999997</ele><time>2026-05-02T14:03:24.6Z</time></trkpt><trkpt lat="43.0886184" lon="11.6582193"><ele>424.79999999999995</ele><time>2026-05-02T14:03:25.534Z</time></trkpt><trkpt lat="43.08871" lon="11.6581029"><ele>424.0</ele><time>2026-05-02T14:03:26.541Z</time></trkpt><trkpt lat="43.088836" lon="11.6579505"><ele>422.33333333333337</ele><time>2026-05-02T14:03:27.554Z</time></trkpt><trkpt lat="43.0889961" lon="11.6577773"><ele>420.66666666666663</ele><time>2026-05-02T14:03:28.539Z</time></trkpt><trkpt lat="43.0891561" lon="11.6576113"><ele>419.0</ele><time>2026-05-02T14:03:29.555Z</time></trkpt><trkpt lat="43.0892953" lon="11.6574793"><ele>419.0</ele><time>2026-05-02T14:03:30.6Z</time></trkpt><trkpt lat="43.089419" lon="11.6573386"><ele>419.0</ele><time>2026-05-02T14:03:31.656Z</time></trkpt><trkpt lat="43.0895469" lon="11.6572145"><ele>419.0</ele><time>2026-05-02T14:03:32.714Z</time></trkpt><trkpt lat="43.089673" lon="11.657133"><ele>419.66666666666663</ele><time>2026-05-02T14:03:34.074Z</time></trkpt><trkpt lat="43.0899505" lon="11.6570662"><ele>420.33333333333337</ele><time>2026-05-02T14:03:36.045Z</time></trkpt><trkpt lat="43.0900945" lon="11.6570061"><ele>421.0</ele><time>2026-05-02T14:03:37.206Z</time></trkpt><trkpt lat="43.0902986" lon="11.6567666"><ele>420.0</ele><time>2026-05-02T14:03:38.515Z</time></trkpt><trkpt lat="43.0903706" lon="11.6566009"><ele>419.0</ele><time>2026-05-02T14:03:39.54Z</time></trkpt><trkpt lat="43.0903624" lon="11.6564173"><ele>418.0</ele><time>2026-05-02T14:03:40.584Z</time></trkpt><trkpt lat="43.0903273" lon="11.6562264"><ele>417.0</ele><time>2026-05-02T14:03:41.703Z</time></trkpt><trkpt lat="43.0902945" lon="11.6560509"><ele>415.66666666666663</ele><time>2026-05-02T14:03:43.023Z</time></trkpt><trkpt lat="43.0902607" lon="11.6558489"><ele>414.3333333333333</ele><time>2026-05-02T14:03:43.929Z</time></trkpt><trkpt lat="43.0902839" lon="11.6554521"><ele>413.0</ele><time>2026-05-02T14:03:45.532Z</time></trkpt><trkpt lat="43.0903308" lon="11.65526"><ele>413.0</ele><time>2026-05-02T14:03:46.555Z</time></trkpt><trkpt lat="43.0903774" lon="11.6551024"><ele>413.0</ele><time>2026-05-02T14:03:47.614Z</time></trkpt><trkpt lat="43.0904458" lon="11.6549582"><ele>413.0</ele><time>2026-05-02T14:03:48.666Z</time></trkpt><trkpt lat="43.0905448" lon="11.6548247"><ele>413.0</ele><time>2026-05-02T14:03:49.749Z</time></trkpt><trkpt lat="43.0908194" lon="11.6545792"><ele>413.0</ele><time>2026-05-02T14:03:51.537Z</time></trkpt><trkpt lat="43.0909863" lon="11.6544881"><ele>413.0</ele><time>2026-05-02T14:03:52.547Z</time></trkpt><trkpt lat="43.0911456" lon="11.6544016"><ele>413.0</ele><time>2026-05-02T14:03:53.53Z</time></trkpt><trkpt lat="43.091306" lon="11.6543154"><ele>411.5</ele><time>2026-05-02T14:03:54.548Z</time></trkpt><trkpt lat="43.0914362" lon="11.6542175"><ele>410.0</ele><time>2026-05-02T14:03:55.513Z</time></trkpt><trkpt lat="43.0915588" lon="11.6541301"><ele>408.5</ele><time>2026-05-02T14:03:56.535Z</time></trkpt><trkpt lat="43.0916549" lon="11.6540533"><ele>407.0</ele><time>2026-05-02T14:03:57.713Z</time></trkpt><trkpt lat="43.0917675" lon="11.6540053"><ele>407.0</ele><time>2026-05-02T14:03:58.88Z</time></trkpt><trkpt lat="43.0918827" lon="11.6539809"><ele>407.0</ele><time>2026-05-02T14:03:59.999Z</time></trkpt><trkpt lat="43.0919957" lon="11.653986"><ele>407.0</ele><time>2026-05-02T14:04:00.968Z</time></trkpt><trkpt lat="43.0921288" lon="11.6540425"><ele>407.0</ele><time>2026-05-02T14:04:02.106Z</time></trkpt><trkpt lat="43.0923775" lon="11.6542004"><ele>406.25</ele><time>2026-05-02T14:04:03.499Z</time></trkpt><trkpt lat="43.0924918" lon="11.6542773"><ele>405.5</ele><time>2026-05-02T14:04:04.523Z</time></trkpt><trkpt lat="43.0926112" lon="11.6543381"><ele>404.75</ele><time>2026-05-02T14:04:05.518Z</time></trkpt><trkpt lat="43.0927131" lon="11.6543749"><ele>404.0</ele><time>2026-05-02T14:04:06.511Z</time></trkpt><trkpt lat="43.0928025" lon="11.6543663"><ele>404.0</ele><time>2026-05-02T14:04:07.541Z</time></trkpt><trkpt lat="43.0928745" lon="11.6543149"><ele>404.0</ele><time>2026-05-02T14:04:08.615Z</time></trkpt><trkpt lat="43.0929356" lon="11.6542226"><ele>404.0</ele><time>2026-05-02T14:04:09.767Z</time></trkpt><trkpt lat="43.0929766" lon="11.6541051"><ele>404.0</ele><time>2026-05-02T14:04:11.06Z</time></trkpt><trkpt lat="43.0930038" lon="11.653977"><ele>404.0</ele><time>2026-05-02T14:04:12.103Z</time></trkpt><trkpt lat="43.0929479" lon="11.6537402"><ele>404.0</ele><time>2026-05-02T14:04:13.537Z</time></trkpt><trkpt lat="43.0928597" lon="11.6536776"><ele>404.0</ele><time>2026-05-02T14:04:14.557Z</time></trkpt><trkpt lat="43.0927423" lon="11.6536527"><ele>404.0</ele><time>2026-05-02T14:04:15.682Z</time></trkpt><trkpt lat="43.092604" lon="11.6536536"><ele>404.0</ele><time>2026-05-02T14:04:16.722Z</time></trkpt><trkpt lat="43.0924672" lon="11.6536445"><ele>402.5</ele><time>2026-05-02T14:04:17.694Z</time></trkpt><trkpt lat="43.0923395" lon="11.6536187"><ele>401.0</ele><time>2026-05-02T14:04:18.687Z</time></trkpt><trkpt lat="43.0922151" lon="11.6535801"><ele>399.5</ele><time>2026-05-02T14:04:19.684Z</time></trkpt><trkpt lat="43.0920893" lon="11.6535327"><ele>398.0</ele><time>2026-05-02T14:04:20.679Z</time></trkpt><trkpt lat="43.091967" lon="11.6534789"><ele>398.0</ele><time>2026-05-02T14:04:21.669Z</time></trkpt><trkpt lat="43.0918444" lon="11.6534236"><ele>398.0</ele><time>2026-05-02T14:04:22.71Z</time></trkpt><trkpt lat="43.0917159" lon="11.6533694"><ele>398.0</ele><time>2026-05-02T14:04:23.61Z</time></trkpt><trkpt lat="43.0915712" lon="11.6533259"><ele>398.0</ele><time>2026-05-02T14:04:24.702Z</time></trkpt><trkpt lat="43.0911868" lon="11.653365"><ele>395.0</ele><time>2026-05-02T14:04:26.499Z</time></trkpt><trkpt lat="43.0909528" lon="11.6534199"><ele>392.0</ele><time>2026-05-02T14:04:27.519Z</time></trkpt><trkpt lat="43.0907328" lon="11.6534401"><ele>389.66666666666663</ele><time>2026-05-02T14:04:28.527Z</time></trkpt><trkpt lat="43.0905296" lon="11.6534453"><ele>387.33333333333337</ele><time>2026-05-02T14:04:29.545Z</time></trkpt><trkpt lat="43.0903759" lon="11.653475"><ele>385.0</ele><time>2026-05-02T14:04:30.597Z</time></trkpt><trkpt lat="43.0902448" lon="11.6534985"><ele>385.0</ele><time>2026-05-02T14:04:31.679Z</time></trkpt><trkpt lat="43.0901225" lon="11.6535436"><ele>385.0</ele><time>2026-05-02T14:04:32.729Z</time></trkpt><trkpt lat="43.090003" lon="11.6536372"><ele>385.0</ele><time>2026-05-02T14:04:33.901Z</time></trkpt><trkpt lat="43.0897549" lon="11.6538457"><ele>386.5</ele><time>2026-05-02T14:04:35.519Z</time></trkpt><trkpt lat="43.0896264" lon="11.6538918"><ele>388.0</ele><time>2026-05-02T14:04:36.522Z</time></trkpt><trkpt lat="43.0894762" lon="11.6539097"><ele>389.5</ele><time>2026-05-02T14:04:37.53Z</time></trkpt><trkpt lat="43.089327" lon="11.6539008"><ele>391.0</ele><time>2026-05-02T14:04:38.51Z</time></trkpt><trkpt lat="43.0891869" lon="11.6538835"><ele>389.5</ele><time>2026-05-02T14:04:39.562Z</time></trkpt><trkpt lat="43.0890692" lon="11.6538451"><ele>388.0</ele><time>2026-05-02T14:04:40.625Z</time></trkpt><trkpt lat="43.0889703" lon="11.6537596"><ele>386.5</ele><time>2026-05-02T14:04:41.769Z</time></trkpt><trkpt lat="43.0888887" lon="11.6536235"><ele>385.0</ele><time>2026-05-02T14:04:42.949Z</time></trkpt><trkpt lat="43.0888323" lon="11.6534596"><ele>383.5</ele><time>2026-05-02T14:04:44.428Z</time></trkpt><trkpt lat="43.0887578" lon="11.6530554"><ele>382.0</ele><time>2026-05-02T14:04:45.519Z</time></trkpt><trkpt lat="43.0887598" lon="11.6528224"><ele>381.20000000000005</ele><time>2026-05-02T14:04:46.543Z</time></trkpt><trkpt lat="43.088759" lon="11.6526344"><ele>380.4</ele><time>2026-05-02T14:04:47.615Z</time></trkpt><trkpt lat="43.0887554" lon="11.6524733"><ele>379.6</ele><time>2026-05-02T14:04:48.726Z</time></trkpt><trkpt lat="43.0887328" lon="11.6523398"><ele>378.79999999999995</ele><time>2026-05-02T14:04:49.846Z</time></trkpt><trkpt lat="43.0886972" lon="11.6522354"><ele>378.0</ele><time>2026-05-02T14:04:51.44Z</time></trkpt><trkpt lat="43.0885516" lon="11.6520689"><ele>378.0</ele><time>2026-05-02T14:04:52.525Z</time></trkpt><trkpt lat="43.0884253" lon="11.65204"><ele>378.0</ele><time>2026-05-02T14:04:53.535Z</time></trkpt><trkpt lat="43.088295" lon="11.6520323"><ele>378.0</ele><time>2026-05-02T14:04:54.548Z</time></trkpt><trkpt lat="43.0881716" lon="11.6520315"><ele>378.0</ele><time>2026-05-02T14:04:55.563Z</time></trkpt><trkpt lat="43.0880541" lon="11.6520414"><ele>377.2</ele><time>2026-05-02T14:04:56.517Z</time></trkpt><trkpt lat="43.0879479" lon="11.6520494"><ele>376.4</ele><time>2026-05-02T14:04:57.53Z</time></trkpt><trkpt lat="43.0878496" lon="11.652059"><ele>375.59999999999997</ele><time>2026-05-02T14:04:58.624Z</time></trkpt><trkpt lat="43.0877571" lon="11.6520812"><ele>374.79999999999995</ele><time>2026-05-02T14:04:59.658Z</time></trkpt><trkpt lat="43.0876508" lon="11.6521413"><ele>374.0</ele><time>2026-05-02T14:05:00.597Z</time></trkpt><trkpt lat="43.0875232" lon="11.6522353"><ele>371.6666666666667</ele><time>2026-05-02T14:05:02.09Z</time></trkpt><trkpt lat="43.0872551" lon="11.6523767"><ele>369.3333333333333</ele><time>2026-05-02T14:05:03.496Z</time></trkpt><trkpt lat="43.0871161" lon="11.6523807"><ele>367.0</ele><time>2026-05-02T14:05:04.537Z</time></trkpt><trkpt lat="43.0869736" lon="11.6523272"><ele>367.0</ele><time>2026-05-02T14:05:05.549Z</time></trkpt><trkpt lat="43.086837" lon="11.6522369"><ele>367.0</ele><time>2026-05-02T14:05:06.552Z</time></trkpt><trkpt lat="43.086702" lon="11.6521279"><ele>367.0</ele><time>2026-05-02T14:05:07.633Z</time></trkpt><trkpt lat="43.086555" lon="11.6519986"><ele>367.66666666666663</ele><time>2026-05-02T14:05:08.592Z</time></trkpt><trkpt lat="43.0864016" lon="11.6518703"><ele>368.3333333333333</ele><time>2026-05-02T14:05:09.506Z</time></trkpt><trkpt lat="43.0862325" lon="11.6517581"><ele>369.0</ele><time>2026-05-02T14:05:10.503Z</time></trkpt><trkpt lat="43.0860666" lon="11.6516367"><ele>369.0</ele><time>2026-05-02T14:05:11.521Z</time></trkpt><trkpt lat="43.0859055" lon="11.6515067"><ele>369.0</ele><time>2026-05-02T14:05:12.538Z</time></trkpt><trkpt lat="43.0857491" lon="11.651377"><ele>369.0</ele><time>2026-05-02T14:05:13.551Z</time></trkpt><trkpt lat="43.0855928" lon="11.6512443"><ele>369.0</ele><time>2026-05-02T14:05:14.54Z</time></trkpt><trkpt lat="43.0854472" lon="11.6511067"><ele>369.0</ele><time>2026-05-02T14:05:15.513Z</time></trkpt><trkpt lat="43.0852964" lon="11.6509514"><ele>369.0</ele><time>2026-05-02T14:05:16.511Z</time></trkpt><trkpt lat="43.0851437" lon="11.6508116"><ele>369.0</ele><time>2026-05-02T14:05:17.514Z</time></trkpt><trkpt lat="43.0850006" lon="11.6506756"><ele>369.0</ele><time>2026-05-02T14:05:18.517Z</time></trkpt><trkpt lat="43.0848517" lon="11.6505498"><ele>369.0</ele><time>2026-05-02T14:05:19.534Z</time></trkpt><trkpt lat="43.0847049" lon="11.6504141"><ele>367.6666666666667</ele><time>2026-05-02T14:05:20.555Z</time></trkpt><trkpt lat="43.0845693" lon="11.6502761"><ele>366.33333333333337</ele><time>2026-05-02T14:05:21.605Z</time></trkpt><trkpt lat="43.0844365" lon="11.6501119"><ele>365.0</ele><time>2026-05-02T14:05:22.618Z</time></trkpt><trkpt lat="43.0843109" lon="11.6499333"><ele>365.0</ele><time>2026-05-02T14:05:23.61Z</time></trkpt><trkpt lat="43.0841834" lon="11.649727"><ele>365.0</ele><time>2026-05-02T14:05:24.522Z</time></trkpt><trkpt lat="43.0840674" lon="11.6495379"><ele>365.0</ele><time>2026-05-02T14:05:25.518Z</time></trkpt><trkpt lat="43.0839502" lon="11.6493326"><ele>364.6666666666667</ele><time>2026-05-02T14:05:26.533Z</time></trkpt><trkpt lat="43.0838369" lon="11.6491264"><ele>364.3333333333333</ele><time>2026-05-02T14:05:27.51Z</time></trkpt><trkpt lat="43.0837172" lon="11.6489209"><ele>364.0</ele><time>2026-05-02T14:05:28.504Z</time></trkpt><trkpt lat="43.0835995" lon="11.6487352"><ele>365.3333333333333</ele><time>2026-05-02T14:05:29.53Z</time></trkpt><trkpt lat="43.0834878" lon="11.6485388"><ele>366.6666666666667</ele><time>2026-05-02T14:05:30.519Z</time></trkpt><trkpt lat="43.083377" lon="11.648337"><ele>368.0</ele><time>2026-05-02T14:05:31.504Z</time></trkpt><trkpt lat="43.0832718" lon="11.6481435"><ele>369.0</ele><time>2026-05-02T14:05:32.509Z</time></trkpt><trkpt lat="43.0831521" lon="11.6479693"><ele>370.0</ele><time>2026-05-02T14:05:33.509Z</time></trkpt><trkpt lat="43.0830417" lon="11.64779"><ele>371.0</ele><time>2026-05-02T14:05:34.513Z</time></trkpt><trkpt lat="43.0829434" lon="11.6476236"><ele>371.0</ele><time>2026-05-02T14:05:35.51Z</time></trkpt><trkpt lat="43.0828468" lon="11.647468"><ele>371.0</ele><time>2026-05-02T14:05:36.52Z</time></trkpt><trkpt lat="43.0827587" lon="11.6473142"><ele>371.0</ele><time>2026-05-02T14:05:37.524Z</time></trkpt><trkpt lat="43.0826785" lon="11.64717"><ele>371.0</ele><time>2026-05-02T14:05:38.512Z</time></trkpt><trkpt lat="43.082603" lon="11.647045"><ele>371.1666666666667</ele><time>2026-05-02T14:05:39.509Z</time></trkpt><trkpt lat="43.0825387" lon="11.6469342"><ele>371.33333333333337</ele><time>2026-05-02T14:05:40.52Z</time></trkpt><trkpt lat="43.0824696" lon="11.6468297"><ele>371.5</ele><time>2026-05-02T14:05:41.532Z</time></trkpt><trkpt lat="43.08242" lon="11.6467393"><ele>371.6666666666667</ele><time>2026-05-02T14:05:42.518Z</time></trkpt><trkpt lat="43.0823715" lon="11.6466693"><ele>371.8333333333333</ele><time>2026-05-02T14:05:43.527Z</time></trkpt><trkpt lat="43.0823241" lon="11.6466003"><ele>372.0</ele><time>2026-05-02T14:05:44.519Z</time></trkpt><trkpt lat="43.0822537" lon="11.6464671"><ele>371.6666666666667</ele><time>2026-05-02T14:05:46.516Z</time></trkpt><trkpt lat="43.0821913" lon="11.6463546"><ele>371.3333333333333</ele><time>2026-05-02T14:05:48.543Z</time></trkpt><trkpt lat="43.0821472" lon="11.6462858"><ele>371.0</ele><time>2026-05-02T14:05:50.546Z</time></trkpt><trkpt lat="43.0821114" lon="11.6462095"><ele>370.66666666666663</ele><time>2026-05-02T14:05:58.589Z</time></trkpt><trkpt lat="43.0820523" lon="11.6461105"><ele>370.3333333333333</ele><time>2026-05-02T14:06:01.514Z</time></trkpt><trkpt lat="43.0820043" lon="11.6460129"><ele>370.0</ele><time>2026-05-02T14:06:03.512Z</time></trkpt><trkpt lat="43.0819633" lon="11.6459265"><ele>370.0</ele><time>2026-05-02T14:06:05.517Z</time></trkpt><trkpt lat="43.0819248" lon="11.6458526"><ele>370.0</ele><time>2026-05-02T14:06:07.531Z</time></trkpt><trkpt lat="43.08187" lon="11.6457787"><ele>370.0</ele><time>2026-05-02T14:06:10.784Z</time></trkpt><trkpt lat="43.0817877" lon="11.6458572"><ele>370.0</ele><time>2026-05-02T14:06:15.221Z</time></trkpt><trkpt lat="43.0817383" lon="11.6459563"><ele>370.0</ele><time>2026-05-02T14:06:16.52Z</time></trkpt><trkpt lat="43.0816732" lon="11.6460295"><ele>370.0</ele><time>2026-05-02T14:06:18.553Z</time></trkpt><trkpt lat="43.0815768" lon="11.6460946"><ele>369.3333333333333</ele><time>2026-05-02T14:06:20.552Z</time></trkpt><trkpt lat="43.0814714" lon="11.6461563"><ele>368.66666666666663</ele><time>2026-05-02T14:06:22.541Z</time></trkpt><trkpt lat="43.0813798" lon="11.6462257"><ele>368.0</ele><time>2026-05-02T14:06:24.546Z</time></trkpt><trkpt lat="43.0813111" lon="11.6462622"><ele>367.3333333333333</ele><time>2026-05-02T14:06:26.52Z</time></trkpt><trkpt lat="43.0812513" lon="11.6462905"><ele>366.6666666666667</ele><time>2026-05-02T14:06:29.562Z</time></trkpt><trkpt lat="43.0811881" lon="11.6463309"><ele>366.0</ele><time>2026-05-02T14:06:32.548Z</time></trkpt><trkpt lat="43.0811274" lon="11.6463689"><ele>366.0</ele><time>2026-05-02T14:06:34.577Z</time></trkpt><trkpt lat="43.0810319" lon="11.646427"><ele>366.0</ele><time>2026-05-02T14:06:36.61Z</time></trkpt><trkpt lat="43.0809715" lon="11.6464793"><ele>366.0</ele><time>2026-05-02T14:06:37.512Z</time></trkpt><trkpt lat="43.0808933" lon="11.6465372"><ele>366.0</ele><time>2026-05-02T14:06:38.521Z</time></trkpt><trkpt lat="43.0808068" lon="11.6465941"><ele>366.0</ele><time>2026-05-02T14:06:39.513Z</time></trkpt><trkpt lat="43.0807217" lon="11.6466502"><ele>366.0</ele><time>2026-05-02T14:06:40.515Z</time></trkpt><trkpt lat="43.0806481" lon="11.6466907"><ele>366.0</ele><time>2026-05-02T14:06:41.554Z</time></trkpt><trkpt lat="43.0805778" lon="11.6467242"><ele>366.0</ele><time>2026-05-02T14:06:42.553Z</time></trkpt><trkpt lat="43.0804992" lon="11.6467497"><ele>366.0</ele><time>2026-05-02T14:06:43.528Z</time></trkpt><trkpt lat="43.080413" lon="11.6467767"><ele>366.0</ele><time>2026-05-02T14:06:44.576Z</time></trkpt><trkpt lat="43.0803155" lon="11.6467943"><ele>366.0</ele><time>2026-05-02T14:06:45.635Z</time></trkpt><trkpt lat="43.080208" lon="11.6467963"><ele>366.0</ele><time>2026-05-02T14:06:46.68Z</time></trkpt><trkpt lat="43.0800829" lon="11.6467766"><ele>366.0</ele><time>2026-05-02T14:06:47.672Z</time></trkpt><trkpt lat="43.0799447" lon="11.6467475"><ele>366.0</ele><time>2026-05-02T14:06:48.732Z</time></trkpt><trkpt lat="43.079804" lon="11.646711"><ele>366.0</ele><time>2026-05-02T14:06:49.723Z</time></trkpt><trkpt lat="43.0796596" lon="11.646684"><ele>368.0</ele><time>2026-05-02T14:06:50.643Z</time></trkpt><trkpt lat="43.0793887" lon="11.6466411"><ele>370.0</ele><time>2026-05-02T14:06:52.555Z</time></trkpt><trkpt lat="43.079252" lon="11.6466159"><ele>372.0</ele><time>2026-05-02T14:06:53.558Z</time></trkpt><trkpt lat="43.0791142" lon="11.6465819"><ele>372.5</ele><time>2026-05-02T14:06:54.596Z</time></trkpt><trkpt lat="43.0789709" lon="11.6465417"><ele>373.0</ele><time>2026-05-02T14:06:55.597Z</time></trkpt><trkpt lat="43.078836" lon="11.6465322"><ele>373.5</ele><time>2026-05-02T14:06:56.511Z</time></trkpt><trkpt lat="43.0787061" lon="11.6465164"><ele>374.0</ele><time>2026-05-02T14:06:57.528Z</time></trkpt><trkpt lat="43.0785849" lon="11.6465098"><ele>374.0</ele><time>2026-05-02T14:06:58.543Z</time></trkpt><trkpt lat="43.0784628" lon="11.646512"><ele>374.0</ele><time>2026-05-02T14:06:59.518Z</time></trkpt><trkpt lat="43.0783369" lon="11.6465338"><ele>374.0</ele><time>2026-05-02T14:07:00.517Z</time></trkpt><trkpt lat="43.078213" lon="11.6465646"><ele>374.0</ele><time>2026-05-02T14:07:01.539Z</time></trkpt><trkpt lat="43.0780965" lon="11.6466098"><ele>375.25</ele><time>2026-05-02T14:07:02.552Z</time></trkpt><trkpt lat="43.0779751" lon="11.646658"><ele>376.5</ele><time>2026-05-02T14:07:03.565Z</time></trkpt><trkpt lat="43.0778584" lon="11.646704"><ele>377.75</ele><time>2026-05-02T14:07:04.578Z</time></trkpt><trkpt lat="43.0777549" lon="11.6467571"><ele>379.0</ele><time>2026-05-02T14:07:05.523Z</time></trkpt><trkpt lat="43.0776635" lon="11.6468042"><ele>379.0</ele><time>2026-05-02T14:07:06.575Z</time></trkpt><trkpt lat="43.0775757" lon="11.6468549"><ele>379.0</ele><time>2026-05-02T14:07:07.6Z</time></trkpt><trkpt lat="43.0774982" lon="11.6469222"><ele>379.0</ele><time>2026-05-02T14:07:08.59Z</time></trkpt><trkpt lat="43.0774197" lon="11.6470051"><ele>379.0</ele><time>2026-05-02T14:07:09.514Z</time></trkpt><trkpt lat="43.07734" lon="11.6471078"><ele>379.0</ele><time>2026-05-02T14:07:10.528Z</time></trkpt><trkpt lat="43.0772634" lon="11.6472324"><ele>379.5</ele><time>2026-05-02T14:07:11.549Z</time></trkpt><trkpt lat="43.0771973" lon="11.6473702"><ele>380.0</ele><time>2026-05-02T14:07:12.572Z</time></trkpt><trkpt lat="43.077147" lon="11.6475161"><ele>380.5</ele><time>2026-05-02T14:07:13.644Z</time></trkpt><trkpt lat="43.0771022" lon="11.6476656"><ele>381.0</ele><time>2026-05-02T14:07:14.724Z</time></trkpt><trkpt lat="43.0770475" lon="11.6477975"><ele>380.0</ele><time>2026-05-02T14:07:15.82Z</time></trkpt><trkpt lat="43.0769882" lon="11.6478911"><ele>379.0</ele><time>2026-05-02T14:07:16.951Z</time></trkpt><trkpt lat="43.0769189" lon="11.6479507"><ele>378.0</ele><time>2026-05-02T14:07:18.274Z</time></trkpt><trkpt lat="43.0767745" lon="11.6480134"><ele>377.0</ele><time>2026-05-02T14:07:19.528Z</time></trkpt><trkpt lat="43.0766862" lon="11.647984"><ele>376.0</ele><time>2026-05-02T14:07:20.519Z</time></trkpt><trkpt lat="43.0765793" lon="11.6479398"><ele>376.5</ele><time>2026-05-02T14:07:21.524Z</time></trkpt><trkpt lat="43.0764629" lon="11.6479037"><ele>377.0</ele><time>2026-05-02T14:07:22.532Z</time></trkpt><trkpt lat="43.0763405" lon="11.6478573"><ele>377.5</ele><time>2026-05-02T14:07:23.537Z</time></trkpt><trkpt lat="43.076211" lon="11.6478167"><ele>378.0</ele><time>2026-05-02T14:07:24.534Z</time></trkpt><trkpt lat="43.076081" lon="11.6477822"><ele>378.0</ele><time>2026-05-02T14:07:25.517Z</time></trkpt><trkpt lat="43.0759525" lon="11.6477523"><ele>378.0</ele><time>2026-05-02T14:07:26.529Z</time></trkpt><trkpt lat="43.0758273" lon="11.6477236"><ele>378.0</ele><time>2026-05-02T14:07:27.53Z</time></trkpt><trkpt lat="43.0757153" lon="11.6477088"><ele>378.0</ele><time>2026-05-02T14:07:28.513Z</time></trkpt><trkpt lat="43.0756076" lon="11.6476972"><ele>378.4</ele><time>2026-05-02T14:07:29.53Z</time></trkpt><trkpt lat="43.0755021" lon="11.6476948"><ele>378.79999999999995</ele><time>2026-05-02T14:07:30.543Z</time></trkpt><trkpt lat="43.0753928" lon="11.6476919"><ele>379.2</ele><time>2026-05-02T14:07:31.576Z</time></trkpt><trkpt lat="43.0752817" lon="11.6476786"><ele>379.6</ele><time>2026-05-02T14:07:32.526Z</time></trkpt><trkpt lat="43.0751741" lon="11.6476647"><ele>380.0</ele><time>2026-05-02T14:07:33.533Z</time></trkpt><trkpt lat="43.0750741" lon="11.6476471"><ele>380.0</ele><time>2026-05-02T14:07:34.527Z</time></trkpt><trkpt lat="43.0749775" lon="11.6476373"><ele>380.0</ele><time>2026-05-02T14:07:35.513Z</time></trkpt><trkpt lat="43.0748793" lon="11.647622"><ele>380.0</ele><time>2026-05-02T14:07:36.546Z</time></trkpt><trkpt lat="43.0747828" lon="11.6475999"><ele>380.0</ele><time>2026-05-02T14:07:37.597Z</time></trkpt><trkpt lat="43.0746874" lon="11.6475707"><ele>380.0</ele><time>2026-05-02T14:07:38.662Z</time></trkpt><trkpt lat="43.0745895" lon="11.6475276"><ele>382.0</ele><time>2026-05-02T14:07:39.691Z</time></trkpt><trkpt lat="43.0745046" lon="11.6474569"><ele>384.0</ele><time>2026-05-02T14:07:40.764Z</time></trkpt><trkpt lat="43.0744177" lon="11.6473597"><ele>386.0</ele><time>2026-05-02T14:07:41.763Z</time></trkpt><trkpt lat="43.0742055" lon="11.6471144"><ele>384.0</ele><time>2026-05-02T14:07:43.537Z</time></trkpt><trkpt lat="43.0740822" lon="11.6469741"><ele>382.0</ele><time>2026-05-02T14:07:44.539Z</time></trkpt><trkpt lat="43.0739711" lon="11.64683"><ele>380.0</ele><time>2026-05-02T14:07:45.526Z</time></trkpt><trkpt lat="43.0738787" lon="11.6467247"><ele>378.0</ele><time>2026-05-02T14:07:46.617Z</time></trkpt><trkpt lat="43.0738004" lon="11.6466216"><ele>378.0</ele><time>2026-05-02T14:07:47.679Z</time></trkpt><trkpt lat="43.0737254" lon="11.6465255"><ele>378.0</ele><time>2026-05-02T14:07:48.69Z</time></trkpt><trkpt lat="43.0735927" lon="11.646255"><ele>378.0</ele><time>2026-05-02T14:07:50.522Z</time></trkpt><trkpt lat="43.0735196" lon="11.6460987"><ele>378.25</ele><time>2026-05-02T14:07:51.542Z</time></trkpt><trkpt lat="43.0734523" lon="11.6459456"><ele>378.5</ele><time>2026-05-02T14:07:52.544Z</time></trkpt><trkpt lat="43.0733859" lon="11.6457847"><ele>378.75</ele><time>2026-05-02T14:07:53.606Z</time></trkpt><trkpt lat="43.0733213" lon="11.6456218"><ele>379.0</ele><time>2026-05-02T14:07:54.594Z</time></trkpt><trkpt lat="43.0732564" lon="11.6454599"><ele>376.75</ele><time>2026-05-02T14:07:55.514Z</time></trkpt><trkpt lat="43.073194" lon="11.6452959"><ele>374.5</ele><time>2026-05-02T14:07:56.525Z</time></trkpt><trkpt lat="43.0731317" lon="11.6451303"><ele>372.25</ele><time>2026-05-02T14:07:57.525Z</time></trkpt><trkpt lat="43.0730664" lon="11.6449621"><ele>370.0</ele><time>2026-05-02T14:07:58.519Z</time></trkpt><trkpt lat="43.0730017" lon="11.6448008"><ele>370.0</ele><time>2026-05-02T14:07:59.513Z</time></trkpt><trkpt lat="43.0729417" lon="11.6446455"><ele>370.0</ele><time>2026-05-02T14:08:00.51Z</time></trkpt><trkpt lat="43.0728787" lon="11.6445064"><ele>370.0</ele><time>2026-05-02T14:08:01.513Z</time></trkpt><trkpt lat="43.0728159" lon="11.6443608"><ele>370.0</ele><time>2026-05-02T14:08:02.521Z</time></trkpt><trkpt lat="43.0727489" lon="11.6442117"><ele>371.5</ele><time>2026-05-02T14:08:03.517Z</time></trkpt><trkpt lat="43.072679" lon="11.6440629"><ele>373.0</ele><time>2026-05-02T14:08:04.514Z</time></trkpt><trkpt lat="43.0726165" lon="11.6439175"><ele>374.5</ele><time>2026-05-02T14:08:05.527Z</time></trkpt><trkpt lat="43.0725548" lon="11.6437756"><ele>376.0</ele><time>2026-05-02T14:08:06.519Z</time></trkpt><trkpt lat="43.0724964" lon="11.6436367"><ele>376.3333333333333</ele><time>2026-05-02T14:08:07.518Z</time></trkpt><trkpt lat="43.0724454" lon="11.643506"><ele>376.66666666666663</ele><time>2026-05-02T14:08:08.537Z</time></trkpt><trkpt lat="43.0723976" lon="11.6433909"><ele>377.0</ele><time>2026-05-02T14:08:09.512Z</time></trkpt><trkpt lat="43.0723539" lon="11.6432907"><ele>377.3333333333333</ele><time>2026-05-02T14:08:10.526Z</time></trkpt><trkpt lat="43.072316" lon="11.6431979"><ele>377.6666666666667</ele><time>2026-05-02T14:08:11.522Z</time></trkpt><trkpt lat="43.0722842" lon="11.6431212"><ele>378.0</ele><time>2026-05-02T14:08:12.543Z</time></trkpt><trkpt lat="43.0722313" lon="11.6430033"><ele>377.3333333333333</ele><time>2026-05-02T14:08:14.536Z</time></trkpt><trkpt lat="43.0721909" lon="11.6429356"><ele>376.6666666666667</ele><time>2026-05-02T14:08:17.537Z</time></trkpt><trkpt lat="43.0721113" lon="11.6428795"><ele>376.0</ele><time>2026-05-02T14:08:23.725Z</time></trkpt><trkpt lat="43.0720333" lon="11.6428011"><ele>375.33333333333337</ele><time>2026-05-02T14:08:26.537Z</time></trkpt><trkpt lat="43.071953" lon="11.6427637"><ele>374.6666666666667</ele><time>2026-05-02T14:08:29.642Z</time></trkpt><trkpt lat="43.0718827" lon="11.6427253"><ele>374.0</ele><time>2026-05-02T14:08:31.73Z</time></trkpt><trkpt lat="43.071826" lon="11.6426872"><ele>374.0</ele><time>2026-05-02T14:08:40.518Z</time></trkpt><trkpt lat="43.0717648" lon="11.6426414"><ele>374.0</ele><time>2026-05-02T14:08:52.537Z</time></trkpt><trkpt lat="43.0716679" lon="11.6426479"><ele>374.0</ele><time>2026-05-02T14:09:17.557Z</time></trkpt><trkpt lat="43.0716005" lon="11.6425994"><ele>374.0</ele><time>2026-05-02T14:09:20.57Z</time></trkpt><trkpt lat="43.0715266" lon="11.6425697"><ele>374.0</ele><time>2026-05-02T14:09:23.558Z</time></trkpt><trkpt lat="43.0714627" lon="11.6425322"><ele>374.0</ele><time>2026-05-02T14:09:27.067Z</time></trkpt><trkpt lat="43.0713941" lon="11.6425004"><ele>372.5</ele><time>2026-05-02T14:09:30.61Z</time></trkpt><trkpt lat="43.0712785" lon="11.6424549"><ele>371.0</ele><time>2026-05-02T14:09:34.703Z</time></trkpt><trkpt lat="43.071171" lon="11.6424232"><ele>369.5</ele><time>2026-05-02T14:09:37.077Z</time></trkpt><trkpt lat="43.0710513" lon="11.6423642"><ele>368.0</ele><time>2026-05-02T14:09:38.946Z</time></trkpt><trkpt lat="43.0709182" lon="11.6422743"><ele>368.0</ele><time>2026-05-02T14:09:40.78Z</time></trkpt><trkpt lat="43.0708544" lon="11.6422305"><ele>368.0</ele><time>2026-05-02T14:09:41.871Z</time></trkpt><trkpt lat="43.0707329" lon="11.6421917"><ele>368.0</ele><time>2026-05-02T14:09:43.883Z</time></trkpt><trkpt lat="43.0705993" lon="11.6421331"><ele>368.0</ele><time>2026-05-02T14:09:46.667Z</time></trkpt><trkpt lat="43.0704929" lon="11.6421046"><ele>368.0</ele><time>2026-05-02T14:09:50.471Z</time></trkpt><trkpt lat="43.0704252" lon="11.6421063"><ele>366.0</ele><time>2026-05-02T14:09:51.788Z</time></trkpt><trkpt lat="43.07036" lon="11.64209"><ele>366.0</ele><time>2026-05-02T14:09:56.043Z</time></trkpt><trkpt lat="43.0704304" lon="11.642098"><ele>366.0</ele><time>2026-05-02T14:10:21.499Z</time></trkpt><trkpt lat="43.0705167" lon="11.6420578"><ele>366.0</ele><time>2026-05-02T14:10:22.543Z</time></trkpt><trkpt lat="43.0706067" lon="11.6420482"><ele>366.0</ele><time>2026-05-02T14:10:26.387Z</time></trkpt><trkpt lat="43.070628" lon="11.6419467"><ele>369.0</ele><time>2026-05-02T14:10:58.626Z</time></trkpt></trkseg><trkseg><trkpt lat="43.0705722" lon="11.6421201"><ele>366.0</ele><time>2026-05-02T14:58:05.185Z</time></trkpt><trkpt lat="43.070464" lon="11.6421089"><ele>366.0</ele><time>2026-05-02T14:58:07.806Z</time></trkpt><trkpt lat="43.070299" lon="11.6421201"><ele>366.0</ele><time>2026-05-02T14:58:10.901Z</time></trkpt><trkpt lat="43.0701676" lon="11.6421762"><ele>366.0</ele><time>2026-05-02T14:58:13.934Z</time></trkpt><trkpt lat="43.0700801" lon="11.6422364"><ele>366.0</ele><time>2026-05-02T14:58:43.201Z</time></trkpt><trkpt lat="43.0699865" lon="11.6423059"><ele>366.0</ele><time>2026-05-02T14:58:45.204Z</time></trkpt><trkpt lat="43.0699291" lon="11.6423482"><ele>366.0</ele><time>2026-05-02T14:58:46.856Z</time></trkpt><trkpt lat="43.0698393" lon="11.6423895"><ele>366.0</ele><time>2026-05-02T14:58:58.987Z</time></trkpt><trkpt lat="43.0697053" lon="11.6424901"><ele>366.0</ele><time>2026-05-02T14:59:01.868Z</time></trkpt><trkpt lat="43.069545" lon="11.6425951"><ele>365.8333333333333</ele><time>2026-05-02T14:59:04.522Z</time></trkpt><trkpt lat="43.0694869" lon="11.6426292"><ele>365.6666666666667</ele><time>2026-05-02T14:59:05.53Z</time></trkpt><trkpt lat="43.0694275" lon="11.6426623"><ele>365.5</ele><time>2026-05-02T14:59:06.541Z</time></trkpt><trkpt lat="43.0693616" lon="11.6426996"><ele>365.33333333333337</ele><time>2026-05-02T14:59:07.531Z</time></trkpt><trkpt lat="43.0692869" lon="11.6427423"><ele>365.1666666666667</ele><time>2026-05-02T14:59:08.557Z</time></trkpt><trkpt lat="43.0692115" lon="11.642793"><ele>365.0</ele><time>2026-05-02T14:59:09.557Z</time></trkpt><trkpt lat="43.0691339" lon="11.6428493"><ele>361.8</ele><time>2026-05-02T14:59:10.556Z</time></trkpt><trkpt lat="43.0690556" lon="11.6429019"><ele>358.6</ele><time>2026-05-02T14:59:11.559Z</time></trkpt><trkpt lat="43.06898" lon="11.6429566"><ele>355.4</ele><time>2026-05-02T14:59:12.631Z</time></trkpt><trkpt lat="43.0689032" lon="11.6430129"><ele>352.2</ele><time>2026-05-02T14:59:13.609Z</time></trkpt><trkpt lat="43.0688189" lon="11.6430808"><ele>349.0</ele><time>2026-05-02T14:59:14.632Z</time></trkpt><trkpt lat="43.0687188" lon="11.6431618"><ele>349.0</ele><time>2026-05-02T14:59:15.589Z</time></trkpt><trkpt lat="43.0686154" lon="11.6432386"><ele>349.0</ele><time>2026-05-02T14:59:16.57Z</time></trkpt><trkpt lat="43.0685206" lon="11.6433106"><ele>349.0</ele><time>2026-05-02T14:59:17.613Z</time></trkpt><trkpt lat="43.0684248" lon="11.6433838"><ele>349.0</ele><time>2026-05-02T14:59:18.758Z</time></trkpt><trkpt lat="43.0683271" lon="11.6434587"><ele>349.0</ele><time>2026-05-02T14:59:19.659Z</time></trkpt><trkpt lat="43.0682259" lon="11.6435488"><ele>346.75</ele><time>2026-05-02T14:59:20.603Z</time></trkpt><trkpt lat="43.0681148" lon="11.6436501"><ele>344.5</ele><time>2026-05-02T14:59:21.619Z</time></trkpt><trkpt lat="43.0680002" lon="11.6437477"><ele>342.25</ele><time>2026-05-02T14:59:23.131Z</time></trkpt><trkpt lat="43.067891" lon="11.6438398"><ele>340.0</ele><time>2026-05-02T14:59:24.682Z</time></trkpt><trkpt lat="43.0676904" lon="11.6440461"><ele>340.0</ele><time>2026-05-02T14:59:25.861Z</time></trkpt><trkpt lat="43.0676017" lon="11.6441802"><ele>340.0</ele><time>2026-05-02T14:59:26.914Z</time></trkpt><trkpt lat="43.067527" lon="11.6443009"><ele>340.0</ele><time>2026-05-02T14:59:28.155Z</time></trkpt><trkpt lat="43.067467" lon="11.6444125"><ele>340.0</ele><time>2026-05-02T14:59:29.457Z</time></trkpt><trkpt lat="43.0673946" lon="11.6446313"><ele>340.5</ele><time>2026-05-02T14:59:31.38Z</time></trkpt><trkpt lat="43.067393" lon="11.6449014"><ele>341.0</ele><time>2026-05-02T14:59:33.062Z</time></trkpt><trkpt lat="43.0674875" lon="11.6452727"><ele>345.0</ele><time>2026-05-02T14:59:34.52Z</time></trkpt><trkpt lat="43.0675374" lon="11.6454595"><ele>349.0</ele><time>2026-05-02T14:59:35.56Z</time></trkpt><trkpt lat="43.0675961" lon="11.6456414"><ele>353.0</ele><time>2026-05-02T14:59:36.583Z</time></trkpt><trkpt lat="43.0676758" lon="11.6458308"><ele>353.0</ele><time>2026-05-02T14:59:37.616Z</time></trkpt><trkpt lat="43.0677956" lon="11.6460406"><ele>353.0</ele><time>2026-05-02T14:59:38.644Z</time></trkpt><trkpt lat="43.067895" lon="11.6462519"><ele>353.0</ele><time>2026-05-02T14:59:39.668Z</time></trkpt><trkpt lat="43.0679874" lon="11.6464566"><ele>354.75</ele><time>2026-05-02T14:59:40.677Z</time></trkpt><trkpt lat="43.0680722" lon="11.6466432"><ele>356.5</ele><time>2026-05-02T14:59:41.77Z</time></trkpt><trkpt lat="43.0681374" lon="11.6468092"><ele>358.25</ele><time>2026-05-02T14:59:42.808Z</time></trkpt><trkpt lat="43.0681819" lon="11.6469661"><ele>360.0</ele><time>2026-05-02T14:59:43.891Z</time></trkpt><trkpt lat="43.0682043" lon="11.6471174"><ele>360.3333333333333</ele><time>2026-05-02T14:59:45.072Z</time></trkpt><trkpt lat="43.0682196" lon="11.6472674"><ele>360.66666666666663</ele><time>2026-05-02T14:59:46.724Z</time></trkpt><trkpt lat="43.06819" lon="11.6474835"><ele>361.0</ele><time>2026-05-02T14:59:48.296Z</time></trkpt><trkpt lat="43.068047" lon="11.6476554"><ele>357.0</ele><time>2026-05-02T14:59:50.162Z</time></trkpt><trkpt lat="43.0678374" lon="11.6478534"><ele>353.0</ele><time>2026-05-02T14:59:51.559Z</time></trkpt><trkpt lat="43.0677233" lon="11.6479485"><ele>349.0</ele><time>2026-05-02T14:59:52.574Z</time></trkpt><trkpt lat="43.0676033" lon="11.6480166"><ele>349.0</ele><time>2026-05-02T14:59:53.61Z</time></trkpt><trkpt lat="43.0674826" lon="11.6480665"><ele>349.0</ele><time>2026-05-02T14:59:54.638Z</time></trkpt><trkpt lat="43.0673506" lon="11.6480926"><ele>349.0</ele><time>2026-05-02T14:59:55.641Z</time></trkpt><trkpt lat="43.067039" lon="11.6481075"><ele>350.25</ele><time>2026-05-02T14:59:57.53Z</time></trkpt><trkpt lat="43.0668807" lon="11.6481066"><ele>351.5</ele><time>2026-05-02T14:59:58.54Z</time></trkpt><trkpt lat="43.0667523" lon="11.6481114"><ele>352.75</ele><time>2026-05-02T14:59:59.521Z</time></trkpt><trkpt lat="43.0666283" lon="11.6481111"><ele>354.0</ele><time>2026-05-02T15:00:00.526Z</time></trkpt><trkpt lat="43.0664895" lon="11.6481043"><ele>354.0</ele><time>2026-05-02T15:00:01.539Z</time></trkpt><trkpt lat="43.0663526" lon="11.6481004"><ele>354.0</ele><time>2026-05-02T15:00:02.55Z</time></trkpt><trkpt lat="43.0662382" lon="11.6481152"><ele>354.0</ele><time>2026-05-02T15:00:03.524Z</time></trkpt><trkpt lat="43.0661345" lon="11.6481264"><ele>354.0</ele><time>2026-05-02T15:00:04.527Z</time></trkpt><trkpt lat="43.0660258" lon="11.6481349"><ele>354.0</ele><time>2026-05-02T15:00:05.55Z</time></trkpt><trkpt lat="43.0659251" lon="11.6481519"><ele>354.0</ele><time>2026-05-02T15:00:06.604Z</time></trkpt><trkpt lat="43.065823" lon="11.6481864"><ele>354.0</ele><time>2026-05-02T15:00:07.647Z</time></trkpt><trkpt lat="43.0656261" lon="11.6483243"><ele>354.0</ele><time>2026-05-02T15:00:09.585Z</time></trkpt><trkpt lat="43.0655254" lon="11.6484228"><ele>354.2</ele><time>2026-05-02T15:00:10.607Z</time></trkpt><trkpt lat="43.0654317" lon="11.6484944"><ele>354.4</ele><time>2026-05-02T15:00:11.548Z</time></trkpt><trkpt lat="43.0653436" lon="11.6485418"><ele>354.6</ele><time>2026-05-02T15:00:12.55Z</time></trkpt><trkpt lat="43.065264" lon="11.648565"><ele>354.8</ele><time>2026-05-02T15:00:13.589Z</time></trkpt><trkpt lat="43.065173" lon="11.6485673"><ele>355.0</ele><time>2026-05-02T15:00:14.602Z</time></trkpt><trkpt lat="43.0650652" lon="11.6485511"><ele>355.25</ele><time>2026-05-02T15:00:15.546Z</time></trkpt><trkpt lat="43.0649354" lon="11.6485079"><ele>355.5</ele><time>2026-05-02T15:00:16.534Z</time></trkpt><trkpt lat="43.0647976" lon="11.6484662"><ele>355.75</ele><time>2026-05-02T15:00:17.541Z</time></trkpt><trkpt lat="43.0646582" lon="11.6484192"><ele>356.0</ele><time>2026-05-02T15:00:18.556Z</time></trkpt><trkpt lat="43.0645284" lon="11.6483684"><ele>356.0</ele><time>2026-05-02T15:00:19.604Z</time></trkpt><trkpt lat="43.0644131" lon="11.6483125"><ele>356.0</ele><time>2026-05-02T15:00:20.645Z</time></trkpt><trkpt lat="43.0642121" lon="11.6481529"><ele>356.0</ele><time>2026-05-02T15:00:22.549Z</time></trkpt><trkpt lat="43.064104" lon="11.6480569"><ele>354.25</ele><time>2026-05-02T15:00:23.544Z</time></trkpt><trkpt lat="43.0639919" lon="11.647959"><ele>352.5</ele><time>2026-05-02T15:00:24.585Z</time></trkpt><trkpt lat="43.0638841" lon="11.6478638"><ele>350.75</ele><time>2026-05-02T15:00:25.621Z</time></trkpt><trkpt lat="43.0637992" lon="11.6477797"><ele>349.0</ele><time>2026-05-02T15:00:26.679Z</time></trkpt><trkpt lat="43.0637314" lon="11.6476968"><ele>349.0</ele><time>2026-05-02T15:00:27.72Z</time></trkpt><trkpt lat="43.0636711" lon="11.6476011"><ele>349.0</ele><time>2026-05-02T15:00:28.752Z</time></trkpt><trkpt lat="43.063612" lon="11.6474907"><ele>349.0</ele><time>2026-05-02T15:00:29.856Z</time></trkpt><trkpt lat="43.0635473" lon="11.6473535"><ele>349.0</ele><time>2026-05-02T15:00:30.946Z</time></trkpt><trkpt lat="43.0634082" lon="11.6470218"><ele>348.66666666666663</ele><time>2026-05-02T15:00:32.529Z</time></trkpt><trkpt lat="43.0633312" lon="11.6468321"><ele>348.3333333333333</ele><time>2026-05-02T15:00:33.525Z</time></trkpt><trkpt lat="43.0632455" lon="11.6466301"><ele>348.0</ele><time>2026-05-02T15:00:34.559Z</time></trkpt><trkpt lat="43.0631559" lon="11.6464216"><ele>346.6666666666667</ele><time>2026-05-02T15:00:35.57Z</time></trkpt><trkpt lat="43.0630625" lon="11.6462228"><ele>345.33333333333337</ele><time>2026-05-02T15:00:36.581Z</time></trkpt><trkpt lat="43.0629723" lon="11.6460328"><ele>344.0</ele><time>2026-05-02T15:00:37.603Z</time></trkpt><trkpt lat="43.0628836" lon="11.6458525"><ele>344.0</ele><time>2026-05-02T15:00:38.615Z</time></trkpt><trkpt lat="43.062797" lon="11.6456909"><ele>344.0</ele><time>2026-05-02T15:00:39.536Z</time></trkpt><trkpt lat="43.0627086" lon="11.6455364"><ele>344.0</ele><time>2026-05-02T15:00:40.527Z</time></trkpt><trkpt lat="43.0626253" lon="11.6453839"><ele>344.0</ele><time>2026-05-02T15:00:41.548Z</time></trkpt><trkpt lat="43.0625352" lon="11.6452301"><ele>344.33333333333337</ele><time>2026-05-02T15:00:42.564Z</time></trkpt><trkpt lat="43.0624339" lon="11.6450744"><ele>344.6666666666667</ele><time>2026-05-02T15:00:43.548Z</time></trkpt><trkpt lat="43.0623278" lon="11.6449216"><ele>345.0</ele><time>2026-05-02T15:00:44.592Z</time></trkpt><trkpt lat="43.0622261" lon="11.6447773"><ele>345.0</ele><time>2026-05-02T15:00:45.546Z</time></trkpt><trkpt lat="43.0621276" lon="11.6446281"><ele>345.0</ele><time>2026-05-02T15:00:46.55Z</time></trkpt><trkpt lat="43.0620385" lon="11.6444937"><ele>345.0</ele><time>2026-05-02T15:00:47.533Z</time></trkpt><trkpt lat="43.0619471" lon="11.6443692"><ele>345.0</ele><time>2026-05-02T15:00:48.524Z</time></trkpt><trkpt lat="43.0618565" lon="11.6442383"><ele>345.0</ele><time>2026-05-02T15:00:49.531Z</time></trkpt><trkpt lat="43.0617687" lon="11.644104"><ele>345.0</ele><time>2026-05-02T15:00:50.533Z</time></trkpt><trkpt lat="43.0616781" lon="11.6439713"><ele>345.0</ele><time>2026-05-02T15:00:51.539Z</time></trkpt><trkpt lat="43.061587" lon="11.6438416"><ele>345.0</ele><time>2026-05-02T15:00:52.543Z</time></trkpt><trkpt lat="43.0614952" lon="11.6437042"><ele>345.25</ele><time>2026-05-02T15:00:53.549Z</time></trkpt><trkpt lat="43.0614036" lon="11.6435605"><ele>345.5</ele><time>2026-05-02T15:00:54.576Z</time></trkpt><trkpt lat="43.0613144" lon="11.6434058"><ele>345.75</ele><time>2026-05-02T15:00:55.57Z</time></trkpt><trkpt lat="43.061226" lon="11.6432604"><ele>346.0</ele><time>2026-05-02T15:00:56.533Z</time></trkpt><trkpt lat="43.0611439" lon="11.6431251"><ele>346.0</ele><time>2026-05-02T15:00:57.53Z</time></trkpt><trkpt lat="43.0610689" lon="11.6429974"><ele>346.0</ele><time>2026-05-02T15:00:58.528Z</time></trkpt><trkpt lat="43.0609915" lon="11.6428843"><ele>346.0</ele><time>2026-05-02T15:00:59.536Z</time></trkpt><trkpt lat="43.060918" lon="11.6427749"><ele>346.0</ele><time>2026-05-02T15:01:00.533Z</time></trkpt><trkpt lat="43.0608564" lon="11.6426686"><ele>346.0</ele><time>2026-05-02T15:01:01.542Z</time></trkpt><trkpt lat="43.0608071" lon="11.6425732"><ele>343.5</ele><time>2026-05-02T15:01:02.542Z</time></trkpt><trkpt lat="43.0607534" lon="11.6424805"><ele>341.0</ele><time>2026-05-02T15:01:03.535Z</time></trkpt><trkpt lat="43.0607003" lon="11.6423865"><ele>338.5</ele><time>2026-05-02T15:01:04.535Z</time></trkpt><trkpt lat="43.0606463" lon="11.6422941"><ele>336.0</ele><time>2026-05-02T15:01:05.545Z</time></trkpt><trkpt lat="43.060594" lon="11.6422"><ele>333.5</ele><time>2026-05-02T15:01:06.57Z</time></trkpt><trkpt lat="43.0605461" lon="11.6421088"><ele>331.0</ele><time>2026-05-02T15:01:07.62Z</time></trkpt><trkpt lat="43.0604967" lon="11.6420267"><ele>333.0</ele><time>2026-05-02T15:01:08.711Z</time></trkpt><trkpt lat="43.0604474" lon="11.6419634"><ele>335.0</ele><time>2026-05-02T15:01:09.753Z</time></trkpt><trkpt lat="43.0603833" lon="11.6419165"><ele>337.0</ele><time>2026-05-02T15:01:10.727Z</time></trkpt><trkpt lat="43.0602204" lon="11.6418585"><ele>339.0</ele><time>2026-05-02T15:01:12.544Z</time></trkpt><trkpt lat="43.060116" lon="11.64184"><ele>341.0</ele><time>2026-05-02T15:01:13.554Z</time></trkpt><trkpt lat="43.0599954" lon="11.6418257"><ele>338.5</ele><time>2026-05-02T15:01:14.523Z</time></trkpt><trkpt lat="43.0598684" lon="11.6418199"><ele>336.0</ele><time>2026-05-02T15:01:15.537Z</time></trkpt><trkpt lat="43.0597329" lon="11.6418231"><ele>333.5</ele><time>2026-05-02T15:01:16.518Z</time></trkpt><trkpt lat="43.0595913" lon="11.6418296"><ele>331.0</ele><time>2026-05-02T15:01:17.535Z</time></trkpt><trkpt lat="43.0594468" lon="11.6418374"><ele>331.0</ele><time>2026-05-02T15:01:18.531Z</time></trkpt><trkpt lat="43.0593127" lon="11.6418529"><ele>331.0</ele><time>2026-05-02T15:01:19.522Z</time></trkpt><trkpt lat="43.0591966" lon="11.6418699"><ele>331.0</ele><time>2026-05-02T15:01:20.565Z</time></trkpt><trkpt lat="43.0590877" lon="11.6418963"><ele>331.0</ele><time>2026-05-02T15:01:21.605Z</time></trkpt><trkpt lat="43.0589803" lon="11.6419234"><ele>331.25</ele><time>2026-05-02T15:01:22.608Z</time></trkpt><trkpt lat="43.0588753" lon="11.641963"><ele>331.5</ele><time>2026-05-02T15:01:23.564Z</time></trkpt><trkpt lat="43.0587685" lon="11.6420184"><ele>331.75</ele><time>2026-05-02T15:01:24.521Z</time></trkpt><trkpt lat="43.0586588" lon="11.6420858"><ele>332.0</ele><time>2026-05-02T15:01:25.545Z</time></trkpt><trkpt lat="43.0585408" lon="11.6421583"><ele>332.0</ele><time>2026-05-02T15:01:26.529Z</time></trkpt><trkpt lat="43.0584175" lon="11.6422342"><ele>332.0</ele><time>2026-05-02T15:01:27.567Z</time></trkpt><trkpt lat="43.0582924" lon="11.6422986"><ele>332.0</ele><time>2026-05-02T15:01:28.612Z</time></trkpt><trkpt lat="43.0581708" lon="11.6423522"><ele>332.0</ele><time>2026-05-02T15:01:29.642Z</time></trkpt><trkpt lat="43.0580505" lon="11.6423761"><ele>334.20000000000005</ele><time>2026-05-02T15:01:30.685Z</time></trkpt><trkpt lat="43.0579427" lon="11.6423639"><ele>336.4</ele><time>2026-05-02T15:01:31.647Z</time></trkpt><trkpt lat="43.0578362" lon="11.6423351"><ele>338.6</ele><time>2026-05-02T15:01:32.776Z</time></trkpt><trkpt lat="43.0577316" lon="11.6422981"><ele>340.79999999999995</ele><time>2026-05-02T15:01:33.939Z</time></trkpt><trkpt lat="43.057632" lon="11.6422506"><ele>343.0</ele><time>2026-05-02T15:01:35.58Z</time></trkpt><trkpt lat="43.0574614" lon="11.642112"><ele>344.5</ele><time>2026-05-02T15:01:36.536Z</time></trkpt><trkpt lat="43.0574049" lon="11.6419777"><ele>346.0</ele><time>2026-05-02T15:01:37.564Z</time></trkpt><trkpt lat="43.0573608" lon="11.6418136"><ele>347.5</ele><time>2026-05-02T15:01:38.581Z</time></trkpt><trkpt lat="43.0573131" lon="11.6416484"><ele>349.0</ele><time>2026-05-02T15:01:39.634Z</time></trkpt><trkpt lat="43.057264" lon="11.6414847"><ele>349.0</ele><time>2026-05-02T15:01:40.671Z</time></trkpt><trkpt lat="43.0572122" lon="11.6413263"><ele>349.0</ele><time>2026-05-02T15:01:41.704Z</time></trkpt><trkpt lat="43.0571564" lon="11.6411695"><ele>349.0</ele><time>2026-05-02T15:01:42.522Z</time></trkpt><trkpt lat="43.0570964" lon="11.64101"><ele>349.0</ele><time>2026-05-02T15:01:43.53Z</time></trkpt><trkpt lat="43.0570264" lon="11.6408522"><ele>347.5</ele><time>2026-05-02T15:01:44.556Z</time></trkpt><trkpt lat="43.0569491" lon="11.6407005"><ele>346.0</ele><time>2026-05-02T15:01:45.52Z</time></trkpt><trkpt lat="43.0568704" lon="11.6405613"><ele>344.5</ele><time>2026-05-02T15:01:46.547Z</time></trkpt><trkpt lat="43.0567889" lon="11.6404336"><ele>343.0</ele><time>2026-05-02T15:01:47.548Z</time></trkpt><trkpt lat="43.0567034" lon="11.6403081"><ele>343.2</ele><time>2026-05-02T15:01:48.544Z</time></trkpt><trkpt lat="43.0566202" lon="11.6401832"><ele>343.4</ele><time>2026-05-02T15:01:49.549Z</time></trkpt><trkpt lat="43.0565409" lon="11.6400638"><ele>343.59999999999997</ele><time>2026-05-02T15:01:50.528Z</time></trkpt><trkpt lat="43.0564661" lon="11.6399516"><ele>343.79999999999995</ele><time>2026-05-02T15:01:51.557Z</time></trkpt><trkpt lat="43.0564033" lon="11.6398537"><ele>344.0</ele><time>2026-05-02T15:01:52.537Z</time></trkpt><trkpt lat="43.056355" lon="11.6397655"><ele>344.0</ele><time>2026-05-02T15:01:53.534Z</time></trkpt><trkpt lat="43.0563149" lon="11.6396889"><ele>344.0</ele><time>2026-05-02T15:01:54.561Z</time></trkpt><trkpt lat="43.056277" lon="11.6396051"><ele>344.0</ele><time>2026-05-02T15:01:55.647Z</time></trkpt><trkpt lat="43.0562431" lon="11.6395048"><ele>344.0</ele><time>2026-05-02T15:01:56.713Z</time></trkpt><trkpt lat="43.0562148" lon="11.6393766"><ele>344.0</ele><time>2026-05-02T15:01:57.78Z</time></trkpt><trkpt lat="43.0561971" lon="11.6392157"><ele>344.0</ele><time>2026-05-02T15:01:58.953Z</time></trkpt><trkpt lat="43.0561894" lon="11.639038"><ele>342.0</ele><time>2026-05-02T15:02:00.055Z</time></trkpt><trkpt lat="43.0561846" lon="11.6386835"><ele>340.0</ele><time>2026-05-02T15:02:01.921Z</time></trkpt><trkpt lat="43.0561671" lon="11.6383382"><ele>339.8</ele><time>2026-05-02T15:02:03.538Z</time></trkpt><trkpt lat="43.0561564" lon="11.6381793"><ele>339.6</ele><time>2026-05-02T15:02:04.522Z</time></trkpt><trkpt lat="43.0561475" lon="11.6380358"><ele>339.4</ele><time>2026-05-02T15:02:05.538Z</time></trkpt><trkpt lat="43.0561358" lon="11.6379084"><ele>339.2</ele><time>2026-05-02T15:02:06.548Z</time></trkpt><trkpt lat="43.0561268" lon="11.6377857"><ele>339.0</ele><time>2026-05-02T15:02:07.546Z</time></trkpt><trkpt lat="43.0561205" lon="11.637664"><ele>338.5</ele><time>2026-05-02T15:02:08.538Z</time></trkpt><trkpt lat="43.0561167" lon="11.6375505"><ele>338.0</ele><time>2026-05-02T15:02:09.543Z</time></trkpt><trkpt lat="43.0561088" lon="11.6374432"><ele>337.5</ele><time>2026-05-02T15:02:10.529Z</time></trkpt><trkpt lat="43.0561014" lon="11.6373373"><ele>337.0</ele><time>2026-05-02T15:02:11.539Z</time></trkpt><trkpt lat="43.0560919" lon="11.6372273"><ele>336.5</ele><time>2026-05-02T15:02:12.561Z</time></trkpt><trkpt lat="43.0560886" lon="11.6370969"><ele>336.0</ele><time>2026-05-02T15:02:13.524Z</time></trkpt><trkpt lat="43.0560869" lon="11.6369467"><ele>333.75</ele><time>2026-05-02T15:02:14.526Z</time></trkpt><trkpt lat="43.0560861" lon="11.6367928"><ele>331.5</ele><time>2026-05-02T15:02:15.534Z</time></trkpt><trkpt lat="43.0560803" lon="11.6366317"><ele>329.25</ele><time>2026-05-02T15:02:16.548Z</time></trkpt><trkpt lat="43.0560736" lon="11.6364648"><ele>327.0</ele><time>2026-05-02T15:02:17.532Z</time></trkpt><trkpt lat="43.0560652" lon="11.6363012"><ele>327.0</ele><time>2026-05-02T15:02:18.553Z</time></trkpt><trkpt lat="43.0560587" lon="11.636142"><ele>327.0</ele><time>2026-05-02T15:02:19.59Z</time></trkpt><trkpt lat="43.0560556" lon="11.635992"><ele>327.0</ele><time>2026-05-02T15:02:20.605Z</time></trkpt><trkpt lat="43.0560577" lon="11.6358477"><ele>327.0</ele><time>2026-05-02T15:02:21.672Z</time></trkpt><trkpt lat="43.0560636" lon="11.63571"><ele>327.0</ele><time>2026-05-02T15:02:22.665Z</time></trkpt><trkpt lat="43.056097" lon="11.6354536"><ele>325.0</ele><time>2026-05-02T15:02:24.568Z</time></trkpt><trkpt lat="43.0561237" lon="11.6353241"><ele>323.0</ele><time>2026-05-02T15:02:25.63Z</time></trkpt><trkpt lat="43.0561571" lon="11.635191"><ele>321.0</ele><time>2026-05-02T15:02:26.729Z</time></trkpt><trkpt lat="43.0562374" lon="11.6349304"><ele>319.0</ele><time>2026-05-02T15:02:28.538Z</time></trkpt><trkpt lat="43.0562756" lon="11.6347952"><ele>317.4</ele><time>2026-05-02T15:02:29.557Z</time></trkpt><trkpt lat="43.0563185" lon="11.6346591"><ele>315.79999999999995</ele><time>2026-05-02T15:02:30.545Z</time></trkpt><trkpt lat="43.0563617" lon="11.634526"><ele>314.20000000000005</ele><time>2026-05-02T15:02:31.546Z</time></trkpt><trkpt lat="43.0564058" lon="11.6343962"><ele>312.6</ele><time>2026-05-02T15:02:32.573Z</time></trkpt><trkpt lat="43.0564452" lon="11.6342639"><ele>311.0</ele><time>2026-05-02T15:02:33.602Z</time></trkpt><trkpt lat="43.0564838" lon="11.6341223"><ele>309.75</ele><time>2026-05-02T15:02:34.536Z</time></trkpt><trkpt lat="43.0565222" lon="11.6339635"><ele>308.5</ele><time>2026-05-02T15:02:35.53Z</time></trkpt><trkpt lat="43.0565605" lon="11.633793"><ele>307.25</ele><time>2026-05-02T15:02:36.527Z</time></trkpt><trkpt lat="43.0565967" lon="11.6336148"><ele>306.0</ele><time>2026-05-02T15:02:37.526Z</time></trkpt><trkpt lat="43.0566351" lon="11.6334472"><ele>305.5</ele><time>2026-05-02T15:02:38.548Z</time></trkpt><trkpt lat="43.0566701" lon="11.6332863"><ele>305.0</ele><time>2026-05-02T15:02:39.593Z</time></trkpt><trkpt lat="43.0566992" lon="11.6331282"><ele>304.5</ele><time>2026-05-02T15:02:40.615Z</time></trkpt><trkpt lat="43.0567143" lon="11.6329767"><ele>304.0</ele><time>2026-05-02T15:02:41.643Z</time></trkpt><trkpt lat="43.0567137" lon="11.6328312"><ele>303.75</ele><time>2026-05-02T15:02:42.674Z</time></trkpt><trkpt lat="43.0566954" lon="11.6326821"><ele>303.5</ele><time>2026-05-02T15:02:43.768Z</time></trkpt><trkpt lat="43.0566688" lon="11.6325307"><ele>303.25</ele><time>2026-05-02T15:02:44.818Z</time></trkpt><trkpt lat="43.056597" lon="11.6322399"><ele>303.0</ele><time>2026-05-02T15:02:46.544Z</time></trkpt><trkpt lat="43.0565598" lon="11.6320979"><ele>302.6</ele><time>2026-05-02T15:02:47.556Z</time></trkpt><trkpt lat="43.0565212" lon="11.6319579"><ele>302.20000000000005</ele><time>2026-05-02T15:02:48.54Z</time></trkpt><trkpt lat="43.0564885" lon="11.6318199"><ele>301.8</ele><time>2026-05-02T15:02:49.537Z</time></trkpt><trkpt lat="43.0564569" lon="11.6316881"><ele>301.40000000000003</ele><time>2026-05-02T15:02:50.591Z</time></trkpt><trkpt lat="43.0564296" lon="11.63156"><ele>301.0</ele><time>2026-05-02T15:02:51.595Z</time></trkpt><trkpt lat="43.056407" lon="11.6314307"><ele>301.0</ele><time>2026-05-02T15:02:52.613Z</time></trkpt><trkpt lat="43.0563923" lon="11.6312948"><ele>301.0</ele><time>2026-05-02T15:02:53.606Z</time></trkpt><trkpt lat="43.0563826" lon="11.6311385"><ele>301.0</ele><time>2026-05-02T15:02:54.518Z</time></trkpt><trkpt lat="43.0563795" lon="11.6309761"><ele>301.0</ele><time>2026-05-02T15:02:55.533Z</time></trkpt><trkpt lat="43.0563812" lon="11.6307955"><ele>301.3333333333333</ele><time>2026-05-02T15:02:56.523Z</time></trkpt><trkpt lat="43.0563912" lon="11.630606"><ele>301.6666666666667</ele><time>2026-05-02T15:02:57.544Z</time></trkpt><trkpt lat="43.0564075" lon="11.6303951"><ele>302.0</ele><time>2026-05-02T15:02:58.542Z</time></trkpt><trkpt lat="43.0564326" lon="11.6301627"><ele>302.33333333333337</ele><time>2026-05-02T15:02:59.52Z</time></trkpt><trkpt lat="43.0564594" lon="11.6299287"><ele>302.6666666666667</ele><time>2026-05-02T15:03:00.542Z</time></trkpt><trkpt lat="43.0564839" lon="11.62971"><ele>303.0</ele><time>2026-05-02T15:03:01.518Z</time></trkpt><trkpt lat="43.0565104" lon="11.6295079"><ele>302.0</ele><time>2026-05-02T15:03:02.532Z</time></trkpt><trkpt lat="43.0565275" lon="11.6293193"><ele>301.0</ele><time>2026-05-02T15:03:03.528Z</time></trkpt><trkpt lat="43.056543" lon="11.6291349"><ele>300.0</ele><time>2026-05-02T15:03:04.528Z</time></trkpt><trkpt lat="43.0565573" lon="11.6289693"><ele>299.0</ele><time>2026-05-02T15:03:05.544Z</time></trkpt><trkpt lat="43.0565806" lon="11.6288087"><ele>299.0</ele><time>2026-05-02T15:03:06.574Z</time></trkpt><trkpt lat="43.0566003" lon="11.6286648"><ele>299.0</ele><time>2026-05-02T15:03:07.541Z</time></trkpt><trkpt lat="43.0566191" lon="11.6285231"><ele>299.0</ele><time>2026-05-02T15:03:08.557Z</time></trkpt><trkpt lat="43.0566444" lon="11.6283738"><ele>299.0</ele><time>2026-05-02T15:03:09.613Z</time></trkpt><trkpt lat="43.0566898" lon="11.6282024"><ele>295.0</ele><time>2026-05-02T15:03:10.641Z</time></trkpt><trkpt lat="43.0567454" lon="11.6280316"><ele>291.0</ele><time>2026-05-02T15:03:11.65Z</time></trkpt><trkpt lat="43.0568652" lon="11.6276909"><ele>287.0</ele><time>2026-05-02T15:03:13.551Z</time></trkpt><trkpt lat="43.056925" lon="11.6275338"><ele>286.5</ele><time>2026-05-02T15:03:14.545Z</time></trkpt><trkpt lat="43.0569666" lon="11.6273751"><ele>286.0</ele><time>2026-05-02T15:03:15.532Z</time></trkpt><trkpt lat="43.0569733" lon="11.6271967"><ele>285.5</ele><time>2026-05-02T15:03:16.554Z</time></trkpt><trkpt lat="43.0569829" lon="11.627036"><ele>285.0</ele><time>2026-05-02T15:03:17.584Z</time></trkpt><trkpt lat="43.0569774" lon="11.626884"><ele>285.0</ele><time>2026-05-02T15:03:18.599Z</time></trkpt><trkpt lat="43.0569663" lon="11.6267427"><ele>285.0</ele><time>2026-05-02T15:03:19.6Z</time></trkpt><trkpt lat="43.0569575" lon="11.626626"><ele>285.0</ele><time>2026-05-02T15:03:20.603Z</time></trkpt><trkpt lat="43.0569427" lon="11.6265396"><ele>285.0</ele><time>2026-05-02T15:03:21.686Z</time></trkpt><trkpt lat="43.0569342" lon="11.6264347"><ele>285.0</ele><time>2026-05-02T15:03:25.127Z</time></trkpt><trkpt lat="43.0570653" lon="11.6264154"><ele>285.0</ele><time>2026-05-02T15:03:29.589Z</time></trkpt><trkpt lat="43.0571403" lon="11.626444"><ele>285.0</ele><time>2026-05-02T15:03:30.561Z</time></trkpt><trkpt lat="43.0572149" lon="11.6264745"><ele>285.0</ele><time>2026-05-02T15:03:31.592Z</time></trkpt><trkpt lat="43.0572925" lon="11.6264929"><ele>285.0</ele><time>2026-05-02T15:03:32.614Z</time></trkpt><trkpt lat="43.0573842" lon="11.6265202"><ele>285.0</ele><time>2026-05-02T15:03:33.666Z</time></trkpt><trkpt lat="43.0574846" lon="11.6265507"><ele>285.0</ele><time>2026-05-02T15:03:34.615Z</time></trkpt><trkpt lat="43.0575848" lon="11.6265715"><ele>285.3333333333333</ele><time>2026-05-02T15:03:35.627Z</time></trkpt><trkpt lat="43.0576786" lon="11.6265887"><ele>285.6666666666667</ele><time>2026-05-02T15:03:36.583Z</time></trkpt><trkpt lat="43.057762" lon="11.6266032"><ele>286.0</ele><time>2026-05-02T15:03:37.525Z</time></trkpt><trkpt lat="43.0578397" lon="11.6266172"><ele>286.33333333333337</ele><time>2026-05-02T15:03:38.536Z</time></trkpt><trkpt lat="43.0579133" lon="11.6266369"><ele>286.6666666666667</ele><time>2026-05-02T15:03:39.597Z</time></trkpt><trkpt lat="43.057985" lon="11.6266646"><ele>287.0</ele><time>2026-05-02T15:03:40.577Z</time></trkpt><trkpt lat="43.0580672" lon="11.6266925"><ele>287.0</ele><time>2026-05-02T15:03:41.552Z</time></trkpt><trkpt lat="43.0581608" lon="11.6267128"><ele>287.0</ele><time>2026-05-02T15:03:42.53Z</time></trkpt><trkpt lat="43.0582566" lon="11.6267442"><ele>287.0</ele><time>2026-05-02T15:03:43.526Z</time></trkpt><trkpt lat="43.0583559" lon="11.6267753"><ele>287.0</ele><time>2026-05-02T15:03:44.527Z</time></trkpt><trkpt lat="43.0584508" lon="11.6268053"><ele>287.0</ele><time>2026-05-02T15:03:45.522Z</time></trkpt><trkpt lat="43.0585383" lon="11.626834"><ele>287.0</ele><time>2026-05-02T15:03:46.563Z</time></trkpt><trkpt lat="43.0586102" lon="11.6268656"><ele>287.0</ele><time>2026-05-02T15:03:47.586Z</time></trkpt><trkpt lat="43.0587098" lon="11.6269257"><ele>287.0</ele><time>2026-05-02T15:03:49.677Z</time></trkpt><trkpt lat="43.0588111" lon="11.6269635"><ele>287.0</ele><time>2026-05-02T15:03:52.872Z</time></trkpt><trkpt lat="43.0588746" lon="11.6269652"><ele>287.0</ele><time>2026-05-02T15:03:53.864Z</time></trkpt><trkpt lat="43.059019" lon="11.6270015"><ele>287.0</ele><time>2026-05-02T15:03:56.249Z</time></trkpt><trkpt lat="43.0591447" lon="11.6270601"><ele>287.0</ele><time>2026-05-02T15:03:57.82Z</time></trkpt><trkpt lat="43.0592104" lon="11.6271077"><ele>287.0</ele><time>2026-05-02T15:03:58.958Z</time></trkpt><trkpt lat="43.0593375" lon="11.6271949"><ele>287.0</ele><time>2026-05-02T15:04:00.873Z</time></trkpt><trkpt lat="43.0594916" lon="11.6272715"><ele>287.0</ele><time>2026-05-02T15:04:02.772Z</time></trkpt><trkpt lat="43.0595797" lon="11.6273072"><ele>287.0</ele><time>2026-05-02T15:04:03.901Z</time></trkpt><trkpt lat="43.0597549" lon="11.6273987"><ele>287.0</ele><time>2026-05-02T15:04:05.737Z</time></trkpt><trkpt lat="43.0598397" lon="11.6274448"><ele>287.0</ele><time>2026-05-02T15:04:06.639Z</time></trkpt><trkpt lat="43.0599216" lon="11.6274822"><ele>287.83333333333337</ele><time>2026-05-02T15:04:07.908Z</time></trkpt><trkpt lat="43.0599959" lon="11.6275161"><ele>288.6666666666667</ele><time>2026-05-02T15:04:08.9Z</time></trkpt><trkpt lat="43.0600975" lon="11.6275096"><ele>289.5</ele><time>2026-05-02T15:04:10.846Z</time></trkpt><trkpt lat="43.0601347" lon="11.6273899"><ele>290.3333333333333</ele><time>2026-05-02T15:04:12.641Z</time></trkpt><trkpt lat="43.0601328" lon="11.6272967"><ele>291.16666666666663</ele><time>2026-05-02T15:04:13.705Z</time></trkpt><trkpt lat="43.0601258" lon="11.6271899"><ele>292.0</ele><time>2026-05-02T15:04:14.688Z</time></trkpt><trkpt lat="43.0601176" lon="11.6270795"><ele>292.5</ele><time>2026-05-02T15:04:15.716Z</time></trkpt><trkpt lat="43.0601132" lon="11.626963"><ele>293.0</ele><time>2026-05-02T15:04:16.716Z</time></trkpt><trkpt lat="43.060106" lon="11.6268455"><ele>293.5</ele><time>2026-05-02T15:04:17.797Z</time></trkpt><trkpt lat="43.0600997" lon="11.6267257"><ele>294.0</ele><time>2026-05-02T15:04:18.769Z</time></trkpt><trkpt lat="43.0600956" lon="11.6266"><ele>294.5</ele><time>2026-05-02T15:04:19.767Z</time></trkpt><trkpt lat="43.0600985" lon="11.6264741"><ele>295.0</ele><time>2026-05-02T15:04:20.728Z</time></trkpt><trkpt lat="43.0601025" lon="11.6263509"><ele>295.0</ele><time>2026-05-02T15:04:21.904Z</time></trkpt><trkpt lat="43.0601114" lon="11.6262345"><ele>295.0</ele><time>2026-05-02T15:04:23.134Z</time></trkpt><trkpt lat="43.0601448" lon="11.626034"><ele>295.0</ele><time>2026-05-02T15:04:25.035Z</time></trkpt><trkpt lat="43.0601956" lon="11.6258414"><ele>295.0</ele><time>2026-05-02T15:04:26.877Z</time></trkpt><trkpt lat="43.0602684" lon="11.6256524"><ele>296.0</ele><time>2026-05-02T15:04:28.918Z</time></trkpt><trkpt lat="43.0603093" lon="11.6255609"><ele>297.0</ele><time>2026-05-02T15:04:29.968Z</time></trkpt><trkpt lat="43.0603941" lon="11.6253862"><ele>298.0</ele><time>2026-05-02T15:04:31.871Z</time></trkpt><trkpt lat="43.0604384" lon="11.625308"><ele>299.0</ele><time>2026-05-02T15:04:33.123Z</time></trkpt><trkpt lat="43.0605926" lon="11.6250325"><ele>299.59999999999997</ele><time>2026-05-02T15:04:35.841Z</time></trkpt><trkpt lat="43.0606977" lon="11.6248247"><ele>300.2</ele><time>2026-05-02T15:04:37.539Z</time></trkpt><trkpt lat="43.0607429" lon="11.6247269"><ele>300.79999999999995</ele><time>2026-05-02T15:04:38.536Z</time></trkpt><trkpt lat="43.0607832" lon="11.6246359"><ele>301.4</ele><time>2026-05-02T15:04:39.556Z</time></trkpt><trkpt lat="43.0608236" lon="11.6245513"><ele>302.0</ele><time>2026-05-02T15:04:40.61Z</time></trkpt><trkpt lat="43.0608619" lon="11.6244713"><ele>304.14285714285717</ele><time>2026-05-02T15:04:41.6Z</time></trkpt><trkpt lat="43.0608975" lon="11.6243971"><ele>306.2857142857143</ele><time>2026-05-02T15:04:42.573Z</time></trkpt><trkpt lat="43.0609331" lon="11.6243241"><ele>308.42857142857144</ele><time>2026-05-02T15:04:43.6Z</time></trkpt><trkpt lat="43.0609697" lon="11.624249"><ele>310.57142857142856</ele><time>2026-05-02T15:04:44.63Z</time></trkpt><trkpt lat="43.0610027" lon="11.624172"><ele>312.7142857142857</ele><time>2026-05-02T15:04:45.54Z</time></trkpt><trkpt lat="43.0610383" lon="11.6240836"><ele>314.8571428571429</ele><time>2026-05-02T15:04:46.623Z</time></trkpt><trkpt lat="43.0610768" lon="11.6239864"><ele>317.0</ele><time>2026-05-02T15:04:47.568Z</time></trkpt><trkpt lat="43.0611194" lon="11.6238851"><ele>317.0</ele><time>2026-05-02T15:04:48.546Z</time></trkpt><trkpt lat="43.0611629" lon="11.6237826"><ele>317.0</ele><time>2026-05-02T15:04:49.529Z</time></trkpt><trkpt lat="43.0612047" lon="11.6236766"><ele>317.0</ele><time>2026-05-02T15:04:50.548Z</time></trkpt><trkpt lat="43.0612483" lon="11.6235726"><ele>317.0</ele><time>2026-05-02T15:04:51.579Z</time></trkpt><trkpt lat="43.0612892" lon="11.6234792"><ele>317.0</ele><time>2026-05-02T15:04:52.578Z</time></trkpt><trkpt lat="43.0613374" lon="11.6233904"><ele>317.0</ele><time>2026-05-02T15:04:53.663Z</time></trkpt><trkpt lat="43.0613876" lon="11.6233044"><ele>316.5</ele><time>2026-05-02T15:04:54.664Z</time></trkpt><trkpt lat="43.06144" lon="11.6232168"><ele>316.0</ele><time>2026-05-02T15:04:55.619Z</time></trkpt><trkpt lat="43.0614931" lon="11.6231333"><ele>315.5</ele><time>2026-05-02T15:04:56.554Z</time></trkpt><trkpt lat="43.0615447" lon="11.6230484"><ele>315.0</ele><time>2026-05-02T15:04:57.532Z</time></trkpt><trkpt lat="43.0615942" lon="11.6229716"><ele>314.5</ele><time>2026-05-02T15:04:58.556Z</time></trkpt><trkpt lat="43.0616421" lon="11.6228999"><ele>314.0</ele><time>2026-05-02T15:04:59.565Z</time></trkpt><trkpt lat="43.061685" lon="11.6228262"><ele>317.2</ele><time>2026-05-02T15:05:00.585Z</time></trkpt><trkpt lat="43.0617221" lon="11.6227497"><ele>320.4</ele><time>2026-05-02T15:05:01.623Z</time></trkpt><trkpt lat="43.0617555" lon="11.6226602"><ele>323.6</ele><time>2026-05-02T15:05:02.671Z</time></trkpt><trkpt lat="43.0617901" lon="11.622564"><ele>326.8</ele><time>2026-05-02T15:05:03.714Z</time></trkpt><trkpt lat="43.0618233" lon="11.6224616"><ele>330.0</ele><time>2026-05-02T15:05:05.075Z</time></trkpt><trkpt lat="43.061868" lon="11.6222476"><ele>330.0</ele><time>2026-05-02T15:05:06.968Z</time></trkpt><trkpt lat="43.0618832" lon="11.6221432"><ele>330.0</ele><time>2026-05-02T15:05:08.146Z</time></trkpt><trkpt lat="43.0618934" lon="11.621919"><ele>330.0</ele><time>2026-05-02T15:05:09.94Z</time></trkpt><trkpt lat="43.061893" lon="11.6218053"><ele>330.0</ele><time>2026-05-02T15:05:10.96Z</time></trkpt><trkpt lat="43.0618941" lon="11.621688"><ele>330.0</ele><time>2026-05-02T15:05:11.991Z</time></trkpt><trkpt lat="43.0618994" lon="11.6215757"><ele>330.4</ele><time>2026-05-02T15:05:12.961Z</time></trkpt><trkpt lat="43.0619105" lon="11.6214789"><ele>330.8</ele><time>2026-05-02T15:05:13.922Z</time></trkpt><trkpt lat="43.0619491" lon="11.6213145"><ele>331.20000000000005</ele><time>2026-05-02T15:05:16.325Z</time></trkpt><trkpt lat="43.0619941" lon="11.6211845"><ele>331.6</ele><time>2026-05-02T15:05:17.9Z</time></trkpt><trkpt lat="43.062078" lon="11.6212104"><ele>332.0</ele><time>2026-05-02T15:05:19.532Z</time></trkpt><trkpt lat="43.0621594" lon="11.6212102"><ele>332.0</ele><time>2026-05-02T15:05:21.559Z</time></trkpt><trkpt lat="43.0622353" lon="11.6211889"><ele>332.0</ele><time>2026-05-02T15:05:23.648Z</time></trkpt><trkpt lat="43.0623217" lon="11.6211145"><ele>332.0</ele><time>2026-05-02T15:05:25.563Z</time></trkpt><trkpt lat="43.0624044" lon="11.6210032"><ele>332.0</ele><time>2026-05-02T15:05:27.605Z</time></trkpt><trkpt lat="43.0624436" lon="11.6209295"><ele>332.0</ele><time>2026-05-02T15:05:28.639Z</time></trkpt><trkpt lat="43.0624847" lon="11.6208509"><ele>332.0</ele><time>2026-05-02T15:05:29.689Z</time></trkpt><trkpt lat="43.0625199" lon="11.6207733"><ele>334.25</ele><time>2026-05-02T15:05:30.73Z</time></trkpt><trkpt lat="43.06256" lon="11.6206268"><ele>336.5</ele><time>2026-05-02T15:05:33.012Z</time></trkpt><trkpt lat="43.06258" lon="11.6204233"><ele>338.75</ele><time>2026-05-02T15:05:35.876Z</time></trkpt><trkpt lat="43.0625444" lon="11.6202796"><ele>341.0</ele><time>2026-05-02T15:05:38.716Z</time></trkpt><trkpt lat="43.0625081" lon="11.6201212"><ele>341.20000000000005</ele><time>2026-05-02T15:05:39.919Z</time></trkpt><trkpt lat="43.0624812" lon="11.6199631"><ele>341.40000000000003</ele><time>2026-05-02T15:05:42.532Z</time></trkpt><trkpt lat="43.0624812" lon="11.6198006"><ele>341.6</ele><time>2026-05-02T15:05:44.102Z</time></trkpt><trkpt lat="43.0625155" lon="11.6196397"><ele>341.8</ele><time>2026-05-02T15:05:45.953Z</time></trkpt><trkpt lat="43.0625626" lon="11.6195487"><ele>342.0</ele><time>2026-05-02T15:05:46.856Z</time></trkpt><trkpt lat="43.0626685" lon="11.6193544"><ele>341.20000000000005</ele><time>2026-05-02T15:05:48.547Z</time></trkpt><trkpt lat="43.0627284" lon="11.6192538"><ele>340.4</ele><time>2026-05-02T15:05:49.543Z</time></trkpt><trkpt lat="43.0627917" lon="11.6191431"><ele>339.6</ele><time>2026-05-02T15:05:50.544Z</time></trkpt><trkpt lat="43.0628618" lon="11.61903"><ele>338.79999999999995</ele><time>2026-05-02T15:05:51.549Z</time></trkpt><trkpt lat="43.0629346" lon="11.6189192"><ele>338.0</ele><time>2026-05-02T15:05:52.572Z</time></trkpt><trkpt lat="43.063012" lon="11.6188148"><ele>338.0</ele><time>2026-05-02T15:05:53.566Z</time></trkpt><trkpt lat="43.0630796" lon="11.6187215"><ele>338.0</ele><time>2026-05-02T15:05:54.57Z</time></trkpt><trkpt lat="43.0631419" lon="11.6186396"><ele>338.0</ele><time>2026-05-02T15:05:55.659Z</time></trkpt><trkpt lat="43.0631993" lon="11.6185728"><ele>338.0</ele><time>2026-05-02T15:05:56.775Z</time></trkpt><trkpt lat="43.0632548" lon="11.6185226"><ele>338.0</ele><time>2026-05-02T15:05:57.885Z</time></trkpt><trkpt lat="43.06332" lon="11.6184907"><ele>338.0</ele><time>2026-05-02T15:05:59.506Z</time></trkpt><trkpt lat="43.0634703" lon="11.6184398"><ele>339.1666666666667</ele><time>2026-05-02T15:06:00.82Z</time></trkpt><trkpt lat="43.0635527" lon="11.6184254"><ele>340.33333333333337</ele><time>2026-05-02T15:06:01.839Z</time></trkpt><trkpt lat="43.0636407" lon="11.6184049"><ele>341.5</ele><time>2026-05-02T15:06:02.901Z</time></trkpt><trkpt lat="43.063727" lon="11.6183899"><ele>342.6666666666667</ele><time>2026-05-02T15:06:03.83Z</time></trkpt><trkpt lat="43.0638098" lon="11.6183705"><ele>343.8333333333333</ele><time>2026-05-02T15:06:04.872Z</time></trkpt><trkpt lat="43.06389" lon="11.6183529"><ele>345.0</ele><time>2026-05-02T15:06:05.842Z</time></trkpt><trkpt lat="43.0640394" lon="11.6183286"><ele>345.0</ele><time>2026-05-02T15:06:07.529Z</time></trkpt><trkpt lat="43.0641084" lon="11.6183166"><ele>345.0</ele><time>2026-05-02T15:06:08.543Z</time></trkpt><trkpt lat="43.0641718" lon="11.6182988"><ele>345.0</ele><time>2026-05-02T15:06:09.522Z</time></trkpt><trkpt lat="43.0642347" lon="11.6182867"><ele>345.0</ele><time>2026-05-02T15:06:10.555Z</time></trkpt><trkpt lat="43.0643384" lon="11.6182657"><ele>345.0</ele><time>2026-05-02T15:06:12.729Z</time></trkpt><trkpt lat="43.064449" lon="11.6181965"><ele>345.0</ele><time>2026-05-02T15:06:15.064Z</time></trkpt><trkpt lat="43.064623" lon="11.6180445"><ele>346.0</ele><time>2026-05-02T15:06:17.888Z</time></trkpt><trkpt lat="43.0647574" lon="11.6179586"><ele>347.0</ele><time>2026-05-02T15:06:19.639Z</time></trkpt><trkpt lat="43.0648272" lon="11.6179234"><ele>348.0</ele><time>2026-05-02T15:06:20.656Z</time></trkpt><trkpt lat="43.0648997" lon="11.6178837"><ele>349.0</ele><time>2026-05-02T15:06:21.7Z</time></trkpt><trkpt lat="43.0649778" lon="11.6178387"><ele>350.0</ele><time>2026-05-02T15:06:22.817Z</time></trkpt><trkpt lat="43.0651486" lon="11.6177492"><ele>351.5</ele><time>2026-05-02T15:06:24.537Z</time></trkpt><trkpt lat="43.0652327" lon="11.6177015"><ele>353.0</ele><time>2026-05-02T15:06:25.564Z</time></trkpt><trkpt lat="43.0653157" lon="11.6176495"><ele>354.5</ele><time>2026-05-02T15:06:26.57Z</time></trkpt><trkpt lat="43.0653963" lon="11.6175956"><ele>356.0</ele><time>2026-05-02T15:06:27.62Z</time></trkpt><trkpt lat="43.0654686" lon="11.617541"><ele>357.5</ele><time>2026-05-02T15:06:28.543Z</time></trkpt><trkpt lat="43.065536" lon="11.6174892"><ele>359.0</ele><time>2026-05-02T15:06:29.645Z</time></trkpt><trkpt lat="43.0656017" lon="11.6174263"><ele>359.0</ele><time>2026-05-02T15:06:30.836Z</time></trkpt><trkpt lat="43.065662" lon="11.6173409"><ele>359.0</ele><time>2026-05-02T15:06:31.97Z</time></trkpt><trkpt lat="43.0657129" lon="11.6172326"><ele>359.0</ele><time>2026-05-02T15:06:33.349Z</time></trkpt><trkpt lat="43.0657918" lon="11.6169983"><ele>359.0</ele><time>2026-05-02T15:06:34.982Z</time></trkpt><trkpt lat="43.0657778" lon="11.6167969"><ele>358.4</ele><time>2026-05-02T15:06:37.193Z</time></trkpt><trkpt lat="43.065774" lon="11.6167078"><ele>357.79999999999995</ele><time>2026-05-02T15:06:38.153Z</time></trkpt><trkpt lat="43.0657796" lon="11.6164912"><ele>357.20000000000005</ele><time>2026-05-02T15:06:39.838Z</time></trkpt><trkpt lat="43.0657848" lon="11.6163863"><ele>356.6</ele><time>2026-05-02T15:06:40.794Z</time></trkpt><trkpt lat="43.0657988" lon="11.6161832"><ele>356.0</ele><time>2026-05-02T15:06:43.05Z</time></trkpt><trkpt lat="43.0658105" lon="11.6160844"><ele>361.6</ele><time>2026-05-02T15:06:44.203Z</time></trkpt><trkpt lat="43.0658733" lon="11.6159406"><ele>367.20000000000005</ele><time>2026-05-02T15:06:46.635Z</time></trkpt><trkpt lat="43.0659851" lon="11.6158886"><ele>372.79999999999995</ele><time>2026-05-02T15:06:47.541Z</time></trkpt><trkpt lat="43.0660801" lon="11.615934"><ele>378.4</ele><time>2026-05-02T15:06:48.568Z</time></trkpt><trkpt lat="43.0661665" lon="11.6159644"><ele>384.0</ele><time>2026-05-02T15:06:49.548Z</time></trkpt><trkpt lat="43.0662425" lon="11.6159795"><ele>384.0</ele><time>2026-05-02T15:06:50.584Z</time></trkpt><trkpt lat="43.0663483" lon="11.6159979"><ele>384.0</ele><time>2026-05-02T15:06:52.583Z</time></trkpt><trkpt lat="43.0664238" lon="11.6159542"><ele>384.0</ele><time>2026-05-02T15:06:55.72Z</time></trkpt><trkpt lat="43.0664203" lon="11.615725"><ele>384.0</ele><time>2026-05-02T15:06:57.594Z</time></trkpt><trkpt lat="43.0663929" lon="11.6156344"><ele>384.0</ele><time>2026-05-02T15:06:58.701Z</time></trkpt><trkpt lat="43.0663672" lon="11.6154715"><ele>384.0</ele><time>2026-05-02T15:07:01.536Z</time></trkpt><trkpt lat="43.0663704" lon="11.6153671"><ele>384.0</ele><time>2026-05-02T15:07:03.638Z</time></trkpt><trkpt lat="43.0663391" lon="11.6152009"><ele>384.0</ele><time>2026-05-02T15:07:05.695Z</time></trkpt><trkpt lat="43.0663119" lon="11.6151025"><ele>384.0</ele><time>2026-05-02T15:07:06.711Z</time></trkpt><trkpt lat="43.0662775" lon="11.6149897"><ele>384.0</ele><time>2026-05-02T15:07:07.702Z</time></trkpt><trkpt lat="43.0662052" lon="11.6147184"><ele>386.25</ele><time>2026-05-02T15:07:09.522Z</time></trkpt><trkpt lat="43.0661684" lon="11.6145736"><ele>388.5</ele><time>2026-05-02T15:07:10.572Z</time></trkpt><trkpt lat="43.0661279" lon="11.614419"><ele>390.75</ele><time>2026-05-02T15:07:11.568Z</time></trkpt><trkpt lat="43.0660924" lon="11.614265"><ele>393.0</ele><time>2026-05-02T15:07:12.648Z</time></trkpt><trkpt lat="43.0660644" lon="11.6141258"><ele>394.1666666666667</ele><time>2026-05-02T15:07:13.751Z</time></trkpt><trkpt lat="43.0660494" lon="11.6140053"><ele>395.33333333333337</ele><time>2026-05-02T15:07:14.94Z</time></trkpt><trkpt lat="43.0660466" lon="11.6139147"><ele>396.5</ele><time>2026-05-02T15:07:16.363Z</time></trkpt><trkpt lat="43.0660581" lon="11.613813"><ele>397.6666666666667</ele><time>2026-05-02T15:07:18.346Z</time></trkpt><trkpt lat="43.0660383" lon="11.6136553"><ele>398.83333333333337</ele><time>2026-05-02T15:07:19.954Z</time></trkpt><trkpt lat="43.0659904" lon="11.6135388"><ele>400.0</ele><time>2026-05-02T15:07:21.108Z</time></trkpt><trkpt lat="43.0659355" lon="11.6134"><ele>400.0</ele><time>2026-05-02T15:07:22.13Z</time></trkpt><trkpt lat="43.0658834" lon="11.6132614"><ele>400.0</ele><time>2026-05-02T15:07:23.079Z</time></trkpt><trkpt lat="43.0657579" lon="11.6129477"><ele>400.0</ele><time>2026-05-02T15:07:24.533Z</time></trkpt><trkpt lat="43.065691" lon="11.6127699"><ele>399.75</ele><time>2026-05-02T15:07:25.531Z</time></trkpt><trkpt lat="43.0656256" lon="11.6125913"><ele>399.5</ele><time>2026-05-02T15:07:26.529Z</time></trkpt><trkpt lat="43.0655565" lon="11.6124142"><ele>399.25</ele><time>2026-05-02T15:07:27.552Z</time></trkpt><trkpt lat="43.0654913" lon="11.6122455"><ele>399.0</ele><time>2026-05-02T15:07:28.575Z</time></trkpt><trkpt lat="43.0654259" lon="11.6120961"><ele>400.0</ele><time>2026-05-02T15:07:29.536Z</time></trkpt><trkpt lat="43.0653657" lon="11.6119474"><ele>401.0</ele><time>2026-05-02T15:07:30.534Z</time></trkpt><trkpt lat="43.0653072" lon="11.6118091"><ele>402.0</ele><time>2026-05-02T15:07:31.554Z</time></trkpt><trkpt lat="43.0652484" lon="11.6116729"><ele>403.0</ele><time>2026-05-02T15:07:32.544Z</time></trkpt><trkpt lat="43.0651956" lon="11.6115376"><ele>403.0</ele><time>2026-05-02T15:07:33.575Z</time></trkpt><trkpt lat="43.0651368" lon="11.6114099"><ele>403.0</ele><time>2026-05-02T15:07:34.592Z</time></trkpt><trkpt lat="43.0650769" lon="11.6112802"><ele>403.0</ele><time>2026-05-02T15:07:35.611Z</time></trkpt><trkpt lat="43.0650064" lon="11.6111527"><ele>403.0</ele><time>2026-05-02T15:07:36.65Z</time></trkpt><trkpt lat="43.0649246" lon="11.6110253"><ele>402.25</ele><time>2026-05-02T15:07:37.672Z</time></trkpt><trkpt lat="43.064832" lon="11.6108953"><ele>401.5</ele><time>2026-05-02T15:07:38.72Z</time></trkpt><trkpt lat="43.0647253" lon="11.6107737"><ele>400.75</ele><time>2026-05-02T15:07:39.782Z</time></trkpt><trkpt lat="43.0646076" lon="11.6106605"><ele>400.0</ele><time>2026-05-02T15:07:40.784Z</time></trkpt><trkpt lat="43.0644721" lon="11.6105566"><ele>400.0</ele><time>2026-05-02T15:07:41.816Z</time></trkpt><trkpt lat="43.0643258" lon="11.610458"><ele>400.0</ele><time>2026-05-02T15:07:42.928Z</time></trkpt><trkpt lat="43.064181" lon="11.6103647"><ele>400.0</ele><time>2026-05-02T15:07:43.938Z</time></trkpt><trkpt lat="43.0640484" lon="11.6102825"><ele>405.0</ele><time>2026-05-02T15:07:44.969Z</time></trkpt><trkpt lat="43.0638177" lon="11.6101166"><ele>410.0</ele><time>2026-05-02T15:07:46.517Z</time></trkpt><trkpt lat="43.0637187" lon="11.6100443"><ele>415.0</ele><time>2026-05-02T15:07:47.523Z</time></trkpt><trkpt lat="43.0636303" lon="11.6099752"><ele>415.0</ele><time>2026-05-02T15:07:48.527Z</time></trkpt><trkpt lat="43.0635425" lon="11.6099184"><ele>415.0</ele><time>2026-05-02T15:07:49.51Z</time></trkpt><trkpt lat="43.0634467" lon="11.6098568"><ele>415.0</ele><time>2026-05-02T15:07:50.524Z</time></trkpt><trkpt lat="43.0633416" lon="11.6097928"><ele>415.0</ele><time>2026-05-02T15:07:51.537Z</time></trkpt><trkpt lat="43.0632338" lon="11.6097259"><ele>415.0</ele><time>2026-05-02T15:07:52.558Z</time></trkpt><trkpt lat="43.0631241" lon="11.6096482"><ele>414.75</ele><time>2026-05-02T15:07:53.587Z</time></trkpt><trkpt lat="43.0630151" lon="11.6095663"><ele>414.5</ele><time>2026-05-02T15:07:54.618Z</time></trkpt><trkpt lat="43.0629066" lon="11.6094677"><ele>414.25</ele><time>2026-05-02T15:07:55.64Z</time></trkpt><trkpt lat="43.0628035" lon="11.6093533"><ele>414.0</ele><time>2026-05-02T15:07:56.643Z</time></trkpt><trkpt lat="43.0627005" lon="11.609229"><ele>414.0</ele><time>2026-05-02T15:07:57.69Z</time></trkpt><trkpt lat="43.0625967" lon="11.6090873"><ele>414.0</ele><time>2026-05-02T15:07:58.722Z</time></trkpt><trkpt lat="43.0624907" lon="11.6089575"><ele>414.0</ele><time>2026-05-02T15:07:59.723Z</time></trkpt><trkpt lat="43.0623915" lon="11.6088323"><ele>414.0</ele><time>2026-05-02T15:08:00.772Z</time></trkpt><trkpt lat="43.062292" lon="11.6086996"><ele>411.0</ele><time>2026-05-02T15:08:01.723Z</time></trkpt><trkpt lat="43.0621892" lon="11.608566"><ele>408.0</ele><time>2026-05-02T15:08:02.632Z</time></trkpt><trkpt lat="43.0619914" lon="11.6082972"><ele>405.0</ele><time>2026-05-02T15:08:04.514Z</time></trkpt><trkpt lat="43.0619003" lon="11.6081656"><ele>405.0</ele><time>2026-05-02T15:08:05.516Z</time></trkpt><trkpt lat="43.0618094" lon="11.6080394"><ele>405.0</ele><time>2026-05-02T15:08:06.521Z</time></trkpt><trkpt lat="43.0617256" lon="11.6079066"><ele>405.0</ele><time>2026-05-02T15:08:07.532Z</time></trkpt><trkpt lat="43.0616471" lon="11.6077722"><ele>405.0</ele><time>2026-05-02T15:08:08.517Z</time></trkpt><trkpt lat="43.0615673" lon="11.6076433"><ele>403.25</ele><time>2026-05-02T15:08:09.513Z</time></trkpt><trkpt lat="43.0614819" lon="11.6075124"><ele>401.5</ele><time>2026-05-02T15:08:10.522Z</time></trkpt><trkpt lat="43.0614043" lon="11.6073829"><ele>399.75</ele><time>2026-05-02T15:08:11.522Z</time></trkpt><trkpt lat="43.0613329" lon="11.6072556"><ele>398.0</ele><time>2026-05-02T15:08:12.522Z</time></trkpt><trkpt lat="43.0612632" lon="11.607128"><ele>398.0</ele><time>2026-05-02T15:08:13.524Z</time></trkpt><trkpt lat="43.0611921" lon="11.6070008"><ele>398.0</ele><time>2026-05-02T15:08:14.537Z</time></trkpt><trkpt lat="43.0611299" lon="11.6068801"><ele>398.0</ele><time>2026-05-02T15:08:15.538Z</time></trkpt><trkpt lat="43.0610726" lon="11.6067641"><ele>398.0</ele><time>2026-05-02T15:08:16.531Z</time></trkpt><trkpt lat="43.0610194" lon="11.6066456"><ele>398.0</ele><time>2026-05-02T15:08:17.548Z</time></trkpt><trkpt lat="43.0609665" lon="11.606528"><ele>398.49999999999994</ele><time>2026-05-02T15:08:18.537Z</time></trkpt><trkpt lat="43.0609201" lon="11.606414"><ele>399.0</ele><time>2026-05-02T15:08:19.536Z</time></trkpt><trkpt lat="43.0608729" lon="11.606308"><ele>399.5</ele><time>2026-05-02T15:08:20.569Z</time></trkpt><trkpt lat="43.0608365" lon="11.6062159"><ele>400.0</ele><time>2026-05-02T15:08:21.644Z</time></trkpt><trkpt lat="43.060807" lon="11.6061267"><ele>400.49999999999994</ele><time>2026-05-02T15:08:22.817Z</time></trkpt><trkpt lat="43.0607766" lon="11.6060477"><ele>401.0</ele><time>2026-05-02T15:08:24.187Z</time></trkpt><trkpt lat="43.0607111" lon="11.6057865"><ele>402.0</ele><time>2026-05-02T15:08:27.342Z</time></trkpt><trkpt lat="43.0607645" lon="11.6055809"><ele>403.0</ele><time>2026-05-02T15:08:29.394Z</time></trkpt><trkpt lat="43.0609022" lon="11.6053248"><ele>404.0</ele><time>2026-05-02T15:08:31.296Z</time></trkpt><trkpt lat="43.0609932" lon="11.6050254"><ele>405.66666666666663</ele><time>2026-05-02T15:08:32.928Z</time></trkpt><trkpt lat="43.0610025" lon="11.6048601"><ele>407.33333333333337</ele><time>2026-05-02T15:08:34.029Z</time></trkpt><trkpt lat="43.0609936" lon="11.6045196"><ele>409.0</ele><time>2026-05-02T15:08:36.792Z</time></trkpt><trkpt lat="43.0609791" lon="11.6041841"><ele>409.0</ele><time>2026-05-02T15:08:37.779Z</time></trkpt><trkpt lat="43.0609807" lon="11.6040212"><ele>409.0</ele><time>2026-05-02T15:08:38.872Z</time></trkpt><trkpt lat="43.0609789" lon="11.6038591"><ele>409.0</ele><time>2026-05-02T15:08:39.973Z</time></trkpt><trkpt lat="43.060984" lon="11.6037071"><ele>409.0</ele><time>2026-05-02T15:08:40.917Z</time></trkpt><trkpt lat="43.0609878" lon="11.6035491"><ele>408.6666666666667</ele><time>2026-05-02T15:08:41.855Z</time></trkpt><trkpt lat="43.0609926" lon="11.6033834"><ele>408.33333333333337</ele><time>2026-05-02T15:08:42.957Z</time></trkpt><trkpt lat="43.061007" lon="11.6030477"><ele>408.0</ele><time>2026-05-02T15:08:44.627Z</time></trkpt><trkpt lat="43.060996" lon="11.6028814"><ele>406.59999999999997</ele><time>2026-05-02T15:08:45.548Z</time></trkpt><trkpt lat="43.0609778" lon="11.6027163"><ele>405.2</ele><time>2026-05-02T15:08:46.839Z</time></trkpt><trkpt lat="43.0609526" lon="11.6025592"><ele>403.8</ele><time>2026-05-02T15:08:47.871Z</time></trkpt><trkpt lat="43.0609271" lon="11.6024159"><ele>402.4</ele><time>2026-05-02T15:08:48.862Z</time></trkpt><trkpt lat="43.0609032" lon="11.6022959"><ele>401.0</ele><time>2026-05-02T15:08:50.286Z</time></trkpt><trkpt lat="43.0608558" lon="11.6020709"><ele>400.0</ele><time>2026-05-02T15:08:51.975Z</time></trkpt><trkpt lat="43.060813" lon="11.6019719"><ele>399.0</ele><time>2026-05-02T15:08:53.167Z</time></trkpt><trkpt lat="43.0607072" lon="11.6017964"><ele>398.0</ele><time>2026-05-02T15:08:55.518Z</time></trkpt><trkpt lat="43.0605957" lon="11.601624"><ele>397.0</ele><time>2026-05-02T15:08:56.98Z</time></trkpt><trkpt lat="43.0603524" lon="11.6013881"><ele>397.00000000000006</ele><time>2026-05-02T15:09:01.115Z</time></trkpt><trkpt lat="43.0602449" lon="11.6013453"><ele>397.0</ele><time>2026-05-02T15:09:05.49Z</time></trkpt><trkpt lat="43.0601791" lon="11.6013815"><ele>397.0</ele><time>2026-05-02T15:09:13.677Z</time></trkpt><trkpt lat="43.0601254" lon="11.6012952"><ele>397.0</ele><time>2026-05-02T15:09:17.531Z</time></trkpt><trkpt lat="43.0601082" lon="11.6011429"><ele>397.00000000000006</ele><time>2026-05-02T15:09:19.574Z</time></trkpt><trkpt lat="43.0600918" lon="11.6010588"><ele>397.0</ele><time>2026-05-02T15:09:20.51Z</time></trkpt><trkpt lat="43.0600731" lon="11.6009632"><ele>395.1666666666667</ele><time>2026-05-02T15:09:21.514Z</time></trkpt><trkpt lat="43.0600511" lon="11.6008515"><ele>393.33333333333337</ele><time>2026-05-02T15:09:22.516Z</time></trkpt><trkpt lat="43.0600305" lon="11.6007461"><ele>391.5</ele><time>2026-05-02T15:09:23.531Z</time></trkpt><trkpt lat="43.0600079" lon="11.6006378"><ele>389.66666666666663</ele><time>2026-05-02T15:09:24.541Z</time></trkpt><trkpt lat="43.0599829" lon="11.600524"><ele>387.8333333333333</ele><time>2026-05-02T15:09:25.577Z</time></trkpt><trkpt lat="43.0599577" lon="11.6004197"><ele>386.0</ele><time>2026-05-02T15:09:26.631Z</time></trkpt><trkpt lat="43.05993" lon="11.6003152"><ele>384.4</ele><time>2026-05-02T15:09:27.67Z</time></trkpt><trkpt lat="43.0598935" lon="11.6002223"><ele>382.8</ele><time>2026-05-02T15:09:28.719Z</time></trkpt><trkpt lat="43.0598408" lon="11.6001439"><ele>381.2</ele><time>2026-05-02T15:09:29.794Z</time></trkpt><trkpt lat="43.0597847" lon="11.6000769"><ele>379.59999999999997</ele><time>2026-05-02T15:09:30.754Z</time></trkpt><trkpt lat="43.0597145" lon="11.6000055"><ele>378.0</ele><time>2026-05-02T15:09:31.669Z</time></trkpt><trkpt lat="43.0595589" lon="11.5998473"><ele>378.0</ele><time>2026-05-02T15:09:33.546Z</time></trkpt><trkpt lat="43.0594752" lon="11.5997665"><ele>378.0</ele><time>2026-05-02T15:09:34.553Z</time></trkpt><trkpt lat="43.0593923" lon="11.5996832"><ele>378.0</ele><time>2026-05-02T15:09:35.606Z</time></trkpt><trkpt lat="43.0593229" lon="11.5996001"><ele>378.0</ele><time>2026-05-02T15:09:36.65Z</time></trkpt><trkpt lat="43.0592677" lon="11.5995105"><ele>378.0</ele><time>2026-05-02T15:09:37.749Z</time></trkpt><trkpt lat="43.0592315" lon="11.5994253"><ele>377.0</ele><time>2026-05-02T15:09:38.771Z</time></trkpt><trkpt lat="43.0592089" lon="11.599339"><ele>376.0</ele><time>2026-05-02T15:09:39.864Z</time></trkpt><trkpt lat="43.0591947" lon="11.5992469"><ele>375.0</ele><time>2026-05-02T15:09:40.873Z</time></trkpt><trkpt lat="43.0591819" lon="11.5991453"><ele>374.0</ele><time>2026-05-02T15:09:41.798Z</time></trkpt><trkpt lat="43.0591519" lon="11.598926"><ele>373.0</ele><time>2026-05-02T15:09:43.567Z</time></trkpt><trkpt lat="43.0591505" lon="11.5988107"><ele>373.0</ele><time>2026-05-02T15:09:44.598Z</time></trkpt><trkpt lat="43.0591491" lon="11.5986903"><ele>373.0</ele><time>2026-05-02T15:09:45.518Z</time></trkpt><trkpt lat="43.0591579" lon="11.5985506"><ele>373.0</ele><time>2026-05-02T15:09:46.51Z</time></trkpt><trkpt lat="43.059188" lon="11.5983894"><ele>373.0</ele><time>2026-05-02T15:09:47.549Z</time></trkpt><trkpt lat="43.0592346" lon="11.598218"><ele>373.0</ele><time>2026-05-02T15:09:48.559Z</time></trkpt><trkpt lat="43.0592834" lon="11.598058"><ele>373.4</ele><time>2026-05-02T15:09:49.591Z</time></trkpt><trkpt lat="43.0593272" lon="11.5979103"><ele>373.79999999999995</ele><time>2026-05-02T15:09:50.551Z</time></trkpt><trkpt lat="43.0593657" lon="11.5977824"><ele>374.2</ele><time>2026-05-02T15:09:51.604Z</time></trkpt><trkpt lat="43.0594071" lon="11.5976699"><ele>374.6</ele><time>2026-05-02T15:09:52.714Z</time></trkpt><trkpt lat="43.0594455" lon="11.5975598"><ele>375.0</ele><time>2026-05-02T15:09:53.784Z</time></trkpt><trkpt lat="43.0594735" lon="11.5974459"><ele>377.0</ele><time>2026-05-02T15:09:54.915Z</time></trkpt><trkpt lat="43.0594966" lon="11.5973247"><ele>379.0</ele><time>2026-05-02T15:09:56.057Z</time></trkpt><trkpt lat="43.0595176" lon="11.5970636"><ele>381.0</ele><time>2026-05-02T15:09:58.822Z</time></trkpt><trkpt lat="43.0594908" lon="11.596789"><ele>381.6666666666667</ele><time>2026-05-02T15:09:59.991Z</time></trkpt><trkpt lat="43.0594525" lon="11.596657"><ele>382.33333333333337</ele><time>2026-05-02T15:10:01.534Z</time></trkpt><trkpt lat="43.0593638" lon="11.5964409"><ele>383.0</ele><time>2026-05-02T15:10:02.862Z</time></trkpt><trkpt lat="43.0592078" lon="11.5962066"><ele>384.0</ele><time>2026-05-02T15:10:04.568Z</time></trkpt><trkpt lat="43.0591158" lon="11.5960507"><ele>385.0</ele><time>2026-05-02T15:10:05.559Z</time></trkpt><trkpt lat="43.0590207" lon="11.5958864"><ele>386.0</ele><time>2026-05-02T15:10:06.524Z</time></trkpt><trkpt lat="43.0589299" lon="11.5957255"><ele>387.0</ele><time>2026-05-02T15:10:07.526Z</time></trkpt><trkpt lat="43.0588376" lon="11.5955656"><ele>387.0</ele><time>2026-05-02T15:10:08.578Z</time></trkpt><trkpt lat="43.0587537" lon="11.5954038"><ele>387.0</ele><time>2026-05-02T15:10:09.672Z</time></trkpt><trkpt lat="43.0586821" lon="11.5952334"><ele>387.0</ele><time>2026-05-02T15:10:10.704Z</time></trkpt><trkpt lat="43.0586252" lon="11.5950316"><ele>387.0</ele><time>2026-05-02T15:10:11.775Z</time></trkpt><trkpt lat="43.0585678" lon="11.5948219"><ele>386.75</ele><time>2026-05-02T15:10:12.619Z</time></trkpt><trkpt lat="43.0585184" lon="11.5946243"><ele>386.5</ele><time>2026-05-02T15:10:13.551Z</time></trkpt><trkpt lat="43.0584686" lon="11.5944487"><ele>386.25</ele><time>2026-05-02T15:10:14.561Z</time></trkpt><trkpt lat="43.0584267" lon="11.5942936"><ele>386.0</ele><time>2026-05-02T15:10:15.588Z</time></trkpt><trkpt lat="43.0583817" lon="11.594151"><ele>385.6</ele><time>2026-05-02T15:10:16.583Z</time></trkpt><trkpt lat="43.0583255" lon="11.5940149"><ele>385.20000000000005</ele><time>2026-05-02T15:10:17.55Z</time></trkpt><trkpt lat="43.0582714" lon="11.5938833"><ele>384.79999999999995</ele><time>2026-05-02T15:10:18.578Z</time></trkpt><trkpt lat="43.058224" lon="11.5937631"><ele>384.4</ele><time>2026-05-02T15:10:19.611Z</time></trkpt><trkpt lat="43.0581887" lon="11.5936449"><ele>384.0</ele><time>2026-05-02T15:10:20.657Z</time></trkpt><trkpt lat="43.058164" lon="11.593523"><ele>385.75</ele><time>2026-05-02T15:10:21.763Z</time></trkpt><trkpt lat="43.0581456" lon="11.5934054"><ele>387.5</ele><time>2026-05-02T15:10:22.765Z</time></trkpt><trkpt lat="43.058126" lon="11.5932876"><ele>389.25</ele><time>2026-05-02T15:10:23.745Z</time></trkpt><trkpt lat="43.0581047" lon="11.5931706"><ele>391.0</ele><time>2026-05-02T15:10:24.756Z</time></trkpt><trkpt lat="43.0580641" lon="11.5928851"><ele>390.0</ele><time>2026-05-02T15:10:26.536Z</time></trkpt><trkpt lat="43.0580393" lon="11.5927244"><ele>389.0</ele><time>2026-05-02T15:10:27.558Z</time></trkpt><trkpt lat="43.0580088" lon="11.5925691"><ele>388.0</ele><time>2026-05-02T15:10:28.564Z</time></trkpt><trkpt lat="43.0579833" lon="11.592425"><ele>387.0</ele><time>2026-05-02T15:10:29.531Z</time></trkpt><trkpt lat="43.0579606" lon="11.5923026"><ele>386.0</ele><time>2026-05-02T15:10:30.566Z</time></trkpt><trkpt lat="43.0579452" lon="11.5922093"><ele>386.0</ele><time>2026-05-02T15:10:31.589Z</time></trkpt><trkpt lat="43.0579386" lon="11.5921056"><ele>386.0</ele><time>2026-05-02T15:10:32.589Z</time></trkpt><trkpt lat="43.0579319" lon="11.591994"><ele>386.0</ele><time>2026-05-02T15:10:33.634Z</time></trkpt><trkpt lat="43.0579233" lon="11.5918375"><ele>386.0</ele><time>2026-05-02T15:10:34.754Z</time></trkpt><trkpt lat="43.0579188" lon="11.5916513"><ele>386.0</ele><time>2026-05-02T15:10:35.795Z</time></trkpt><trkpt lat="43.0578781" lon="11.59126"><ele>386.25</ele><time>2026-05-02T15:10:37.553Z</time></trkpt><trkpt lat="43.0578477" lon="11.5910846"><ele>386.5</ele><time>2026-05-02T15:10:38.61Z</time></trkpt><trkpt lat="43.057822" lon="11.5909289"><ele>386.75</ele><time>2026-05-02T15:10:39.698Z</time></trkpt><trkpt lat="43.0577936" lon="11.5907712"><ele>387.0</ele><time>2026-05-02T15:10:40.8Z</time></trkpt><trkpt lat="43.0577749" lon="11.5906066"><ele>387.0</ele><time>2026-05-02T15:10:41.842Z</time></trkpt><trkpt lat="43.0577573" lon="11.590447"><ele>387.0</ele><time>2026-05-02T15:10:42.832Z</time></trkpt><trkpt lat="43.0577388" lon="11.590279"><ele>387.0</ele><time>2026-05-02T15:10:43.806Z</time></trkpt><trkpt lat="43.0577121" lon="11.5901024"><ele>387.0</ele><time>2026-05-02T15:10:44.857Z</time></trkpt><trkpt lat="43.0576817" lon="11.5899144"><ele>387.0</ele><time>2026-05-02T15:10:46.005Z</time></trkpt><trkpt lat="43.0576231" lon="11.5895188"><ele>387.0</ele><time>2026-05-02T15:10:47.965Z</time></trkpt><trkpt lat="43.0575836" lon="11.5891713"><ele>387.0</ele><time>2026-05-02T15:10:49.529Z</time></trkpt><trkpt lat="43.0575696" lon="11.5890212"><ele>387.0</ele><time>2026-05-02T15:10:50.545Z</time></trkpt><trkpt lat="43.0575395" lon="11.5888776"><ele>387.0</ele><time>2026-05-02T15:10:51.552Z</time></trkpt><trkpt lat="43.0575108" lon="11.5887487"><ele>387.0</ele><time>2026-05-02T15:10:52.56Z</time></trkpt><trkpt lat="43.0574816" lon="11.58863"><ele>387.0</ele><time>2026-05-02T15:10:53.614Z</time></trkpt><trkpt lat="43.0574578" lon="11.5885323"><ele>387.25</ele><time>2026-05-02T15:10:54.757Z</time></trkpt><trkpt lat="43.0574364" lon="11.5883753"><ele>387.5</ele><time>2026-05-02T15:10:57.596Z</time></trkpt><trkpt lat="43.0574557" lon="11.5881882"><ele>387.75</ele><time>2026-05-02T15:10:59.17Z</time></trkpt><trkpt lat="43.0574981" lon="11.5880778"><ele>388.0</ele><time>2026-05-02T15:11:00.077Z</time></trkpt><trkpt lat="43.0575787" lon="11.5878642"><ele>387.50000000000006</ele><time>2026-05-02T15:11:01.532Z</time></trkpt><trkpt lat="43.0576102" lon="11.5877856"><ele>387.0</ele><time>2026-05-02T15:11:02.604Z</time></trkpt><trkpt lat="43.0576547" lon="11.5876584"><ele>386.5</ele><time>2026-05-02T15:11:04.552Z</time></trkpt><trkpt lat="43.0576848" lon="11.5875746"><ele>386.0</ele><time>2026-05-02T15:11:05.594Z</time></trkpt><trkpt lat="43.0577279" lon="11.5874693"><ele>385.50000000000006</ele><time>2026-05-02T15:11:06.535Z</time></trkpt><trkpt lat="43.0577843" lon="11.5873429"><ele>385.0</ele><time>2026-05-02T15:11:07.527Z</time></trkpt><trkpt lat="43.0578317" lon="11.5872219"><ele>385.00000000000006</ele><time>2026-05-02T15:11:08.595Z</time></trkpt><trkpt lat="43.0578741" lon="11.5871079"><ele>385.0</ele><time>2026-05-02T15:11:09.635Z</time></trkpt><trkpt lat="43.0579173" lon="11.5870042"><ele>385.0</ele><time>2026-05-02T15:11:10.66Z</time></trkpt><trkpt lat="43.0579617" lon="11.5869031"><ele>385.0</ele><time>2026-05-02T15:11:11.734Z</time></trkpt><trkpt lat="43.0580095" lon="11.5868124"><ele>385.00000000000006</ele><time>2026-05-02T15:11:12.841Z</time></trkpt><trkpt lat="43.058056" lon="11.5867365"><ele>385.0</ele><time>2026-05-02T15:11:13.823Z</time></trkpt><trkpt lat="43.0581058" lon="11.586662"><ele>384.8</ele><time>2026-05-02T15:11:14.856Z</time></trkpt><trkpt lat="43.0581468" lon="11.5865863"><ele>384.6</ele><time>2026-05-02T15:11:15.766Z</time></trkpt><trkpt lat="43.05819" lon="11.5865136"><ele>384.4</ele><time>2026-05-02T15:11:17.328Z</time></trkpt><trkpt lat="43.0582876" lon="11.586389"><ele>384.2</ele><time>2026-05-02T15:11:19.079Z</time></trkpt><trkpt lat="43.0583475" lon="11.58635"><ele>384.0</ele><time>2026-05-02T15:11:20.059Z</time></trkpt><trkpt lat="43.0584707" lon="11.5862349"><ele>383.4</ele><time>2026-05-02T15:11:21.79Z</time></trkpt><trkpt lat="43.0585391" lon="11.5861629"><ele>382.79999999999995</ele><time>2026-05-02T15:11:22.817Z</time></trkpt><trkpt lat="43.0586067" lon="11.5860813"><ele>382.20000000000005</ele><time>2026-05-02T15:11:23.784Z</time></trkpt><trkpt lat="43.0586656" lon="11.5859977"><ele>381.6</ele><time>2026-05-02T15:11:24.736Z</time></trkpt><trkpt lat="43.0587247" lon="11.5859107"><ele>381.0</ele><time>2026-05-02T15:11:25.986Z</time></trkpt><trkpt lat="43.058838" lon="11.5857464"><ele>381.0</ele><time>2026-05-02T15:11:27.606Z</time></trkpt><trkpt lat="43.0588966" lon="11.5856613"><ele>381.0</ele><time>2026-05-02T15:11:28.735Z</time></trkpt><trkpt lat="43.0589634" lon="11.585565"><ele>381.0</ele><time>2026-05-02T15:11:29.676Z</time></trkpt><trkpt lat="43.0590357" lon="11.5854629"><ele>381.0</ele><time>2026-05-02T15:11:30.583Z</time></trkpt><trkpt lat="43.0591085" lon="11.5853553"><ele>381.0</ele><time>2026-05-02T15:11:31.532Z</time></trkpt><trkpt lat="43.0591827" lon="11.5852526"><ele>379.8</ele><time>2026-05-02T15:11:32.53Z</time></trkpt><trkpt lat="43.0592552" lon="11.5851534"><ele>378.6</ele><time>2026-05-02T15:11:33.524Z</time></trkpt><trkpt lat="43.0593277" lon="11.5850637"><ele>377.4</ele><time>2026-05-02T15:11:34.571Z</time></trkpt><trkpt lat="43.059394" lon="11.5849715"><ele>376.2</ele><time>2026-05-02T15:11:35.526Z</time></trkpt><trkpt lat="43.0594594" lon="11.5848824"><ele>375.0</ele><time>2026-05-02T15:11:36.604Z</time></trkpt><trkpt lat="43.0595196" lon="11.5847922"><ele>375.0</ele><time>2026-05-02T15:11:37.627Z</time></trkpt><trkpt lat="43.0595704" lon="11.5847038"><ele>375.0</ele><time>2026-05-02T15:11:38.67Z</time></trkpt><trkpt lat="43.05961" lon="11.5846088"><ele>375.0</ele><time>2026-05-02T15:11:39.781Z</time></trkpt><trkpt lat="43.0596389" lon="11.5845144"><ele>375.0</ele><time>2026-05-02T15:11:40.94Z</time></trkpt><trkpt lat="43.059738" lon="11.5843398"><ele>375.0</ele><time>2026-05-02T15:11:44.113Z</time></trkpt><trkpt lat="43.0598037" lon="11.5842859"><ele>372.0</ele><time>2026-05-02T15:11:45.596Z</time></trkpt><trkpt lat="43.0599927" lon="11.584168"><ele>369.0</ele><time>2026-05-02T15:11:46.872Z</time></trkpt><trkpt lat="43.0602166" lon="11.5839934"><ele>369.0</ele><time>2026-05-02T15:11:48.597Z</time></trkpt><trkpt lat="43.0603152" lon="11.5839106"><ele>369.0</ele><time>2026-05-02T15:11:49.545Z</time></trkpt><trkpt lat="43.0604087" lon="11.5838365"><ele>369.0</ele><time>2026-05-02T15:11:50.566Z</time></trkpt><trkpt lat="43.0604925" lon="11.5837724"><ele>369.0</ele><time>2026-05-02T15:11:51.585Z</time></trkpt><trkpt lat="43.0605789" lon="11.583725"><ele>369.0</ele><time>2026-05-02T15:11:52.618Z</time></trkpt><trkpt lat="43.0606755" lon="11.5836878"><ele>367.75</ele><time>2026-05-02T15:11:53.704Z</time></trkpt><trkpt lat="43.0607907" lon="11.5836697"><ele>366.5</ele><time>2026-05-02T15:11:54.711Z</time></trkpt><trkpt lat="43.0609099" lon="11.5836507"><ele>365.25</ele><time>2026-05-02T15:11:55.776Z</time></trkpt><trkpt lat="43.0610183" lon="11.583639"><ele>364.0</ele><time>2026-05-02T15:11:56.737Z</time></trkpt><trkpt lat="43.0611261" lon="11.5836296"><ele>364.0</ele><time>2026-05-02T15:11:57.95Z</time></trkpt><trkpt lat="43.0613133" lon="11.5836073"><ele>364.0</ele><time>2026-05-02T15:11:59.665Z</time></trkpt><trkpt lat="43.0615025" lon="11.5835766"><ele>364.0</ele><time>2026-05-02T15:12:01.561Z</time></trkpt><trkpt lat="43.0615947" lon="11.5835658"><ele>362.6</ele><time>2026-05-02T15:12:02.557Z</time></trkpt><trkpt lat="43.0616899" lon="11.5835557"><ele>361.2</ele><time>2026-05-02T15:12:03.57Z</time></trkpt><trkpt lat="43.0617807" lon="11.5835411"><ele>359.8</ele><time>2026-05-02T15:12:04.56Z</time></trkpt><trkpt lat="43.0618732" lon="11.5835232"><ele>358.40000000000003</ele><time>2026-05-02T15:12:05.624Z</time></trkpt><trkpt lat="43.0619619" lon="11.5835051"><ele>357.0</ele><time>2026-05-02T15:12:06.582Z</time></trkpt><trkpt lat="43.0620524" lon="11.583485"><ele>357.0</ele><time>2026-05-02T15:12:07.56Z</time></trkpt><trkpt lat="43.0621458" lon="11.5834616"><ele>357.0</ele><time>2026-05-02T15:12:08.526Z</time></trkpt><trkpt lat="43.0622352" lon="11.5834326"><ele>357.0</ele><time>2026-05-02T15:12:09.551Z</time></trkpt><trkpt lat="43.0623236" lon="11.5833996"><ele>357.0</ele><time>2026-05-02T15:12:10.55Z</time></trkpt><trkpt lat="43.0624153" lon="11.5833644"><ele>357.0</ele><time>2026-05-02T15:12:11.566Z</time></trkpt><trkpt lat="43.0625152" lon="11.5833246"><ele>356.0</ele><time>2026-05-02T15:12:12.579Z</time></trkpt><trkpt lat="43.0626188" lon="11.5832757"><ele>355.0</ele><time>2026-05-02T15:12:13.618Z</time></trkpt><trkpt lat="43.062711" lon="11.5832281"><ele>354.0</ele><time>2026-05-02T15:12:14.636Z</time></trkpt><trkpt lat="43.0627958" lon="11.5831816"><ele>353.0</ele><time>2026-05-02T15:12:15.67Z</time></trkpt><trkpt lat="43.0628791" lon="11.5831426"><ele>352.0</ele><time>2026-05-02T15:12:16.576Z</time></trkpt><trkpt lat="43.0629581" lon="11.583114"><ele>352.0</ele><time>2026-05-02T15:12:17.581Z</time></trkpt><trkpt lat="43.0630434" lon="11.5830934"><ele>352.0</ele><time>2026-05-02T15:12:18.549Z</time></trkpt><trkpt lat="43.0631407" lon="11.583077"><ele>352.0</ele><time>2026-05-02T15:12:19.545Z</time></trkpt><trkpt lat="43.063236" lon="11.5830679"><ele>352.0</ele><time>2026-05-02T15:12:20.722Z</time></trkpt><trkpt lat="43.0634348" lon="11.5830731"><ele>351.20000000000005</ele><time>2026-05-02T15:12:22.556Z</time></trkpt><trkpt lat="43.0635251" lon="11.5830778"><ele>350.4</ele><time>2026-05-02T15:12:24.094Z</time></trkpt><trkpt lat="43.0636022" lon="11.5830934"><ele>349.6</ele><time>2026-05-02T15:12:25.063Z</time></trkpt><trkpt lat="43.0637349" lon="11.5831118"><ele>348.79999999999995</ele><time>2026-05-02T15:12:26.877Z</time></trkpt><trkpt lat="43.0638462" lon="11.5830583"><ele>348.0</ele><time>2026-05-02T15:12:29.699Z</time></trkpt><trkpt lat="43.0639976" lon="11.5828063"><ele>347.59999999999997</ele><time>2026-05-02T15:12:31.576Z</time></trkpt><trkpt lat="43.0640512" lon="11.5827068"><ele>347.2</ele><time>2026-05-02T15:12:32.658Z</time></trkpt><trkpt lat="43.0641004" lon="11.5826075"><ele>346.8</ele><time>2026-05-02T15:12:33.69Z</time></trkpt><trkpt lat="43.0641473" lon="11.5825112"><ele>346.4</ele><time>2026-05-02T15:12:34.784Z</time></trkpt><trkpt lat="43.0641973" lon="11.5824215"><ele>346.0</ele><time>2026-05-02T15:12:35.824Z</time></trkpt><trkpt lat="43.0643125" lon="11.5822533"><ele>344.66666666666663</ele><time>2026-05-02T15:12:37.768Z</time></trkpt><trkpt lat="43.0643668" lon="11.5821698"><ele>343.3333333333333</ele><time>2026-05-02T15:12:38.796Z</time></trkpt><trkpt lat="43.064411" lon="11.5820837"><ele>342.0</ele><time>2026-05-02T15:12:40.139Z</time></trkpt><trkpt lat="43.0644876" lon="11.581933"><ele>340.6666666666667</ele><time>2026-05-02T15:12:42.041Z</time></trkpt><trkpt lat="43.0645383" lon="11.5818747"><ele>339.33333333333337</ele><time>2026-05-02T15:12:42.569Z</time></trkpt><trkpt lat="43.0645943" lon="11.5818067"><ele>338.0</ele><time>2026-05-02T15:12:43.557Z</time></trkpt><trkpt lat="43.0646538" lon="11.5817298"><ele>337.0</ele><time>2026-05-02T15:12:44.574Z</time></trkpt><trkpt lat="43.0647144" lon="11.5816456"><ele>336.0</ele><time>2026-05-02T15:12:45.634Z</time></trkpt><trkpt lat="43.0647626" lon="11.5815564"><ele>335.0</ele><time>2026-05-02T15:12:46.644Z</time></trkpt><trkpt lat="43.0648055" lon="11.5814797"><ele>334.0</ele><time>2026-05-02T15:12:47.765Z</time></trkpt><trkpt lat="43.0648654" lon="11.5813101"><ele>333.0</ele><time>2026-05-02T15:12:52.482Z</time></trkpt><trkpt lat="43.0649494" lon="11.5813411"><ele>332.0</ele><time>2026-05-02T15:12:54.523Z</time></trkpt><trkpt lat="43.0650044" lon="11.5813919"><ele>331.0</ele><time>2026-05-02T15:12:55.555Z</time></trkpt><trkpt lat="43.0650701" lon="11.5814454"><ele>330.0</ele><time>2026-05-02T15:12:56.565Z</time></trkpt><trkpt lat="43.06514" lon="11.5815019"><ele>329.0</ele><time>2026-05-02T15:12:57.583Z</time></trkpt><trkpt lat="43.065214" lon="11.5815742"><ele>328.0</ele><time>2026-05-02T15:12:58.669Z</time></trkpt><trkpt lat="43.0652879" lon="11.5816637"><ele>327.0</ele><time>2026-05-02T15:12:59.684Z</time></trkpt><trkpt lat="43.0653644" lon="11.5817655"><ele>327.0</ele><time>2026-05-02T15:13:00.768Z</time></trkpt><trkpt lat="43.0654388" lon="11.5818753"><ele>327.0</ele><time>2026-05-02T15:13:01.789Z</time></trkpt><trkpt lat="43.0655151" lon="11.5819865"><ele>327.0</ele><time>2026-05-02T15:13:02.689Z</time></trkpt><trkpt lat="43.0655967" lon="11.5820956"><ele>327.0</ele><time>2026-05-02T15:13:03.758Z</time></trkpt><trkpt lat="43.0656751" lon="11.5822014"><ele>327.0</ele><time>2026-05-02T15:13:04.971Z</time></trkpt><trkpt lat="43.0658242" lon="11.58241"><ele>325.8</ele><time>2026-05-02T15:13:06.786Z</time></trkpt><trkpt lat="43.0658941" lon="11.5825054"><ele>324.6</ele><time>2026-05-02T15:13:07.773Z</time></trkpt><trkpt lat="43.0660252" lon="11.582677"><ele>323.40000000000003</ele><time>2026-05-02T15:13:09.551Z</time></trkpt><trkpt lat="43.0660784" lon="11.5827576"><ele>322.20000000000005</ele><time>2026-05-02T15:13:10.585Z</time></trkpt><trkpt lat="43.0661242" lon="11.5828233"><ele>321.0</ele><time>2026-05-02T15:13:11.616Z</time></trkpt><trkpt lat="43.0662278" lon="11.5828879"><ele>321.0</ele><time>2026-05-02T15:13:13.81Z</time></trkpt><trkpt lat="43.0664094" lon="11.5828369"><ele>321.0</ele><time>2026-05-02T15:13:16.56Z</time></trkpt><trkpt lat="43.0665014" lon="11.5828079"><ele>321.0</ele><time>2026-05-02T15:13:17.614Z</time></trkpt><trkpt lat="43.0666067" lon="11.5827954"><ele>321.0</ele><time>2026-05-02T15:13:18.603Z</time></trkpt><trkpt lat="43.0667139" lon="11.5827937"><ele>319.40000000000003</ele><time>2026-05-02T15:13:19.648Z</time></trkpt><trkpt lat="43.0668127" lon="11.5827933"><ele>317.8</ele><time>2026-05-02T15:13:20.665Z</time></trkpt><trkpt lat="43.0668986" lon="11.5827944"><ele>316.20000000000005</ele><time>2026-05-02T15:13:21.709Z</time></trkpt><trkpt lat="43.0669724" lon="11.5827996"><ele>314.6</ele><time>2026-05-02T15:13:22.801Z</time></trkpt><trkpt lat="43.0670355" lon="11.5828007"><ele>313.0</ele><time>2026-05-02T15:13:23.91Z</time></trkpt><trkpt lat="43.0671925" lon="11.5826871"><ele>313.0</ele><time>2026-05-02T15:13:27.154Z</time></trkpt><trkpt lat="43.067317" lon="11.5825058"><ele>313.0</ele><time>2026-05-02T15:13:28.605Z</time></trkpt><trkpt lat="43.0673744" lon="11.5824149"><ele>313.0</ele><time>2026-05-02T15:13:29.551Z</time></trkpt><trkpt lat="43.0674318" lon="11.5823293"><ele>313.0</ele><time>2026-05-02T15:13:30.551Z</time></trkpt><trkpt lat="43.0674856" lon="11.5822474"><ele>313.0</ele><time>2026-05-02T15:13:31.535Z</time></trkpt><trkpt lat="43.0675394" lon="11.5821631"><ele>311.8333333333333</ele><time>2026-05-02T15:13:32.589Z</time></trkpt><trkpt lat="43.067594" lon="11.5820861"><ele>310.66666666666663</ele><time>2026-05-02T15:13:33.619Z</time></trkpt><trkpt lat="43.0676456" lon="11.5820122"><ele>309.5</ele><time>2026-05-02T15:13:34.688Z</time></trkpt><trkpt lat="43.0677081" lon="11.5819424"><ele>308.3333333333333</ele><time>2026-05-02T15:13:35.762Z</time></trkpt><trkpt lat="43.0677764" lon="11.581884"><ele>307.1666666666667</ele><time>2026-05-02T15:13:36.816Z</time></trkpt><trkpt lat="43.0678557" lon="11.5818405"><ele>306.0</ele><time>2026-05-02T15:13:37.864Z</time></trkpt><trkpt lat="43.0679369" lon="11.5818014"><ele>306.0</ele><time>2026-05-02T15:13:39.047Z</time></trkpt><trkpt lat="43.0681711" lon="11.5817237"><ele>306.0</ele><time>2026-05-02T15:13:42.028Z</time></trkpt><trkpt lat="43.0683019" lon="11.5816697"><ele>306.0</ele><time>2026-05-02T15:13:43.966Z</time></trkpt><trkpt lat="43.0683659" lon="11.5816246"><ele>304.40000000000003</ele><time>2026-05-02T15:13:44.672Z</time></trkpt><trkpt lat="43.068432" lon="11.5815662"><ele>302.8</ele><time>2026-05-02T15:13:45.911Z</time></trkpt><trkpt lat="43.0684955" lon="11.5814804"><ele>301.20000000000005</ele><time>2026-05-02T15:13:46.943Z</time></trkpt><trkpt lat="43.0685689" lon="11.5813837"><ele>299.6</ele><time>2026-05-02T15:13:47.954Z</time></trkpt><trkpt lat="43.0686508" lon="11.5812691"><ele>298.0</ele><time>2026-05-02T15:13:48.923Z</time></trkpt><trkpt lat="43.0687403" lon="11.5811588"><ele>297.3333333333333</ele><time>2026-05-02T15:13:49.895Z</time></trkpt><trkpt lat="43.0689264" lon="11.5809256"><ele>296.6666666666667</ele><time>2026-05-02T15:13:51.553Z</time></trkpt><trkpt lat="43.0690165" lon="11.5808112"><ele>296.0</ele><time>2026-05-02T15:13:52.535Z</time></trkpt><trkpt lat="43.0691089" lon="11.5806992"><ele>294.0</ele><time>2026-05-02T15:13:53.567Z</time></trkpt><trkpt lat="43.0691993" lon="11.580584"><ele>292.0</ele><time>2026-05-02T15:13:54.538Z</time></trkpt><trkpt lat="43.0692908" lon="11.5804692"><ele>290.0</ele><time>2026-05-02T15:13:55.542Z</time></trkpt><trkpt lat="43.0693823" lon="11.580357"><ele>288.0</ele><time>2026-05-02T15:13:56.571Z</time></trkpt><trkpt lat="43.0694625" lon="11.5802525"><ele>287.5</ele><time>2026-05-02T15:13:57.61Z</time></trkpt><trkpt lat="43.0695332" lon="11.5801599"><ele>287.0</ele><time>2026-05-02T15:13:58.672Z</time></trkpt><trkpt lat="43.0695868" lon="11.5800712"><ele>286.5</ele><time>2026-05-02T15:13:59.739Z</time></trkpt><trkpt lat="43.0696215" lon="11.579989"><ele>286.0</ele><time>2026-05-02T15:14:00.818Z</time></trkpt><trkpt lat="43.0696506" lon="11.579904"><ele>285.5</ele><time>2026-05-02T15:14:01.858Z</time></trkpt><trkpt lat="43.0696725" lon="11.579821"><ele>285.0</ele><time>2026-05-02T15:14:03.021Z</time></trkpt><trkpt lat="43.0697265" lon="11.5795839"><ele>284.2</ele><time>2026-05-02T15:14:05.67Z</time></trkpt><trkpt lat="43.0697519" lon="11.579491"><ele>283.4</ele><time>2026-05-02T15:14:06.832Z</time></trkpt><trkpt lat="43.0697806" lon="11.5793915"><ele>282.6</ele><time>2026-05-02T15:14:08.056Z</time></trkpt><trkpt lat="43.0698122" lon="11.5793004"><ele>281.8</ele><time>2026-05-02T15:14:09.038Z</time></trkpt><trkpt lat="43.0698709" lon="11.579133"><ele>281.0</ele><time>2026-05-02T15:14:10.878Z</time></trkpt><trkpt lat="43.0699277" lon="11.57898"><ele>279.83333333333337</ele><time>2026-05-02T15:14:12.818Z</time></trkpt><trkpt lat="43.0699789" lon="11.5788089"><ele>278.6666666666667</ele><time>2026-05-02T15:14:14.529Z</time></trkpt><trkpt lat="43.0700045" lon="11.5787128"><ele>277.5</ele><time>2026-05-02T15:14:15.531Z</time></trkpt><trkpt lat="43.0700281" lon="11.5786187"><ele>276.3333333333333</ele><time>2026-05-02T15:14:16.593Z</time></trkpt><trkpt lat="43.0700465" lon="11.5785204"><ele>275.16666666666663</ele><time>2026-05-02T15:14:17.622Z</time></trkpt><trkpt lat="43.0700561" lon="11.5784158"><ele>274.0</ele><time>2026-05-02T15:14:18.721Z</time></trkpt><trkpt lat="43.0700658" lon="11.5783111"><ele>272.2</ele><time>2026-05-02T15:14:19.733Z</time></trkpt><trkpt lat="43.0700655" lon="11.5782033"><ele>270.4</ele><time>2026-05-02T15:14:20.705Z</time></trkpt><trkpt lat="43.0700684" lon="11.5780849"><ele>268.6</ele><time>2026-05-02T15:14:21.968Z</time></trkpt><trkpt lat="43.0700796" lon="11.5778396"><ele>266.8</ele><time>2026-05-02T15:14:23.98Z</time></trkpt><trkpt lat="43.0700915" lon="11.5777205"><ele>265.0</ele><time>2026-05-02T15:14:25.141Z</time></trkpt><trkpt lat="43.0701226" lon="11.5774798"><ele>263.4</ele><time>2026-05-02T15:14:26.714Z</time></trkpt><trkpt lat="43.0701434" lon="11.577374"><ele>261.8</ele><time>2026-05-02T15:14:27.633Z</time></trkpt><trkpt lat="43.070169" lon="11.5771783"><ele>260.2</ele><time>2026-05-02T15:14:29.964Z</time></trkpt><trkpt lat="43.0701682" lon="11.5770833"><ele>258.6</ele><time>2026-05-02T15:14:31.015Z</time></trkpt><trkpt lat="43.0701625" lon="11.5769822"><ele>257.0</ele><time>2026-05-02T15:14:32.057Z</time></trkpt><trkpt lat="43.0701597" lon="11.5768128"><ele>255.6</ele><time>2026-05-02T15:14:34.533Z</time></trkpt><trkpt lat="43.0701778" lon="11.576682"><ele>254.2</ele><time>2026-05-02T15:14:36.539Z</time></trkpt><trkpt lat="43.0702342" lon="11.5766371"><ele>252.8</ele><time>2026-05-02T15:14:37.547Z</time></trkpt><trkpt lat="43.0703015" lon="11.5766939"><ele>251.4</ele><time>2026-05-02T15:14:38.633Z</time></trkpt><trkpt lat="43.0703694" lon="11.5767832"><ele>250.0</ele><time>2026-05-02T15:14:39.713Z</time></trkpt><trkpt lat="43.070447" lon="11.5769014"><ele>249.5</ele><time>2026-05-02T15:14:40.794Z</time></trkpt><trkpt lat="43.0705287" lon="11.5770291"><ele>249.0</ele><time>2026-05-02T15:14:41.76Z</time></trkpt><trkpt lat="43.070621" lon="11.5771563"><ele>248.5</ele><time>2026-05-02T15:14:42.797Z</time></trkpt><trkpt lat="43.0707249" lon="11.5772879"><ele>248.0</ele><time>2026-05-02T15:14:43.866Z</time></trkpt><trkpt lat="43.0709483" lon="11.5775411"><ele>248.0</ele><time>2026-05-02T15:14:45.909Z</time></trkpt><trkpt lat="43.0711576" lon="11.5777476"><ele>248.0</ele><time>2026-05-02T15:14:47.528Z</time></trkpt><trkpt lat="43.071263" lon="11.5778481"><ele>248.0</ele><time>2026-05-02T15:14:48.534Z</time></trkpt><trkpt lat="43.0713684" lon="11.5779501"><ele>248.5</ele><time>2026-05-02T15:14:49.537Z</time></trkpt><trkpt lat="43.0714749" lon="11.5780584"><ele>249.0</ele><time>2026-05-02T15:14:50.556Z</time></trkpt><trkpt lat="43.0715833" lon="11.5781665"><ele>249.5</ele><time>2026-05-02T15:14:51.593Z</time></trkpt><trkpt lat="43.0716947" lon="11.5782701"><ele>250.0</ele><time>2026-05-02T15:14:52.698Z</time></trkpt><trkpt lat="43.0718061" lon="11.5783724"><ele>250.0</ele><time>2026-05-02T15:14:53.791Z</time></trkpt><trkpt lat="43.0720065" lon="11.5785508"><ele>250.0</ele><time>2026-05-02T15:14:55.784Z</time></trkpt><trkpt lat="43.072101" lon="11.5786454"><ele>250.0</ele><time>2026-05-02T15:14:56.763Z</time></trkpt><trkpt lat="43.0722853" lon="11.578861"><ele>250.6</ele><time>2026-05-02T15:14:58.672Z</time></trkpt><trkpt lat="43.0723744" lon="11.5789645"><ele>251.2</ele><time>2026-05-02T15:14:59.582Z</time></trkpt><trkpt lat="43.0724569" lon="11.5790574"><ele>251.8</ele><time>2026-05-02T15:15:00.535Z</time></trkpt><trkpt lat="43.0725317" lon="11.5791496"><ele>252.4</ele><time>2026-05-02T15:15:01.565Z</time></trkpt><trkpt lat="43.0725983" lon="11.5792378"><ele>253.0</ele><time>2026-05-02T15:15:02.572Z</time></trkpt><trkpt lat="43.0726632" lon="11.5793055"><ele>253.0</ele><time>2026-05-02T15:15:03.617Z</time></trkpt><trkpt lat="43.07272" lon="11.5793472"><ele>253.0</ele><time>2026-05-02T15:15:04.738Z</time></trkpt><trkpt lat="43.0727835" lon="11.5793691"><ele>253.0</ele><time>2026-05-02T15:15:06.87Z</time></trkpt><trkpt lat="43.0728719" lon="11.5792946"><ele>253.0</ele><time>2026-05-02T15:15:14.669Z</time></trkpt><trkpt lat="43.0729432" lon="11.5791531"><ele>253.0</ele><time>2026-05-02T15:15:17.052Z</time></trkpt><trkpt lat="43.0730436" lon="11.5789694"><ele>253.0</ele><time>2026-05-02T15:15:18.58Z</time></trkpt><trkpt lat="43.0730962" lon="11.5788688"><ele>253.0</ele><time>2026-05-02T15:15:19.895Z</time></trkpt><trkpt lat="43.073154" lon="11.5787691"><ele>253.0</ele><time>2026-05-02T15:15:20.834Z</time></trkpt><trkpt lat="43.0732115" lon="11.5786743"><ele>253.0</ele><time>2026-05-02T15:15:21.994Z</time></trkpt><trkpt lat="43.073319" lon="11.578492"><ele>253.0</ele><time>2026-05-02T15:15:24.098Z</time></trkpt><trkpt lat="43.073428" lon="11.5783065"><ele>252.5</ele><time>2026-05-02T15:15:25.768Z</time></trkpt><trkpt lat="43.0734838" lon="11.5782076"><ele>252.0</ele><time>2026-05-02T15:15:27.11Z</time></trkpt><trkpt lat="43.0735367" lon="11.5780985"><ele>251.5</ele><time>2026-05-02T15:15:28.523Z</time></trkpt><trkpt lat="43.0736249" lon="11.5778637"><ele>251.0</ele><time>2026-05-02T15:15:29.953Z</time></trkpt><trkpt lat="43.0736511" lon="11.5777315"><ele>250.33333333333334</ele><time>2026-05-02T15:15:31.667Z</time></trkpt><trkpt lat="43.0736662" lon="11.5774363"><ele>249.66666666666669</ele><time>2026-05-02T15:15:32.825Z</time></trkpt><trkpt lat="43.0736496" lon="11.5772771"><ele>249.0</ele><time>2026-05-02T15:15:33.937Z</time></trkpt><trkpt lat="43.0736331" lon="11.5771166"><ele>249.33333333333331</ele><time>2026-05-02T15:15:34.92Z</time></trkpt><trkpt lat="43.0736085" lon="11.5767899"><ele>249.66666666666666</ele><time>2026-05-02T15:15:36.53Z</time></trkpt><trkpt lat="43.0736003" lon="11.5766249"><ele>250.0</ele><time>2026-05-02T15:15:37.522Z</time></trkpt><trkpt lat="43.0735933" lon="11.5764593"><ele>250.0</ele><time>2026-05-02T15:15:38.531Z</time></trkpt><trkpt lat="43.073592" lon="11.5762953"><ele>250.0</ele><time>2026-05-02T15:15:39.579Z</time></trkpt><trkpt lat="43.0735946" lon="11.5761285"><ele>250.0</ele><time>2026-05-02T15:15:40.59Z</time></trkpt><trkpt lat="43.0736037" lon="11.5759621"><ele>250.0</ele><time>2026-05-02T15:15:41.628Z</time></trkpt><trkpt lat="43.0736224" lon="11.575792"><ele>250.5</ele><time>2026-05-02T15:15:42.647Z</time></trkpt><trkpt lat="43.0736442" lon="11.5756201"><ele>251.0</ele><time>2026-05-02T15:15:43.627Z</time></trkpt><trkpt lat="43.0736702" lon="11.5754405"><ele>251.5</ele><time>2026-05-02T15:15:44.778Z</time></trkpt><trkpt lat="43.0737004" lon="11.5752484"><ele>252.0</ele><time>2026-05-02T15:15:46.031Z</time></trkpt><trkpt lat="43.0737437" lon="11.5750575"><ele>253.0</ele><time>2026-05-02T15:15:47.441Z</time></trkpt><trkpt lat="43.0738914" lon="11.5746743"><ele>254.0</ele><time>2026-05-02T15:15:48.901Z</time></trkpt><trkpt lat="43.0740155" lon="11.5744696"><ele>255.33333333333334</ele><time>2026-05-02T15:15:50.002Z</time></trkpt><trkpt lat="43.0741359" lon="11.5742754"><ele>256.6666666666667</ele><time>2026-05-02T15:15:51.106Z</time></trkpt><trkpt lat="43.0742531" lon="11.5741017"><ele>258.0</ele><time>2026-05-02T15:15:52.396Z</time></trkpt><trkpt lat="43.0744604" lon="11.5738743"><ele>258.0</ele><time>2026-05-02T15:15:54.058Z</time></trkpt><trkpt lat="43.0746668" lon="11.5738456"><ele>258.0</ele><time>2026-05-02T15:15:56.154Z</time></trkpt><trkpt lat="43.0749414" lon="11.573892"><ele>258.25</ele><time>2026-05-02T15:15:57.546Z</time></trkpt><trkpt lat="43.0750686" lon="11.5738933"><ele>258.5</ele><time>2026-05-02T15:15:58.535Z</time></trkpt><trkpt lat="43.0751932" lon="11.5738547"><ele>258.75</ele><time>2026-05-02T15:15:59.544Z</time></trkpt><trkpt lat="43.0753076" lon="11.5737972"><ele>259.0</ele><time>2026-05-02T15:16:00.624Z</time></trkpt><trkpt lat="43.0754128" lon="11.5737348"><ele>261.0</ele><time>2026-05-02T15:16:01.704Z</time></trkpt><trkpt lat="43.0754959" lon="11.5736627"><ele>263.0</ele><time>2026-05-02T15:16:02.915Z</time></trkpt><trkpt lat="43.0755485" lon="11.5735754"><ele>265.0</ele><time>2026-05-02T15:16:04.434Z</time></trkpt><trkpt lat="43.0755755" lon="11.5733393"><ele>267.0</ele><time>2026-05-02T15:16:05.605Z</time></trkpt><trkpt lat="43.075516" lon="11.5731779"><ele>267.0</ele><time>2026-05-02T15:16:06.758Z</time></trkpt><trkpt lat="43.0754626" lon="11.5730089"><ele>267.0</ele><time>2026-05-02T15:16:08.293Z</time></trkpt><trkpt lat="43.0754723" lon="11.5727701"><ele>267.0</ele><time>2026-05-02T15:16:09.502Z</time></trkpt><trkpt lat="43.0756014" lon="11.5727498"><ele>267.0</ele><time>2026-05-02T15:16:11.723Z</time></trkpt><trkpt lat="43.0757157" lon="11.5728504"><ele>275.0</ele><time>2026-05-02T15:16:14.599Z</time></trkpt><trkpt lat="43.0760953" lon="11.5732686"><ele>275.0</ele><time>2026-05-02T15:16:16.633Z</time></trkpt><trkpt lat="43.0764351" lon="11.5733664"><ele>275.0</ele><time>2026-05-02T15:16:18.588Z</time></trkpt><trkpt lat="43.0765103" lon="11.573285"><ele>275.0</ele><time>2026-05-02T15:16:19.664Z</time></trkpt><trkpt lat="43.0765618" lon="11.5731748"><ele>275.0</ele><time>2026-05-02T15:16:20.785Z</time></trkpt><trkpt lat="43.0765816" lon="11.5730486"><ele>275.0</ele><time>2026-05-02T15:16:22.116Z</time></trkpt><trkpt lat="43.0765572" lon="11.5729409"><ele>275.0</ele><time>2026-05-02T15:16:23.835Z</time></trkpt><trkpt lat="43.0762544" lon="11.5727244"><ele>274.0</ele><time>2026-05-02T15:16:25.586Z</time></trkpt><trkpt lat="43.0761207" lon="11.5726377"><ele>273.0</ele><time>2026-05-02T15:16:26.727Z</time></trkpt><trkpt lat="43.0759993" lon="11.5725358"><ele>272.0</ele><time>2026-05-02T15:16:27.88Z</time></trkpt><trkpt lat="43.0758986" lon="11.5724263"><ele>271.0</ele><time>2026-05-02T15:16:29.356Z</time></trkpt><trkpt lat="43.0757557" lon="11.572123"><ele>275.0</ele><time>2026-05-02T15:16:30.65Z</time></trkpt><trkpt lat="43.075767" lon="11.5719184"><ele>279.0</ele><time>2026-05-02T15:16:31.884Z</time></trkpt><trkpt lat="43.075759" lon="11.5717262"><ele>283.0</ele><time>2026-05-02T15:16:33.346Z</time></trkpt><trkpt lat="43.0756143" lon="11.5714056"><ele>283.0</ele><time>2026-05-02T15:16:34.521Z</time></trkpt><trkpt lat="43.0755041" lon="11.5712438"><ele>283.0</ele><time>2026-05-02T15:16:35.594Z</time></trkpt><trkpt lat="43.0754073" lon="11.5710703"><ele>283.0</ele><time>2026-05-02T15:16:36.63Z</time></trkpt><trkpt lat="43.0753442" lon="11.5708982"><ele>285.25</ele><time>2026-05-02T15:16:37.709Z</time></trkpt><trkpt lat="43.0753049" lon="11.570736"><ele>287.5</ele><time>2026-05-02T15:16:38.851Z</time></trkpt><trkpt lat="43.0752952" lon="11.5705955"><ele>289.75</ele><time>2026-05-02T15:16:40.134Z</time></trkpt><trkpt lat="43.0753739" lon="11.57039"><ele>292.0</ele><time>2026-05-02T15:16:41.521Z</time></trkpt><trkpt lat="43.0754566" lon="11.5703366"><ele>292.0</ele><time>2026-05-02T15:16:42.594Z</time></trkpt><trkpt lat="43.0755573" lon="11.5703349"><ele>292.0</ele><time>2026-05-02T15:16:43.58Z</time></trkpt><trkpt lat="43.0756552" lon="11.5703838"><ele>292.0</ele><time>2026-05-02T15:16:44.685Z</time></trkpt><trkpt lat="43.0757537" lon="11.5704967"><ele>292.0</ele><time>2026-05-02T15:16:45.807Z</time></trkpt><trkpt lat="43.0758678" lon="11.5706558"><ele>298.5</ele><time>2026-05-02T15:16:46.84Z</time></trkpt><trkpt lat="43.0759997" lon="11.5708603"><ele>305.0</ele><time>2026-05-02T15:16:47.989Z</time></trkpt><trkpt lat="43.0762609" lon="11.5711682"><ele>306.0</ele><time>2026-05-02T15:16:50.906Z</time></trkpt><trkpt lat="43.0766152" lon="11.5713244"><ele>307.0</ele><time>2026-05-02T15:16:52.554Z</time></trkpt><trkpt lat="43.0767451" lon="11.5712817"><ele>307.0</ele><time>2026-05-02T15:16:53.607Z</time></trkpt><trkpt lat="43.0768641" lon="11.5711919"><ele>307.0</ele><time>2026-05-02T15:16:54.716Z</time></trkpt><trkpt lat="43.0769786" lon="11.5710785"><ele>307.0</ele><time>2026-05-02T15:16:56.036Z</time></trkpt><trkpt lat="43.0771059" lon="11.5709421"><ele>307.0</ele><time>2026-05-02T15:16:57.516Z</time></trkpt><trkpt lat="43.0773906" lon="11.5706674"><ele>310.66666666666663</ele><time>2026-05-02T15:16:58.52Z</time></trkpt><trkpt lat="43.0775589" lon="11.5705463"><ele>314.3333333333333</ele><time>2026-05-02T15:16:59.562Z</time></trkpt><trkpt lat="43.077751" lon="11.5704238"><ele>318.0</ele><time>2026-05-02T15:17:00.611Z</time></trkpt><trkpt lat="43.0779527" lon="11.5703102"><ele>325.0</ele><time>2026-05-02T15:17:01.65Z</time></trkpt><trkpt lat="43.0783135" lon="11.5700919"><ele>332.0</ele><time>2026-05-02T15:17:03.526Z</time></trkpt><trkpt lat="43.0784657" lon="11.5700081"><ele>332.0</ele><time>2026-05-02T15:17:04.544Z</time></trkpt><trkpt lat="43.078595" lon="11.5699414"><ele>332.0</ele><time>2026-05-02T15:17:05.567Z</time></trkpt><trkpt lat="43.078714" lon="11.5698993"><ele>332.0</ele><time>2026-05-02T15:17:06.576Z</time></trkpt><trkpt lat="43.0788243" lon="11.5698878"><ele>332.0</ele><time>2026-05-02T15:17:07.677Z</time></trkpt><trkpt lat="43.0789515" lon="11.5699085"><ele>331.6666666666667</ele><time>2026-05-02T15:17:08.762Z</time></trkpt><trkpt lat="43.0791107" lon="11.5699457"><ele>331.3333333333333</ele><time>2026-05-02T15:17:09.792Z</time></trkpt><trkpt lat="43.0792958" lon="11.5700012"><ele>331.0</ele><time>2026-05-02T15:17:10.942Z</time></trkpt><trkpt lat="43.0794947" lon="11.570065"><ele>331.0</ele><time>2026-05-02T15:17:11.965Z</time></trkpt><trkpt lat="43.0796718" lon="11.5701217"><ele>331.0</ele><time>2026-05-02T15:17:12.974Z</time></trkpt><trkpt lat="43.0799805" lon="11.5702132"><ele>330.4</ele><time>2026-05-02T15:17:14.541Z</time></trkpt><trkpt lat="43.0801131" lon="11.5702485"><ele>329.8</ele><time>2026-05-02T15:17:15.517Z</time></trkpt><trkpt lat="43.0802356" lon="11.5702774"><ele>329.2</ele><time>2026-05-02T15:17:16.528Z</time></trkpt><trkpt lat="43.0803317" lon="11.570303"><ele>328.59999999999997</ele><time>2026-05-02T15:17:17.523Z</time></trkpt><trkpt lat="43.0804011" lon="11.5703286"><ele>328.0</ele><time>2026-05-02T15:17:18.544Z</time></trkpt><trkpt lat="43.0803572" lon="11.5704583"><ele>329.8333333333333</ele><time>2026-05-02T15:17:23.54Z</time></trkpt><trkpt lat="43.080289" lon="11.5704613"><ele>331.66666666666663</ele><time>2026-05-02T15:17:24.525Z</time></trkpt><trkpt lat="43.0802115" lon="11.5704702"><ele>333.5</ele><time>2026-05-02T15:17:25.554Z</time></trkpt><trkpt lat="43.0801276" lon="11.570493"><ele>335.3333333333333</ele><time>2026-05-02T15:17:26.502Z</time></trkpt><trkpt lat="43.0800382" lon="11.5705184"><ele>337.1666666666667</ele><time>2026-05-02T15:17:27.507Z</time></trkpt><trkpt lat="43.0799341" lon="11.5705442"><ele>339.0</ele><time>2026-05-02T15:17:28.555Z</time></trkpt><trkpt lat="43.0798295" lon="11.570571"><ele>339.0</ele><time>2026-05-02T15:17:29.557Z</time></trkpt><trkpt lat="43.0797401" lon="11.5705885"><ele>339.0</ele><time>2026-05-02T15:17:30.632Z</time></trkpt><trkpt lat="43.0796734" lon="11.570621"><ele>339.0</ele><time>2026-05-02T15:17:31.886Z</time></trkpt><trkpt lat="43.0796285" lon="11.5707668"><ele>339.0</ele><time>2026-05-02T15:17:34.556Z</time></trkpt><trkpt lat="43.0796885" lon="11.5708137"><ele>339.0</ele><time>2026-05-02T15:17:35.673Z</time></trkpt><trkpt lat="43.079778" lon="11.5708426"><ele>339.0</ele><time>2026-05-02T15:17:36.745Z</time></trkpt><trkpt lat="43.0798923" lon="11.5708569"><ele>339.75</ele><time>2026-05-02T15:17:37.829Z</time></trkpt><trkpt lat="43.0800231" lon="11.5708757"><ele>340.5</ele><time>2026-05-02T15:17:38.777Z</time></trkpt><trkpt lat="43.080147" lon="11.5709211"><ele>341.25</ele><time>2026-05-02T15:17:39.973Z</time></trkpt><trkpt lat="43.080269" lon="11.5709862"><ele>342.0</ele><time>2026-05-02T15:17:41.192Z</time></trkpt><trkpt lat="43.0805711" lon="11.57119"><ele>343.0</ele><time>2026-05-02T15:17:42.648Z</time></trkpt><trkpt lat="43.0807601" lon="11.5713221"><ele>344.0</ele><time>2026-05-02T15:17:43.53Z</time></trkpt><trkpt lat="43.0809297" lon="11.571453"><ele>345.0</ele><time>2026-05-02T15:17:44.531Z</time></trkpt><trkpt lat="43.0810652" lon="11.5715713"><ele>345.0</ele><time>2026-05-02T15:17:45.581Z</time></trkpt><trkpt lat="43.0811751" lon="11.57167"><ele>345.0</ele><time>2026-05-02T15:17:46.545Z</time></trkpt><trkpt lat="43.0812774" lon="11.5717567"><ele>345.0</ele><time>2026-05-02T15:17:47.519Z</time></trkpt><trkpt lat="43.0813635" lon="11.5718232"><ele>345.0</ele><time>2026-05-02T15:17:48.522Z</time></trkpt><trkpt lat="43.0814442" lon="11.5718828"><ele>345.0</ele><time>2026-05-02T15:17:49.548Z</time></trkpt><trkpt lat="43.0815305" lon="11.571948"><ele>346.0</ele><time>2026-05-02T15:17:50.559Z</time></trkpt><trkpt lat="43.0816219" lon="11.5720217"><ele>347.0</ele><time>2026-05-02T15:17:51.573Z</time></trkpt><trkpt lat="43.0817091" lon="11.5721137"><ele>348.0</ele><time>2026-05-02T15:17:52.616Z</time></trkpt><trkpt lat="43.0817928" lon="11.5722372"><ele>349.0</ele><time>2026-05-02T15:17:53.696Z</time></trkpt><trkpt lat="43.0818753" lon="11.5723879"><ele>349.0</ele><time>2026-05-02T15:17:54.844Z</time></trkpt><trkpt lat="43.0820432" lon="11.5727563"><ele>349.0</ele><time>2026-05-02T15:17:56.523Z</time></trkpt><trkpt lat="43.0821312" lon="11.5729871"><ele>345.3333333333333</ele><time>2026-05-02T15:17:57.519Z</time></trkpt><trkpt lat="43.0822176" lon="11.5732047"><ele>341.6666666666667</ele><time>2026-05-02T15:17:58.519Z</time></trkpt><trkpt lat="43.0823054" lon="11.573431"><ele>338.0</ele><time>2026-05-02T15:17:59.525Z</time></trkpt><trkpt lat="43.0823994" lon="11.573646"><ele>342.6666666666667</ele><time>2026-05-02T15:18:00.529Z</time></trkpt><trkpt lat="43.0824907" lon="11.5738573"><ele>347.3333333333333</ele><time>2026-05-02T15:18:01.52Z</time></trkpt><trkpt lat="43.0825788" lon="11.574066"><ele>352.0</ele><time>2026-05-02T15:18:02.519Z</time></trkpt><trkpt lat="43.0826662" lon="11.5742684"><ele>352.0</ele><time>2026-05-02T15:18:03.529Z</time></trkpt><trkpt lat="43.0827496" lon="11.5744638"><ele>352.0</ele><time>2026-05-02T15:18:04.517Z</time></trkpt><trkpt lat="43.0828284" lon="11.5746546"><ele>352.0</ele><time>2026-05-02T15:18:05.537Z</time></trkpt><trkpt lat="43.0829043" lon="11.5748318"><ele>350.75</ele><time>2026-05-02T15:18:06.541Z</time></trkpt><trkpt lat="43.0829715" lon="11.5750144"><ele>349.5</ele><time>2026-05-02T15:18:07.533Z</time></trkpt><trkpt lat="43.0830474" lon="11.5751948"><ele>348.25</ele><time>2026-05-02T15:18:08.524Z</time></trkpt><trkpt lat="43.0831206" lon="11.5753662"><ele>347.0</ele><time>2026-05-02T15:18:09.52Z</time></trkpt><trkpt lat="43.0831994" lon="11.5755363"><ele>349.33333333333337</ele><time>2026-05-02T15:18:10.525Z</time></trkpt><trkpt lat="43.0832859" lon="11.575712"><ele>351.6666666666667</ele><time>2026-05-02T15:18:11.512Z</time></trkpt><trkpt lat="43.0833644" lon="11.5758927"><ele>354.0</ele><time>2026-05-02T15:18:12.514Z</time></trkpt><trkpt lat="43.0834439" lon="11.5760703"><ele>353.0</ele><time>2026-05-02T15:18:13.519Z</time></trkpt><trkpt lat="43.0835102" lon="11.5762409"><ele>352.0</ele><time>2026-05-02T15:18:14.52Z</time></trkpt><trkpt lat="43.0835795" lon="11.5763998"><ele>351.0</ele><time>2026-05-02T15:18:15.515Z</time></trkpt><trkpt lat="43.0836381" lon="11.5765388"><ele>350.0</ele><time>2026-05-02T15:18:16.556Z</time></trkpt><trkpt lat="43.0836846" lon="11.576667"><ele>350.0</ele><time>2026-05-02T15:18:17.567Z</time></trkpt><trkpt lat="43.0837177" lon="11.5767866"><ele>350.0</ele><time>2026-05-02T15:18:18.604Z</time></trkpt><trkpt lat="43.0837452" lon="11.5769257"><ele>350.0</ele><time>2026-05-02T15:18:19.658Z</time></trkpt><trkpt lat="43.0837744" lon="11.5770787"><ele>350.0</ele><time>2026-05-02T15:18:20.661Z</time></trkpt><trkpt lat="43.0838068" lon="11.5772497"><ele>350.0</ele><time>2026-05-02T15:18:21.638Z</time></trkpt><trkpt lat="43.0838824" lon="11.5776066"><ele>350.0</ele><time>2026-05-02T15:18:23.512Z</time></trkpt><trkpt lat="43.0839228" lon="11.5777903"><ele>350.0</ele><time>2026-05-02T15:18:24.529Z</time></trkpt><trkpt lat="43.0839671" lon="11.5779847"><ele>350.0</ele><time>2026-05-02T15:18:25.522Z</time></trkpt><trkpt lat="43.0840065" lon="11.5781703"><ele>350.0</ele><time>2026-05-02T15:18:26.522Z</time></trkpt><trkpt lat="43.0840462" lon="11.5783532"><ele>350.0</ele><time>2026-05-02T15:18:27.526Z</time></trkpt><trkpt lat="43.0840772" lon="11.5785351"><ele>350.0</ele><time>2026-05-02T15:18:28.523Z</time></trkpt><trkpt lat="43.0841058" lon="11.5787003"><ele>350.0</ele><time>2026-05-02T15:18:29.537Z</time></trkpt><trkpt lat="43.084147" lon="11.5788633"><ele>350.0</ele><time>2026-05-02T15:18:30.579Z</time></trkpt><trkpt lat="43.0841947" lon="11.5790228"><ele>353.0</ele><time>2026-05-02T15:18:31.616Z</time></trkpt><trkpt lat="43.0842572" lon="11.5791746"><ele>356.0</ele><time>2026-05-02T15:18:32.638Z</time></trkpt><trkpt lat="43.084343" lon="11.5793151"><ele>359.0</ele><time>2026-05-02T15:18:33.714Z</time></trkpt><trkpt lat="43.0844298" lon="11.579455"><ele>362.0</ele><time>2026-05-02T15:18:34.761Z</time></trkpt><trkpt lat="43.0845153" lon="11.5796013"><ele>364.0</ele><time>2026-05-02T15:18:35.746Z</time></trkpt><trkpt lat="43.0845957" lon="11.5797446"><ele>366.0</ele><time>2026-05-02T15:18:36.707Z</time></trkpt><trkpt lat="43.0846659" lon="11.5798783"><ele>368.0</ele><time>2026-05-02T15:18:37.755Z</time></trkpt><trkpt lat="43.0847892" lon="11.580082"><ele>370.0</ele><time>2026-05-02T15:18:39.527Z</time></trkpt><trkpt lat="43.0848324" lon="11.5801537"><ele>370.0</ele><time>2026-05-02T15:18:40.534Z</time></trkpt><trkpt lat="43.0848766" lon="11.5802266"><ele>370.0</ele><time>2026-05-02T15:18:41.551Z</time></trkpt><trkpt lat="43.0849134" lon="11.5803078"><ele>370.0</ele><time>2026-05-02T15:18:42.571Z</time></trkpt><trkpt lat="43.0849468" lon="11.5804052"><ele>370.0</ele><time>2026-05-02T15:18:43.593Z</time></trkpt><trkpt lat="43.0849799" lon="11.5805062"><ele>370.0</ele><time>2026-05-02T15:18:44.692Z</time></trkpt><trkpt lat="43.0850052" lon="11.5806158"><ele>370.0</ele><time>2026-05-02T15:18:45.695Z</time></trkpt><trkpt lat="43.0850343" lon="11.5807388"><ele>370.25</ele><time>2026-05-02T15:18:46.709Z</time></trkpt><trkpt lat="43.0850686" lon="11.5808735"><ele>370.5</ele><time>2026-05-02T15:18:47.779Z</time></trkpt><trkpt lat="43.0851039" lon="11.581012"><ele>370.75</ele><time>2026-05-02T15:18:48.696Z</time></trkpt><trkpt lat="43.0851739" lon="11.5812695"><ele>371.0</ele><time>2026-05-02T15:18:50.525Z</time></trkpt><trkpt lat="43.0852107" lon="11.5813878"><ele>371.0</ele><time>2026-05-02T15:18:51.53Z</time></trkpt><trkpt lat="43.085243" lon="11.5815057"><ele>371.0</ele><time>2026-05-02T15:18:52.547Z</time></trkpt><trkpt lat="43.0852802" lon="11.581619"><ele>371.0</ele><time>2026-05-02T15:18:53.528Z</time></trkpt><trkpt lat="43.0853252" lon="11.5817341"><ele>371.0</ele><time>2026-05-02T15:18:54.528Z</time></trkpt><trkpt lat="43.0853783" lon="11.5818481"><ele>371.0</ele><time>2026-05-02T15:18:55.551Z</time></trkpt><trkpt lat="43.0854449" lon="11.5819589"><ele>371.8</ele><time>2026-05-02T15:18:56.565Z</time></trkpt><trkpt lat="43.0855216" lon="11.5820647"><ele>372.6</ele><time>2026-05-02T15:18:57.586Z</time></trkpt><trkpt lat="43.0856011" lon="11.5821782"><ele>373.4</ele><time>2026-05-02T15:18:58.573Z</time></trkpt><trkpt lat="43.0856767" lon="11.5822753"><ele>374.2</ele><time>2026-05-02T15:18:59.508Z</time></trkpt><trkpt lat="43.085745" lon="11.5823626"><ele>375.0</ele><time>2026-05-02T15:19:00.535Z</time></trkpt><trkpt lat="43.0858016" lon="11.5824452"><ele>375.0</ele><time>2026-05-02T15:19:01.596Z</time></trkpt><trkpt lat="43.0858434" lon="11.5825346"><ele>375.0</ele><time>2026-05-02T15:19:02.648Z</time></trkpt><trkpt lat="43.0858734" lon="11.5826111"><ele>375.0</ele><time>2026-05-02T15:19:03.68Z</time></trkpt><trkpt lat="43.0859146" lon="11.5826875"><ele>375.0</ele><time>2026-05-02T15:19:06.175Z</time></trkpt><trkpt lat="43.0860365" lon="11.5827794"><ele>375.0</ele><time>2026-05-02T15:19:08.51Z</time></trkpt><trkpt lat="43.0861177" lon="11.5828495"><ele>375.0</ele><time>2026-05-02T15:19:09.529Z</time></trkpt><trkpt lat="43.0862076" lon="11.5829269"><ele>371.4</ele><time>2026-05-02T15:19:10.524Z</time></trkpt><trkpt lat="43.0862963" lon="11.5830089"><ele>367.8</ele><time>2026-05-02T15:19:11.498Z</time></trkpt><trkpt lat="43.086372" lon="11.583088"><ele>364.20000000000005</ele><time>2026-05-02T15:19:12.52Z</time></trkpt><trkpt lat="43.0864433" lon="11.583164"><ele>360.6</ele><time>2026-05-02T15:19:13.539Z</time></trkpt><trkpt lat="43.0865142" lon="11.5832293"><ele>357.0</ele><time>2026-05-02T15:19:14.542Z</time></trkpt><trkpt lat="43.0865869" lon="11.5832994"><ele>355.40000000000003</ele><time>2026-05-02T15:19:15.525Z</time></trkpt><trkpt lat="43.0866714" lon="11.5833701"><ele>353.8</ele><time>2026-05-02T15:19:16.544Z</time></trkpt><trkpt lat="43.0867618" lon="11.5834524"><ele>352.2</ele><time>2026-05-02T15:19:17.555Z</time></trkpt><trkpt lat="43.0868576" lon="11.5835236"><ele>350.6</ele><time>2026-05-02T15:19:18.624Z</time></trkpt><trkpt lat="43.0869591" lon="11.5836011"><ele>349.0</ele><time>2026-05-02T15:19:19.495Z</time></trkpt><trkpt lat="43.0870609" lon="11.5836862"><ele>349.0</ele><time>2026-05-02T15:19:20.52Z</time></trkpt><trkpt lat="43.0871713" lon="11.5837689"><ele>349.0</ele><time>2026-05-02T15:19:21.515Z</time></trkpt><trkpt lat="43.0872865" lon="11.5838655"><ele>349.0</ele><time>2026-05-02T15:19:22.507Z</time></trkpt><trkpt lat="43.0874046" lon="11.5839617"><ele>349.0</ele><time>2026-05-02T15:19:23.516Z</time></trkpt><trkpt lat="43.087528" lon="11.5840605"><ele>350.5</ele><time>2026-05-02T15:19:24.528Z</time></trkpt><trkpt lat="43.0876569" lon="11.5841566"><ele>352.0</ele><time>2026-05-02T15:19:25.551Z</time></trkpt><trkpt lat="43.0877851" lon="11.5842556"><ele>353.5</ele><time>2026-05-02T15:19:26.565Z</time></trkpt><trkpt lat="43.0878967" lon="11.5843484"><ele>355.0</ele><time>2026-05-02T15:19:27.598Z</time></trkpt><trkpt lat="43.0880084" lon="11.5844397"><ele>356.25</ele><time>2026-05-02T15:19:28.598Z</time></trkpt><trkpt lat="43.0881073" lon="11.5845165"><ele>357.5</ele><time>2026-05-02T15:19:29.512Z</time></trkpt><trkpt lat="43.0882097" lon="11.5845864"><ele>358.75</ele><time>2026-05-02T15:19:30.504Z</time></trkpt><trkpt lat="43.0883151" lon="11.5846609"><ele>360.0</ele><time>2026-05-02T15:19:31.514Z</time></trkpt><trkpt lat="43.0884271" lon="11.5847331"><ele>360.0</ele><time>2026-05-02T15:19:32.537Z</time></trkpt><trkpt lat="43.0885407" lon="11.5847997"><ele>360.0</ele><time>2026-05-02T15:19:33.532Z</time></trkpt><trkpt lat="43.0886587" lon="11.5848688"><ele>360.0</ele><time>2026-05-02T15:19:34.508Z</time></trkpt><trkpt lat="43.0887802" lon="11.5849533"><ele>360.0</ele><time>2026-05-02T15:19:35.529Z</time></trkpt><trkpt lat="43.0889038" lon="11.5850528"><ele>360.0</ele><time>2026-05-02T15:19:36.555Z</time></trkpt><trkpt lat="43.0890307" lon="11.5851742"><ele>360.0</ele><time>2026-05-02T15:19:37.561Z</time></trkpt><trkpt lat="43.0891504" lon="11.585284"><ele>360.0</ele><time>2026-05-02T15:19:38.564Z</time></trkpt><trkpt lat="43.089256" lon="11.5853787"><ele>360.0</ele><time>2026-05-02T15:19:39.508Z</time></trkpt><trkpt lat="43.0893384" lon="11.5854601"><ele>362.0</ele><time>2026-05-02T15:19:40.528Z</time></trkpt><trkpt lat="43.0894188" lon="11.5855194"><ele>364.0</ele><time>2026-05-02T15:19:41.565Z</time></trkpt><trkpt lat="43.0895033" lon="11.5855765"><ele>366.0</ele><time>2026-05-02T15:19:42.59Z</time></trkpt><trkpt lat="43.0896002" lon="11.5856381"><ele>368.0</ele><time>2026-05-02T15:19:43.598Z</time></trkpt><trkpt lat="43.0896966" lon="11.5857124"><ele>370.0</ele><time>2026-05-02T15:19:44.511Z</time></trkpt><trkpt lat="43.0897891" lon="11.5857938"><ele>370.0</ele><time>2026-05-02T15:19:45.513Z</time></trkpt><trkpt lat="43.0898876" lon="11.5858833"><ele>370.0</ele><time>2026-05-02T15:19:46.519Z</time></trkpt><trkpt lat="43.0899846" lon="11.5859807"><ele>370.0</ele><time>2026-05-02T15:19:47.519Z</time></trkpt><trkpt lat="43.0900775" lon="11.5860774"><ele>370.0</ele><time>2026-05-02T15:19:48.533Z</time></trkpt><trkpt lat="43.0901662" lon="11.5861802"><ele>372.0</ele><time>2026-05-02T15:19:49.584Z</time></trkpt><trkpt lat="43.0902507" lon="11.5862973"><ele>374.0</ele><time>2026-05-02T15:19:50.614Z</time></trkpt><trkpt lat="43.0903275" lon="11.5864399"><ele>376.0</ele><time>2026-05-02T15:19:51.669Z</time></trkpt><trkpt lat="43.0904044" lon="11.5866084"><ele>378.0</ele><time>2026-05-02T15:19:52.678Z</time></trkpt><trkpt lat="43.0905617" lon="11.5869798"><ele>379.5</ele><time>2026-05-02T15:19:54.502Z</time></trkpt><trkpt lat="43.0906458" lon="11.587149"><ele>381.0</ele><time>2026-05-02T15:19:55.503Z</time></trkpt><trkpt lat="43.0907218" lon="11.5872994"><ele>382.5</ele><time>2026-05-02T15:19:56.504Z</time></trkpt><trkpt lat="43.0907777" lon="11.5874284"><ele>384.0</ele><time>2026-05-02T15:19:57.507Z</time></trkpt><trkpt lat="43.090825" lon="11.5875331"><ele>381.6666666666667</ele><time>2026-05-02T15:19:58.525Z</time></trkpt><trkpt lat="43.0908801" lon="11.5876288"><ele>379.3333333333333</ele><time>2026-05-02T15:19:59.516Z</time></trkpt><trkpt lat="43.0909355" lon="11.5877045"><ele>377.0</ele><time>2026-05-02T15:20:00.524Z</time></trkpt><trkpt lat="43.0910002" lon="11.5877827"><ele>374.66666666666663</ele><time>2026-05-02T15:20:01.56Z</time></trkpt><trkpt lat="43.0910743" lon="11.5878598"><ele>372.3333333333333</ele><time>2026-05-02T15:20:02.617Z</time></trkpt><trkpt lat="43.0911591" lon="11.5879278"><ele>370.0</ele><time>2026-05-02T15:20:03.669Z</time></trkpt><trkpt lat="43.0913636" lon="11.5880294"><ele>370.0</ele><time>2026-05-02T15:20:05.532Z</time></trkpt><trkpt lat="43.0914737" lon="11.5880814"><ele>370.0</ele><time>2026-05-02T15:20:06.548Z</time></trkpt><trkpt lat="43.0915865" lon="11.5881362"><ele>370.0</ele><time>2026-05-02T15:20:07.52Z</time></trkpt><trkpt lat="43.0916962" lon="11.5881956"><ele>370.0</ele><time>2026-05-02T15:20:08.54Z</time></trkpt><trkpt lat="43.0917996" lon="11.58826"><ele>369.2</ele><time>2026-05-02T15:20:09.558Z</time></trkpt><trkpt lat="43.0918999" lon="11.5883295"><ele>368.4</ele><time>2026-05-02T15:20:10.556Z</time></trkpt><trkpt lat="43.0919997" lon="11.5883885"><ele>367.6</ele><time>2026-05-02T15:20:11.501Z</time></trkpt><trkpt lat="43.0921001" lon="11.5884403"><ele>366.8</ele><time>2026-05-02T15:20:12.516Z</time></trkpt><trkpt lat="43.092201" lon="11.5884991"><ele>366.0</ele><time>2026-05-02T15:20:13.508Z</time></trkpt><trkpt lat="43.0923035" lon="11.5885622"><ele>366.0</ele><time>2026-05-02T15:20:14.515Z</time></trkpt><trkpt lat="43.0924077" lon="11.5886249"><ele>366.0</ele><time>2026-05-02T15:20:15.544Z</time></trkpt><trkpt lat="43.0925088" lon="11.5886887"><ele>366.0</ele><time>2026-05-02T15:20:16.514Z</time></trkpt><trkpt lat="43.092607" lon="11.5887553"><ele>366.0</ele><time>2026-05-02T15:20:17.532Z</time></trkpt><trkpt lat="43.092693" lon="11.5888326"><ele>366.0</ele><time>2026-05-02T15:20:18.538Z</time></trkpt><trkpt lat="43.0927746" lon="11.5889198"><ele>364.4</ele><time>2026-05-02T15:20:19.579Z</time></trkpt><trkpt lat="43.0928542" lon="11.5890152"><ele>362.8</ele><time>2026-05-02T15:20:20.582Z</time></trkpt><trkpt lat="43.0929291" lon="11.5891145"><ele>361.2</ele><time>2026-05-02T15:20:21.594Z</time></trkpt><trkpt lat="43.0930039" lon="11.5892194"><ele>359.59999999999997</ele><time>2026-05-02T15:20:22.628Z</time></trkpt><trkpt lat="43.0930764" lon="11.5893242"><ele>358.0</ele><time>2026-05-02T15:20:23.64Z</time></trkpt><trkpt lat="43.0931525" lon="11.5894405"><ele>356.2</ele><time>2026-05-02T15:20:24.701Z</time></trkpt><trkpt lat="43.0932218" lon="11.5895607"><ele>354.4</ele><time>2026-05-02T15:20:25.803Z</time></trkpt><trkpt lat="43.0932782" lon="11.5896804"><ele>352.59999999999997</ele><time>2026-05-02T15:20:26.894Z</time></trkpt><trkpt lat="43.0933265" lon="11.5898009"><ele>350.79999999999995</ele><time>2026-05-02T15:20:27.975Z</time></trkpt><trkpt lat="43.0933733" lon="11.5899138"><ele>349.0</ele><time>2026-05-02T15:20:28.947Z</time></trkpt><trkpt lat="43.0934658" lon="11.590123"><ele>348.79999999999995</ele><time>2026-05-02T15:20:30.517Z</time></trkpt><trkpt lat="43.0935151" lon="11.5902259"><ele>348.59999999999997</ele><time>2026-05-02T15:20:31.525Z</time></trkpt><trkpt lat="43.0935721" lon="11.5903241"><ele>348.4</ele><time>2026-05-02T15:20:32.529Z</time></trkpt><trkpt lat="43.0936346" lon="11.5904106"><ele>348.2</ele><time>2026-05-02T15:20:33.503Z</time></trkpt><trkpt lat="43.0937044" lon="11.5904929"><ele>348.0</ele><time>2026-05-02T15:20:34.536Z</time></trkpt><trkpt lat="43.0937846" lon="11.5905649"><ele>348.59999999999997</ele><time>2026-05-02T15:20:35.57Z</time></trkpt><trkpt lat="43.093874" lon="11.5906341"><ele>349.2</ele><time>2026-05-02T15:20:36.581Z</time></trkpt><trkpt lat="43.0939651" lon="11.5907099"><ele>349.8</ele><time>2026-05-02T15:20:37.497Z</time></trkpt><trkpt lat="43.094057" lon="11.5907898"><ele>350.4</ele><time>2026-05-02T15:20:38.52Z</time></trkpt><trkpt lat="43.0941409" lon="11.5908701"><ele>351.0</ele><time>2026-05-02T15:20:39.521Z</time></trkpt><trkpt lat="43.0942224" lon="11.5909455"><ele>351.0</ele><time>2026-05-02T15:20:40.565Z</time></trkpt><trkpt lat="43.0943003" lon="11.5910249"><ele>351.0</ele><time>2026-05-02T15:20:41.595Z</time></trkpt><trkpt lat="43.0943707" lon="11.5911071"><ele>351.0</ele><time>2026-05-02T15:20:42.676Z</time></trkpt><trkpt lat="43.0944349" lon="11.591205"><ele>351.0</ele><time>2026-05-02T15:20:43.85Z</time></trkpt><trkpt lat="43.094491" lon="11.5913221"><ele>351.0</ele><time>2026-05-02T15:20:45.122Z</time></trkpt><trkpt lat="43.0945319" lon="11.5914528"><ele>346.3333333333333</ele><time>2026-05-02T15:20:46.621Z</time></trkpt><trkpt lat="43.0946184" lon="11.591741"><ele>341.66666666666663</ele><time>2026-05-02T15:20:47.885Z</time></trkpt><trkpt lat="43.0946736" lon="11.5919306"><ele>337.0</ele><time>2026-05-02T15:20:48.934Z</time></trkpt><trkpt lat="43.094736" lon="11.592118"><ele>334.0</ele><time>2026-05-02T15:20:49.958Z</time></trkpt><trkpt lat="43.0949046" lon="11.5925197"><ele>331.0</ele><time>2026-05-02T15:20:51.516Z</time></trkpt><trkpt lat="43.0949784" lon="11.5927358"><ele>335.0</ele><time>2026-05-02T15:20:52.499Z</time></trkpt><trkpt lat="43.0950683" lon="11.5929362"><ele>339.0</ele><time>2026-05-02T15:20:53.497Z</time></trkpt><trkpt lat="43.0951515" lon="11.5931455"><ele>343.0</ele><time>2026-05-02T15:20:54.504Z</time></trkpt><trkpt lat="43.0952327" lon="11.5933441"><ele>343.0</ele><time>2026-05-02T15:20:55.498Z</time></trkpt><trkpt lat="43.0953027" lon="11.593528"><ele>343.0</ele><time>2026-05-02T15:20:56.519Z</time></trkpt><trkpt lat="43.0953802" lon="11.5937083"><ele>343.0</ele><time>2026-05-02T15:20:57.533Z</time></trkpt><trkpt lat="43.0954494" lon="11.5938914"><ele>340.75</ele><time>2026-05-02T15:20:58.5Z</time></trkpt><trkpt lat="43.0955104" lon="11.5940583"><ele>338.5</ele><time>2026-05-02T15:20:59.5Z</time></trkpt><trkpt lat="43.0955707" lon="11.5942177"><ele>336.25</ele><time>2026-05-02T15:21:00.511Z</time></trkpt><trkpt lat="43.0956321" lon="11.594353"><ele>334.0</ele><time>2026-05-02T15:21:01.511Z</time></trkpt><trkpt lat="43.0956903" lon="11.5944731"><ele>332.6</ele><time>2026-05-02T15:21:02.539Z</time></trkpt><trkpt lat="43.0957479" lon="11.5946033"><ele>331.2</ele><time>2026-05-02T15:21:03.565Z</time></trkpt><trkpt lat="43.0958025" lon="11.5947288"><ele>329.8</ele><time>2026-05-02T15:21:04.591Z</time></trkpt><trkpt lat="43.0958602" lon="11.5948333"><ele>328.40000000000003</ele><time>2026-05-02T15:21:05.62Z</time></trkpt><trkpt lat="43.0959342" lon="11.5949234"><ele>327.0</ele><time>2026-05-02T15:21:06.692Z</time></trkpt><trkpt lat="43.0960192" lon="11.5950001"><ele>333.3333333333333</ele><time>2026-05-02T15:21:08.054Z</time></trkpt><trkpt lat="43.0962292" lon="11.5951283"><ele>339.66666666666663</ele><time>2026-05-02T15:21:09.551Z</time></trkpt><trkpt lat="43.0963183" lon="11.5952229"><ele>346.0</ele><time>2026-05-02T15:21:10.553Z</time></trkpt><trkpt lat="43.0963912" lon="11.5953423"><ele>346.0</ele><time>2026-05-02T15:21:11.594Z</time></trkpt><trkpt lat="43.0964569" lon="11.5954919"><ele>346.0</ele><time>2026-05-02T15:21:12.635Z</time></trkpt><trkpt lat="43.0965118" lon="11.5956432"><ele>346.0</ele><time>2026-05-02T15:21:13.666Z</time></trkpt><trkpt lat="43.0965597" lon="11.5957996"><ele>346.0</ele><time>2026-05-02T15:21:14.636Z</time></trkpt><trkpt lat="43.0966038" lon="11.5959706"><ele>349.66666666666663</ele><time>2026-05-02T15:21:15.74Z</time></trkpt><trkpt lat="43.0966785" lon="11.5963798"><ele>353.3333333333333</ele><time>2026-05-02T15:21:17.509Z</time></trkpt><trkpt lat="43.0967171" lon="11.5965564"><ele>357.0</ele><time>2026-05-02T15:21:18.521Z</time></trkpt><trkpt lat="43.0967504" lon="11.5967093"><ele>357.0</ele><time>2026-05-02T15:21:19.51Z</time></trkpt><trkpt lat="43.0967749" lon="11.5968632"><ele>357.0</ele><time>2026-05-02T15:21:20.52Z</time></trkpt><trkpt lat="43.0968067" lon="11.5969984"><ele>357.0</ele><time>2026-05-02T15:21:21.516Z</time></trkpt><trkpt lat="43.0968383" lon="11.5971205"><ele>357.0</ele><time>2026-05-02T15:21:22.593Z</time></trkpt><trkpt lat="43.0968823" lon="11.597223"><ele>357.0</ele><time>2026-05-02T15:21:23.628Z</time></trkpt><trkpt lat="43.096935" lon="11.5973024"><ele>358.5</ele><time>2026-05-02T15:21:24.79Z</time></trkpt><trkpt lat="43.096995" lon="11.5973589"><ele>360.0</ele><time>2026-05-02T15:21:26.484Z</time></trkpt><trkpt lat="43.097135" lon="11.5974571"><ele>361.5</ele><time>2026-05-02T15:21:27.531Z</time></trkpt><trkpt lat="43.0972341" lon="11.5975143"><ele>363.0</ele><time>2026-05-02T15:21:28.583Z</time></trkpt><trkpt lat="43.0973366" lon="11.5976071"><ele>361.6666666666667</ele><time>2026-05-02T15:21:29.636Z</time></trkpt><trkpt lat="43.097444" lon="11.5977315"><ele>360.33333333333337</ele><time>2026-05-02T15:21:30.655Z</time></trkpt><trkpt lat="43.0975558" lon="11.5978829"><ele>359.0</ele><time>2026-05-02T15:21:31.654Z</time></trkpt><trkpt lat="43.0977782" lon="11.5981926"><ele>361.0</ele><time>2026-05-02T15:21:33.514Z</time></trkpt><trkpt lat="43.0978642" lon="11.5983337"><ele>363.0</ele><time>2026-05-02T15:21:34.538Z</time></trkpt><trkpt lat="43.0979395" lon="11.5984306"><ele>365.0</ele><time>2026-05-02T15:21:35.56Z</time></trkpt><trkpt lat="43.0979978" lon="11.598525"><ele>367.0</ele><time>2026-05-02T15:21:36.592Z</time></trkpt><trkpt lat="43.0980588" lon="11.5985873"><ele>369.0</ele><time>2026-05-02T15:21:37.659Z</time></trkpt><trkpt lat="43.0981298" lon="11.5986176"><ele>369.0</ele><time>2026-05-02T15:21:38.813Z</time></trkpt><trkpt lat="43.0982037" lon="11.5986297"><ele>369.0</ele><time>2026-05-02T15:21:40.477Z</time></trkpt><trkpt lat="43.0983635" lon="11.5985553"><ele>369.0</ele><time>2026-05-02T15:21:41.504Z</time></trkpt><trkpt lat="43.0984373" lon="11.5984757"><ele>369.0</ele><time>2026-05-02T15:21:42.545Z</time></trkpt><trkpt lat="43.0985001" lon="11.5983899"><ele>369.0</ele><time>2026-05-02T15:21:43.617Z</time></trkpt><trkpt lat="43.0985516" lon="11.5982825"><ele>368.5</ele><time>2026-05-02T15:21:44.701Z</time></trkpt><trkpt lat="43.0985931" lon="11.5981564"><ele>368.0</ele><time>2026-05-02T15:21:45.882Z</time></trkpt><trkpt lat="43.0986267" lon="11.5979949"><ele>367.5</ele><time>2026-05-02T15:21:46.981Z</time></trkpt><trkpt lat="43.0986594" lon="11.5978162"><ele>367.0</ele><time>2026-05-02T15:21:48.135Z</time></trkpt><trkpt lat="43.0986961" lon="11.5976578"><ele>365.75</ele><time>2026-05-02T15:21:49.154Z</time></trkpt><trkpt lat="43.0987697" lon="11.5974176"><ele>364.5</ele><time>2026-05-02T15:21:51.477Z</time></trkpt><trkpt lat="43.098846" lon="11.5972868"><ele>363.25</ele><time>2026-05-02T15:21:53.316Z</time></trkpt><trkpt lat="43.0989357" lon="11.5972964"><ele>362.0</ele><time>2026-05-02T15:21:55.566Z</time></trkpt><trkpt lat="43.0990682" lon="11.5973893"><ele>361.0</ele><time>2026-05-02T15:21:56.512Z</time></trkpt><trkpt lat="43.0991604" lon="11.5974938"><ele>360.0</ele><time>2026-05-02T15:21:57.523Z</time></trkpt><trkpt lat="43.0992646" lon="11.5976215"><ele>359.0</ele><time>2026-05-02T15:21:58.569Z</time></trkpt><trkpt lat="43.0993686" lon="11.5977742"><ele>358.0</ele><time>2026-05-02T15:21:59.612Z</time></trkpt><trkpt lat="43.0994652" lon="11.5979247"><ele>360.66666666666663</ele><time>2026-05-02T15:22:00.666Z</time></trkpt><trkpt lat="43.0996316" lon="11.5982132"><ele>363.3333333333333</ele><time>2026-05-02T15:22:02.517Z</time></trkpt><trkpt lat="43.0997086" lon="11.5983513"><ele>366.0</ele><time>2026-05-02T15:22:03.514Z</time></trkpt><trkpt lat="43.0997853" lon="11.5984836"><ele>366.0</ele><time>2026-05-02T15:22:04.507Z</time></trkpt><trkpt lat="43.0998579" lon="11.5986178"><ele>366.0</ele><time>2026-05-02T15:22:05.521Z</time></trkpt><trkpt lat="43.0999281" lon="11.5987509"><ele>366.0</ele><time>2026-05-02T15:22:06.519Z</time></trkpt><trkpt lat="43.0999953" lon="11.598879"><ele>366.0</ele><time>2026-05-02T15:22:07.508Z</time></trkpt><trkpt lat="43.1000633" lon="11.5989907"><ele>363.6</ele><time>2026-05-02T15:22:08.53Z</time></trkpt><trkpt lat="43.1001312" lon="11.5990917"><ele>361.20000000000005</ele><time>2026-05-02T15:22:09.524Z</time></trkpt><trkpt lat="43.100207" lon="11.5991782"><ele>358.79999999999995</ele><time>2026-05-02T15:22:10.552Z</time></trkpt><trkpt lat="43.1002897" lon="11.599254"><ele>356.4</ele><time>2026-05-02T15:22:11.612Z</time></trkpt><trkpt lat="43.1003872" lon="11.5993055"><ele>354.0</ele><time>2026-05-02T15:22:12.674Z</time></trkpt><trkpt lat="43.1005003" lon="11.5993306"><ele>354.0</ele><time>2026-05-02T15:22:13.725Z</time></trkpt><trkpt lat="43.1006227" lon="11.5993405"><ele>354.0</ele><time>2026-05-02T15:22:14.827Z</time></trkpt><trkpt lat="43.1007489" lon="11.5993365"><ele>354.0</ele><time>2026-05-02T15:22:16.011Z</time></trkpt><trkpt lat="43.100878" lon="11.5993175"><ele>354.0</ele><time>2026-05-02T15:22:17.854Z</time></trkpt><trkpt lat="43.1012727" lon="11.5992306"><ele>352.75</ele><time>2026-05-02T15:22:19.52Z</time></trkpt><trkpt lat="43.1013939" lon="11.5992478"><ele>351.5</ele><time>2026-05-02T15:22:20.555Z</time></trkpt><trkpt lat="43.101513" lon="11.5992882"><ele>350.25</ele><time>2026-05-02T15:22:21.653Z</time></trkpt><trkpt lat="43.1016293" lon="11.5993636"><ele>349.0</ele><time>2026-05-02T15:22:22.672Z</time></trkpt><trkpt lat="43.1017355" lon="11.5994658"><ele>349.75</ele><time>2026-05-02T15:22:23.678Z</time></trkpt><trkpt lat="43.1018297" lon="11.5995699"><ele>350.5</ele><time>2026-05-02T15:22:24.938Z</time></trkpt><trkpt lat="43.1019172" lon="11.5996819"><ele>351.25</ele><time>2026-05-02T15:22:26.151Z</time></trkpt><trkpt lat="43.1019951" lon="11.5998087"><ele>352.0</ele><time>2026-05-02T15:22:27.396Z</time></trkpt><trkpt lat="43.1021405" lon="11.600102"><ele>352.0</ele><time>2026-05-02T15:22:28.507Z</time></trkpt><trkpt lat="43.1022012" lon="11.6002859"><ele>352.0</ele><time>2026-05-02T15:22:29.527Z</time></trkpt><trkpt lat="43.1022687" lon="11.6004642"><ele>352.0</ele><time>2026-05-02T15:22:30.518Z</time></trkpt><trkpt lat="43.1023202" lon="11.6006324"><ele>352.0</ele><time>2026-05-02T15:22:31.505Z</time></trkpt><trkpt lat="43.1023689" lon="11.6007588"><ele>350.5</ele><time>2026-05-02T15:22:32.528Z</time></trkpt><trkpt lat="43.1024109" lon="11.6008622"><ele>349.0</ele><time>2026-05-02T15:22:33.572Z</time></trkpt><trkpt lat="43.1024541" lon="11.600951"><ele>347.5</ele><time>2026-05-02T15:22:34.6Z</time></trkpt><trkpt lat="43.1025138" lon="11.6010235"><ele>346.0</ele><time>2026-05-02T15:22:35.669Z</time></trkpt><trkpt lat="43.1025857" lon="11.6010779"><ele>344.5</ele><time>2026-05-02T15:22:36.722Z</time></trkpt><trkpt lat="43.1026517" lon="11.6011151"><ele>343.0</ele><time>2026-05-02T15:22:37.862Z</time></trkpt><trkpt lat="43.1027183" lon="11.6011326"><ele>347.75</ele><time>2026-05-02T15:22:39.267Z</time></trkpt><trkpt lat="43.1028495" lon="11.6010868"><ele>352.5</ele><time>2026-05-02T15:22:40.531Z</time></trkpt><trkpt lat="43.1029337" lon="11.6009691"><ele>357.25</ele><time>2026-05-02T15:22:41.596Z</time></trkpt><trkpt lat="43.1030219" lon="11.6008402"><ele>362.0</ele><time>2026-05-02T15:22:42.725Z</time></trkpt><trkpt lat="43.1031154" lon="11.6007047"><ele>362.0</ele><time>2026-05-02T15:22:43.759Z</time></trkpt><trkpt lat="43.103205" lon="11.6005891"><ele>362.0</ele><time>2026-05-02T15:22:44.879Z</time></trkpt><trkpt lat="43.1032877" lon="11.600507"><ele>362.0</ele><time>2026-05-02T15:22:46.029Z</time></trkpt><trkpt lat="43.1033748" lon="11.6004634"><ele>362.0</ele><time>2026-05-02T15:22:48.162Z</time></trkpt><trkpt lat="43.1037294" lon="11.6004765"><ele>362.5</ele><time>2026-05-02T15:22:50.124Z</time></trkpt><trkpt lat="43.1040612" lon="11.6005426"><ele>363.0</ele><time>2026-05-02T15:22:51.636Z</time></trkpt><trkpt lat="43.1044152" lon="11.6006245"><ele>363.6666666666667</ele><time>2026-05-02T15:22:53.508Z</time></trkpt><trkpt lat="43.1045853" lon="11.6006533"><ele>364.33333333333337</ele><time>2026-05-02T15:22:54.539Z</time></trkpt><trkpt lat="43.1047406" lon="11.6006834"><ele>365.0</ele><time>2026-05-02T15:22:55.514Z</time></trkpt><trkpt lat="43.1048803" lon="11.6007149"><ele>365.5</ele><time>2026-05-02T15:22:56.521Z</time></trkpt><trkpt lat="43.1050198" lon="11.6007474"><ele>366.0</ele><time>2026-05-02T15:22:57.546Z</time></trkpt><trkpt lat="43.1051484" lon="11.6007677"><ele>366.5</ele><time>2026-05-02T15:22:58.552Z</time></trkpt><trkpt lat="43.1052649" lon="11.6007781"><ele>367.0</ele><time>2026-05-02T15:22:59.553Z</time></trkpt><trkpt lat="43.1053691" lon="11.6007731"><ele>367.0</ele><time>2026-05-02T15:23:00.621Z</time></trkpt><trkpt lat="43.1054697" lon="11.6007475"><ele>367.0</ele><time>2026-05-02T15:23:01.695Z</time></trkpt><trkpt lat="43.1055684" lon="11.6007077"><ele>367.0</ele><time>2026-05-02T15:23:02.621Z</time></trkpt><trkpt lat="43.1056701" lon="11.6006669"><ele>367.0</ele><time>2026-05-02T15:23:03.521Z</time></trkpt><trkpt lat="43.105772" lon="11.6006138"><ele>367.0</ele><time>2026-05-02T15:23:04.538Z</time></trkpt><trkpt lat="43.1058812" lon="11.6005503"><ele>367.16666666666663</ele><time>2026-05-02T15:23:05.558Z</time></trkpt><trkpt lat="43.1059831" lon="11.6004777"><ele>367.3333333333333</ele><time>2026-05-02T15:23:06.601Z</time></trkpt><trkpt lat="43.1060707" lon="11.6004084"><ele>367.5</ele><time>2026-05-02T15:23:07.66Z</time></trkpt><trkpt lat="43.1061413" lon="11.6003526"><ele>367.6666666666667</ele><time>2026-05-02T15:23:08.708Z</time></trkpt><trkpt lat="43.1062039" lon="11.6003179"><ele>367.83333333333337</ele><time>2026-05-02T15:23:09.791Z</time></trkpt><trkpt lat="43.1062731" lon="11.6003065"><ele>368.0</ele><time>2026-05-02T15:23:10.716Z</time></trkpt><trkpt lat="43.1063463" lon="11.600308"><ele>369.6666666666667</ele><time>2026-05-02T15:23:12.046Z</time></trkpt><trkpt lat="43.1065406" lon="11.6003894"><ele>371.3333333333333</ele><time>2026-05-02T15:23:13.77Z</time></trkpt><trkpt lat="43.1067592" lon="11.6005353"><ele>373.0</ele><time>2026-05-02T15:23:15.508Z</time></trkpt><trkpt lat="43.106881" lon="11.6006196"><ele>376.66666666666663</ele><time>2026-05-02T15:23:16.498Z</time></trkpt><trkpt lat="43.1070174" lon="11.6007132"><ele>380.3333333333333</ele><time>2026-05-02T15:23:17.512Z</time></trkpt><trkpt lat="43.107165" lon="11.6008186"><ele>384.0</ele><time>2026-05-02T15:23:18.516Z</time></trkpt><trkpt lat="43.1073151" lon="11.6009251"><ele>383.75</ele><time>2026-05-02T15:23:19.511Z</time></trkpt><trkpt lat="43.1074407" lon="11.601039"><ele>383.5</ele><time>2026-05-02T15:23:20.511Z</time></trkpt><trkpt lat="43.1075457" lon="11.6011189"><ele>383.25</ele><time>2026-05-02T15:23:21.515Z</time></trkpt><trkpt lat="43.1076344" lon="11.6011859"><ele>383.0</ele><time>2026-05-02T15:23:22.521Z</time></trkpt><trkpt lat="43.1077196" lon="11.6012498"><ele>384.6666666666667</ele><time>2026-05-02T15:23:23.507Z</time></trkpt><trkpt lat="43.1077943" lon="11.6013177"><ele>386.33333333333337</ele><time>2026-05-02T15:23:24.507Z</time></trkpt><trkpt lat="43.1078491" lon="11.6013693"><ele>388.0</ele><time>2026-05-02T15:23:25.516Z</time></trkpt><trkpt lat="43.1079173" lon="11.6014496"><ele>389.6666666666667</ele><time>2026-05-02T15:23:27.591Z</time></trkpt><trkpt lat="43.1079648" lon="11.6015411"><ele>391.3333333333333</ele><time>2026-05-02T15:23:29.779Z</time></trkpt><trkpt lat="43.1080441" lon="11.601547"><ele>393.0</ele><time>2026-05-02T15:23:32.539Z</time></trkpt><trkpt lat="43.1080013" lon="11.6014205"><ele>393.0</ele><time>2026-05-02T15:23:45.288Z</time></trkpt><trkpt lat="43.1079497" lon="11.6013324"><ele>393.0</ele><time>2026-05-02T15:23:46.533Z</time></trkpt><trkpt lat="43.107876" lon="11.6012592"><ele>393.0</ele><time>2026-05-02T15:23:48.68Z</time></trkpt><trkpt lat="43.1078417" lon="11.6013674"><ele>393.0</ele><time>2026-05-02T15:23:53.52Z</time></trkpt><trkpt lat="43.107917" lon="11.6015085"><ele>393.0</ele><time>2026-05-02T15:23:55.588Z</time></trkpt><trkpt lat="43.1080064" lon="11.6016024"><ele>393.0</ele><time>2026-05-02T15:23:57.587Z</time></trkpt><trkpt lat="43.1080753" lon="11.6016218"><ele>393.0</ele><time>2026-05-02T15:23:59.922Z</time></trkpt><trkpt lat="43.1081467" lon="11.6014946"><ele>393.0</ele><time>2026-05-02T15:24:02.561Z</time></trkpt><trkpt lat="43.1081771" lon="11.6014137"><ele>393.0</ele><time>2026-05-02T15:24:03.623Z</time></trkpt><trkpt lat="43.1082186" lon="11.6013307"><ele>393.0</ele><time>2026-05-02T15:24:04.684Z</time></trkpt><trkpt lat="43.1082785" lon="11.6012393"><ele>393.0</ele><time>2026-05-02T15:24:05.838Z</time></trkpt><trkpt lat="43.1083509" lon="11.6011421"><ele>390.25</ele><time>2026-05-02T15:24:06.88Z</time></trkpt><trkpt lat="43.1084322" lon="11.60105"><ele>387.5</ele><time>2026-05-02T15:24:07.82Z</time></trkpt><trkpt lat="43.1085129" lon="11.6009657"><ele>384.75</ele><time>2026-05-02T15:24:09.081Z</time></trkpt><trkpt lat="43.108594" lon="11.6008898"><ele>382.0</ele><time>2026-05-02T15:24:09.988Z</time></trkpt><trkpt lat="43.1087693" lon="11.6007553"><ele>382.0</ele><time>2026-05-02T15:24:11.618Z</time></trkpt><trkpt lat="43.1088551" lon="11.6006818"><ele>382.0</ele><time>2026-05-02T15:24:12.595Z</time></trkpt><trkpt lat="43.1089409" lon="11.6006047"><ele>382.0</ele><time>2026-05-02T15:24:13.519Z</time></trkpt><trkpt lat="43.1090308" lon="11.6005281"><ele>382.0</ele><time>2026-05-02T15:24:14.545Z</time></trkpt><trkpt lat="43.1091235" lon="11.6004375"><ele>382.0</ele><time>2026-05-02T15:24:15.6Z</time></trkpt><trkpt lat="43.1092136" lon="11.6003259"><ele>379.75</ele><time>2026-05-02T15:24:16.645Z</time></trkpt><trkpt lat="43.1093164" lon="11.6002059"><ele>377.5</ele><time>2026-05-02T15:24:17.686Z</time></trkpt><trkpt lat="43.1094235" lon="11.600095"><ele>375.25</ele><time>2026-05-02T15:24:18.648Z</time></trkpt><trkpt lat="43.1095283" lon="11.5999912"><ele>373.0</ele><time>2026-05-02T15:24:19.731Z</time></trkpt><trkpt lat="43.1097224" lon="11.5997914"><ele>373.0</ele><time>2026-05-02T15:24:21.514Z</time></trkpt><trkpt lat="43.1098143" lon="11.5997"><ele>373.0</ele><time>2026-05-02T15:24:22.534Z</time></trkpt><trkpt lat="43.1098971" lon="11.5996202"><ele>373.0</ele><time>2026-05-02T15:24:23.514Z</time></trkpt><trkpt lat="43.1099711" lon="11.5995439"><ele>373.0</ele><time>2026-05-02T15:24:24.529Z</time></trkpt><trkpt lat="43.1100349" lon="11.5994774"><ele>373.0</ele><time>2026-05-02T15:24:25.549Z</time></trkpt><trkpt lat="43.1100891" lon="11.5994193"><ele>372.59999999999997</ele><time>2026-05-02T15:24:26.628Z</time></trkpt><trkpt lat="43.110153" lon="11.5992919"><ele>372.2</ele><time>2026-05-02T15:24:28.999Z</time></trkpt><trkpt lat="43.110166" lon="11.5991076"><ele>371.8</ele><time>2026-05-02T15:24:30.61Z</time></trkpt><trkpt lat="43.1101425" lon="11.5989913"><ele>371.4</ele><time>2026-05-02T15:24:31.523Z</time></trkpt><trkpt lat="43.1101032" lon="11.5988539"><ele>371.0</ele><time>2026-05-02T15:24:32.553Z</time></trkpt><trkpt lat="43.1100515" lon="11.5987027"><ele>370.6</ele><time>2026-05-02T15:24:33.561Z</time></trkpt><trkpt lat="43.1100009" lon="11.598547"><ele>370.20000000000005</ele><time>2026-05-02T15:24:34.563Z</time></trkpt><trkpt lat="43.109958" lon="11.5984064"><ele>369.79999999999995</ele><time>2026-05-02T15:24:35.561Z</time></trkpt><trkpt lat="43.1099224" lon="11.5982739"><ele>369.4</ele><time>2026-05-02T15:24:36.529Z</time></trkpt><trkpt lat="43.1098875" lon="11.5981501"><ele>369.0</ele><time>2026-05-02T15:24:37.528Z</time></trkpt><trkpt lat="43.1098548" lon="11.598029"><ele>366.6666666666667</ele><time>2026-05-02T15:24:38.524Z</time></trkpt><trkpt lat="43.1098209" lon="11.5979155"><ele>364.3333333333333</ele><time>2026-05-02T15:24:39.596Z</time></trkpt><trkpt lat="43.1097888" lon="11.5978004"><ele>362.0</ele><time>2026-05-02T15:24:40.613Z</time></trkpt><trkpt lat="43.1097527" lon="11.5976918"><ele>359.66666666666663</ele><time>2026-05-02T15:24:41.623Z</time></trkpt><trkpt lat="43.1097152" lon="11.5975837"><ele>357.3333333333333</ele><time>2026-05-02T15:24:42.774Z</time></trkpt><trkpt lat="43.1096768" lon="11.5974702"><ele>355.0</ele><time>2026-05-02T15:24:43.866Z</time></trkpt><trkpt lat="43.1096463" lon="11.5973481"><ele>355.0</ele><time>2026-05-02T15:24:45.044Z</time></trkpt><trkpt lat="43.1096198" lon="11.5972136"><ele>355.0</ele><time>2026-05-02T15:24:46.038Z</time></trkpt><trkpt lat="43.109583" lon="11.5969275"><ele>355.0</ele><time>2026-05-02T15:24:47.77Z</time></trkpt><trkpt lat="43.1095667" lon="11.5967828"><ele>355.0</ele><time>2026-05-02T15:24:48.706Z</time></trkpt><trkpt lat="43.1095524" lon="11.5966381"><ele>356.25</ele><time>2026-05-02T15:24:49.672Z</time></trkpt><trkpt lat="43.1095402" lon="11.5964976"><ele>357.5</ele><time>2026-05-02T15:24:50.791Z</time></trkpt><trkpt lat="43.1095299" lon="11.5963566"><ele>358.75</ele><time>2026-05-02T15:24:51.972Z</time></trkpt><trkpt lat="43.1095262" lon="11.5962298"><ele>360.0</ele><time>2026-05-02T15:24:52.925Z</time></trkpt><trkpt lat="43.1095321" lon="11.5959979"><ele>361.5</ele><time>2026-05-02T15:24:54.865Z</time></trkpt><trkpt lat="43.1095503" lon="11.5957414"><ele>363.0</ele><time>2026-05-02T15:24:56.557Z</time></trkpt><trkpt lat="43.1095608" lon="11.5956081"><ele>364.5</ele><time>2026-05-02T15:24:57.647Z</time></trkpt><trkpt lat="43.1095753" lon="11.5954781"><ele>366.0</ele><time>2026-05-02T15:24:58.721Z</time></trkpt><trkpt lat="43.1095784" lon="11.5953462"><ele>366.20000000000005</ele><time>2026-05-02T15:25:00.131Z</time></trkpt><trkpt lat="43.1095704" lon="11.5952332"><ele>366.40000000000003</ele><time>2026-05-02T15:25:01.332Z</time></trkpt><trkpt lat="43.1095274" lon="11.5950191"><ele>366.6</ele><time>2026-05-02T15:25:02.512Z</time></trkpt><trkpt lat="43.1094703" lon="11.594938"><ele>366.8</ele><time>2026-05-02T15:25:03.564Z</time></trkpt><trkpt lat="43.1094235" lon="11.5948609"><ele>367.0</ele><time>2026-05-02T15:25:04.62Z</time></trkpt><trkpt lat="43.1093839" lon="11.5947822"><ele>367.0</ele><time>2026-05-02T15:25:05.652Z</time></trkpt><trkpt lat="43.1093586" lon="11.5946855"><ele>367.0</ele><time>2026-05-02T15:25:06.737Z</time></trkpt><trkpt lat="43.1093373" lon="11.5945778"><ele>367.0</ele><time>2026-05-02T15:25:07.807Z</time></trkpt><trkpt lat="43.109316" lon="11.5944616"><ele>367.0</ele><time>2026-05-02T15:25:09.319Z</time></trkpt><trkpt lat="43.1092706" lon="11.5942305"><ele>367.0</ele><time>2026-05-02T15:25:11.05Z</time></trkpt><trkpt lat="43.1091824" lon="11.5940045"><ele>365.75</ele><time>2026-05-02T15:25:13.023Z</time></trkpt><trkpt lat="43.109122" lon="11.5938827"><ele>364.5</ele><time>2026-05-02T15:25:13.962Z</time></trkpt><trkpt lat="43.1090705" lon="11.5937741"><ele>363.25</ele><time>2026-05-02T15:25:15.015Z</time></trkpt><trkpt lat="43.1089851" lon="11.5935715"><ele>362.0</ele><time>2026-05-02T15:25:16.916Z</time></trkpt><trkpt lat="43.1089415" lon="11.5934636"><ele>357.25</ele><time>2026-05-02T15:25:18.058Z</time></trkpt><trkpt lat="43.1088631" lon="11.5932177"><ele>352.5</ele><time>2026-05-02T15:25:19.899Z</time></trkpt><trkpt lat="43.1088357" lon="11.5930946"><ele>347.75</ele><time>2026-05-02T15:25:21.13Z</time></trkpt><trkpt lat="43.1088013" lon="11.592974"><ele>343.0</ele><time>2026-05-02T15:25:22.161Z</time></trkpt><trkpt lat="43.1087537" lon="11.592855"><ele>345.5</ele><time>2026-05-02T15:25:23.161Z</time></trkpt><trkpt lat="43.1086486" lon="11.5926119"><ele>348.0</ele><time>2026-05-02T15:25:24.667Z</time></trkpt><trkpt lat="43.1086068" lon="11.5924895"><ele>350.5</ele><time>2026-05-02T15:25:25.736Z</time></trkpt><trkpt lat="43.1085706" lon="11.5923599"><ele>353.0</ele><time>2026-05-02T15:25:26.683Z</time></trkpt><trkpt lat="43.1085318" lon="11.5922341"><ele>353.0</ele><time>2026-05-02T15:25:27.676Z</time></trkpt><trkpt lat="43.1084915" lon="11.5921179"><ele>353.0</ele><time>2026-05-02T15:25:28.698Z</time></trkpt><trkpt lat="43.1084535" lon="11.5919993"><ele>353.0</ele><time>2026-05-02T15:25:29.987Z</time></trkpt><trkpt lat="43.1083997" lon="11.5917618"><ele>353.0</ele><time>2026-05-02T15:25:31.842Z</time></trkpt><trkpt lat="43.1083532" lon="11.5915103"><ele>353.5</ele><time>2026-05-02T15:25:33.564Z</time></trkpt><trkpt lat="43.1083257" lon="11.5913856"><ele>354.0</ele><time>2026-05-02T15:25:34.509Z</time></trkpt><trkpt lat="43.1082994" lon="11.5912694"><ele>354.5</ele><time>2026-05-02T15:25:35.542Z</time></trkpt><trkpt lat="43.1082751" lon="11.5911654"><ele>355.0</ele><time>2026-05-02T15:25:36.582Z</time></trkpt><trkpt lat="43.1082571" lon="11.5910703"><ele>355.5</ele><time>2026-05-02T15:25:37.607Z</time></trkpt><trkpt lat="43.1082322" lon="11.590969"><ele>356.0</ele><time>2026-05-02T15:25:38.668Z</time></trkpt><trkpt lat="43.1082036" lon="11.5908612"><ele>356.0</ele><time>2026-05-02T15:25:39.736Z</time></trkpt><trkpt lat="43.1081712" lon="11.5907492"><ele>356.0</ele><time>2026-05-02T15:25:40.809Z</time></trkpt><trkpt lat="43.10813" lon="11.5906416"><ele>356.0</ele><time>2026-05-02T15:25:41.797Z</time></trkpt><trkpt lat="43.108089" lon="11.5905382"><ele>356.0</ele><time>2026-05-02T15:25:43.1Z</time></trkpt><trkpt lat="43.1080582" lon="11.5904333"><ele>356.0</ele><time>2026-05-02T15:25:44.115Z</time></trkpt><trkpt lat="43.1080343" lon="11.59033"><ele>356.0</ele><time>2026-05-02T15:25:45.413Z</time></trkpt><trkpt lat="43.1080129" lon="11.5900977"><ele>354.75</ele><time>2026-05-02T15:25:47.115Z</time></trkpt><trkpt lat="43.1080345" lon="11.5898061"><ele>353.5</ele><time>2026-05-02T15:25:48.867Z</time></trkpt><trkpt lat="43.1080411" lon="11.5896489"><ele>352.25</ele><time>2026-05-02T15:25:49.888Z</time></trkpt><trkpt lat="43.1080389" lon="11.5894945"><ele>351.0</ele><time>2026-05-02T15:25:50.829Z</time></trkpt><trkpt lat="43.1080365" lon="11.5893415"><ele>349.75</ele><time>2026-05-02T15:25:51.84Z</time></trkpt><trkpt lat="43.1080302" lon="11.5890383"><ele>348.5</ele><time>2026-05-02T15:25:53.592Z</time></trkpt><trkpt lat="43.1080307" lon="11.5888947"><ele>347.25</ele><time>2026-05-02T15:25:54.855Z</time></trkpt><trkpt lat="43.1080328" lon="11.5887547"><ele>346.0</ele><time>2026-05-02T15:25:55.953Z</time></trkpt><trkpt lat="43.1080361" lon="11.5886148"><ele>343.25</ele><time>2026-05-02T15:25:56.545Z</time></trkpt><trkpt lat="43.1080461" lon="11.5884624"><ele>340.5</ele><time>2026-05-02T15:25:57.625Z</time></trkpt><trkpt lat="43.1080595" lon="11.5882951"><ele>337.75</ele><time>2026-05-02T15:25:58.593Z</time></trkpt><trkpt lat="43.1080724" lon="11.5881161"><ele>335.0</ele><time>2026-05-02T15:25:59.869Z</time></trkpt><trkpt lat="43.1080937" lon="11.5877385"><ele>334.25</ele><time>2026-05-02T15:26:01.909Z</time></trkpt><trkpt lat="43.1081041" lon="11.5875588"><ele>333.5</ele><time>2026-05-02T15:26:02.883Z</time></trkpt><trkpt lat="43.108117" lon="11.5873938"><ele>332.75</ele><time>2026-05-02T15:26:03.972Z</time></trkpt><trkpt lat="43.1081393" lon="11.5872576"><ele>332.0</ele><time>2026-05-02T15:26:05.245Z</time></trkpt><trkpt lat="43.1082096" lon="11.5870649"><ele>333.8</ele><time>2026-05-02T15:26:07.549Z</time></trkpt><trkpt lat="43.1083182" lon="11.5869516"><ele>335.6</ele><time>2026-05-02T15:26:08.857Z</time></trkpt><trkpt lat="43.108398" lon="11.5868594"><ele>337.40000000000003</ele><time>2026-05-02T15:26:11.178Z</time></trkpt><trkpt lat="43.1084118" lon="11.5867513"><ele>339.20000000000005</ele><time>2026-05-02T15:26:13.353Z</time></trkpt><trkpt lat="43.1083839" lon="11.5866117"><ele>341.0</ele><time>2026-05-02T15:26:15.104Z</time></trkpt><trkpt lat="43.1083424" lon="11.5865172"><ele>341.0</ele><time>2026-05-02T15:26:16.184Z</time></trkpt><trkpt lat="43.1082688" lon="11.5862905"><ele>341.0</ele><time>2026-05-02T15:26:18.044Z</time></trkpt><trkpt lat="43.1081918" lon="11.5859986"><ele>341.0</ele><time>2026-05-02T15:26:19.705Z</time></trkpt><trkpt lat="43.1081605" lon="11.5858376"><ele>337.8</ele><time>2026-05-02T15:26:20.535Z</time></trkpt><trkpt lat="43.1081403" lon="11.5856818"><ele>334.6</ele><time>2026-05-02T15:26:21.514Z</time></trkpt><trkpt lat="43.108125" lon="11.5855386"><ele>331.4</ele><time>2026-05-02T15:26:22.562Z</time></trkpt><trkpt lat="43.1081165" lon="11.5854076"><ele>328.2</ele><time>2026-05-02T15:26:23.578Z</time></trkpt><trkpt lat="43.1081212" lon="11.5852825"><ele>325.0</ele><time>2026-05-02T15:26:24.633Z</time></trkpt><trkpt lat="43.1081403" lon="11.585158"><ele>323.3333333333333</ele><time>2026-05-02T15:26:25.816Z</time></trkpt><trkpt lat="43.1081646" lon="11.5850369"><ele>321.6666666666667</ele><time>2026-05-02T15:26:27.196Z</time></trkpt><trkpt lat="43.1081074" lon="11.5845818"><ele>320.0</ele><time>2026-05-02T15:26:30.749Z</time></trkpt><trkpt lat="43.1080722" lon="11.5844369"><ele>320.0</ele><time>2026-05-02T15:26:31.859Z</time></trkpt><trkpt lat="43.1080422" lon="11.5842853"><ele>320.0</ele><time>2026-05-02T15:26:32.783Z</time></trkpt><trkpt lat="43.1080104" lon="11.5841251"><ele>320.0</ele><time>2026-05-02T15:26:33.881Z</time></trkpt><trkpt lat="43.1079808" lon="11.5839695"><ele>320.0</ele><time>2026-05-02T15:26:34.832Z</time></trkpt><trkpt lat="43.1079308" lon="11.5836715"><ele>319.6</ele><time>2026-05-02T15:26:36.529Z</time></trkpt><trkpt lat="43.107909" lon="11.5835324"><ele>319.2</ele><time>2026-05-02T15:26:37.55Z</time></trkpt><trkpt lat="43.1078935" lon="11.5834002"><ele>318.8</ele><time>2026-05-02T15:26:38.592Z</time></trkpt><trkpt lat="43.1078807" lon="11.5832744"><ele>318.4</ele><time>2026-05-02T15:26:39.688Z</time></trkpt><trkpt lat="43.1078885" lon="11.583155"><ele>318.0</ele><time>2026-05-02T15:26:40.808Z</time></trkpt><trkpt lat="43.1079103" lon="11.5830466"><ele>315.3333333333333</ele><time>2026-05-02T15:26:42.05Z</time></trkpt><trkpt lat="43.1079937" lon="11.5828193"><ele>312.66666666666663</ele><time>2026-05-02T15:26:43.859Z</time></trkpt><trkpt lat="43.1080956" lon="11.5825546"><ele>310.0</ele><time>2026-05-02T15:26:45.579Z</time></trkpt><trkpt lat="43.1081492" lon="11.5824182"><ele>310.0</ele><time>2026-05-02T15:26:46.525Z</time></trkpt><trkpt lat="43.1082032" lon="11.582285"><ele>310.0</ele><time>2026-05-02T15:26:47.533Z</time></trkpt><trkpt lat="43.1082516" lon="11.5821575"><ele>310.0</ele><time>2026-05-02T15:26:48.526Z</time></trkpt><trkpt lat="43.1082954" lon="11.5820255"><ele>310.0</ele><time>2026-05-02T15:26:49.536Z</time></trkpt><trkpt lat="43.1083342" lon="11.5819066"><ele>310.0</ele><time>2026-05-02T15:26:50.613Z</time></trkpt><trkpt lat="43.108369" lon="11.5817893"><ele>313.0</ele><time>2026-05-02T15:26:51.608Z</time></trkpt><trkpt lat="43.108405" lon="11.5816769"><ele>316.0</ele><time>2026-05-02T15:26:52.56Z</time></trkpt><trkpt lat="43.1084395" lon="11.5815797"><ele>319.0</ele><time>2026-05-02T15:26:53.841Z</time></trkpt><trkpt lat="43.1084665" lon="11.5814997"><ele>322.0</ele><time>2026-05-02T15:26:55.283Z</time></trkpt><trkpt lat="43.1084766" lon="11.5813578"><ele>325.0</ele><time>2026-05-02T15:26:56.905Z</time></trkpt><trkpt lat="43.1084097" lon="11.5812121"><ele>328.3333333333333</ele><time>2026-05-02T15:26:59.348Z</time></trkpt><trkpt lat="43.1083395" lon="11.5810305"><ele>331.6666666666667</ele><time>2026-05-02T15:27:00.929Z</time></trkpt><trkpt lat="43.1081932" lon="11.5807552"><ele>335.0</ele><time>2026-05-02T15:27:04.419Z</time></trkpt><trkpt lat="43.1081351" lon="11.5805634"><ele>335.0</ele><time>2026-05-02T15:27:05.836Z</time></trkpt><trkpt lat="43.1080978" lon="11.5804044"><ele>335.0</ele><time>2026-05-02T15:27:08.057Z</time></trkpt><trkpt lat="43.1081014" lon="11.5803055"><ele>335.0</ele><time>2026-05-02T15:27:09.605Z</time></trkpt><trkpt lat="43.1081792" lon="11.5802032"><ele>335.0</ele><time>2026-05-02T15:27:11.525Z</time></trkpt><trkpt lat="43.1082533" lon="11.5801175"><ele>335.0</ele><time>2026-05-02T15:27:13.548Z</time></trkpt><trkpt lat="43.1082337" lon="11.5800337"><ele>331.6666666666667</ele><time>2026-05-02T15:27:16.643Z</time></trkpt><trkpt lat="43.1081667" lon="11.5800016"><ele>328.33333333333337</ele><time>2026-05-02T15:27:23.852Z</time></trkpt><trkpt lat="43.1081" lon="11.5798863"><ele>325.0</ele><time>2026-05-02T15:27:27.022Z</time></trkpt><trkpt lat="43.1080621" lon="11.5797986"><ele>321.6666666666667</ele><time>2026-05-02T15:27:28.966Z</time></trkpt><trkpt lat="43.1080324" lon="11.5796983"><ele>318.3333333333333</ele><time>2026-05-02T15:27:31.499Z</time></trkpt><trkpt lat="43.1080087" lon="11.5795838"><ele>315.0</ele><time>2026-05-02T15:27:32.767Z</time></trkpt><trkpt lat="43.1079868" lon="11.5794505"><ele>315.0</ele><time>2026-05-02T15:27:34.524Z</time></trkpt><trkpt lat="43.1079644" lon="11.5793203"><ele>315.0</ele><time>2026-05-02T15:27:36.572Z</time></trkpt><trkpt lat="43.1079579" lon="11.5792016"><ele>315.0</ele><time>2026-05-02T15:27:38.752Z</time></trkpt><trkpt lat="43.1079757" lon="11.5790886"><ele>315.0</ele><time>2026-05-02T15:27:41.318Z</time></trkpt><trkpt lat="43.1080452" lon="11.5789958"><ele>315.0</ele><time>2026-05-02T15:27:44.541Z</time></trkpt><trkpt lat="43.1081293" lon="11.5789544"><ele>315.0</ele><time>2026-05-02T15:27:47.548Z</time></trkpt><trkpt lat="43.108149" lon="11.5788665"><ele>315.0</ele><time>2026-05-02T15:27:50.787Z</time></trkpt><trkpt lat="43.1081186" lon="11.5787759"><ele>315.0</ele><time>2026-05-02T15:27:53.07Z</time></trkpt><trkpt lat="43.1079764" lon="11.5785428"><ele>315.0</ele><time>2026-05-02T15:27:55.83Z</time></trkpt><trkpt lat="43.1078628" lon="11.5783672"><ele>314.0</ele><time>2026-05-02T15:27:57.565Z</time></trkpt><trkpt lat="43.1078172" lon="11.5782897"><ele>313.0</ele><time>2026-05-02T15:27:58.57Z</time></trkpt><trkpt lat="43.1077393" lon="11.5781583"><ele>312.0</ele><time>2026-05-02T15:28:00.514Z</time></trkpt><trkpt lat="43.1076588" lon="11.5780364"><ele>311.0</ele><time>2026-05-02T15:28:02.556Z</time></trkpt><trkpt lat="43.1075809" lon="11.5779234"><ele>310.0</ele><time>2026-05-02T15:28:04.514Z</time></trkpt><trkpt lat="43.107486" lon="11.5778155"><ele>309.66666666666663</ele><time>2026-05-02T15:28:06.515Z</time></trkpt><trkpt lat="43.1074278" lon="11.5777548"><ele>309.3333333333333</ele><time>2026-05-02T15:28:07.52Z</time></trkpt><trkpt lat="43.1073679" lon="11.5776854"><ele>309.0</ele><time>2026-05-02T15:28:08.524Z</time></trkpt><trkpt lat="43.1073079" lon="11.5776087"><ele>308.6666666666667</ele><time>2026-05-02T15:28:09.521Z</time></trkpt><trkpt lat="43.1072521" lon="11.5775276"><ele>308.33333333333337</ele><time>2026-05-02T15:28:10.524Z</time></trkpt><trkpt lat="43.1072048" lon="11.5774402"><ele>308.0</ele><time>2026-05-02T15:28:11.563Z</time></trkpt><trkpt lat="43.1071587" lon="11.5773551"><ele>305.4</ele><time>2026-05-02T15:28:12.548Z</time></trkpt><trkpt lat="43.1071184" lon="11.5772674"><ele>302.8</ele><time>2026-05-02T15:28:13.515Z</time></trkpt><trkpt lat="43.1070846" lon="11.5771717"><ele>300.2</ele><time>2026-05-02T15:28:14.534Z</time></trkpt><trkpt lat="43.1070459" lon="11.5770563"><ele>297.6</ele><time>2026-05-02T15:28:15.517Z</time></trkpt><trkpt lat="43.107004" lon="11.5769141"><ele>295.0</ele><time>2026-05-02T15:28:16.557Z</time></trkpt><trkpt lat="43.1069647" lon="11.5767727"><ele>295.0</ele><time>2026-05-02T15:28:17.517Z</time></trkpt><trkpt lat="43.1069318" lon="11.576645"><ele>295.0</ele><time>2026-05-02T15:28:18.532Z</time></trkpt><trkpt lat="43.1069068" lon="11.5765331"><ele>295.0</ele><time>2026-05-02T15:28:19.575Z</time></trkpt><trkpt lat="43.1068948" lon="11.5764389"><ele>295.0</ele><time>2026-05-02T15:28:20.647Z</time></trkpt><trkpt lat="43.1069011" lon="11.5763061"><ele>295.0</ele><time>2026-05-02T15:28:23.339Z</time></trkpt><trkpt lat="43.1069746" lon="11.5762093"><ele>295.0</ele><time>2026-05-02T15:28:24.93Z</time></trkpt><trkpt lat="43.10705" lon="11.5761581"><ele>295.0</ele><time>2026-05-02T15:28:25.882Z</time></trkpt><trkpt lat="43.1071146" lon="11.5760942"><ele>295.0</ele><time>2026-05-02T15:28:26.902Z</time></trkpt><trkpt lat="43.10724" lon="11.5759528"><ele>295.0</ele><time>2026-05-02T15:28:28.51Z</time></trkpt><trkpt lat="43.1072957" lon="11.5758896"><ele>295.0</ele><time>2026-05-02T15:28:29.511Z</time></trkpt><trkpt lat="43.1073458" lon="11.5758242"><ele>295.00000000000006</ele><time>2026-05-02T15:28:30.507Z</time></trkpt><trkpt lat="43.1073963" lon="11.5757612"><ele>295.0</ele><time>2026-05-02T15:28:31.508Z</time></trkpt><trkpt lat="43.1074422" lon="11.5756946"><ele>295.0</ele><time>2026-05-02T15:28:32.534Z</time></trkpt><trkpt lat="43.10749" lon="11.575626"><ele>295.0</ele><time>2026-05-02T15:28:33.576Z</time></trkpt><trkpt lat="43.1075427" lon="11.5755555"><ele>295.0</ele><time>2026-05-02T15:28:34.55Z</time></trkpt><trkpt lat="43.1075935" lon="11.5754845"><ele>295.00000000000006</ele><time>2026-05-02T15:28:35.508Z</time></trkpt><trkpt lat="43.1076463" lon="11.5754104"><ele>295.0</ele><time>2026-05-02T15:28:36.526Z</time></trkpt><trkpt lat="43.1076987" lon="11.5753368"><ele>293.8571428571429</ele><time>2026-05-02T15:28:37.511Z</time></trkpt><trkpt lat="43.1077483" lon="11.5752617"><ele>292.7142857142857</ele><time>2026-05-02T15:28:38.544Z</time></trkpt><trkpt lat="43.1077982" lon="11.5751882"><ele>291.57142857142856</ele><time>2026-05-02T15:28:39.523Z</time></trkpt><trkpt lat="43.1078488" lon="11.5751104"><ele>290.42857142857144</ele><time>2026-05-02T15:28:40.582Z</time></trkpt><trkpt lat="43.1079003" lon="11.5750379"><ele>289.2857142857143</ele><time>2026-05-02T15:28:41.515Z</time></trkpt><trkpt lat="43.1079502" lon="11.574962"><ele>288.14285714285717</ele><time>2026-05-02T15:28:42.544Z</time></trkpt><trkpt lat="43.1079955" lon="11.5748882"><ele>287.0</ele><time>2026-05-02T15:28:43.537Z</time></trkpt><trkpt lat="43.1080409" lon="11.5748168"><ele>287.0</ele><time>2026-05-02T15:28:44.564Z</time></trkpt><trkpt lat="43.1080865" lon="11.5747395"><ele>287.0</ele><time>2026-05-02T15:28:45.565Z</time></trkpt><trkpt lat="43.1081398" lon="11.5746534"><ele>287.0</ele><time>2026-05-02T15:28:46.556Z</time></trkpt><trkpt lat="43.1081976" lon="11.5745637"><ele>287.0</ele><time>2026-05-02T15:28:47.507Z</time></trkpt><trkpt lat="43.1082563" lon="11.5744754"><ele>287.0</ele><time>2026-05-02T15:28:48.52Z</time></trkpt><trkpt lat="43.1083189" lon="11.5743908"><ele>287.0</ele><time>2026-05-02T15:28:49.53Z</time></trkpt><trkpt lat="43.1083784" lon="11.5743069"><ele>285.1666666666667</ele><time>2026-05-02T15:28:50.554Z</time></trkpt><trkpt lat="43.1084379" lon="11.5742246"><ele>283.33333333333337</ele><time>2026-05-02T15:28:51.557Z</time></trkpt><trkpt lat="43.1084968" lon="11.5741485"><ele>281.5</ele><time>2026-05-02T15:28:52.508Z</time></trkpt><trkpt lat="43.1085552" lon="11.5740766"><ele>279.6666666666667</ele><time>2026-05-02T15:28:53.509Z</time></trkpt><trkpt lat="43.1086122" lon="11.5740058"><ele>277.8333333333333</ele><time>2026-05-02T15:28:54.525Z</time></trkpt><trkpt lat="43.1086731" lon="11.5739348"><ele>276.0</ele><time>2026-05-02T15:28:55.526Z</time></trkpt><trkpt lat="43.1087324" lon="11.5738659"><ele>276.0</ele><time>2026-05-02T15:28:56.555Z</time></trkpt><trkpt lat="43.1087949" lon="11.5737992"><ele>276.0</ele><time>2026-05-02T15:28:57.519Z</time></trkpt><trkpt lat="43.1088532" lon="11.5737362"><ele>276.0</ele><time>2026-05-02T15:28:58.544Z</time></trkpt><trkpt lat="43.1089131" lon="11.573681"><ele>276.0</ele><time>2026-05-02T15:28:59.56Z</time></trkpt><trkpt lat="43.1089748" lon="11.5736276"><ele>276.0</ele><time>2026-05-02T15:29:00.571Z</time></trkpt><trkpt lat="43.1090351" lon="11.5735855"><ele>276.0</ele><time>2026-05-02T15:29:01.655Z</time></trkpt><trkpt lat="43.1090939" lon="11.5735498"><ele>276.0</ele><time>2026-05-02T15:29:02.628Z</time></trkpt><trkpt lat="43.1092084" lon="11.5734759"><ele>273.3333333333333</ele><time>2026-05-02T15:29:04.677Z</time></trkpt><trkpt lat="43.1092674" lon="11.573436"><ele>270.6666666666667</ele><time>2026-05-02T15:29:05.728Z</time></trkpt><trkpt lat="43.1093302" lon="11.5733991"><ele>268.0</ele><time>2026-05-02T15:29:06.942Z</time></trkpt><trkpt lat="43.1094599" lon="11.5733397"><ele>265.33333333333337</ele><time>2026-05-02T15:29:08.507Z</time></trkpt><trkpt lat="43.1095278" lon="11.5733164"><ele>262.6666666666667</ele><time>2026-05-02T15:29:09.544Z</time></trkpt><trkpt lat="43.109596" lon="11.5733033"><ele>260.0</ele><time>2026-05-02T15:29:10.572Z</time></trkpt><trkpt lat="43.1096688" lon="11.5733038"><ele>260.0</ele><time>2026-05-02T15:29:11.622Z</time></trkpt><trkpt lat="43.1097391" lon="11.5733061"><ele>260.0</ele><time>2026-05-02T15:29:12.727Z</time></trkpt><trkpt lat="43.1098039" lon="11.5733136"><ele>260.0</ele><time>2026-05-02T15:29:13.826Z</time></trkpt><trkpt lat="43.1099233" lon="11.5733164"><ele>260.0</ele><time>2026-05-02T15:29:15.765Z</time></trkpt><trkpt lat="43.1100533" lon="11.5732944"><ele>260.0</ele><time>2026-05-02T15:29:17.505Z</time></trkpt><trkpt lat="43.1101368" lon="11.5732825"><ele>258.8</ele><time>2026-05-02T15:29:18.533Z</time></trkpt><trkpt lat="43.1102228" lon="11.5732719"><ele>257.6</ele><time>2026-05-02T15:29:19.541Z</time></trkpt><trkpt lat="43.1103039" lon="11.5732649"><ele>256.4</ele><time>2026-05-02T15:29:20.568Z</time></trkpt><trkpt lat="43.1103774" lon="11.5732589"><ele>255.2</ele><time>2026-05-02T15:29:21.575Z</time></trkpt><trkpt lat="43.1104495" lon="11.5732545"><ele>254.0</ele><time>2026-05-02T15:29:22.638Z</time></trkpt><trkpt lat="43.110588" lon="11.573232"><ele>254.00000000000003</ele><time>2026-05-02T15:29:24.535Z</time></trkpt><trkpt lat="43.1106558" lon="11.5732109"><ele>254.0</ele><time>2026-05-02T15:29:25.535Z</time></trkpt><trkpt lat="43.1107237" lon="11.5731725"><ele>254.0</ele><time>2026-05-02T15:29:26.577Z</time></trkpt><trkpt lat="43.1107919" lon="11.5731241"><ele>254.0</ele><time>2026-05-02T15:29:27.628Z</time></trkpt><trkpt lat="43.1108548" lon="11.5730506"><ele>254.00000000000003</ele><time>2026-05-02T15:29:28.689Z</time></trkpt><trkpt lat="43.1109124" lon="11.5729631"><ele>254.0</ele><time>2026-05-02T15:29:29.811Z</time></trkpt><trkpt lat="43.1109604" lon="11.5728676"><ele>252.5</ele><time>2026-05-02T15:29:31.185Z</time></trkpt><trkpt lat="43.1110259" lon="11.5726896"><ele>251.0</ele><time>2026-05-02T15:29:32.667Z</time></trkpt><trkpt lat="43.1110606" lon="11.5725695"><ele>249.5</ele><time>2026-05-02T15:29:34.93Z</time></trkpt><trkpt lat="43.1110779" lon="11.5724549"><ele>248.0</ele><time>2026-05-02T15:29:37.002Z</time></trkpt><trkpt lat="43.1111541" lon="11.5722433"><ele>248.0</ele><time>2026-05-02T15:29:39.718Z</time></trkpt><trkpt lat="43.1111971" lon="11.5721613"><ele>248.0</ele><time>2026-05-02T15:29:40.653Z</time></trkpt><trkpt lat="43.1112932" lon="11.5719797"><ele>248.0</ele><time>2026-05-02T15:29:42.544Z</time></trkpt><trkpt lat="43.1113424" lon="11.571873"><ele>248.0</ele><time>2026-05-02T15:29:43.516Z</time></trkpt><trkpt lat="43.1113998" lon="11.5717551"><ele>248.0</ele><time>2026-05-02T15:29:44.503Z</time></trkpt><trkpt lat="43.1114593" lon="11.5716285"><ele>248.0</ele><time>2026-05-02T15:29:45.517Z</time></trkpt><trkpt lat="43.1115237" lon="11.5714889"><ele>248.0</ele><time>2026-05-02T15:29:46.566Z</time></trkpt><trkpt lat="43.1115859" lon="11.5713449"><ele>248.0</ele><time>2026-05-02T15:29:47.568Z</time></trkpt><trkpt lat="43.111649" lon="11.5712075"><ele>248.0</ele><time>2026-05-02T15:29:48.55Z</time></trkpt><trkpt lat="43.1117052" lon="11.5710824"><ele>249.8</ele><time>2026-05-02T15:29:49.623Z</time></trkpt><trkpt lat="43.1117528" lon="11.5709697"><ele>251.60000000000002</ele><time>2026-05-02T15:29:50.731Z</time></trkpt><trkpt lat="43.1117759" lon="11.5708825"><ele>253.39999999999998</ele><time>2026-05-02T15:29:51.875Z</time></trkpt><trkpt lat="43.1117727" lon="11.5707441"><ele>255.2</ele><time>2026-05-02T15:29:54.168Z</time></trkpt><trkpt lat="43.1117" lon="11.5706675"><ele>257.0</ele><time>2026-05-02T15:29:55.521Z</time></trkpt><trkpt lat="43.1115754" lon="11.5706231"><ele>255.8</ele><time>2026-05-02T15:29:57.532Z</time></trkpt><trkpt lat="43.1114904" lon="11.5705977"><ele>254.6</ele><time>2026-05-02T15:29:58.536Z</time></trkpt><trkpt lat="43.1113969" lon="11.5705684"><ele>253.40000000000003</ele><time>2026-05-02T15:29:59.509Z</time></trkpt><trkpt lat="43.1113075" lon="11.5705391"><ele>252.20000000000002</ele><time>2026-05-02T15:30:00.507Z</time></trkpt><trkpt lat="43.1112319" lon="11.5705187"><ele>251.0</ele><time>2026-05-02T15:30:01.54Z</time></trkpt><trkpt lat="43.1111406" lon="11.5704713"><ele>251.00000000000003</ele><time>2026-05-02T15:30:03.618Z</time></trkpt><trkpt lat="43.1111735" lon="11.5703664"><ele>251.0</ele><time>2026-05-02T15:31:02.619Z</time></trkpt><trkpt lat="43.1112282" lon="11.5703205"><ele>251.0</ele><time>2026-05-02T15:31:06.737Z</time></trkpt><trkpt lat="43.1112308" lon="11.5701865"><ele>251.0</ele><time>2026-05-02T15:31:19.501Z</time></trkpt><trkpt lat="43.1112962" lon="11.5701858"><ele>251.00000000000003</ele><time>2026-05-02T15:31:42.562Z</time></trkpt><trkpt lat="43.1113801" lon="11.5702142"><ele>251.0</ele><time>2026-05-02T15:31:44.522Z</time></trkpt><trkpt lat="43.1114544" lon="11.5702399"><ele>252.20000000000002</ele><time>2026-05-02T15:31:45.511Z</time></trkpt><trkpt lat="43.1115482" lon="11.5702756"><ele>253.40000000000003</ele><time>2026-05-02T15:31:46.504Z</time></trkpt><trkpt lat="43.1116469" lon="11.5703109"><ele>254.6</ele><time>2026-05-02T15:31:47.512Z</time></trkpt><trkpt lat="43.1117532" lon="11.5703491"><ele>255.8</ele><time>2026-05-02T15:31:48.498Z</time></trkpt><trkpt lat="43.1118694" lon="11.5703853"><ele>257.0</ele><time>2026-05-02T15:31:49.526Z</time></trkpt><trkpt lat="43.1120025" lon="11.5704203"><ele>257.0</ele><time>2026-05-02T15:31:50.558Z</time></trkpt><trkpt lat="43.1121321" lon="11.5704507"><ele>257.0</ele><time>2026-05-02T15:31:51.543Z</time></trkpt><trkpt lat="43.1122709" lon="11.5704892"><ele>257.0</ele><time>2026-05-02T15:31:52.534Z</time></trkpt><trkpt lat="43.1124165" lon="11.5705236"><ele>257.0</ele><time>2026-05-02T15:31:53.541Z</time></trkpt><trkpt lat="43.1125726" lon="11.5705583"><ele>258.0</ele><time>2026-05-02T15:31:54.516Z</time></trkpt><trkpt lat="43.1127516" lon="11.5705998"><ele>259.0</ele><time>2026-05-02T15:31:55.505Z</time></trkpt><trkpt lat="43.1129287" lon="11.5706417"><ele>260.0</ele><time>2026-05-02T15:31:56.516Z</time></trkpt><trkpt lat="43.1131159" lon="11.5706958"><ele>260.6666666666667</ele><time>2026-05-02T15:31:57.502Z</time></trkpt><trkpt lat="43.1133057" lon="11.5707522"><ele>261.3333333333333</ele><time>2026-05-02T15:31:58.51Z</time></trkpt><trkpt lat="43.1134913" lon="11.5708034"><ele>262.0</ele><time>2026-05-02T15:31:59.513Z</time></trkpt><trkpt lat="43.1136721" lon="11.5708513"><ele>262.0</ele><time>2026-05-02T15:32:00.514Z</time></trkpt><trkpt lat="43.113847" lon="11.5708957"><ele>262.0</ele><time>2026-05-02T15:32:01.518Z</time></trkpt><trkpt lat="43.114019" lon="11.5709371"><ele>262.0</ele><time>2026-05-02T15:32:02.517Z</time></trkpt><trkpt lat="43.1141853" lon="11.5709775"><ele>263.66666666666663</ele><time>2026-05-02T15:32:03.507Z</time></trkpt><trkpt lat="43.1143476" lon="11.5710214"><ele>265.3333333333333</ele><time>2026-05-02T15:32:04.506Z</time></trkpt><trkpt lat="43.1145098" lon="11.5710667"><ele>267.0</ele><time>2026-05-02T15:32:05.514Z</time></trkpt><trkpt lat="43.1146814" lon="11.5711205"><ele>267.0</ele><time>2026-05-02T15:32:06.507Z</time></trkpt><trkpt lat="43.1148608" lon="11.5711823"><ele>267.0</ele><time>2026-05-02T15:32:07.533Z</time></trkpt><trkpt lat="43.1150518" lon="11.5712647"><ele>267.0</ele><time>2026-05-02T15:32:08.54Z</time></trkpt><trkpt lat="43.1152349" lon="11.5713531"><ele>265.6666666666667</ele><time>2026-05-02T15:32:09.557Z</time></trkpt><trkpt lat="43.1154073" lon="11.5714337"><ele>264.33333333333337</ele><time>2026-05-02T15:32:10.569Z</time></trkpt><trkpt lat="43.1155685" lon="11.5715123"><ele>263.0</ele><time>2026-05-02T15:32:11.592Z</time></trkpt><trkpt lat="43.1157188" lon="11.5715724"><ele>264.0</ele><time>2026-05-02T15:32:12.632Z</time></trkpt><trkpt lat="43.115866" lon="11.571617"><ele>265.0</ele><time>2026-05-02T15:32:13.594Z</time></trkpt><trkpt lat="43.1160302" lon="11.5716413"><ele>266.0</ele><time>2026-05-02T15:32:14.561Z</time></trkpt><trkpt lat="43.1162065" lon="11.5716329"><ele>266.0</ele><time>2026-05-02T15:32:15.512Z</time></trkpt><trkpt lat="43.1164094" lon="11.5715956"><ele>266.0</ele><time>2026-05-02T15:32:16.715Z</time></trkpt><trkpt lat="43.1166301" lon="11.5715579"><ele>266.0</ele><time>2026-05-02T15:32:17.795Z</time></trkpt><trkpt lat="43.1168464" lon="11.5715242"><ele>265.6666666666667</ele><time>2026-05-02T15:32:18.848Z</time></trkpt><trkpt lat="43.117054" lon="11.5714878"><ele>265.3333333333333</ele><time>2026-05-02T15:32:19.909Z</time></trkpt><trkpt lat="43.1172397" lon="11.5714673"><ele>265.0</ele><time>2026-05-02T15:32:20.968Z</time></trkpt><trkpt lat="43.1174105" lon="11.5714616"><ele>264.0</ele><time>2026-05-02T15:32:22.041Z</time></trkpt><trkpt lat="43.1175638" lon="11.57147"><ele>263.0</ele><time>2026-05-02T15:32:23.184Z</time></trkpt><trkpt lat="43.1178586" lon="11.5715352"><ele>263.0</ele><time>2026-05-02T15:32:24.709Z</time></trkpt><trkpt lat="43.1180135" lon="11.5716309"><ele>263.0</ele><time>2026-05-02T15:32:25.777Z</time></trkpt><trkpt lat="43.1181806" lon="11.5717412"><ele>263.0</ele><time>2026-05-02T15:32:26.864Z</time></trkpt><trkpt lat="43.1183611" lon="11.5718757"><ele>262.0</ele><time>2026-05-02T15:32:27.848Z</time></trkpt><trkpt lat="43.1185525" lon="11.572024"><ele>261.0</ele><time>2026-05-02T15:32:28.898Z</time></trkpt><trkpt lat="43.118736" lon="11.5721588"><ele>260.0</ele><time>2026-05-02T15:32:29.991Z</time></trkpt><trkpt lat="43.1191217" lon="11.5724293"><ele>260.0</ele><time>2026-05-02T15:32:31.507Z</time></trkpt><trkpt lat="43.1193103" lon="11.5725729"><ele>260.0</ele><time>2026-05-02T15:32:32.527Z</time></trkpt><trkpt lat="43.1194913" lon="11.5727232"><ele>260.0</ele><time>2026-05-02T15:32:33.547Z</time></trkpt><trkpt lat="43.119667" lon="11.5728871"><ele>260.0</ele><time>2026-05-02T15:32:34.591Z</time></trkpt><trkpt lat="43.1198454" lon="11.5730639"><ele>260.0</ele><time>2026-05-02T15:32:35.593Z</time></trkpt><trkpt lat="43.1200193" lon="11.5732418"><ele>260.0</ele><time>2026-05-02T15:32:36.602Z</time></trkpt><trkpt lat="43.1201926" lon="11.5734235"><ele>260.33333333333337</ele><time>2026-05-02T15:32:37.635Z</time></trkpt><trkpt lat="43.1203678" lon="11.5736041"><ele>260.6666666666667</ele><time>2026-05-02T15:32:38.648Z</time></trkpt><trkpt lat="43.120541" lon="11.573784"><ele>261.0</ele><time>2026-05-02T15:32:39.525Z</time></trkpt><trkpt lat="43.1207078" lon="11.5739537"><ele>261.6666666666667</ele><time>2026-05-02T15:32:40.511Z</time></trkpt><trkpt lat="43.1208663" lon="11.5741112"><ele>262.33333333333337</ele><time>2026-05-02T15:32:41.521Z</time></trkpt><trkpt lat="43.1210263" lon="11.5742541"><ele>263.0</ele><time>2026-05-02T15:32:42.547Z</time></trkpt><trkpt lat="43.1211925" lon="11.5743757"><ele>263.0</ele><time>2026-05-02T15:32:43.549Z</time></trkpt><trkpt lat="43.1213706" lon="11.5744825"><ele>263.0</ele><time>2026-05-02T15:32:44.574Z</time></trkpt><trkpt lat="43.1215541" lon="11.5745862"><ele>263.0</ele><time>2026-05-02T15:32:45.632Z</time></trkpt><trkpt lat="43.1217484" lon="11.5746827"><ele>262.6666666666667</ele><time>2026-05-02T15:32:46.685Z</time></trkpt><trkpt lat="43.121945" lon="11.5747798"><ele>262.3333333333333</ele><time>2026-05-02T15:32:47.717Z</time></trkpt><trkpt lat="43.122134" lon="11.5748789"><ele>262.0</ele><time>2026-05-02T15:32:48.656Z</time></trkpt><trkpt lat="43.1224857" lon="11.575076"><ele>263.3333333333333</ele><time>2026-05-02T15:32:50.514Z</time></trkpt><trkpt lat="43.1226643" lon="11.5751392"><ele>264.6666666666667</ele><time>2026-05-02T15:32:51.506Z</time></trkpt><trkpt lat="43.1228566" lon="11.5751891"><ele>266.0</ele><time>2026-05-02T15:32:52.537Z</time></trkpt><trkpt lat="43.1230598" lon="11.5752246"><ele>266.5</ele><time>2026-05-02T15:32:53.551Z</time></trkpt><trkpt lat="43.1232809" lon="11.5752455"><ele>267.0</ele><time>2026-05-02T15:32:54.574Z</time></trkpt><trkpt lat="43.1235102" lon="11.5752548"><ele>267.0</ele><time>2026-05-02T15:32:55.632Z</time></trkpt><trkpt lat="43.1237365" lon="11.575259"><ele>267.0</ele><time>2026-05-02T15:32:56.622Z</time></trkpt><trkpt lat="43.1239665" lon="11.5752703"><ele>268.6666666666667</ele><time>2026-05-02T15:32:57.643Z</time></trkpt><trkpt lat="43.1241879" lon="11.5752766"><ele>270.33333333333337</ele><time>2026-05-02T15:32:58.603Z</time></trkpt><trkpt lat="43.1244007" lon="11.5752875"><ele>272.0</ele><time>2026-05-02T15:32:59.613Z</time></trkpt><trkpt lat="43.1246206" lon="11.5752934"><ele>272.0</ele><time>2026-05-02T15:33:00.599Z</time></trkpt><trkpt lat="43.1248519" lon="11.5752821"><ele>272.0</ele><time>2026-05-02T15:33:01.602Z</time></trkpt><trkpt lat="43.1250951" lon="11.5752561"><ele>271.5</ele><time>2026-05-02T15:33:02.517Z</time></trkpt><trkpt lat="43.1253569" lon="11.5752102"><ele>271.0</ele><time>2026-05-02T15:33:03.529Z</time></trkpt><trkpt lat="43.1256223" lon="11.5751597"><ele>268.0</ele><time>2026-05-02T15:33:04.534Z</time></trkpt><trkpt lat="43.1258859" lon="11.5751174"><ele>265.0</ele><time>2026-05-02T15:33:05.53Z</time></trkpt><trkpt lat="43.1261406" lon="11.5750751"><ele>265.0</ele><time>2026-05-02T15:33:06.526Z</time></trkpt><trkpt lat="43.1263923" lon="11.5750396"><ele>265.0</ele><time>2026-05-02T15:33:07.509Z</time></trkpt><trkpt lat="43.1266299" lon="11.5750077"><ele>264.0</ele><time>2026-05-02T15:33:08.506Z</time></trkpt><trkpt lat="43.1268516" lon="11.5749773"><ele>263.0</ele><time>2026-05-02T15:33:09.532Z</time></trkpt><trkpt lat="43.1270761" lon="11.5749457"><ele>262.0</ele><time>2026-05-02T15:33:10.53Z</time></trkpt><trkpt lat="43.1273063" lon="11.5749179"><ele>262.66666666666663</ele><time>2026-05-02T15:33:11.515Z</time></trkpt><trkpt lat="43.1275299" lon="11.57488"><ele>263.3333333333333</ele><time>2026-05-02T15:33:12.509Z</time></trkpt><trkpt lat="43.1277468" lon="11.5748472"><ele>264.0</ele><time>2026-05-02T15:33:13.516Z</time></trkpt><trkpt lat="43.1279647" lon="11.5748159"><ele>264.0</ele><time>2026-05-02T15:33:14.506Z</time></trkpt><trkpt lat="43.128174" lon="11.5747846"><ele>264.0</ele><time>2026-05-02T15:33:15.503Z</time></trkpt><trkpt lat="43.1283874" lon="11.5747631"><ele>264.0</ele><time>2026-05-02T15:33:16.52Z</time></trkpt><trkpt lat="43.1286059" lon="11.5747501"><ele>262.5</ele><time>2026-05-02T15:33:17.503Z</time></trkpt><trkpt lat="43.1288319" lon="11.5747363"><ele>261.0</ele><time>2026-05-02T15:33:18.507Z</time></trkpt><trkpt lat="43.1290639" lon="11.5747393"><ele>260.5</ele><time>2026-05-02T15:33:19.506Z</time></trkpt><trkpt lat="43.1292966" lon="11.5747636"><ele>260.0</ele><time>2026-05-02T15:33:20.518Z</time></trkpt><trkpt lat="43.12953" lon="11.5748099"><ele>260.0</ele><time>2026-05-02T15:33:21.544Z</time></trkpt><trkpt lat="43.1297657" lon="11.5748583"><ele>260.0</ele><time>2026-05-02T15:33:22.589Z</time></trkpt><trkpt lat="43.1300094" lon="11.5749164"><ele>260.0</ele><time>2026-05-02T15:33:23.598Z</time></trkpt><trkpt lat="43.1302585" lon="11.5749785"><ele>260.0</ele><time>2026-05-02T15:33:24.599Z</time></trkpt><trkpt lat="43.1305088" lon="11.5750425"><ele>260.5</ele><time>2026-05-02T15:33:25.6Z</time></trkpt><trkpt lat="43.1307572" lon="11.5751076"><ele>261.0</ele><time>2026-05-02T15:33:26.505Z</time></trkpt><trkpt lat="43.1310026" lon="11.575176"><ele>261.0</ele><time>2026-05-02T15:33:27.521Z</time></trkpt><trkpt lat="43.1312452" lon="11.5752448"><ele>261.0</ele><time>2026-05-02T15:33:28.514Z</time></trkpt><trkpt lat="43.1314808" lon="11.575304"><ele>262.0</ele><time>2026-05-02T15:33:29.508Z</time></trkpt><trkpt lat="43.1317091" lon="11.5753673"><ele>263.0</ele><time>2026-05-02T15:33:30.509Z</time></trkpt><trkpt lat="43.1319317" lon="11.5754295"><ele>263.0</ele><time>2026-05-02T15:33:31.502Z</time></trkpt><trkpt lat="43.1321321" lon="11.5754928"><ele>263.0</ele><time>2026-05-02T15:33:32.5Z</time></trkpt><trkpt lat="43.1323359" lon="11.5755474"><ele>263.0</ele><time>2026-05-02T15:33:33.51Z</time></trkpt><trkpt lat="43.1325376" lon="11.5756038"><ele>263.6666666666667</ele><time>2026-05-02T15:33:34.498Z</time></trkpt><trkpt lat="43.1327391" lon="11.5756636"><ele>264.3333333333333</ele><time>2026-05-02T15:33:35.51Z</time></trkpt><trkpt lat="43.1329388" lon="11.5757268"><ele>265.0</ele><time>2026-05-02T15:33:36.503Z</time></trkpt><trkpt lat="43.1331399" lon="11.5757876"><ele>265.0</ele><time>2026-05-02T15:33:37.515Z</time></trkpt><trkpt lat="43.1333478" lon="11.5758522"><ele>265.0</ele><time>2026-05-02T15:33:38.513Z</time></trkpt><trkpt lat="43.1335441" lon="11.5759229"><ele>265.0</ele><time>2026-05-02T15:33:39.511Z</time></trkpt><trkpt lat="43.1337389" lon="11.5759834"><ele>265.0</ele><time>2026-05-02T15:33:40.507Z</time></trkpt><trkpt lat="43.1339307" lon="11.5760499"><ele>265.0</ele><time>2026-05-02T15:33:41.5Z</time></trkpt><trkpt lat="43.1341206" lon="11.5761183"><ele>265.0</ele><time>2026-05-02T15:33:42.505Z</time></trkpt><trkpt lat="43.1343046" lon="11.5761855"><ele>263.66666666666663</ele><time>2026-05-02T15:33:43.504Z</time></trkpt><trkpt lat="43.134481" lon="11.5762523"><ele>262.3333333333333</ele><time>2026-05-02T15:33:44.52Z</time></trkpt><trkpt lat="43.1346437" lon="11.5763139"><ele>261.0</ele><time>2026-05-02T15:33:45.539Z</time></trkpt><trkpt lat="43.1348103" lon="11.5763847"><ele>261.6666666666667</ele><time>2026-05-02T15:33:46.554Z</time></trkpt><trkpt lat="43.1349813" lon="11.5764806"><ele>262.33333333333337</ele><time>2026-05-02T15:33:47.556Z</time></trkpt><trkpt lat="43.1351554" lon="11.5766044"><ele>263.0</ele><time>2026-05-02T15:33:48.595Z</time></trkpt><trkpt lat="43.1353258" lon="11.5767405"><ele>263.0</ele><time>2026-05-02T15:33:49.656Z</time></trkpt><trkpt lat="43.1355043" lon="11.5769039"><ele>263.0</ele><time>2026-05-02T15:33:50.7Z</time></trkpt><trkpt lat="43.1356876" lon="11.5770755"><ele>263.0</ele><time>2026-05-02T15:33:51.759Z</time></trkpt><trkpt lat="43.1358725" lon="11.577242"><ele>262.5</ele><time>2026-05-02T15:33:52.699Z</time></trkpt><trkpt lat="43.1360539" lon="11.5774038"><ele>262.0</ele><time>2026-05-02T15:33:53.641Z</time></trkpt><trkpt lat="43.1363959" lon="11.5777011"><ele>262.0</ele><time>2026-05-02T15:33:55.493Z</time></trkpt><trkpt lat="43.1365456" lon="11.577838"><ele>262.0</ele><time>2026-05-02T15:33:56.517Z</time></trkpt><trkpt lat="43.1366795" lon="11.5779529"><ele>262.0</ele><time>2026-05-02T15:33:57.503Z</time></trkpt><trkpt lat="43.1368168" lon="11.57807"><ele>262.66666666666663</ele><time>2026-05-02T15:33:58.505Z</time></trkpt><trkpt lat="43.1369554" lon="11.5781923"><ele>263.3333333333333</ele><time>2026-05-02T15:33:59.502Z</time></trkpt><trkpt lat="43.1370949" lon="11.578321"><ele>264.0</ele><time>2026-05-02T15:34:00.508Z</time></trkpt><trkpt lat="43.1372324" lon="11.5784521"><ele>264.0</ele><time>2026-05-02T15:34:01.513Z</time></trkpt><trkpt lat="43.1373664" lon="11.5785737"><ele>264.0</ele><time>2026-05-02T15:34:02.505Z</time></trkpt><trkpt lat="43.137499" lon="11.5786892"><ele>264.0</ele><time>2026-05-02T15:34:03.507Z</time></trkpt><trkpt lat="43.1376214" lon="11.5788062"><ele>264.25</ele><time>2026-05-02T15:34:04.514Z</time></trkpt><trkpt lat="43.1377432" lon="11.578923"><ele>264.5</ele><time>2026-05-02T15:34:05.517Z</time></trkpt><trkpt lat="43.1378571" lon="11.5790241"><ele>264.75</ele><time>2026-05-02T15:34:06.52Z</time></trkpt><trkpt lat="43.1379837" lon="11.5791404"><ele>265.0</ele><time>2026-05-02T15:34:07.509Z</time></trkpt><trkpt lat="43.1381111" lon="11.5792655"><ele>265.66666666666663</ele><time>2026-05-02T15:34:08.525Z</time></trkpt><trkpt lat="43.1382554" lon="11.5793925"><ele>266.3333333333333</ele><time>2026-05-02T15:34:09.507Z</time></trkpt><trkpt lat="43.1383943" lon="11.5795128"><ele>267.0</ele><time>2026-05-02T15:34:10.518Z</time></trkpt><trkpt lat="43.1385504" lon="11.5796294"><ele>267.0</ele><time>2026-05-02T15:34:11.514Z</time></trkpt><trkpt lat="43.1387285" lon="11.5797498"><ele>267.0</ele><time>2026-05-02T15:34:12.547Z</time></trkpt><trkpt lat="43.1389294" lon="11.5798614"><ele>267.0</ele><time>2026-05-02T15:34:13.568Z</time></trkpt><trkpt lat="43.1391469" lon="11.5799777"><ele>267.0</ele><time>2026-05-02T15:34:14.63Z</time></trkpt><trkpt lat="43.1393762" lon="11.5801073"><ele>267.0</ele><time>2026-05-02T15:34:15.661Z</time></trkpt><trkpt lat="43.1396161" lon="11.5802542"><ele>267.0</ele><time>2026-05-02T15:34:16.549Z</time></trkpt><trkpt lat="43.1398645" lon="11.5804126"><ele>267.0</ele><time>2026-05-02T15:34:17.644Z</time></trkpt><trkpt lat="43.1401081" lon="11.5805733"><ele>267.0</ele><time>2026-05-02T15:34:18.666Z</time></trkpt><trkpt lat="43.1403533" lon="11.580715"><ele>267.0</ele><time>2026-05-02T15:34:19.692Z</time></trkpt><trkpt lat="43.1405923" lon="11.5808645"><ele>268.5</ele><time>2026-05-02T15:34:20.645Z</time></trkpt><trkpt lat="43.1408209" lon="11.5810044"><ele>270.0</ele><time>2026-05-02T15:34:21.564Z</time></trkpt><trkpt lat="43.1410368" lon="11.5811343"><ele>270.6666666666667</ele><time>2026-05-02T15:34:22.505Z</time></trkpt><trkpt lat="43.1412415" lon="11.5812571"><ele>271.33333333333337</ele><time>2026-05-02T15:34:23.507Z</time></trkpt><trkpt lat="43.1414414" lon="11.5813732"><ele>272.0</ele><time>2026-05-02T15:34:24.524Z</time></trkpt><trkpt lat="43.1416282" lon="11.5814865"><ele>272.0</ele><time>2026-05-02T15:34:25.54Z</time></trkpt><trkpt lat="43.1418067" lon="11.5815798"><ele>272.0</ele><time>2026-05-02T15:34:26.562Z</time></trkpt><trkpt lat="43.1419839" lon="11.5816646"><ele>272.0</ele><time>2026-05-02T15:34:27.511Z</time></trkpt><trkpt lat="43.1421753" lon="11.5817302"><ele>274.33333333333337</ele><time>2026-05-02T15:34:28.515Z</time></trkpt><trkpt lat="43.1423831" lon="11.5817873"><ele>276.6666666666667</ele><time>2026-05-02T15:34:29.561Z</time></trkpt><trkpt lat="43.1425834" lon="11.5818291"><ele>279.0</ele><time>2026-05-02T15:34:30.567Z</time></trkpt><trkpt lat="43.1427847" lon="11.5818756"><ele>279.0</ele><time>2026-05-02T15:34:31.597Z</time></trkpt><trkpt lat="43.1429846" lon="11.5819345"><ele>279.0</ele><time>2026-05-02T15:34:32.608Z</time></trkpt><trkpt lat="43.1431849" lon="11.5820094"><ele>279.0</ele><time>2026-05-02T15:34:33.594Z</time></trkpt><trkpt lat="43.1433818" lon="11.5821044"><ele>276.0</ele><time>2026-05-02T15:34:34.566Z</time></trkpt><trkpt lat="43.1435814" lon="11.5822106"><ele>273.0</ele><time>2026-05-02T15:34:35.536Z</time></trkpt><trkpt lat="43.14378" lon="11.5823315"><ele>270.0</ele><time>2026-05-02T15:34:36.521Z</time></trkpt><trkpt lat="43.1439808" lon="11.5824458"><ele>270.3333333333333</ele><time>2026-05-02T15:34:37.588Z</time></trkpt><trkpt lat="43.1441757" lon="11.582553"><ele>270.66666666666663</ele><time>2026-05-02T15:34:38.535Z</time></trkpt><trkpt lat="43.1443583" lon="11.582656"><ele>271.0</ele><time>2026-05-02T15:34:39.569Z</time></trkpt><trkpt lat="43.1445259" lon="11.5827583"><ele>270.3333333333333</ele><time>2026-05-02T15:34:40.493Z</time></trkpt><trkpt lat="43.1446838" lon="11.5828559"><ele>269.6666666666667</ele><time>2026-05-02T15:34:41.497Z</time></trkpt><trkpt lat="43.1448389" lon="11.5829527"><ele>269.0</ele><time>2026-05-02T15:34:42.504Z</time></trkpt><trkpt lat="43.1449981" lon="11.5830359"><ele>268.6666666666667</ele><time>2026-05-02T15:34:43.517Z</time></trkpt><trkpt lat="43.14517" lon="11.58312"><ele>268.3333333333333</ele><time>2026-05-02T15:34:44.529Z</time></trkpt><trkpt lat="43.1453496" lon="11.5832064"><ele>268.0</ele><time>2026-05-02T15:34:45.527Z</time></trkpt><trkpt lat="43.1455462" lon="11.5832805"><ele>269.5</ele><time>2026-05-02T15:34:46.53Z</time></trkpt><trkpt lat="43.1457638" lon="11.5833424"><ele>271.0</ele><time>2026-05-02T15:34:47.571Z</time></trkpt><trkpt lat="43.145993" lon="11.5833818"><ele>271.0</ele><time>2026-05-02T15:34:48.591Z</time></trkpt><trkpt lat="43.1462364" lon="11.58342"><ele>271.0</ele><time>2026-05-02T15:34:49.656Z</time></trkpt><trkpt lat="43.1464915" lon="11.583454"><ele>270.66666666666663</ele><time>2026-05-02T15:34:50.697Z</time></trkpt><trkpt lat="43.1467261" lon="11.5834969"><ele>270.3333333333333</ele><time>2026-05-02T15:34:51.717Z</time></trkpt><trkpt lat="43.1469341" lon="11.583543"><ele>270.0</ele><time>2026-05-02T15:34:52.756Z</time></trkpt><trkpt lat="43.1470982" lon="11.5835863"><ele>270.0</ele><time>2026-05-02T15:34:53.767Z</time></trkpt><trkpt lat="43.1472227" lon="11.5836078"><ele>270.0</ele><time>2026-05-02T15:34:54.747Z</time></trkpt><trkpt lat="43.147321" lon="11.5836268"><ele>270.0</ele><time>2026-05-02T15:34:55.811Z</time></trkpt><trkpt lat="43.1473886" lon="11.5836395"><ele>270.0</ele><time>2026-05-02T15:34:56.781Z</time></trkpt><trkpt lat="43.1475083" lon="11.5835384"><ele>270.0</ele><time>2026-05-02T15:34:59.542Z</time></trkpt><trkpt lat="43.1475114" lon="11.5833532"><ele>270.2</ele><time>2026-05-02T15:35:01.649Z</time></trkpt><trkpt lat="43.1475381" lon="11.5832449"><ele>270.4</ele><time>2026-05-02T15:35:02.729Z</time></trkpt><trkpt lat="43.1475648" lon="11.5831043"><ele>270.6</ele><time>2026-05-02T15:35:03.737Z</time></trkpt><trkpt lat="43.1475982" lon="11.5829595"><ele>270.8</ele><time>2026-05-02T15:35:04.718Z</time></trkpt><trkpt lat="43.1476287" lon="11.582809"><ele>271.0</ele><time>2026-05-02T15:35:05.711Z</time></trkpt><trkpt lat="43.1476967" lon="11.5825126"><ele>271.8</ele><time>2026-05-02T15:35:07.521Z</time></trkpt><trkpt lat="43.1477281" lon="11.5823702"><ele>272.6</ele><time>2026-05-02T15:35:08.553Z</time></trkpt><trkpt lat="43.1477544" lon="11.58224"><ele>273.4</ele><time>2026-05-02T15:35:09.612Z</time></trkpt><trkpt lat="43.1477731" lon="11.582106"><ele>274.2</ele><time>2026-05-02T15:35:10.676Z</time></trkpt><trkpt lat="43.1477818" lon="11.5819827"><ele>275.0</ele><time>2026-05-02T15:35:11.757Z</time></trkpt><trkpt lat="43.1477717" lon="11.5818677"><ele>277.0</ele><time>2026-05-02T15:35:12.949Z</time></trkpt><trkpt lat="43.1477524" lon="11.5817459"><ele>279.0</ele><time>2026-05-02T15:35:14.082Z</time></trkpt><trkpt lat="43.1476875" lon="11.5814919"><ele>281.0</ele><time>2026-05-02T15:35:16.001Z</time></trkpt><trkpt lat="43.1476655" lon="11.5813591"><ele>283.0</ele><time>2026-05-02T15:35:17.071Z</time></trkpt><trkpt lat="43.147642" lon="11.5810626"><ele>285.66666666666663</ele><time>2026-05-02T15:35:19.096Z</time></trkpt><trkpt lat="43.1476826" lon="11.580666"><ele>288.3333333333333</ele><time>2026-05-02T15:35:22.003Z</time></trkpt><trkpt lat="43.1477127" lon="11.5805726"><ele>291.0</ele><time>2026-05-02T15:35:23.029Z</time></trkpt><trkpt lat="43.1477897" lon="11.5804318"><ele>291.0</ele><time>2026-05-02T15:35:26.569Z</time></trkpt><trkpt lat="43.1478791" lon="11.5805433"><ele>291.0</ele><time>2026-05-02T15:35:28.633Z</time></trkpt><trkpt lat="43.1478999" lon="11.5806476"><ele>291.0</ele><time>2026-05-02T15:35:29.643Z</time></trkpt><trkpt lat="43.1479339" lon="11.5807898"><ele>291.0</ele><time>2026-05-02T15:35:30.637Z</time></trkpt><trkpt lat="43.1479872" lon="11.5809473"><ele>291.0</ele><time>2026-05-02T15:35:31.807Z</time></trkpt><trkpt lat="43.1480318" lon="11.5810855"><ele>290.5</ele><time>2026-05-02T15:35:32.947Z</time></trkpt><trkpt lat="43.1480728" lon="11.5811875"><ele>290.0</ele><time>2026-05-02T15:35:34.157Z</time></trkpt><trkpt lat="43.1481596" lon="11.5812824"><ele>289.5</ele><time>2026-05-02T15:35:35.577Z</time></trkpt><trkpt lat="43.1482259" lon="11.5812791"><ele>289.0</ele><time>2026-05-02T15:35:36.64Z</time></trkpt><trkpt lat="43.1483011" lon="11.5812466"><ele>288.5</ele><time>2026-05-02T15:35:37.914Z</time></trkpt><trkpt lat="43.1483694" lon="11.5811936"><ele>288.0</ele><time>2026-05-02T15:35:38.903Z</time></trkpt><trkpt lat="43.1484574" lon="11.5810883"><ele>290.6666666666667</ele><time>2026-05-02T15:35:40.511Z</time></trkpt><trkpt lat="43.1484956" lon="11.5810034"><ele>293.3333333333333</ele><time>2026-05-02T15:36:12.616Z</time></trkpt><trkpt lat="43.1485345" lon="11.5808679"><ele>296.0</ele><time>2026-05-02T15:36:14.747Z</time></trkpt><trkpt lat="43.1485507" lon="11.580771"><ele>298.66666666666663</ele><time>2026-05-02T15:36:15.811Z</time></trkpt><trkpt lat="43.1485654" lon="11.5806633"><ele>301.3333333333333</ele><time>2026-05-02T15:36:16.932Z</time></trkpt><trkpt lat="43.1485811" lon="11.5805431"><ele>304.0</ele><time>2026-05-02T15:36:17.869Z</time></trkpt><trkpt lat="43.1486007" lon="11.5804139"><ele>305.25</ele><time>2026-05-02T15:36:19.062Z</time></trkpt><trkpt lat="43.1486513" lon="11.5801171"><ele>306.5</ele><time>2026-05-02T15:36:20.505Z</time></trkpt><trkpt lat="43.1486798" lon="11.5799656"><ele>307.75</ele><time>2026-05-02T15:36:21.502Z</time></trkpt><trkpt lat="43.1487069" lon="11.5798198"><ele>309.0</ele><time>2026-05-02T15:36:22.512Z</time></trkpt><trkpt lat="43.1487319" lon="11.5796798"><ele>309.0</ele><time>2026-05-02T15:36:23.515Z</time></trkpt><trkpt lat="43.1487583" lon="11.5795399"><ele>309.0</ele><time>2026-05-02T15:36:24.51Z</time></trkpt><trkpt lat="43.1487804" lon="11.579401"><ele>309.0</ele><time>2026-05-02T15:36:25.515Z</time></trkpt><trkpt lat="43.1488055" lon="11.5792578"><ele>309.0</ele><time>2026-05-02T15:36:26.497Z</time></trkpt><trkpt lat="43.1488314" lon="11.5791126"><ele>309.0</ele><time>2026-05-02T15:36:27.526Z</time></trkpt><trkpt lat="43.1488562" lon="11.5789654"><ele>309.4</ele><time>2026-05-02T15:36:28.502Z</time></trkpt><trkpt lat="43.1488806" lon="11.5788183"><ele>309.79999999999995</ele><time>2026-05-02T15:36:29.518Z</time></trkpt><trkpt lat="43.1489046" lon="11.5786658"><ele>310.20000000000005</ele><time>2026-05-02T15:36:30.541Z</time></trkpt><trkpt lat="43.1489278" lon="11.5785123"><ele>310.6</ele><time>2026-05-02T15:36:31.524Z</time></trkpt><trkpt lat="43.1489501" lon="11.5783707"><ele>311.0</ele><time>2026-05-02T15:36:32.568Z</time></trkpt><trkpt lat="43.1489708" lon="11.5782542"><ele>311.2</ele><time>2026-05-02T15:36:33.545Z</time></trkpt><trkpt lat="43.1490003" lon="11.5781102"><ele>311.40000000000003</ele><time>2026-05-02T15:36:35.525Z</time></trkpt><trkpt lat="43.1490475" lon="11.5779704"><ele>311.6</ele><time>2026-05-02T15:36:37.576Z</time></trkpt><trkpt lat="43.1490746" lon="11.5778904"><ele>311.8</ele><time>2026-05-02T15:36:38.669Z</time></trkpt><trkpt lat="43.1491079" lon="11.5778157"><ele>312.0</ele><time>2026-05-02T15:36:39.64Z</time></trkpt><trkpt lat="43.1491652" lon="11.5776702"><ele>316.0</ele><time>2026-05-02T15:36:42.047Z</time></trkpt><trkpt lat="43.1492084" lon="11.5775105"><ele>320.0</ele><time>2026-05-02T15:36:43.757Z</time></trkpt><trkpt lat="43.1492215" lon="11.5774119"><ele>324.0</ele><time>2026-05-02T15:36:44.796Z</time></trkpt><trkpt lat="43.1492542" lon="11.5771555"><ele>328.0</ele><time>2026-05-02T15:36:46.505Z</time></trkpt><trkpt lat="43.1492716" lon="11.5770211"><ele>327.8333333333333</ele><time>2026-05-02T15:36:47.527Z</time></trkpt><trkpt lat="43.1492869" lon="11.5768848"><ele>327.66666666666663</ele><time>2026-05-02T15:36:48.551Z</time></trkpt><trkpt lat="43.1492991" lon="11.5767545"><ele>327.5</ele><time>2026-05-02T15:36:49.551Z</time></trkpt><trkpt lat="43.1493067" lon="11.5766339"><ele>327.3333333333333</ele><time>2026-05-02T15:36:50.518Z</time></trkpt><trkpt lat="43.1493133" lon="11.5765221"><ele>327.1666666666667</ele><time>2026-05-02T15:36:51.518Z</time></trkpt><trkpt lat="43.1493099" lon="11.5764171"><ele>327.0</ele><time>2026-05-02T15:36:52.542Z</time></trkpt><trkpt lat="43.1493058" lon="11.576306"><ele>327.0</ele><time>2026-05-02T15:36:53.516Z</time></trkpt><trkpt lat="43.1493012" lon="11.5762047"><ele>327.0</ele><time>2026-05-02T15:36:54.607Z</time></trkpt><trkpt lat="43.1493007" lon="11.57611"><ele>327.0</ele><time>2026-05-02T15:36:55.698Z</time></trkpt><trkpt lat="43.1492875" lon="11.5758387"><ele>327.0</ele><time>2026-05-02T15:36:58.53Z</time></trkpt><trkpt lat="43.1492895" lon="11.5757274"><ele>327.0</ele><time>2026-05-02T15:36:59.611Z</time></trkpt><trkpt lat="43.1492935" lon="11.5756236"><ele>327.20000000000005</ele><time>2026-05-02T15:37:00.924Z</time></trkpt><trkpt lat="43.1492957" lon="11.5755326"><ele>327.4</ele><time>2026-05-02T15:37:01.98Z</time></trkpt><trkpt lat="43.1492781" lon="11.5754354"><ele>327.6</ele><time>2026-05-02T15:37:05.129Z</time></trkpt><trkpt lat="43.1492945" lon="11.5753289"><ele>327.79999999999995</ele><time>2026-05-02T15:37:07.883Z</time></trkpt><trkpt lat="43.1492687" lon="11.5751419"><ele>328.0</ele><time>2026-05-02T15:37:10.093Z</time></trkpt><trkpt lat="43.149207" lon="11.5749128"><ele>327.2</ele><time>2026-05-02T15:37:11.487Z</time></trkpt><trkpt lat="43.1491704" lon="11.5747687"><ele>326.4</ele><time>2026-05-02T15:37:12.513Z</time></trkpt><trkpt lat="43.149134" lon="11.5746272"><ele>325.59999999999997</ele><time>2026-05-02T15:37:13.547Z</time></trkpt><trkpt lat="43.1490969" lon="11.5744894"><ele>324.79999999999995</ele><time>2026-05-02T15:37:14.573Z</time></trkpt><trkpt lat="43.1490656" lon="11.574375"><ele>324.0</ele><time>2026-05-02T15:37:15.506Z</time></trkpt><trkpt lat="43.1490388" lon="11.5742797"><ele>322.1666666666667</ele><time>2026-05-02T15:37:16.514Z</time></trkpt><trkpt lat="43.1489919" lon="11.574137"><ele>320.3333333333333</ele><time>2026-05-02T15:37:18.519Z</time></trkpt><trkpt lat="43.1489514" lon="11.5740342"><ele>318.5</ele><time>2026-05-02T15:37:20.583Z</time></trkpt><trkpt lat="43.1489234" lon="11.5739383"><ele>316.66666666666663</ele><time>2026-05-02T15:37:23.977Z</time></trkpt><trkpt lat="43.1489198" lon="11.574037"><ele>314.8333333333333</ele><time>2026-05-02T15:37:36.512Z</time></trkpt><trkpt lat="43.148947" lon="11.5741269"><ele>313.0</ele><time>2026-05-02T15:37:37.515Z</time></trkpt><trkpt lat="43.1489749" lon="11.5742277"><ele>313.0</ele><time>2026-05-02T15:37:38.534Z</time></trkpt><trkpt lat="43.1490085" lon="11.574353"><ele>313.0</ele><time>2026-05-02T15:37:39.507Z</time></trkpt><trkpt lat="43.1490479" lon="11.5745075"><ele>313.0</ele><time>2026-05-02T15:37:40.51Z</time></trkpt><trkpt lat="43.1490834" lon="11.5746641"><ele>313.0</ele><time>2026-05-02T15:37:41.534Z</time></trkpt><trkpt lat="43.1491189" lon="11.5747992"><ele>313.0</ele><time>2026-05-02T15:37:42.508Z</time></trkpt><trkpt lat="43.1491529" lon="11.5749141"><ele>314.8333333333333</ele><time>2026-05-02T15:37:43.505Z</time></trkpt><trkpt lat="43.149181" lon="11.5750273"><ele>316.66666666666663</ele><time>2026-05-02T15:37:44.543Z</time></trkpt><trkpt lat="43.149207" lon="11.575121"><ele>318.5</ele><time>2026-05-02T15:37:45.528Z</time></trkpt><trkpt lat="43.1492313" lon="11.5752084"><ele>320.3333333333333</ele><time>2026-05-02T15:37:46.525Z</time></trkpt><trkpt lat="43.1492678" lon="11.5753548"><ele>322.1666666666667</ele><time>2026-05-02T15:37:48.53Z</time></trkpt><trkpt lat="43.1492993" lon="11.5754891"><ele>324.0</ele><time>2026-05-02T15:37:50.554Z</time></trkpt><trkpt lat="43.1492358" lon="11.5753501"><ele>324.0</ele><time>2026-05-02T15:37:57.597Z</time></trkpt><trkpt lat="43.1492132" lon="11.5752298"><ele>324.0</ele><time>2026-05-02T15:37:58.61Z</time></trkpt><trkpt lat="43.1491897" lon="11.5751006"><ele>324.0</ele><time>2026-05-02T15:37:59.599Z</time></trkpt><trkpt lat="43.1491619" lon="11.5749572"><ele>324.0</ele><time>2026-05-02T15:38:00.641Z</time></trkpt><trkpt lat="43.1491258" lon="11.5748089"><ele>324.0</ele><time>2026-05-02T15:38:01.662Z</time></trkpt><trkpt lat="43.1490817" lon="11.5746641"><ele>321.25</ele><time>2026-05-02T15:38:02.673Z</time></trkpt><trkpt lat="43.1490333" lon="11.5745118"><ele>318.5</ele><time>2026-05-02T15:38:03.59Z</time></trkpt><trkpt lat="43.1489899" lon="11.5743547"><ele>315.75</ele><time>2026-05-02T15:38:04.501Z</time></trkpt><trkpt lat="43.1489405" lon="11.5742063"><ele>313.0</ele><time>2026-05-02T15:38:05.525Z</time></trkpt><trkpt lat="43.148894" lon="11.5740671"><ele>313.0</ele><time>2026-05-02T15:38:06.538Z</time></trkpt><trkpt lat="43.1488461" lon="11.5739435"><ele>313.0</ele><time>2026-05-02T15:38:07.542Z</time></trkpt><trkpt lat="43.1487874" lon="11.5738223"><ele>313.0</ele><time>2026-05-02T15:38:08.509Z</time></trkpt><trkpt lat="43.1487218" lon="11.5737021"><ele>313.0</ele><time>2026-05-02T15:38:09.491Z</time></trkpt><trkpt lat="43.1486488" lon="11.573576"><ele>313.0</ele><time>2026-05-02T15:38:10.496Z</time></trkpt><trkpt lat="43.1485757" lon="11.5734573"><ele>315.2</ele><time>2026-05-02T15:38:11.48Z</time></trkpt><trkpt lat="43.1485009" lon="11.573345"><ele>317.4</ele><time>2026-05-02T15:38:12.499Z</time></trkpt><trkpt lat="43.1484328" lon="11.5732494"><ele>319.59999999999997</ele><time>2026-05-02T15:38:13.528Z</time></trkpt><trkpt lat="43.1483654" lon="11.5731617"><ele>321.8</ele><time>2026-05-02T15:38:14.554Z</time></trkpt><trkpt lat="43.1483047" lon="11.573074"><ele>324.0</ele><time>2026-05-02T15:38:15.608Z</time></trkpt><trkpt lat="43.1482511" lon="11.5729791"><ele>322.8</ele><time>2026-05-02T15:38:16.637Z</time></trkpt><trkpt lat="43.1482045" lon="11.5728692"><ele>321.59999999999997</ele><time>2026-05-02T15:38:17.709Z</time></trkpt><trkpt lat="43.1481561" lon="11.5727477"><ele>320.4</ele><time>2026-05-02T15:38:18.74Z</time></trkpt><trkpt lat="43.148105" lon="11.5726205"><ele>319.2</ele><time>2026-05-02T15:38:19.829Z</time></trkpt><trkpt lat="43.1480531" lon="11.5724992"><ele>318.0</ele><time>2026-05-02T15:38:20.801Z</time></trkpt><trkpt lat="43.1480097" lon="11.5723998"><ele>318.0</ele><time>2026-05-02T15:38:21.923Z</time></trkpt><trkpt lat="43.1479759" lon="11.5723157"><ele>318.0</ele><time>2026-05-02T15:38:23.165Z</time></trkpt><trkpt lat="43.1479391" lon="11.5721904"><ele>318.0</ele><time>2026-05-02T15:38:25.317Z</time></trkpt><trkpt lat="43.1479655" lon="11.5720973"><ele>318.0</ele><time>2026-05-02T15:38:26.508Z</time></trkpt><trkpt lat="43.1480741" lon="11.5720853"><ele>318.0</ele><time>2026-05-02T15:38:28.698Z</time></trkpt><trkpt lat="43.1481489" lon="11.5720939"><ele>318.0</ele><time>2026-05-02T15:38:29.7Z</time></trkpt><trkpt lat="43.1482335" lon="11.5721052"><ele>318.5</ele><time>2026-05-02T15:38:30.678Z</time></trkpt><trkpt lat="43.1483344" lon="11.5721009"><ele>319.0</ele><time>2026-05-02T15:38:31.641Z</time></trkpt><trkpt lat="43.148445" lon="11.572093"><ele>319.5</ele><time>2026-05-02T15:38:32.833Z</time></trkpt><trkpt lat="43.1485414" lon="11.5720603"><ele>320.0</ele><time>2026-05-02T15:38:33.944Z</time></trkpt><trkpt lat="43.1487103" lon="11.5719621"><ele>320.0</ele><time>2026-05-02T15:38:35.465Z</time></trkpt><trkpt lat="43.1487954" lon="11.5718858"><ele>320.0</ele><time>2026-05-02T15:38:36.497Z</time></trkpt><trkpt lat="43.148869" lon="11.5717817"><ele>320.0</ele><time>2026-05-02T15:38:37.562Z</time></trkpt><trkpt lat="43.1489291" lon="11.5716656"><ele>320.0</ele><time>2026-05-02T15:38:38.656Z</time></trkpt><trkpt lat="43.1489789" lon="11.5715618"><ele>320.0</ele><time>2026-05-02T15:38:39.76Z</time></trkpt><trkpt lat="43.1490902" lon="11.5713775"><ele>320.6666666666667</ele><time>2026-05-02T15:38:42.042Z</time></trkpt><trkpt lat="43.1493084" lon="11.571198"><ele>321.3333333333333</ele><time>2026-05-02T15:38:45.626Z</time></trkpt><trkpt lat="43.1494941" lon="11.5711426"><ele>322.0</ele><time>2026-05-02T15:38:46.95Z</time></trkpt><trkpt lat="43.1496882" lon="11.5711307"><ele>322.66666666666663</ele><time>2026-05-02T15:38:49.461Z</time></trkpt><trkpt lat="43.1498675" lon="11.5710711"><ele>323.3333333333333</ele><time>2026-05-02T15:38:51.794Z</time></trkpt><trkpt lat="43.1500345" lon="11.570925"><ele>324.0</ele><time>2026-05-02T15:38:52.703Z</time></trkpt><trkpt lat="43.1501234" lon="11.5708412"><ele>324.25</ele><time>2026-05-02T15:38:53.942Z</time></trkpt><trkpt lat="43.1502065" lon="11.5707506"><ele>324.5</ele><time>2026-05-02T15:38:55.075Z</time></trkpt><trkpt lat="43.1504064" lon="11.5705103"><ele>324.75</ele><time>2026-05-02T15:38:58.076Z</time></trkpt><trkpt lat="43.1504474" lon="11.5704416"><ele>325.0</ele><time>2026-05-02T15:38:59.12Z</time></trkpt><trkpt lat="43.150503" lon="11.5703216"><ele>324.25</ele><time>2026-05-02T15:39:01.071Z</time></trkpt><trkpt lat="43.1505407" lon="11.5701742"><ele>323.5</ele><time>2026-05-02T15:39:02.843Z</time></trkpt><trkpt lat="43.1505633" lon="11.5700809"><ele>322.75</ele><time>2026-05-02T15:39:04.295Z</time></trkpt><trkpt lat="43.1505949" lon="11.5698571"><ele>322.0</ele><time>2026-05-02T15:39:05.908Z</time></trkpt><trkpt lat="43.1505493" lon="11.5695488"><ele>322.5</ele><time>2026-05-02T15:39:09.08Z</time></trkpt><trkpt lat="43.1504333" lon="11.5691402"><ele>323.0</ele><time>2026-05-02T15:39:11.119Z</time></trkpt><trkpt lat="43.1503649" lon="11.5688531"><ele>323.0</ele><time>2026-05-02T15:39:12.733Z</time></trkpt><trkpt lat="43.1503268" lon="11.568703"><ele>323.0</ele><time>2026-05-02T15:39:13.964Z</time></trkpt><trkpt lat="43.150297" lon="11.568555"><ele>323.0</ele><time>2026-05-02T15:39:15.076Z</time></trkpt><trkpt lat="43.1502507" lon="11.5681538"><ele>324.0</ele><time>2026-05-02T15:39:17.886Z</time></trkpt><trkpt lat="43.1502487" lon="11.5680217"><ele>325.0</ele><time>2026-05-02T15:39:18.919Z</time></trkpt><trkpt lat="43.1502551" lon="11.56789"><ele>326.0</ele><time>2026-05-02T15:39:20.04Z</time></trkpt><trkpt lat="43.1502924" lon="11.567641"><ele>327.0</ele><time>2026-05-02T15:39:21.849Z</time></trkpt><trkpt lat="43.150319" lon="11.5675266"><ele>327.8</ele><time>2026-05-02T15:39:22.852Z</time></trkpt><trkpt lat="43.1503523" lon="11.56742"><ele>328.6</ele><time>2026-05-02T15:39:23.952Z</time></trkpt><trkpt lat="43.1503903" lon="11.5673258"><ele>329.40000000000003</ele><time>2026-05-02T15:39:24.992Z</time></trkpt><trkpt lat="43.1504295" lon="11.5672395"><ele>330.20000000000005</ele><time>2026-05-02T15:39:25.903Z</time></trkpt><trkpt lat="43.1504701" lon="11.5671515"><ele>331.0</ele><time>2026-05-02T15:39:27.307Z</time></trkpt><trkpt lat="43.1505487" lon="11.5669695"><ele>331.0</ele><time>2026-05-02T15:39:28.746Z</time></trkpt><trkpt lat="43.1505991" lon="11.5668829"><ele>331.0</ele><time>2026-05-02T15:39:29.767Z</time></trkpt><trkpt lat="43.1506617" lon="11.5667977"><ele>331.0</ele><time>2026-05-02T15:39:30.759Z</time></trkpt><trkpt lat="43.1507297" lon="11.5667035"><ele>331.0</ele><time>2026-05-02T15:39:31.822Z</time></trkpt><trkpt lat="43.1508021" lon="11.5665969"><ele>331.0</ele><time>2026-05-02T15:39:33.052Z</time></trkpt><trkpt lat="43.1509355" lon="11.5663646"><ele>330.25</ele><time>2026-05-02T15:39:34.919Z</time></trkpt><trkpt lat="43.1509861" lon="11.5662244"><ele>329.5</ele><time>2026-05-02T15:39:35.995Z</time></trkpt><trkpt lat="43.1510936" lon="11.5659553"><ele>328.75</ele><time>2026-05-02T15:39:37.594Z</time></trkpt><trkpt lat="43.1511395" lon="11.56584"><ele>328.0</ele><time>2026-05-02T15:39:38.635Z</time></trkpt><trkpt lat="43.1511798" lon="11.5657389"><ele>328.0</ele><time>2026-05-02T15:39:40.178Z</time></trkpt><trkpt lat="43.151228" lon="11.565533"><ele>328.0</ele><time>2026-05-02T15:39:42.392Z</time></trkpt><trkpt lat="43.1512342" lon="11.5652837"><ele>328.0</ele><time>2026-05-02T15:39:43.902Z</time></trkpt><trkpt lat="43.1512154" lon="11.5651161"><ele>326.25</ele><time>2026-05-02T15:39:44.956Z</time></trkpt><trkpt lat="43.15119" lon="11.5649105"><ele>324.5</ele><time>2026-05-02T15:39:45.883Z</time></trkpt><trkpt lat="43.1511673" lon="11.564706"><ele>322.75</ele><time>2026-05-02T15:39:46.917Z</time></trkpt><trkpt lat="43.151153" lon="11.564531"><ele>321.0</ele><time>2026-05-02T15:39:47.866Z</time></trkpt><trkpt lat="43.151132" lon="11.5643683"><ele>321.0</ele><time>2026-05-02T15:39:48.778Z</time></trkpt><trkpt lat="43.151105" lon="11.5641965"><ele>321.0</ele><time>2026-05-02T15:39:49.714Z</time></trkpt><trkpt lat="43.1510675" lon="11.5638512"><ele>321.0</ele><time>2026-05-02T15:39:52.101Z</time></trkpt><trkpt lat="43.1510303" lon="11.5635191"><ele>322.0</ele><time>2026-05-02T15:39:53.855Z</time></trkpt><trkpt lat="43.1510017" lon="11.5633561"><ele>323.0</ele><time>2026-05-02T15:39:54.791Z</time></trkpt><trkpt lat="43.1509679" lon="11.563199"><ele>324.0</ele><time>2026-05-02T15:39:55.793Z</time></trkpt><trkpt lat="43.1509324" lon="11.5630534"><ele>325.0</ele><time>2026-05-02T15:39:56.935Z</time></trkpt><trkpt lat="43.1508993" lon="11.5629264"><ele>326.0</ele><time>2026-05-02T15:39:57.915Z</time></trkpt><trkpt lat="43.1508742" lon="11.5628067"><ele>327.0</ele><time>2026-05-02T15:39:58.929Z</time></trkpt><trkpt lat="43.1508538" lon="11.5626864"><ele>328.0</ele><time>2026-05-02T15:40:00.16Z</time></trkpt><trkpt lat="43.1508508" lon="11.5625496"><ele>329.0</ele><time>2026-05-02T15:40:01.072Z</time></trkpt><trkpt lat="43.1508825" lon="11.5622321"><ele>329.33333333333337</ele><time>2026-05-02T15:40:03.281Z</time></trkpt><trkpt lat="43.1509386" lon="11.5619714"><ele>329.6666666666667</ele><time>2026-05-02T15:40:04.982Z</time></trkpt><trkpt lat="43.151065" lon="11.5617825"><ele>330.0</ele><time>2026-05-02T15:40:07.025Z</time></trkpt><trkpt lat="43.1512577" lon="11.5615965"><ele>330.0</ele><time>2026-05-02T15:40:09.235Z</time></trkpt><trkpt lat="43.1514551" lon="11.5614258"><ele>330.0</ele><time>2026-05-02T15:40:10.858Z</time></trkpt><trkpt lat="43.1515367" lon="11.561343"><ele>330.0</ele><time>2026-05-02T15:40:12.062Z</time></trkpt><trkpt lat="43.1516827" lon="11.5611952"><ele>333.0</ele><time>2026-05-02T15:40:13.61Z</time></trkpt><trkpt lat="43.1517607" lon="11.5611305"><ele>336.0</ele><time>2026-05-02T15:40:15.19Z</time></trkpt><trkpt lat="43.1518368" lon="11.5610768"><ele>339.0</ele><time>2026-05-02T15:40:16.094Z</time></trkpt><trkpt lat="43.1519051" lon="11.5610124"><ele>342.0</ele><time>2026-05-02T15:40:17.074Z</time></trkpt><trkpt lat="43.1519613" lon="11.5609424"><ele>345.0</ele><time>2026-05-02T15:40:17.996Z</time></trkpt><trkpt lat="43.1520104" lon="11.5608622"><ele>348.0</ele><time>2026-05-02T15:40:18.957Z</time></trkpt><trkpt lat="43.1520533" lon="11.5607736"><ele>348.0</ele><time>2026-05-02T15:40:20.127Z</time></trkpt><trkpt lat="43.1520846" lon="11.5606953"><ele>348.0</ele><time>2026-05-02T15:40:21.109Z</time></trkpt><trkpt lat="43.1521236" lon="11.5605322"><ele>348.0</ele><time>2026-05-02T15:40:23.031Z</time></trkpt><trkpt lat="43.1521838" lon="11.560385"><ele>348.0</ele><time>2026-05-02T15:40:24.984Z</time></trkpt><trkpt lat="43.152209" lon="11.5602837"><ele>348.0</ele><time>2026-05-02T15:40:26.165Z</time></trkpt><trkpt lat="43.15222" lon="11.5601558"><ele>342.5</ele><time>2026-05-02T15:40:27.376Z</time></trkpt><trkpt lat="43.1522298" lon="11.5598786"><ele>337.0</ele><time>2026-05-02T15:40:29.086Z</time></trkpt><trkpt lat="43.1523157" lon="11.5594358"><ele>334.25</ele><time>2026-05-02T15:40:31.959Z</time></trkpt><trkpt lat="43.1523329" lon="11.5593065"><ele>331.5</ele><time>2026-05-02T15:40:33.269Z</time></trkpt><trkpt lat="43.1523546" lon="11.5590863"><ele>328.75</ele><time>2026-05-02T15:40:35.105Z</time></trkpt><trkpt lat="43.152397" lon="11.5589753"><ele>326.0</ele><time>2026-05-02T15:40:36.875Z</time></trkpt><trkpt lat="43.1525976" lon="11.5589366"><ele>332.0</ele><time>2026-05-02T15:40:39.531Z</time></trkpt><trkpt lat="43.1527247" lon="11.5589405"><ele>338.0</ele><time>2026-05-02T15:40:40.573Z</time></trkpt><trkpt lat="43.1528482" lon="11.5589472"><ele>344.0</ele><time>2026-05-02T15:40:41.54Z</time></trkpt><trkpt lat="43.1529691" lon="11.558964"><ele>350.0</ele><time>2026-05-02T15:40:42.516Z</time></trkpt><trkpt lat="43.1530926" lon="11.5589941"><ele>351.8</ele><time>2026-05-02T15:40:43.547Z</time></trkpt><trkpt lat="43.1532105" lon="11.5590253"><ele>353.6</ele><time>2026-05-02T15:40:44.587Z</time></trkpt><trkpt lat="43.1533214" lon="11.5590606"><ele>355.4</ele><time>2026-05-02T15:40:45.569Z</time></trkpt><trkpt lat="43.1534175" lon="11.5590945"><ele>357.2</ele><time>2026-05-02T15:40:46.682Z</time></trkpt><trkpt lat="43.1535143" lon="11.5591259"><ele>359.0</ele><time>2026-05-02T15:40:47.755Z</time></trkpt><trkpt lat="43.153599" lon="11.5591468"><ele>359.0</ele><time>2026-05-02T15:40:48.807Z</time></trkpt><trkpt lat="43.1536832" lon="11.5591506"><ele>359.0</ele><time>2026-05-02T15:40:49.778Z</time></trkpt><trkpt lat="43.1538716" lon="11.5591422"><ele>359.0</ele><time>2026-05-02T15:40:51.525Z</time></trkpt><trkpt lat="43.1539701" lon="11.5591235"><ele>359.0</ele><time>2026-05-02T15:40:52.585Z</time></trkpt><trkpt lat="43.1540751" lon="11.5590952"><ele>359.0</ele><time>2026-05-02T15:40:53.671Z</time></trkpt><trkpt lat="43.1541748" lon="11.5590805"><ele>359.0</ele><time>2026-05-02T15:40:54.692Z</time></trkpt><trkpt lat="43.1542703" lon="11.5590831"><ele>359.0</ele><time>2026-05-02T15:40:56.343Z</time></trkpt><trkpt lat="43.1544235" lon="11.5591607"><ele>359.0</ele><time>2026-05-02T15:40:58.135Z</time></trkpt><trkpt lat="43.1545955" lon="11.5593024"><ele>359.0</ele><time>2026-05-02T15:40:59.504Z</time></trkpt><trkpt lat="43.1546985" lon="11.559356"><ele>359.0</ele><time>2026-05-02T15:41:00.537Z</time></trkpt><trkpt lat="43.1547963" lon="11.5594215"><ele>359.0</ele><time>2026-05-02T15:41:01.635Z</time></trkpt><trkpt lat="43.1548972" lon="11.5594971"><ele>359.0</ele><time>2026-05-02T15:41:02.688Z</time></trkpt><trkpt lat="43.1550734" lon="11.559667"><ele>360.0</ele><time>2026-05-02T15:41:04.496Z</time></trkpt><trkpt lat="43.1551496" lon="11.5597588"><ele>361.0</ele><time>2026-05-02T15:41:05.554Z</time></trkpt><trkpt lat="43.1552131" lon="11.5598485"><ele>362.0</ele><time>2026-05-02T15:41:06.623Z</time></trkpt><trkpt lat="43.1552747" lon="11.5599253"><ele>363.0</ele><time>2026-05-02T15:41:07.694Z</time></trkpt><trkpt lat="43.1553374" lon="11.5599906"><ele>364.0</ele><time>2026-05-02T15:41:08.975Z</time></trkpt><trkpt lat="43.1554128" lon="11.5600392"><ele>365.0</ele><time>2026-05-02T15:41:10.327Z</time></trkpt><trkpt lat="43.1555804" lon="11.5601249"><ele>361.0</ele><time>2026-05-02T15:41:11.786Z</time></trkpt><trkpt lat="43.1558439" lon="11.5602654"><ele>357.0</ele><time>2026-05-02T15:41:13.526Z</time></trkpt><trkpt lat="43.1559758" lon="11.560349"><ele>353.0</ele><time>2026-05-02T15:41:14.513Z</time></trkpt><trkpt lat="43.1561017" lon="11.5604272"><ele>352.25</ele><time>2026-05-02T15:41:15.526Z</time></trkpt><trkpt lat="43.1562173" lon="11.5605062"><ele>351.5</ele><time>2026-05-02T15:41:16.512Z</time></trkpt><trkpt lat="43.1563244" lon="11.5605844"><ele>350.75</ele><time>2026-05-02T15:41:17.541Z</time></trkpt><trkpt lat="43.1564237" lon="11.5606665"><ele>350.0</ele><time>2026-05-02T15:41:18.624Z</time></trkpt><trkpt lat="43.1565168" lon="11.5607647"><ele>349.75</ele><time>2026-05-02T15:41:19.655Z</time></trkpt><trkpt lat="43.1566084" lon="11.5608654"><ele>349.5</ele><time>2026-05-02T15:41:20.655Z</time></trkpt><trkpt lat="43.156701" lon="11.5609756"><ele>349.25</ele><time>2026-05-02T15:41:21.696Z</time></trkpt><trkpt lat="43.1567984" lon="11.5610873"><ele>349.0</ele><time>2026-05-02T15:41:22.719Z</time></trkpt><trkpt lat="43.1569878" lon="11.5612813"><ele>349.0</ele><time>2026-05-02T15:41:24.526Z</time></trkpt><trkpt lat="43.1570805" lon="11.561371"><ele>349.0</ele><time>2026-05-02T15:41:25.547Z</time></trkpt><trkpt lat="43.1571639" lon="11.5614579"><ele>349.0</ele><time>2026-05-02T15:41:26.574Z</time></trkpt><trkpt lat="43.1572371" lon="11.5615443"><ele>349.0</ele><time>2026-05-02T15:41:27.634Z</time></trkpt><trkpt lat="43.1572995" lon="11.5616327"><ele>349.0</ele><time>2026-05-02T15:41:28.742Z</time></trkpt><trkpt lat="43.1573475" lon="11.5616982"><ele>351.75</ele><time>2026-05-02T15:41:29.707Z</time></trkpt><trkpt lat="43.1574569" lon="11.5617949"><ele>354.5</ele><time>2026-05-02T15:41:32.057Z</time></trkpt><trkpt lat="43.157519" lon="11.561851"><ele>357.25</ele><time>2026-05-02T15:41:33.087Z</time></trkpt><trkpt lat="43.1576499" lon="11.5620045"><ele>360.0</ele><time>2026-05-02T15:41:34.512Z</time></trkpt><trkpt lat="43.157707" lon="11.56208"><ele>360.6</ele><time>2026-05-02T15:41:35.531Z</time></trkpt><trkpt lat="43.1577545" lon="11.5621612"><ele>361.2</ele><time>2026-05-02T15:41:36.59Z</time></trkpt><trkpt lat="43.1577996" lon="11.562249"><ele>361.79999999999995</ele><time>2026-05-02T15:41:37.644Z</time></trkpt><trkpt lat="43.1578366" lon="11.56235"><ele>362.4</ele><time>2026-05-02T15:41:38.924Z</time></trkpt><trkpt lat="43.1578723" lon="11.5624596"><ele>363.0</ele><time>2026-05-02T15:41:40.095Z</time></trkpt><trkpt lat="43.1579444" lon="11.5626838"><ele>363.0</ele><time>2026-05-02T15:41:42.008Z</time></trkpt><trkpt lat="43.1579895" lon="11.5627879"><ele>363.0</ele><time>2026-05-02T15:41:43.059Z</time></trkpt><trkpt lat="43.1580385" lon="11.5628829"><ele>363.0</ele><time>2026-05-02T15:41:43.999Z</time></trkpt><trkpt lat="43.1580899" lon="11.5629877"><ele>363.0</ele><time>2026-05-02T15:41:44.977Z</time></trkpt><trkpt lat="43.1581954" lon="11.5632287"><ele>364.2</ele><time>2026-05-02T15:41:46.553Z</time></trkpt><trkpt lat="43.1582488" lon="11.563355"><ele>365.4</ele><time>2026-05-02T15:41:47.557Z</time></trkpt><trkpt lat="43.1583012" lon="11.5634758"><ele>366.59999999999997</ele><time>2026-05-02T15:41:48.566Z</time></trkpt><trkpt lat="43.1583493" lon="11.5635913"><ele>367.79999999999995</ele><time>2026-05-02T15:41:49.521Z</time></trkpt><trkpt lat="43.1583964" lon="11.5636995"><ele>369.0</ele><time>2026-05-02T15:41:50.538Z</time></trkpt><trkpt lat="43.1584402" lon="11.5637995"><ele>369.0</ele><time>2026-05-02T15:41:51.557Z</time></trkpt><trkpt lat="43.1584814" lon="11.5638916"><ele>369.0</ele><time>2026-05-02T15:41:52.603Z</time></trkpt><trkpt lat="43.1585191" lon="11.5639817"><ele>369.0</ele><time>2026-05-02T15:41:53.631Z</time></trkpt><trkpt lat="43.1585683" lon="11.5640615"><ele>369.0</ele><time>2026-05-02T15:41:54.688Z</time></trkpt><trkpt lat="43.1586352" lon="11.5641393"><ele>369.0</ele><time>2026-05-02T15:41:55.719Z</time></trkpt><trkpt lat="43.158713" lon="11.5642131"><ele>369.0</ele><time>2026-05-02T15:41:56.833Z</time></trkpt><trkpt lat="43.1588015" lon="11.5642737"><ele>369.0</ele><time>2026-05-02T15:41:57.751Z</time></trkpt><trkpt lat="43.1590024" lon="11.5643245"><ele>369.0</ele><time>2026-05-02T15:41:59.552Z</time></trkpt><trkpt lat="43.1591068" lon="11.5643093"><ele>369.0</ele><time>2026-05-02T15:42:00.616Z</time></trkpt><trkpt lat="43.1592097" lon="11.5642779"><ele>369.0</ele><time>2026-05-02T15:42:01.688Z</time></trkpt><trkpt lat="43.1593023" lon="11.5642404"><ele>370.0</ele><time>2026-05-02T15:42:02.715Z</time></trkpt><trkpt lat="43.1593848" lon="11.5641999"><ele>371.0</ele><time>2026-05-02T15:42:03.87Z</time></trkpt><trkpt lat="43.1594585" lon="11.5641579"><ele>372.0</ele><time>2026-05-02T15:42:05.101Z</time></trkpt><trkpt lat="43.1595765" lon="11.5640388"><ele>373.0</ele><time>2026-05-02T15:42:06.613Z</time></trkpt><trkpt lat="43.1596257" lon="11.5639722"><ele>374.0</ele><time>2026-05-02T15:42:07.67Z</time></trkpt><trkpt lat="43.1596709" lon="11.5639015"><ele>370.75</ele><time>2026-05-02T15:42:08.874Z</time></trkpt><trkpt lat="43.15971" lon="11.5636599"><ele>367.5</ele><time>2026-05-02T15:42:12.888Z</time></trkpt><trkpt lat="43.1597008" lon="11.5635254"><ele>364.25</ele><time>2026-05-02T15:42:13.997Z</time></trkpt><trkpt lat="43.1597451" lon="11.5633821"><ele>361.0</ele><time>2026-05-02T15:42:16.54Z</time></trkpt><trkpt lat="43.159799" lon="11.5633241"><ele>361.0</ele><time>2026-05-02T15:42:18.612Z</time></trkpt><trkpt lat="43.159864" lon="11.5632851"><ele>361.0</ele><time>2026-05-02T15:42:20.915Z</time></trkpt><trkpt lat="43.1599552" lon="11.5632495"><ele>361.0</ele><time>2026-05-02T15:42:23.049Z</time></trkpt><trkpt lat="43.1600349" lon="11.5631617"><ele>361.0</ele><time>2026-05-02T15:42:25.141Z</time></trkpt><trkpt lat="43.1600902" lon="11.5630273"><ele>361.0</ele><time>2026-05-02T15:42:28.103Z</time></trkpt><trkpt lat="43.1601718" lon="11.5628739"><ele>361.0</ele><time>2026-05-02T15:42:31.166Z</time></trkpt><trkpt lat="43.1602708" lon="11.5628205"><ele>361.0</ele><time>2026-05-02T15:42:33.307Z</time></trkpt><trkpt lat="43.1603704" lon="11.562819"><ele>361.0</ele><time>2026-05-02T15:42:34.989Z</time></trkpt><trkpt lat="43.1604288" lon="11.5628522"><ele>361.0</ele><time>2026-05-02T15:42:36.304Z</time></trkpt><trkpt lat="43.1605688" lon="11.5629241"><ele>361.0</ele><time>2026-05-02T15:42:37.507Z</time></trkpt><trkpt lat="43.1606501" lon="11.5629807"><ele>362.4</ele><time>2026-05-02T15:42:38.524Z</time></trkpt><trkpt lat="43.1607288" lon="11.5630319"><ele>363.8</ele><time>2026-05-02T15:42:39.575Z</time></trkpt><trkpt lat="43.160803" lon="11.5630858"><ele>365.2</ele><time>2026-05-02T15:42:40.617Z</time></trkpt><trkpt lat="43.1608719" lon="11.5631497"><ele>366.59999999999997</ele><time>2026-05-02T15:42:41.682Z</time></trkpt><trkpt lat="43.160944" lon="11.5632048"><ele>368.0</ele><time>2026-05-02T15:42:42.708Z</time></trkpt><trkpt lat="43.1610832" lon="11.5632674"><ele>368.0</ele><time>2026-05-02T15:42:45.029Z</time></trkpt><trkpt lat="43.1611537" lon="11.5632669"><ele>368.0</ele><time>2026-05-02T15:42:46.068Z</time></trkpt><trkpt lat="43.1612716" lon="11.5632705"><ele>368.0</ele><time>2026-05-02T15:42:47.8Z</time></trkpt><trkpt lat="43.1614198" lon="11.56333"><ele>368.0</ele><time>2026-05-02T15:42:50.954Z</time></trkpt><trkpt lat="43.161515" lon="11.5633892"><ele>368.0</ele><time>2026-05-02T15:42:52.888Z</time></trkpt><trkpt lat="43.1616845" lon="11.5633459"><ele>365.5</ele><time>2026-05-02T15:42:55.883Z</time></trkpt><trkpt lat="43.161767" lon="11.5632869"><ele>363.0</ele><time>2026-05-02T15:42:57.099Z</time></trkpt><trkpt lat="43.1619561" lon="11.5631336"><ele>360.5</ele><time>2026-05-02T15:42:58.541Z</time></trkpt><trkpt lat="43.1620537" lon="11.5630566"><ele>358.0</ele><time>2026-05-02T15:42:59.557Z</time></trkpt><trkpt lat="43.1621527" lon="11.5629784"><ele>358.0</ele><time>2026-05-02T15:43:00.551Z</time></trkpt><trkpt lat="43.1622533" lon="11.5629019"><ele>358.0</ele><time>2026-05-02T15:43:01.603Z</time></trkpt><trkpt lat="43.162349" lon="11.5628373"><ele>358.0</ele><time>2026-05-02T15:43:02.675Z</time></trkpt><trkpt lat="43.1624429" lon="11.5627872"><ele>358.0</ele><time>2026-05-02T15:43:03.858Z</time></trkpt><trkpt lat="43.1625325" lon="11.5627619"><ele>358.0</ele><time>2026-05-02T15:43:05.28Z</time></trkpt><trkpt lat="43.1626674" lon="11.5627571"><ele>357.0</ele><time>2026-05-02T15:43:07.171Z</time></trkpt><trkpt lat="43.1627777" lon="11.5627879"><ele>356.0</ele><time>2026-05-02T15:43:09.022Z</time></trkpt><trkpt lat="43.1628501" lon="11.562819"><ele>355.0</ele><time>2026-05-02T15:43:10.094Z</time></trkpt><trkpt lat="43.1629361" lon="11.5628696"><ele>354.0</ele><time>2026-05-02T15:43:11.025Z</time></trkpt><trkpt lat="43.1630171" lon="11.5629343"><ele>353.0</ele><time>2026-05-02T15:43:12.255Z</time></trkpt><trkpt lat="43.1631644" lon="11.5630891"><ele>352.25</ele><time>2026-05-02T15:43:14.077Z</time></trkpt><trkpt lat="43.1633093" lon="11.5632543"><ele>351.5</ele><time>2026-05-02T15:43:16.021Z</time></trkpt><trkpt lat="43.1634565" lon="11.5633703"><ele>350.75</ele><time>2026-05-02T15:43:17.943Z</time></trkpt><trkpt lat="43.1635397" lon="11.5634049"><ele>350.0</ele><time>2026-05-02T15:43:18.892Z</time></trkpt><trkpt lat="43.1637307" lon="11.5634248"><ele>350.0</ele><time>2026-05-02T15:43:20.923Z</time></trkpt><trkpt lat="43.1638394" lon="11.5634181"><ele>350.0</ele><time>2026-05-02T15:43:22.127Z</time></trkpt><trkpt lat="43.1639491" lon="11.5634099"><ele>350.0</ele><time>2026-05-02T15:43:23.298Z</time></trkpt><trkpt lat="43.1641758" lon="11.5634028"><ele>350.0</ele><time>2026-05-02T15:43:24.513Z</time></trkpt><trkpt lat="43.1642783" lon="11.5634023"><ele>351.6666666666667</ele><time>2026-05-02T15:43:25.511Z</time></trkpt><trkpt lat="43.1643622" lon="11.5633973"><ele>353.33333333333337</ele><time>2026-05-02T15:43:26.525Z</time></trkpt><trkpt lat="43.1644368" lon="11.5633855"><ele>355.0</ele><time>2026-05-02T15:43:27.548Z</time></trkpt><trkpt lat="43.164504" lon="11.5633531"><ele>356.6666666666667</ele><time>2026-05-02T15:43:28.601Z</time></trkpt><trkpt lat="43.1645737" lon="11.5633066"><ele>358.3333333333333</ele><time>2026-05-02T15:43:29.691Z</time></trkpt><trkpt lat="43.1646469" lon="11.5632528"><ele>360.0</ele><time>2026-05-02T15:43:30.674Z</time></trkpt><trkpt lat="43.1647222" lon="11.5632098"><ele>360.0</ele><time>2026-05-02T15:43:31.724Z</time></trkpt><trkpt lat="43.1648064" lon="11.5631811"><ele>360.0</ele><time>2026-05-02T15:43:32.767Z</time></trkpt><trkpt lat="43.1648908" lon="11.5631607"><ele>360.0</ele><time>2026-05-02T15:43:33.807Z</time></trkpt><trkpt lat="43.1650936" lon="11.5631302"><ele>360.0</ele><time>2026-05-02T15:43:35.768Z</time></trkpt><trkpt lat="43.1652556" lon="11.5630984"><ele>360.5</ele><time>2026-05-02T15:43:37.574Z</time></trkpt><trkpt lat="43.1653686" lon="11.5630655"><ele>361.0</ele><time>2026-05-02T15:43:39.801Z</time></trkpt><trkpt lat="43.1654275" lon="11.5630329"><ele>361.5</ele><time>2026-05-02T15:43:41.046Z</time></trkpt><trkpt lat="43.1655897" lon="11.562882"><ele>362.0</ele><time>2026-05-02T15:43:43.916Z</time></trkpt><trkpt lat="43.1656506" lon="11.5627884"><ele>363.8</ele><time>2026-05-02T15:43:44.998Z</time></trkpt><trkpt lat="43.1657211" lon="11.5626801"><ele>365.6</ele><time>2026-05-02T15:43:46.1Z</time></trkpt><trkpt lat="43.1657822" lon="11.5625683"><ele>367.40000000000003</ele><time>2026-05-02T15:43:47.058Z</time></trkpt><trkpt lat="43.1658622" lon="11.5623921"><ele>369.20000000000005</ele><time>2026-05-02T15:43:48.647Z</time></trkpt><trkpt lat="43.1659082" lon="11.5623048"><ele>371.0</ele><time>2026-05-02T15:43:52.855Z</time></trkpt><trkpt lat="43.1659163" lon="11.562164"><ele>371.0</ele><time>2026-05-02T15:43:55.504Z</time></trkpt><trkpt lat="43.165923" lon="11.5620418"><ele>371.0</ele><time>2026-05-02T15:43:57.525Z</time></trkpt><trkpt lat="43.1659369" lon="11.5619415"><ele>371.0</ele><time>2026-05-02T15:43:59.663Z</time></trkpt><trkpt lat="43.1660101" lon="11.5618698"><ele>371.0</ele><time>2026-05-02T15:44:03.897Z</time></trkpt><trkpt lat="43.1661138" lon="11.5618763"><ele>371.0</ele><time>2026-05-02T15:44:06.028Z</time></trkpt><trkpt lat="43.1662358" lon="11.5618538"><ele>370.5</ele><time>2026-05-02T15:44:07.919Z</time></trkpt><trkpt lat="43.1663994" lon="11.5617853"><ele>370.0</ele><time>2026-05-02T15:44:10.54Z</time></trkpt><trkpt lat="43.1664922" lon="11.561705"><ele>369.5</ele><time>2026-05-02T15:44:12.655Z</time></trkpt><trkpt lat="43.166572" lon="11.5615796"><ele>369.0</ele><time>2026-05-02T15:44:14.728Z</time></trkpt><trkpt lat="43.1666125" lon="11.5615044"><ele>364.6</ele><time>2026-05-02T15:44:15.767Z</time></trkpt><trkpt lat="43.1666519" lon="11.5614273"><ele>360.2</ele><time>2026-05-02T15:44:17.029Z</time></trkpt><trkpt lat="43.1666904" lon="11.561343"><ele>355.8</ele><time>2026-05-02T15:44:18.061Z</time></trkpt><trkpt lat="43.1667809" lon="11.5611875"><ele>351.40000000000003</ele><time>2026-05-02T15:44:19.661Z</time></trkpt><trkpt lat="43.1668401" lon="11.5611106"><ele>347.0</ele><time>2026-05-02T15:44:20.567Z</time></trkpt><trkpt lat="43.1669089" lon="11.5610379"><ele>343.75</ele><time>2026-05-02T15:44:21.53Z</time></trkpt><trkpt lat="43.1669905" lon="11.5609755"><ele>340.5</ele><time>2026-05-02T15:44:22.803Z</time></trkpt><trkpt lat="43.1670813" lon="11.5609284"><ele>337.25</ele><time>2026-05-02T15:44:24.355Z</time></trkpt><trkpt lat="43.1672736" lon="11.5608381"><ele>334.0</ele><time>2026-05-02T15:44:25.867Z</time></trkpt><trkpt lat="43.1673819" lon="11.5608067"><ele>333.0</ele><time>2026-05-02T15:44:26.898Z</time></trkpt><trkpt lat="43.167586" lon="11.5607308"><ele>332.0</ele><time>2026-05-02T15:44:28.882Z</time></trkpt><trkpt lat="43.1676784" lon="11.5606977"><ele>331.0</ele><time>2026-05-02T15:44:29.802Z</time></trkpt><trkpt lat="43.1677704" lon="11.5606702"><ele>330.0</ele><time>2026-05-02T15:44:30.734Z</time></trkpt><trkpt lat="43.1678664" lon="11.5606619"><ele>330.0</ele><time>2026-05-02T15:44:32.174Z</time></trkpt><trkpt lat="43.1680761" lon="11.560704"><ele>330.0</ele><time>2026-05-02T15:44:33.933Z</time></trkpt><trkpt lat="43.1681996" lon="11.56073"><ele>330.0</ele><time>2026-05-02T15:44:35.284Z</time></trkpt><trkpt lat="43.1684648" lon="11.560741"><ele>332.6666666666667</ele><time>2026-05-02T15:44:36.496Z</time></trkpt><trkpt lat="43.1686136" lon="11.5607304"><ele>335.33333333333337</ele><time>2026-05-02T15:44:37.518Z</time></trkpt><trkpt lat="43.1687736" lon="11.5607274"><ele>338.0</ele><time>2026-05-02T15:44:38.535Z</time></trkpt><trkpt lat="43.1689231" lon="11.5607186"><ele>340.25</ele><time>2026-05-02T15:44:39.55Z</time></trkpt><trkpt lat="43.1690611" lon="11.560708"><ele>342.5</ele><time>2026-05-02T15:44:40.513Z</time></trkpt><trkpt lat="43.1692044" lon="11.5607054"><ele>344.75</ele><time>2026-05-02T15:44:41.522Z</time></trkpt><trkpt lat="43.1693527" lon="11.5607189"><ele>347.0</ele><time>2026-05-02T15:44:42.564Z</time></trkpt><trkpt lat="43.1694952" lon="11.5607238"><ele>347.0</ele><time>2026-05-02T15:44:43.517Z</time></trkpt><trkpt lat="43.1696361" lon="11.56075"><ele>347.0</ele><time>2026-05-02T15:44:44.513Z</time></trkpt><trkpt lat="43.1697568" lon="11.560771"><ele>347.0</ele><time>2026-05-02T15:44:45.528Z</time></trkpt><trkpt lat="43.1698662" lon="11.5608085"><ele>347.0</ele><time>2026-05-02T15:44:46.574Z</time></trkpt><trkpt lat="43.1699654" lon="11.5608307"><ele>348.8</ele><time>2026-05-02T15:44:47.618Z</time></trkpt><trkpt lat="43.1700607" lon="11.5608612"><ele>350.6</ele><time>2026-05-02T15:44:48.576Z</time></trkpt><trkpt lat="43.1701628" lon="11.5609076"><ele>352.40000000000003</ele><time>2026-05-02T15:44:49.77Z</time></trkpt><trkpt lat="43.1702618" lon="11.5609669"><ele>354.20000000000005</ele><time>2026-05-02T15:44:50.801Z</time></trkpt><trkpt lat="43.1703547" lon="11.5610378"><ele>356.0</ele><time>2026-05-02T15:44:51.995Z</time></trkpt><trkpt lat="43.1704438" lon="11.5611025"><ele>356.0</ele><time>2026-05-02T15:44:53.025Z</time></trkpt><trkpt lat="43.1705251" lon="11.5611712"><ele>356.0</ele><time>2026-05-02T15:44:54.176Z</time></trkpt><trkpt lat="43.1706686" lon="11.5612908"><ele>356.0</ele><time>2026-05-02T15:44:55.768Z</time></trkpt><trkpt lat="43.1707315" lon="11.5613564"><ele>356.0</ele><time>2026-05-02T15:44:56.937Z</time></trkpt><trkpt lat="43.1707885" lon="11.5614265"><ele>356.0</ele><time>2026-05-02T15:44:58.13Z</time></trkpt><trkpt lat="43.1708409" lon="11.561507"><ele>355.8</ele><time>2026-05-02T15:44:59.369Z</time></trkpt><trkpt lat="43.1709345" lon="11.5616666"><ele>355.6</ele><time>2026-05-02T15:45:00.941Z</time></trkpt><trkpt lat="43.1709638" lon="11.5617611"><ele>355.4</ele><time>2026-05-02T15:45:01.965Z</time></trkpt><trkpt lat="43.1709936" lon="11.5618483"><ele>355.2</ele><time>2026-05-02T15:45:02.993Z</time></trkpt><trkpt lat="43.1710298" lon="11.5619411"><ele>355.0</ele><time>2026-05-02T15:45:04.164Z</time></trkpt><trkpt lat="43.1711075" lon="11.5621167"><ele>355.0</ele><time>2026-05-02T15:45:05.514Z</time></trkpt><trkpt lat="43.1711534" lon="11.5622053"><ele>355.0</ele><time>2026-05-02T15:45:06.512Z</time></trkpt><trkpt lat="43.1711971" lon="11.5622883"><ele>355.0</ele><time>2026-05-02T15:45:07.524Z</time></trkpt><trkpt lat="43.1712349" lon="11.5623683"><ele>355.0</ele><time>2026-05-02T15:45:08.529Z</time></trkpt><trkpt lat="43.1712689" lon="11.5624538"><ele>355.0</ele><time>2026-05-02T15:45:09.549Z</time></trkpt><trkpt lat="43.1713006" lon="11.5625415"><ele>355.0</ele><time>2026-05-02T15:45:10.547Z</time></trkpt><trkpt lat="43.1713292" lon="11.5626241"><ele>355.0</ele><time>2026-05-02T15:45:11.692Z</time></trkpt><trkpt lat="43.1713694" lon="11.5627618"><ele>355.0</ele><time>2026-05-02T15:45:14.025Z</time></trkpt><trkpt lat="43.1714103" lon="11.562841"><ele>355.0</ele><time>2026-05-02T15:45:15.515Z</time></trkpt><trkpt lat="43.1714772" lon="11.5628221"><ele>355.0</ele><time>2026-05-02T15:45:17.645Z</time></trkpt><trkpt lat="43.1715394" lon="11.562708"><ele>355.0</ele><time>2026-05-02T15:45:19.932Z</time></trkpt><trkpt lat="43.1715735" lon="11.5626085"><ele>355.0</ele><time>2026-05-02T15:45:21.061Z</time></trkpt><trkpt lat="43.1716184" lon="11.5624943"><ele>355.0</ele><time>2026-05-02T15:45:22.288Z</time></trkpt><trkpt lat="43.1717529" lon="11.5623117"><ele>354.6</ele><time>2026-05-02T15:45:23.522Z</time></trkpt><trkpt lat="43.1718469" lon="11.5622259"><ele>354.2</ele><time>2026-05-02T15:45:24.55Z</time></trkpt><trkpt lat="43.1719187" lon="11.5621561"><ele>353.79999999999995</ele><time>2026-05-02T15:45:25.513Z</time></trkpt><trkpt lat="43.1719929" lon="11.562095"><ele>353.4</ele><time>2026-05-02T15:45:26.546Z</time></trkpt><trkpt lat="43.1720662" lon="11.5620299"><ele>353.0</ele><time>2026-05-02T15:45:27.569Z</time></trkpt><trkpt lat="43.1721343" lon="11.5619685"><ele>351.59999999999997</ele><time>2026-05-02T15:45:28.616Z</time></trkpt><trkpt lat="43.172194" lon="11.561921"><ele>350.2</ele><time>2026-05-02T15:45:29.779Z</time></trkpt><trkpt lat="43.1723162" lon="11.5618708"><ele>348.8</ele><time>2026-05-02T15:45:32.344Z</time></trkpt><trkpt lat="43.1724564" lon="11.5618307"><ele>347.4</ele><time>2026-05-02T15:45:33.793Z</time></trkpt><trkpt lat="43.1725223" lon="11.5618047"><ele>346.0</ele><time>2026-05-02T15:45:34.945Z</time></trkpt><trkpt lat="43.172588" lon="11.5617773"><ele>343.20000000000005</ele><time>2026-05-02T15:45:36.165Z</time></trkpt><trkpt lat="43.1726465" lon="11.5617437"><ele>340.40000000000003</ele><time>2026-05-02T15:45:37.339Z</time></trkpt><trkpt lat="43.1727417" lon="11.5616943"><ele>337.6</ele><time>2026-05-02T15:45:38.508Z</time></trkpt><trkpt lat="43.1728251" lon="11.5616432"><ele>334.8</ele><time>2026-05-02T15:45:41.528Z</time></trkpt><trkpt lat="43.1729005" lon="11.5615691"><ele>332.0</ele><time>2026-05-02T15:45:52.61Z</time></trkpt><trkpt lat="43.1730014" lon="11.5614733"><ele>332.0</ele><time>2026-05-02T15:45:55.5Z</time></trkpt><trkpt lat="43.1730846" lon="11.5614453"><ele>332.0</ele><time>2026-05-02T15:46:16.497Z</time></trkpt><trkpt lat="43.1731848" lon="11.5614253"><ele>332.0</ele><time>2026-05-02T15:46:18.532Z</time></trkpt><trkpt lat="43.1732539" lon="11.5614047"><ele>332.0</ele><time>2026-05-02T15:46:19.528Z</time></trkpt><trkpt lat="43.1733219" lon="11.5613658"><ele>332.0</ele><time>2026-05-02T15:46:20.601Z</time></trkpt><trkpt lat="43.1733876" lon="11.5613202"><ele>332.0</ele><time>2026-05-02T15:46:21.64Z</time></trkpt><trkpt lat="43.1734568" lon="11.5612713"><ele>331.83333333333337</ele><time>2026-05-02T15:46:22.612Z</time></trkpt><trkpt lat="43.1735239" lon="11.5612236"><ele>331.6666666666667</ele><time>2026-05-02T15:46:23.693Z</time></trkpt><trkpt lat="43.173589" lon="11.5611867"><ele>331.5</ele><time>2026-05-02T15:46:24.73Z</time></trkpt><trkpt lat="43.1736583" lon="11.5611642"><ele>331.3333333333333</ele><time>2026-05-02T15:46:25.689Z</time></trkpt><trkpt lat="43.1737308" lon="11.5611446"><ele>331.16666666666663</ele><time>2026-05-02T15:46:26.683Z</time></trkpt><trkpt lat="43.1738025" lon="11.5611332"><ele>331.0</ele><time>2026-05-02T15:46:27.641Z</time></trkpt><trkpt lat="43.173959" lon="11.5610909"><ele>334.0</ele><time>2026-05-02T15:46:29.528Z</time></trkpt><trkpt lat="43.1740457" lon="11.5610645"><ele>337.0</ele><time>2026-05-02T15:46:30.577Z</time></trkpt><trkpt lat="43.1741371" lon="11.561045"><ele>340.0</ele><time>2026-05-02T15:46:31.641Z</time></trkpt><trkpt lat="43.1742279" lon="11.5610355"><ele>343.0</ele><time>2026-05-02T15:46:32.952Z</time></trkpt><trkpt lat="43.1743065" lon="11.561044"><ele>346.0</ele><time>2026-05-02T15:46:34.28Z</time></trkpt><trkpt lat="43.174451" lon="11.5611086"><ele>346.0</ele><time>2026-05-02T15:46:35.532Z</time></trkpt><trkpt lat="43.1745091" lon="11.5611753"><ele>346.0</ele><time>2026-05-02T15:46:36.522Z</time></trkpt><trkpt lat="43.1745616" lon="11.5612403"><ele>346.0</ele><time>2026-05-02T15:46:37.506Z</time></trkpt><trkpt lat="43.1746661" lon="11.5612733"><ele>346.0</ele><time>2026-05-02T15:46:39.619Z</time></trkpt><trkpt lat="43.1747553" lon="11.5611873"><ele>346.0</ele><time>2026-05-02T15:46:42.311Z</time></trkpt><trkpt lat="43.1748366" lon="11.5610691"><ele>348.66666666666663</ele><time>2026-05-02T15:46:43.493Z</time></trkpt><trkpt lat="43.1748824" lon="11.5609778"><ele>351.3333333333333</ele><time>2026-05-02T15:46:44.519Z</time></trkpt><trkpt lat="43.1749333" lon="11.5608859"><ele>354.0</ele><time>2026-05-02T15:46:45.554Z</time></trkpt><trkpt lat="43.1749842" lon="11.5608011"><ele>356.6666666666667</ele><time>2026-05-02T15:46:46.575Z</time></trkpt><trkpt lat="43.175028" lon="11.5607358"><ele>359.33333333333337</ele><time>2026-05-02T15:46:47.577Z</time></trkpt><trkpt lat="43.1750901" lon="11.5606472"><ele>362.0</ele><time>2026-05-02T15:46:49.623Z</time></trkpt><trkpt lat="43.1751191" lon="11.5605366"><ele>361.25</ele><time>2026-05-02T15:46:57.745Z</time></trkpt><trkpt lat="43.1751069" lon="11.5603571"><ele>360.5</ele><time>2026-05-02T15:46:59.98Z</time></trkpt><trkpt lat="43.1750882" lon="11.5602701"><ele>359.75</ele><time>2026-05-02T15:47:01.12Z</time></trkpt><trkpt lat="43.1750752" lon="11.5600279"><ele>359.0</ele><time>2026-05-02T15:47:03.851Z</time></trkpt><trkpt lat="43.175084" lon="11.5599242"><ele>359.0</ele><time>2026-05-02T15:47:06.136Z</time></trkpt><trkpt lat="43.1751275" lon="11.5598471"><ele>359.0</ele><time>2026-05-02T15:47:16.625Z</time></trkpt><trkpt lat="43.1752045" lon="11.559872"><ele>359.0</ele><time>2026-05-02T15:47:22.555Z</time></trkpt><trkpt lat="43.1752568" lon="11.5599799"><ele>359.0</ele><time>2026-05-02T15:47:24.63Z</time></trkpt><trkpt lat="43.1752916" lon="11.5600558"><ele>359.0</ele><time>2026-05-02T15:47:25.623Z</time></trkpt><trkpt lat="43.1753206" lon="11.5601377"><ele>359.0</ele><time>2026-05-02T15:47:26.71Z</time></trkpt><trkpt lat="43.1753492" lon="11.5602158"><ele>359.0</ele><time>2026-05-02T15:47:27.682Z</time></trkpt><trkpt lat="43.1753762" lon="11.5603006"><ele>359.5</ele><time>2026-05-02T15:47:28.816Z</time></trkpt><trkpt lat="43.1754033" lon="11.5603828"><ele>360.0</ele><time>2026-05-02T15:47:29.868Z</time></trkpt><trkpt lat="43.175464" lon="11.5605298"><ele>360.5</ele><time>2026-05-02T15:47:31.502Z</time></trkpt><trkpt lat="43.1755055" lon="11.5606178"><ele>361.0</ele><time>2026-05-02T15:47:33.52Z</time></trkpt><trkpt lat="43.1755958" lon="11.5606325"><ele>361.5</ele><time>2026-05-02T15:47:36.805Z</time></trkpt><trkpt lat="43.1756602" lon="11.5606004"><ele>362.0</ele><time>2026-05-02T15:47:38.118Z</time></trkpt><trkpt lat="43.1757342" lon="11.5605388"><ele>363.5</ele><time>2026-05-02T15:47:39.116Z</time></trkpt><trkpt lat="43.1759001" lon="11.5604203"><ele>365.0</ele><time>2026-05-02T15:47:40.501Z</time></trkpt><trkpt lat="43.1760014" lon="11.5603522"><ele>366.5</ele><time>2026-05-02T15:47:41.508Z</time></trkpt><trkpt lat="43.176104" lon="11.5602884"><ele>368.0</ele><time>2026-05-02T15:47:42.509Z</time></trkpt><trkpt lat="43.1762032" lon="11.560231"><ele>369.79999999999995</ele><time>2026-05-02T15:47:43.504Z</time></trkpt><trkpt lat="43.1763013" lon="11.5601799"><ele>371.6</ele><time>2026-05-02T15:47:44.505Z</time></trkpt><trkpt lat="43.1763942" lon="11.5601234"><ele>373.4</ele><time>2026-05-02T15:47:45.533Z</time></trkpt><trkpt lat="43.1764835" lon="11.560063"><ele>375.20000000000005</ele><time>2026-05-02T15:47:46.532Z</time></trkpt><trkpt lat="43.1765785" lon="11.5600042"><ele>377.0</ele><time>2026-05-02T15:47:47.574Z</time></trkpt><trkpt lat="43.176672" lon="11.5599409"><ele>377.0</ele><time>2026-05-02T15:47:48.561Z</time></trkpt><trkpt lat="43.1767688" lon="11.5598817"><ele>377.0</ele><time>2026-05-02T15:47:49.504Z</time></trkpt><trkpt lat="43.1768624" lon="11.5598238"><ele>377.0</ele><time>2026-05-02T15:47:50.528Z</time></trkpt><trkpt lat="43.1769555" lon="11.5597663"><ele>377.0</ele><time>2026-05-02T15:47:51.534Z</time></trkpt><trkpt lat="43.1770486" lon="11.559711"><ele>377.0</ele><time>2026-05-02T15:47:52.498Z</time></trkpt><trkpt lat="43.1771349" lon="11.559662"><ele>377.0</ele><time>2026-05-02T15:47:53.505Z</time></trkpt><trkpt lat="43.1772131" lon="11.5596138"><ele>377.0</ele><time>2026-05-02T15:47:54.502Z</time></trkpt><trkpt lat="43.1772804" lon="11.5595659"><ele>377.0</ele><time>2026-05-02T15:47:55.519Z</time></trkpt><trkpt lat="43.1773352" lon="11.5595088"><ele>377.0</ele><time>2026-05-02T15:47:56.564Z</time></trkpt><trkpt lat="43.1773783" lon="11.5594355"><ele>377.0</ele><time>2026-05-02T15:47:57.635Z</time></trkpt><trkpt lat="43.1773961" lon="11.5592825"><ele>377.0</ele><time>2026-05-02T15:48:00.408Z</time></trkpt><trkpt lat="43.1773536" lon="11.5591615"><ele>378.1428571428571</ele><time>2026-05-02T15:48:01.495Z</time></trkpt><trkpt lat="43.1773047" lon="11.5591064"><ele>379.2857142857143</ele><time>2026-05-02T15:48:02.509Z</time></trkpt><trkpt lat="43.1772573" lon="11.559046"><ele>380.42857142857144</ele><time>2026-05-02T15:48:03.566Z</time></trkpt><trkpt lat="43.1772107" lon="11.5589823"><ele>381.57142857142856</ele><time>2026-05-02T15:48:04.577Z</time></trkpt><trkpt lat="43.1771663" lon="11.55892"><ele>382.7142857142857</ele><time>2026-05-02T15:48:05.542Z</time></trkpt><trkpt lat="43.1771087" lon="11.5588191"><ele>383.85714285714283</ele><time>2026-05-02T15:48:07.534Z</time></trkpt><trkpt lat="43.1770739" lon="11.5587288"><ele>385.0</ele><time>2026-05-02T15:48:09.573Z</time></trkpt><trkpt lat="43.1770386" lon="11.5586327"><ele>385.00000000000006</ele><time>2026-05-02T15:48:11.559Z</time></trkpt><trkpt lat="43.1769947" lon="11.558531"><ele>385.0</ele><time>2026-05-02T15:48:13.512Z</time></trkpt><trkpt lat="43.1769409" lon="11.5584512"><ele>385.0</ele><time>2026-05-02T15:48:15.558Z</time></trkpt><trkpt lat="43.176892" lon="11.5583696"><ele>385.0</ele><time>2026-05-02T15:48:17.592Z</time></trkpt><trkpt lat="43.1768374" lon="11.558271"><ele>385.00000000000006</ele><time>2026-05-02T15:48:19.676Z</time></trkpt><trkpt lat="43.17676" lon="11.5581686"><ele>385.0</ele><time>2026-05-02T15:48:21.744Z</time></trkpt><trkpt lat="43.1766767" lon="11.5580797"><ele>385.0</ele><time>2026-05-02T15:48:23.762Z</time></trkpt><trkpt lat="43.1765893" lon="11.5579918"><ele>385.0</ele><time>2026-05-02T15:48:26.121Z</time></trkpt><trkpt lat="43.1765073" lon="11.5579165"><ele>385.0</ele><time>2026-05-02T15:48:27.903Z</time></trkpt><trkpt lat="43.1764277" lon="11.5578237"><ele>385.0</ele><time>2026-05-02T15:48:30.627Z</time></trkpt><trkpt lat="43.1763768" lon="11.5577606"><ele>385.0</ele><time>2026-05-02T15:48:34.497Z</time></trkpt><trkpt lat="43.1763141" lon="11.5576991"><ele>384.33333333333337</ele><time>2026-05-02T15:48:39.798Z</time></trkpt><trkpt lat="43.1762201" lon="11.5577168"><ele>383.6666666666667</ele><time>2026-05-02T15:48:42.524Z</time></trkpt><trkpt lat="43.176138" lon="11.557743"><ele>383.0</ele><time>2026-05-02T15:48:44.6Z</time></trkpt><trkpt lat="43.176076" lon="11.5577812"><ele>382.33333333333337</ele><time>2026-05-02T15:48:46.751Z</time></trkpt><trkpt lat="43.1760257" lon="11.5578516"><ele>381.6666666666667</ele><time>2026-05-02T15:48:49.046Z</time></trkpt><trkpt lat="43.1759958" lon="11.5579475"><ele>381.0</ele><time>2026-05-02T15:48:50.785Z</time></trkpt><trkpt lat="43.1759382" lon="11.5580871"><ele>381.0</ele><time>2026-05-02T15:48:53.476Z</time></trkpt><trkpt lat="43.1758902" lon="11.5581788"><ele>381.0</ele><time>2026-05-02T15:48:55.509Z</time></trkpt><trkpt lat="43.1758416" lon="11.5582538"><ele>381.0</ele><time>2026-05-02T15:48:57.581Z</time></trkpt><trkpt lat="43.1757575" lon="11.5583191"><ele>381.0</ele><time>2026-05-02T15:49:00.725Z</time></trkpt><trkpt lat="43.1756883" lon="11.5583174"><ele>381.0</ele><time>2026-05-02T15:49:03.077Z</time></trkpt><trkpt lat="43.175617" lon="11.5583576"><ele>381.0</ele><time>2026-05-02T15:49:05.902Z</time></trkpt><trkpt lat="43.1755198" lon="11.5585169"><ele>375.75</ele><time>2026-05-02T15:49:09.365Z</time></trkpt><trkpt lat="43.1754486" lon="11.5586507"><ele>370.5</ele><time>2026-05-02T15:49:11.058Z</time></trkpt><trkpt lat="43.1754132" lon="11.558729"><ele>365.25</ele><time>2026-05-02T15:49:12.17Z</time></trkpt><trkpt lat="43.1753622" lon="11.558873"><ele>360.0</ele><time>2026-05-02T15:49:13.746Z</time></trkpt><trkpt lat="43.1752831" lon="11.5590578"><ele>360.0</ele><time>2026-05-02T15:49:16.779Z</time></trkpt><trkpt lat="43.1752559" lon="11.5591385"><ele>360.0</ele><time>2026-05-02T15:49:17.73Z</time></trkpt><trkpt lat="43.175225" lon="11.5592319"><ele>360.0</ele><time>2026-05-02T15:49:18.744Z</time></trkpt><trkpt lat="43.1751954" lon="11.5593317"><ele>360.0</ele><time>2026-05-02T15:49:19.734Z</time></trkpt><trkpt lat="43.1751689" lon="11.5594271"><ele>360.0</ele><time>2026-05-02T15:49:20.834Z</time></trkpt><trkpt lat="43.1751426" lon="11.5595201"><ele>360.0</ele><time>2026-05-02T15:49:22.017Z</time></trkpt><trkpt lat="43.1751256" lon="11.5596059"><ele>360.0</ele><time>2026-05-02T15:49:23.299Z</time></trkpt><trkpt lat="43.1751122" lon="11.559767"><ele>359.8</ele><time>2026-05-02T15:49:25.169Z</time></trkpt><trkpt lat="43.175126" lon="11.5598518"><ele>359.6</ele><time>2026-05-02T15:49:26.411Z</time></trkpt><trkpt lat="43.1751669" lon="11.5600159"><ele>359.4</ele><time>2026-05-02T15:49:27.87Z</time></trkpt><trkpt lat="43.1752485" lon="11.5602076"><ele>359.2</ele><time>2026-05-02T15:49:29.503Z</time></trkpt><trkpt lat="43.1752999" lon="11.5603089"><ele>359.0</ele><time>2026-05-02T15:49:30.541Z</time></trkpt><trkpt lat="43.1753501" lon="11.5604073"><ele>359.6</ele><time>2026-05-02T15:49:31.563Z</time></trkpt><trkpt lat="43.1753941" lon="11.5604958"><ele>360.2</ele><time>2026-05-02T15:49:32.576Z</time></trkpt><trkpt lat="43.175438" lon="11.5605697"><ele>360.8</ele><time>2026-05-02T15:49:33.576Z</time></trkpt><trkpt lat="43.1755005" lon="11.5606645"><ele>361.40000000000003</ele><time>2026-05-02T15:49:35.699Z</time></trkpt><trkpt lat="43.1756424" lon="11.560647"><ele>362.0</ele><time>2026-05-02T15:49:40.529Z</time></trkpt><trkpt lat="43.1757171" lon="11.5605751"><ele>363.5</ele><time>2026-05-02T15:49:41.498Z</time></trkpt><trkpt lat="43.1758072" lon="11.5605046"><ele>365.0</ele><time>2026-05-02T15:49:42.505Z</time></trkpt><trkpt lat="43.1759114" lon="11.5604232"><ele>366.5</ele><time>2026-05-02T15:49:43.5Z</time></trkpt><trkpt lat="43.1760262" lon="11.5603416"><ele>368.0</ele><time>2026-05-02T15:49:44.503Z</time></trkpt><trkpt lat="43.1761354" lon="11.5602663"><ele>370.25</ele><time>2026-05-02T15:49:45.509Z</time></trkpt><trkpt lat="43.1762448" lon="11.5601968"><ele>372.5</ele><time>2026-05-02T15:49:46.496Z</time></trkpt><trkpt lat="43.1763554" lon="11.5601261"><ele>374.75</ele><time>2026-05-02T15:49:47.518Z</time></trkpt><trkpt lat="43.1764727" lon="11.560051"><ele>377.0</ele><time>2026-05-02T15:49:48.527Z</time></trkpt><trkpt lat="43.1765918" lon="11.5599748"><ele>377.0</ele><time>2026-05-02T15:49:49.535Z</time></trkpt><trkpt lat="43.1767147" lon="11.5598926"><ele>377.0</ele><time>2026-05-02T15:49:50.539Z</time></trkpt><trkpt lat="43.1768425" lon="11.5598147"><ele>377.0</ele><time>2026-05-02T15:49:51.501Z</time></trkpt><trkpt lat="43.1769618" lon="11.5597391"><ele>377.0</ele><time>2026-05-02T15:49:52.524Z</time></trkpt><trkpt lat="43.1770735" lon="11.5596736"><ele>377.0</ele><time>2026-05-02T15:49:53.528Z</time></trkpt><trkpt lat="43.1771729" lon="11.559612"><ele>377.0</ele><time>2026-05-02T15:49:54.549Z</time></trkpt><trkpt lat="43.1772645" lon="11.5595446"><ele>377.0</ele><time>2026-05-02T15:49:55.597Z</time></trkpt><trkpt lat="43.1773516" lon="11.5594578"><ele>377.0</ele><time>2026-05-02T15:49:56.741Z</time></trkpt><trkpt lat="43.1774346" lon="11.5593398"><ele>377.0</ele><time>2026-05-02T15:49:57.882Z</time></trkpt><trkpt lat="43.1775176" lon="11.5592078"><ele>377.33333333333337</ele><time>2026-05-02T15:49:59.163Z</time></trkpt><trkpt lat="43.1776047" lon="11.5590777"><ele>377.6666666666667</ele><time>2026-05-02T15:50:00.134Z</time></trkpt><trkpt lat="43.1778275" lon="11.5588322"><ele>378.0</ele><time>2026-05-02T15:50:02.077Z</time></trkpt><trkpt lat="43.1780062" lon="11.5587317"><ele>375.0</ele><time>2026-05-02T15:50:03.334Z</time></trkpt><trkpt lat="43.1783513" lon="11.5585462"><ele>372.0</ele><time>2026-05-02T15:50:04.786Z</time></trkpt><trkpt lat="43.1786729" lon="11.5583371"><ele>372.0</ele><time>2026-05-02T15:50:06.51Z</time></trkpt><trkpt lat="43.1788306" lon="11.5582414"><ele>372.0</ele><time>2026-05-02T15:50:07.504Z</time></trkpt><trkpt lat="43.1789888" lon="11.5581342"><ele>372.0</ele><time>2026-05-02T15:50:08.513Z</time></trkpt><trkpt lat="43.1791482" lon="11.5580319"><ele>369.6666666666667</ele><time>2026-05-02T15:50:09.501Z</time></trkpt><trkpt lat="43.1793007" lon="11.5579276"><ele>367.33333333333337</ele><time>2026-05-02T15:50:10.499Z</time></trkpt><trkpt lat="43.1794541" lon="11.5578296"><ele>365.0</ele><time>2026-05-02T15:50:11.556Z</time></trkpt><trkpt lat="43.1795957" lon="11.5577411"><ele>365.0</ele><time>2026-05-02T15:50:12.511Z</time></trkpt><trkpt lat="43.1797254" lon="11.5576549"><ele>365.0</ele><time>2026-05-02T15:50:13.503Z</time></trkpt><trkpt lat="43.1798431" lon="11.5575776"><ele>365.0</ele><time>2026-05-02T15:50:14.535Z</time></trkpt><trkpt lat="43.1799611" lon="11.5575035"><ele>365.0</ele><time>2026-05-02T15:50:15.578Z</time></trkpt><trkpt lat="43.1800718" lon="11.5574181"><ele>362.5</ele><time>2026-05-02T15:50:16.601Z</time></trkpt><trkpt lat="43.1801757" lon="11.5572996"><ele>360.0</ele><time>2026-05-02T15:50:17.659Z</time></trkpt><trkpt lat="43.1802689" lon="11.557159"><ele>357.5</ele><time>2026-05-02T15:50:18.74Z</time></trkpt><trkpt lat="43.1803519" lon="11.5569884"><ele>355.0</ele><time>2026-05-02T15:50:19.873Z</time></trkpt><trkpt lat="43.1805045" lon="11.5563759"><ele>354.3333333333333</ele><time>2026-05-02T15:50:23.137Z</time></trkpt><trkpt lat="43.1805581" lon="11.5561872"><ele>353.6666666666667</ele><time>2026-05-02T15:50:24.626Z</time></trkpt><trkpt lat="43.1806799" lon="11.5558681"><ele>353.0</ele><time>2026-05-02T15:50:26.038Z</time></trkpt><trkpt lat="43.1807663" lon="11.5557586"><ele>352.0</ele><time>2026-05-02T15:50:27.281Z</time></trkpt><trkpt lat="43.1809772" lon="11.5555652"><ele>351.0</ele><time>2026-05-02T15:50:29.022Z</time></trkpt><trkpt lat="43.1811097" lon="11.5554992"><ele>350.0</ele><time>2026-05-02T15:50:30.396Z</time></trkpt><trkpt lat="43.181382" lon="11.555362"><ele>347.5</ele><time>2026-05-02T15:50:31.493Z</time></trkpt><trkpt lat="43.1815303" lon="11.5552916"><ele>345.0</ele><time>2026-05-02T15:50:32.5Z</time></trkpt><trkpt lat="43.1816649" lon="11.5552272"><ele>342.5</ele><time>2026-05-02T15:50:33.504Z</time></trkpt><trkpt lat="43.1818009" lon="11.555153"><ele>340.0</ele><time>2026-05-02T15:50:34.501Z</time></trkpt><trkpt lat="43.1819389" lon="11.555084"><ele>340.0</ele><time>2026-05-02T15:50:35.504Z</time></trkpt><trkpt lat="43.1820808" lon="11.5550045"><ele>340.0</ele><time>2026-05-02T15:50:36.53Z</time></trkpt><trkpt lat="43.1822202" lon="11.5549175"><ele>340.0</ele><time>2026-05-02T15:50:37.534Z</time></trkpt><trkpt lat="43.1823583" lon="11.5548261"><ele>339.5</ele><time>2026-05-02T15:50:38.528Z</time></trkpt><trkpt lat="43.1824987" lon="11.5547484"><ele>339.0</ele><time>2026-05-02T15:50:39.495Z</time></trkpt><trkpt lat="43.1826344" lon="11.5546763"><ele>338.5</ele><time>2026-05-02T15:50:40.499Z</time></trkpt><trkpt lat="43.1827635" lon="11.5546114"><ele>338.0</ele><time>2026-05-02T15:50:41.509Z</time></trkpt><trkpt lat="43.1828852" lon="11.5545536"><ele>337.5</ele><time>2026-05-02T15:50:42.535Z</time></trkpt><trkpt lat="43.1829941" lon="11.5544975"><ele>337.0</ele><time>2026-05-02T15:50:43.533Z</time></trkpt><trkpt lat="43.1830941" lon="11.5544456"><ele>336.5</ele><time>2026-05-02T15:50:44.572Z</time></trkpt><trkpt lat="43.1831715" lon="11.5543801"><ele>336.0</ele><time>2026-05-02T15:50:45.639Z</time></trkpt><trkpt lat="43.1832064" lon="11.5543011"><ele>335.5</ele><time>2026-05-02T15:50:46.759Z</time></trkpt><trkpt lat="43.1832138" lon="11.5542129"><ele>335.0</ele><time>2026-05-02T15:50:48.111Z</time></trkpt><trkpt lat="43.1831414" lon="11.5540284"><ele>334.4</ele><time>2026-05-02T15:50:50.54Z</time></trkpt><trkpt lat="43.1830291" lon="11.5539883"><ele>333.8</ele><time>2026-05-02T15:50:52.586Z</time></trkpt><trkpt lat="43.1829589" lon="11.5539951"><ele>333.20000000000005</ele><time>2026-05-02T15:50:53.572Z</time></trkpt><trkpt lat="43.1828727" lon="11.5540123"><ele>332.6</ele><time>2026-05-02T15:50:54.587Z</time></trkpt><trkpt lat="43.1827697" lon="11.5540404"><ele>332.0</ele><time>2026-05-02T15:50:55.514Z</time></trkpt><trkpt lat="43.182662" lon="11.5540736"><ele>332.0</ele><time>2026-05-02T15:50:56.51Z</time></trkpt><trkpt lat="43.1825478" lon="11.5541075"><ele>332.0</ele><time>2026-05-02T15:50:57.484Z</time></trkpt><trkpt lat="43.1824223" lon="11.5541516"><ele>332.0</ele><time>2026-05-02T15:50:58.49Z</time></trkpt><trkpt lat="43.1822868" lon="11.5542061"><ele>332.0</ele><time>2026-05-02T15:50:59.511Z</time></trkpt><trkpt lat="43.1821473" lon="11.5542651"><ele>328.75</ele><time>2026-05-02T15:51:00.51Z</time></trkpt><trkpt lat="43.182014" lon="11.5543241"><ele>325.5</ele><time>2026-05-02T15:51:01.494Z</time></trkpt><trkpt lat="43.1818927" lon="11.5543721"><ele>322.25</ele><time>2026-05-02T15:51:02.484Z</time></trkpt><trkpt lat="43.181779" lon="11.5544143"><ele>319.0</ele><time>2026-05-02T15:51:03.485Z</time></trkpt><trkpt lat="43.1816711" lon="11.5544519"><ele>319.0</ele><time>2026-05-02T15:51:04.501Z</time></trkpt><trkpt lat="43.1815686" lon="11.5544874"><ele>319.0</ele><time>2026-05-02T15:51:05.544Z</time></trkpt><trkpt lat="43.1814649" lon="11.5545154"><ele>319.0</ele><time>2026-05-02T15:51:06.639Z</time></trkpt><trkpt lat="43.1813577" lon="11.5545209"><ele>319.0</ele><time>2026-05-02T15:51:07.718Z</time></trkpt><trkpt lat="43.1812425" lon="11.5545035"><ele>319.0</ele><time>2026-05-02T15:51:08.651Z</time></trkpt><trkpt lat="43.1811163" lon="11.5544593"><ele>318.5</ele><time>2026-05-02T15:51:09.648Z</time></trkpt><trkpt lat="43.1809752" lon="11.5543995"><ele>318.0</ele><time>2026-05-02T15:51:10.914Z</time></trkpt><trkpt lat="43.1806705" lon="11.5542626"><ele>317.3333333333333</ele><time>2026-05-02T15:51:12.581Z</time></trkpt><trkpt lat="43.1805259" lon="11.5541994"><ele>316.66666666666663</ele><time>2026-05-02T15:51:14.488Z</time></trkpt><trkpt lat="43.1802707" lon="11.554106"><ele>316.0</ele><time>2026-05-02T15:51:15.88Z</time></trkpt><trkpt lat="43.180159" lon="11.5540536"><ele>316.0</ele><time>2026-05-02T15:51:17.34Z</time></trkpt><trkpt lat="43.1799976" lon="11.5539216"><ele>316.0</ele><time>2026-05-02T15:51:18.914Z</time></trkpt><trkpt lat="43.1799321" lon="11.5537001"><ele>316.0</ele><time>2026-05-02T15:51:20.57Z</time></trkpt><trkpt lat="43.1799271" lon="11.5535709"><ele>314.25</ele><time>2026-05-02T15:51:21.634Z</time></trkpt><trkpt lat="43.1799458" lon="11.5534231"><ele>312.5</ele><time>2026-05-02T15:51:22.772Z</time></trkpt><trkpt lat="43.1799994" lon="11.5532584"><ele>310.75</ele><time>2026-05-02T15:51:24.018Z</time></trkpt><trkpt lat="43.1800567" lon="11.5530682"><ele>309.0</ele><time>2026-05-02T15:51:25.297Z</time></trkpt><trkpt lat="43.1801721" lon="11.5527183"><ele>306.25</ele><time>2026-05-02T15:51:26.968Z</time></trkpt><trkpt lat="43.1802112" lon="11.5525723"><ele>303.5</ele><time>2026-05-02T15:51:27.994Z</time></trkpt><trkpt lat="43.1802139" lon="11.5523242"><ele>300.75</ele><time>2026-05-02T15:51:29.539Z</time></trkpt><trkpt lat="43.1801659" lon="11.5522191"><ele>298.0</ele><time>2026-05-02T15:51:30.583Z</time></trkpt><trkpt lat="43.1801021" lon="11.5521369"><ele>298.0</ele><time>2026-05-02T15:51:31.629Z</time></trkpt><trkpt lat="43.180007" lon="11.5520582"><ele>298.0</ele><time>2026-05-02T15:51:32.765Z</time></trkpt><trkpt lat="43.1799123" lon="11.5519821"><ele>298.0</ele><time>2026-05-02T15:51:34.027Z</time></trkpt><trkpt lat="43.1798236" lon="11.551887"><ele>298.0</ele><time>2026-05-02T15:51:35.248Z</time></trkpt><trkpt lat="43.1796721" lon="11.5516843"><ele>295.0</ele><time>2026-05-02T15:51:36.492Z</time></trkpt><trkpt lat="43.1796289" lon="11.5515393"><ele>292.0</ele><time>2026-05-02T15:51:37.525Z</time></trkpt><trkpt lat="43.1795994" lon="11.5513563"><ele>289.0</ele><time>2026-05-02T15:51:38.585Z</time></trkpt><trkpt lat="43.1795838" lon="11.5511607"><ele>286.0</ele><time>2026-05-02T15:51:39.762Z</time></trkpt><trkpt lat="43.1795775" lon="11.5509703"><ele>286.0</ele><time>2026-05-02T15:51:40.812Z</time></trkpt><trkpt lat="43.1795735" lon="11.5507959"><ele>286.0</ele><time>2026-05-02T15:51:42.146Z</time></trkpt><trkpt lat="43.1795627" lon="11.5506361"><ele>286.0</ele><time>2026-05-02T15:51:43.145Z</time></trkpt><trkpt lat="43.1795411" lon="11.550484"><ele>286.0</ele><time>2026-05-02T15:51:44.166Z</time></trkpt><trkpt lat="43.1794244" lon="11.5502178"><ele>287.5</ele><time>2026-05-02T15:51:45.906Z</time></trkpt><trkpt lat="43.1793337" lon="11.5500928"><ele>289.0</ele><time>2026-05-02T15:51:46.958Z</time></trkpt><trkpt lat="43.1792403" lon="11.5499645"><ele>290.5</ele><time>2026-05-02T15:51:48.068Z</time></trkpt><trkpt lat="43.1791413" lon="11.5498299"><ele>292.0</ele><time>2026-05-02T15:51:48.949Z</time></trkpt><trkpt lat="43.1790526" lon="11.5496945"><ele>292.3333333333333</ele><time>2026-05-02T15:51:50.45Z</time></trkpt><trkpt lat="43.1789041" lon="11.5494362"><ele>292.6666666666667</ele><time>2026-05-02T15:51:51.861Z</time></trkpt><trkpt lat="43.1788539" lon="11.5493005"><ele>293.0</ele><time>2026-05-02T15:51:53.105Z</time></trkpt><trkpt lat="43.1788142" lon="11.5491695"><ele>293.0</ele><time>2026-05-02T15:51:54.277Z</time></trkpt><trkpt lat="43.1787513" lon="11.5489129"><ele>293.0</ele><time>2026-05-02T15:51:56.018Z</time></trkpt><trkpt lat="43.1787509" lon="11.5487615"><ele>293.0</ele><time>2026-05-02T15:51:57.298Z</time></trkpt><trkpt lat="43.1787461" lon="11.5484533"><ele>296.25</ele><time>2026-05-02T15:51:58.78Z</time></trkpt><trkpt lat="43.178753" lon="11.5482862"><ele>299.5</ele><time>2026-05-02T15:51:59.92Z</time></trkpt><trkpt lat="43.1787635" lon="11.5481218"><ele>302.75</ele><time>2026-05-02T15:52:00.982Z</time></trkpt><trkpt lat="43.1787761" lon="11.5479601"><ele>306.0</ele><time>2026-05-02T15:52:02.055Z</time></trkpt><trkpt lat="43.1788002" lon="11.5478008"><ele>306.0</ele><time>2026-05-02T15:52:03.293Z</time></trkpt><trkpt lat="43.1788371" lon="11.5475107"><ele>306.0</ele><time>2026-05-02T15:52:04.917Z</time></trkpt><trkpt lat="43.1788717" lon="11.5474025"><ele>306.0</ele><time>2026-05-02T15:52:06.087Z</time></trkpt><trkpt lat="43.1789127" lon="11.5473155"><ele>306.0</ele><time>2026-05-02T15:52:07.237Z</time></trkpt><trkpt lat="43.1789921" lon="11.5471893"><ele>306.0</ele><time>2026-05-02T15:52:09.17Z</time></trkpt><trkpt lat="43.1789071" lon="11.547219"><ele>306.0</ele><time>2026-05-02T15:52:13.633Z</time></trkpt><trkpt lat="43.1787998" lon="11.5472939"><ele>306.0</ele><time>2026-05-02T15:52:15.801Z</time></trkpt><trkpt lat="43.1786523" lon="11.5473514"><ele>306.0</ele><time>2026-05-02T15:52:17.496Z</time></trkpt><trkpt lat="43.1785546" lon="11.5473788"><ele>306.0</ele><time>2026-05-02T15:52:18.517Z</time></trkpt><trkpt lat="43.1784518" lon="11.5474112"><ele>306.0</ele><time>2026-05-02T15:52:19.516Z</time></trkpt><trkpt lat="43.1783583" lon="11.5474458"><ele>306.0</ele><time>2026-05-02T15:52:20.482Z</time></trkpt><trkpt lat="43.178278" lon="11.5474851"><ele>306.0</ele><time>2026-05-02T15:52:21.486Z</time></trkpt><trkpt lat="43.178203" lon="11.5475225"><ele>306.0</ele><time>2026-05-02T15:52:22.52Z</time></trkpt><trkpt lat="43.1781251" lon="11.5475608"><ele>306.0</ele><time>2026-05-02T15:52:23.475Z</time></trkpt><trkpt lat="43.1780592" lon="11.5476002"><ele>306.0</ele><time>2026-05-02T15:52:24.493Z</time></trkpt><trkpt lat="43.1779919" lon="11.5476296"><ele>306.0</ele><time>2026-05-02T15:52:25.572Z</time></trkpt><trkpt lat="43.1779286" lon="11.5476501"><ele>306.0</ele><time>2026-05-02T15:52:26.717Z</time></trkpt><trkpt lat="43.1778525" lon="11.5476571"><ele>306.0</ele><time>2026-05-02T15:52:27.739Z</time></trkpt><trkpt lat="43.177773" lon="11.5476393"><ele>306.0</ele><time>2026-05-02T15:52:28.8Z</time></trkpt><trkpt lat="43.1776458" lon="11.5475679"><ele>306.0</ele><time>2026-05-02T15:52:30.497Z</time></trkpt><trkpt lat="43.1775569" lon="11.5474869"><ele>306.0</ele><time>2026-05-02T15:52:32.579Z</time></trkpt><trkpt lat="43.1774945" lon="11.5474603"><ele>306.0</ele><time>2026-05-02T15:52:35.702Z</time></trkpt><trkpt lat="43.1774132" lon="11.5475473"><ele>306.0</ele><time>2026-05-02T15:52:37.525Z</time></trkpt><trkpt lat="43.1773597" lon="11.5476145"><ele>306.0</ele><time>2026-05-02T15:52:39.508Z</time></trkpt><trkpt lat="43.1774648" lon="11.5475885"><ele>306.0</ele><time>2026-05-02T15:52:59.54Z</time></trkpt><trkpt lat="43.1775205" lon="11.547527"><ele>306.0</ele><time>2026-05-02T15:53:02.335Z</time></trkpt><trkpt lat="43.1775024" lon="11.5474246"><ele>306.0</ele><time>2026-05-02T15:53:08.176Z</time></trkpt></trkseg></trk></gpx>